<?xml version="1.0" encoding="UTF-8" standalone="no" ?>
<gpx xmlns="http://www.topografix.com/GPX/1/1" xmlns:xsi="http://www.w3.org/2001/XMLSchema-instance" xsi:schemaLocation="http://www.topografix.com/GPX/1/1 http://www.topografix.com/GPX/1/1/gpx.xsd" version="1.1" creator="VisuGPX - https://www.visugpx.com">
  <metadata>
    <name>L'Agenaise J1</name>
    <desc><![CDATA[Une virée au nord d'Agen, vers le Quercy]]></desc>
  </metadata>
  <trk>
    <name><![CDATA[Sortie à vélo matinale]]></name>
    <trkseg>
      <trkpt lat="44.20801" lon="0.62069">
        <ele>52.3</ele>
        <time>2016-05-15T07:39:41Z</time>
      </trkpt>
      <trkpt lat="44.208" lon="0.62066">
        <ele>52.3</ele>
        <time>2016-05-15T07:40:08Z</time>
      </trkpt>
      <trkpt lat="44.20798" lon="0.62072">
        <ele>52.5</ele>
        <time>2016-05-15T07:40:11Z</time>
      </trkpt>
      <trkpt lat="44.20799" lon="0.62074">
        <ele>52.5</ele>
        <time>2016-05-15T07:40:15Z</time>
      </trkpt>
      <trkpt lat="44.20798" lon="0.62083">
        <ele>52.7</ele>
        <time>2016-05-15T07:40:31Z</time>
      </trkpt>
      <trkpt lat="44.20798" lon="0.62087">
        <ele>52.8</ele>
        <time>2016-05-15T07:40:32Z</time>
      </trkpt>
      <trkpt lat="44.20794" lon="0.6212">
        <ele>53.8</ele>
        <time>2016-05-15T07:40:39Z</time>
      </trkpt>
      <trkpt lat="44.20794" lon="0.62134">
        <ele>53.7</ele>
        <time>2016-05-15T07:40:42Z</time>
      </trkpt>
      <trkpt lat="44.20791" lon="0.62152">
        <ele>53.4</ele>
        <time>2016-05-15T07:40:46Z</time>
      </trkpt>
      <trkpt lat="44.20783" lon="0.62187">
        <ele>52.7</ele>
        <time>2016-05-15T07:40:54Z</time>
      </trkpt>
      <trkpt lat="44.20778" lon="0.62227">
        <ele>51.9</ele>
        <time>2016-05-15T07:41:01Z</time>
      </trkpt>
      <trkpt lat="44.20777" lon="0.62233">
        <ele>51.8</ele>
        <time>2016-05-15T07:41:02Z</time>
      </trkpt>
      <trkpt lat="44.20773" lon="0.62267">
        <ele>51</ele>
        <time>2016-05-15T07:41:08Z</time>
      </trkpt>
      <trkpt lat="44.20762" lon="0.62293">
        <ele>50.7</ele>
        <time>2016-05-15T07:41:14Z</time>
      </trkpt>
      <trkpt lat="44.20743" lon="0.6231">
        <ele>50.9</ele>
        <time>2016-05-15T07:41:20Z</time>
      </trkpt>
      <trkpt lat="44.20731" lon="0.62313">
        <ele>51.2</ele>
        <time>2016-05-15T07:41:24Z</time>
      </trkpt>
      <trkpt lat="44.20723" lon="0.62331">
        <ele>51.2</ele>
        <time>2016-05-15T07:41:28Z</time>
      </trkpt>
      <trkpt lat="44.20708" lon="0.6235">
        <ele>51.3</ele>
        <time>2016-05-15T07:41:33Z</time>
      </trkpt>
      <trkpt lat="44.207" lon="0.62357">
        <ele>51.3</ele>
        <time>2016-05-15T07:41:35Z</time>
      </trkpt>
      <trkpt lat="44.20691" lon="0.62369">
        <ele>51.3</ele>
        <time>2016-05-15T07:41:38Z</time>
      </trkpt>
      <trkpt lat="44.20669" lon="0.62401">
        <ele>51.6</ele>
        <time>2016-05-15T07:41:45Z</time>
      </trkpt>
      <trkpt lat="44.20646" lon="0.62436">
        <ele>52.3</ele>
        <time>2016-05-15T07:41:53Z</time>
      </trkpt>
      <trkpt lat="44.20618" lon="0.62477">
        <ele>53</ele>
        <time>2016-05-15T07:42:02Z</time>
      </trkpt>
      <trkpt lat="44.20603" lon="0.62505">
        <ele>53.1</ele>
        <time>2016-05-15T07:42:09Z</time>
      </trkpt>
      <trkpt lat="44.20593" lon="0.62515">
        <ele>53.3</ele>
        <time>2016-05-15T07:42:15Z</time>
      </trkpt>
      <trkpt lat="44.20587" lon="0.62527">
        <ele>53.4</ele>
        <time>2016-05-15T07:42:21Z</time>
      </trkpt>
      <trkpt lat="44.2058" lon="0.62538">
        <ele>53.5</ele>
        <time>2016-05-15T07:42:26Z</time>
      </trkpt>
      <trkpt lat="44.20581" lon="0.62541">
        <ele>53.5</ele>
        <time>2016-05-15T07:42:27Z</time>
      </trkpt>
      <trkpt lat="44.20577" lon="0.62546">
        <ele>53.5</ele>
        <time>2016-05-15T07:42:30Z</time>
      </trkpt>
      <trkpt lat="44.20576" lon="0.62546">
        <ele>53.5</ele>
        <time>2016-05-15T07:42:31Z</time>
      </trkpt>
      <trkpt lat="44.20571" lon="0.62552">
        <ele>53.5</ele>
        <time>2016-05-15T07:42:33Z</time>
      </trkpt>
      <trkpt lat="44.20561" lon="0.62571">
        <ele>53.4</ele>
        <time>2016-05-15T07:42:40Z</time>
      </trkpt>
      <trkpt lat="44.20561" lon="0.62574">
        <ele>53.4</ele>
        <time>2016-05-15T07:42:41Z</time>
      </trkpt>
      <trkpt lat="44.20566" lon="0.6258">
        <ele>53.2</ele>
        <time>2016-05-15T07:42:44Z</time>
      </trkpt>
      <trkpt lat="44.20572" lon="0.62593">
        <ele>53</ele>
        <time>2016-05-15T07:42:50Z</time>
      </trkpt>
      <trkpt lat="44.20571" lon="0.62599">
        <ele>53</ele>
        <time>2016-05-15T07:42:59Z</time>
      </trkpt>
      <trkpt lat="44.20569" lon="0.62602">
        <ele>52.9</ele>
        <time>2016-05-15T07:43:02Z</time>
      </trkpt>
      <trkpt lat="44.20569" lon="0.62608">
        <ele>52.9</ele>
        <time>2016-05-15T07:43:08Z</time>
      </trkpt>
      <trkpt lat="44.20571" lon="0.6261">
        <ele>52.8</ele>
        <time>2016-05-15T07:43:09Z</time>
      </trkpt>
      <trkpt lat="44.20578" lon="0.62613">
        <ele>52.7</ele>
        <time>2016-05-15T07:43:11Z</time>
      </trkpt>
      <trkpt lat="44.20598" lon="0.62625">
        <ele>52.3</ele>
        <time>2016-05-15T07:43:17Z</time>
      </trkpt>
      <trkpt lat="44.20609" lon="0.62633">
        <ele>52.1</ele>
        <time>2016-05-15T07:43:20Z</time>
      </trkpt>
      <trkpt lat="44.20631" lon="0.62648">
        <ele>51.7</ele>
        <time>2016-05-15T07:43:26Z</time>
      </trkpt>
      <trkpt lat="44.20634" lon="0.6265">
        <ele>51.7</ele>
        <time>2016-05-15T07:43:27Z</time>
      </trkpt>
      <trkpt lat="44.20657" lon="0.62667">
        <ele>51.7</ele>
        <time>2016-05-15T07:43:33Z</time>
      </trkpt>
      <trkpt lat="44.20671" lon="0.62677">
        <ele>51.7</ele>
        <time>2016-05-15T07:43:37Z</time>
      </trkpt>
      <trkpt lat="44.20699" lon="0.62698">
        <ele>51.9</ele>
        <time>2016-05-15T07:43:45Z</time>
      </trkpt>
      <trkpt lat="44.20724" lon="0.62717">
        <ele>51.7</ele>
        <time>2016-05-15T07:43:52Z</time>
      </trkpt>
      <trkpt lat="44.20728" lon="0.6272">
        <ele>51.6</ele>
        <time>2016-05-15T07:43:53Z</time>
      </trkpt>
      <trkpt lat="44.20755" lon="0.62739">
        <ele>51.1</ele>
        <time>2016-05-15T07:44:00Z</time>
      </trkpt>
      <trkpt lat="44.20783" lon="0.62759">
        <ele>50.5</ele>
        <time>2016-05-15T07:44:07Z</time>
      </trkpt>
      <trkpt lat="44.2081" lon="0.62779">
        <ele>50.1</ele>
        <time>2016-05-15T07:44:13Z</time>
      </trkpt>
      <trkpt lat="44.2082" lon="0.62786">
        <ele>50</ele>
        <time>2016-05-15T07:44:15Z</time>
      </trkpt>
      <trkpt lat="44.20836" lon="0.62797">
        <ele>50.1</ele>
        <time>2016-05-15T07:44:18Z</time>
      </trkpt>
      <trkpt lat="44.20845" lon="0.62807">
        <ele>50.2</ele>
        <time>2016-05-15T07:44:20Z</time>
      </trkpt>
      <trkpt lat="44.20848" lon="0.62812">
        <ele>50.3</ele>
        <time>2016-05-15T07:44:21Z</time>
      </trkpt>
      <trkpt lat="44.20854" lon="0.62836">
        <ele>50.8</ele>
        <time>2016-05-15T07:44:25Z</time>
      </trkpt>
      <trkpt lat="44.20855" lon="0.62842">
        <ele>50.9</ele>
        <time>2016-05-15T07:44:26Z</time>
      </trkpt>
      <trkpt lat="44.20856" lon="0.62848">
        <ele>51</ele>
        <time>2016-05-15T07:44:27Z</time>
      </trkpt>
      <trkpt lat="44.20856" lon="0.62872">
        <ele>51.5</ele>
        <time>2016-05-15T07:44:31Z</time>
      </trkpt>
      <trkpt lat="44.20852" lon="0.62906">
        <ele>51.7</ele>
        <time>2016-05-15T07:44:36Z</time>
      </trkpt>
      <trkpt lat="44.20851" lon="0.62911">
        <ele>51.7</ele>
        <time>2016-05-15T07:44:37Z</time>
      </trkpt>
      <trkpt lat="44.20843" lon="0.62934">
        <ele>51.7</ele>
        <time>2016-05-15T07:44:42Z</time>
      </trkpt>
      <trkpt lat="44.20841" lon="0.6294">
        <ele>51.7</ele>
        <time>2016-05-15T07:44:43Z</time>
      </trkpt>
      <trkpt lat="44.20835" lon="0.62956">
        <ele>51.5</ele>
        <time>2016-05-15T07:44:46Z</time>
      </trkpt>
      <trkpt lat="44.20834" lon="0.62967">
        <ele>51.5</ele>
        <time>2016-05-15T07:44:48Z</time>
      </trkpt>
      <trkpt lat="44.20832" lon="0.62984">
        <ele>51.3</ele>
        <time>2016-05-15T07:44:51Z</time>
      </trkpt>
      <trkpt lat="44.20829" lon="0.62996">
        <ele>51.2</ele>
        <time>2016-05-15T07:44:53Z</time>
      </trkpt>
      <trkpt lat="44.20815" lon="0.63054">
        <ele>50.9</ele>
        <time>2016-05-15T07:45:02Z</time>
      </trkpt>
      <trkpt lat="44.2081" lon="0.63075">
        <ele>50.6</ele>
        <time>2016-05-15T07:45:05Z</time>
      </trkpt>
      <trkpt lat="44.20806" lon="0.63089">
        <ele>50.4</ele>
        <time>2016-05-15T07:45:07Z</time>
      </trkpt>
      <trkpt lat="44.208" lon="0.63116">
        <ele>50.1</ele>
        <time>2016-05-15T07:45:11Z</time>
      </trkpt>
      <trkpt lat="44.20788" lon="0.63173">
        <ele>49.4</ele>
        <time>2016-05-15T07:45:19Z</time>
      </trkpt>
      <trkpt lat="44.20775" lon="0.63233">
        <ele>49.2</ele>
        <time>2016-05-15T07:45:28Z</time>
      </trkpt>
      <trkpt lat="44.20772" lon="0.63247">
        <ele>49.2</ele>
        <time>2016-05-15T07:45:30Z</time>
      </trkpt>
      <trkpt lat="44.20765" lon="0.63275">
        <ele>49.3</ele>
        <time>2016-05-15T07:45:34Z</time>
      </trkpt>
      <trkpt lat="44.20756" lon="0.63316">
        <ele>49.3</ele>
        <time>2016-05-15T07:45:41Z</time>
      </trkpt>
      <trkpt lat="44.20749" lon="0.63347">
        <ele>49.2</ele>
        <time>2016-05-15T07:45:47Z</time>
      </trkpt>
      <trkpt lat="44.20748" lon="0.63353">
        <ele>49.2</ele>
        <time>2016-05-15T07:45:48Z</time>
      </trkpt>
      <trkpt lat="44.20735" lon="0.63409">
        <ele>49.8</ele>
        <time>2016-05-15T07:45:57Z</time>
      </trkpt>
      <trkpt lat="44.20726" lon="0.63466">
        <ele>50.7</ele>
        <time>2016-05-15T07:46:05Z</time>
      </trkpt>
      <trkpt lat="44.20723" lon="0.63501">
        <ele>51.2</ele>
        <time>2016-05-15T07:46:10Z</time>
      </trkpt>
      <trkpt lat="44.20721" lon="0.63522">
        <ele>51.5</ele>
        <time>2016-05-15T07:46:13Z</time>
      </trkpt>
      <trkpt lat="44.20712" lon="0.63575">
        <ele>51.1</ele>
        <time>2016-05-15T07:46:21Z</time>
      </trkpt>
      <trkpt lat="44.20705" lon="0.63606">
        <ele>50.5</ele>
        <time>2016-05-15T07:46:26Z</time>
      </trkpt>
      <trkpt lat="44.207" lon="0.63623">
        <ele>50.1</ele>
        <time>2016-05-15T07:46:29Z</time>
      </trkpt>
      <trkpt lat="44.20694" lon="0.63649">
        <ele>50.7</ele>
        <time>2016-05-15T07:46:35Z</time>
      </trkpt>
      <trkpt lat="44.20694" lon="0.63649">
        <ele>50.7</ele>
        <time>2016-05-15T07:46:39Z</time>
      </trkpt>
      <trkpt lat="44.20692" lon="0.6365">
        <ele>50.7</ele>
        <time>2016-05-15T07:46:42Z</time>
      </trkpt>
      <trkpt lat="44.2069" lon="0.63652">
        <ele>50.8</ele>
        <time>2016-05-15T07:46:43Z</time>
      </trkpt>
      <trkpt lat="44.20688" lon="0.63654">
        <ele>50.9</ele>
        <time>2016-05-15T07:46:44Z</time>
      </trkpt>
      <trkpt lat="44.20675" lon="0.63657">
        <ele>51</ele>
        <time>2016-05-15T07:46:48Z</time>
      </trkpt>
      <trkpt lat="44.2067" lon="0.63662">
        <ele>51.1</ele>
        <time>2016-05-15T07:46:51Z</time>
      </trkpt>
      <trkpt lat="44.2067" lon="0.63667">
        <ele>51.2</ele>
        <time>2016-05-15T07:46:53Z</time>
      </trkpt>
      <trkpt lat="44.20671" lon="0.63671">
        <ele>51.3</ele>
        <time>2016-05-15T07:46:56Z</time>
      </trkpt>
      <trkpt lat="44.20671" lon="0.63679">
        <ele>51.4</ele>
        <time>2016-05-15T07:47:03Z</time>
      </trkpt>
      <trkpt lat="44.2067" lon="0.63693">
        <ele>51.7</ele>
        <time>2016-05-15T07:47:11Z</time>
      </trkpt>
      <trkpt lat="44.2067" lon="0.63693">
        <ele>51.7</ele>
        <time>2016-05-15T07:47:12Z</time>
      </trkpt>
      <trkpt lat="44.2067" lon="0.63688">
        <ele>51.6</ele>
        <time>2016-05-15T07:47:14Z</time>
      </trkpt>
      <trkpt lat="44.20672" lon="0.63669">
        <ele>51.3</ele>
        <time>2016-05-15T07:47:19Z</time>
      </trkpt>
      <trkpt lat="44.20674" lon="0.63668">
        <ele>51.2</ele>
        <time>2016-05-15T07:47:20Z</time>
      </trkpt>
      <trkpt lat="44.20685" lon="0.63669">
        <ele>51.2</ele>
        <time>2016-05-15T07:47:24Z</time>
      </trkpt>
      <trkpt lat="44.20688" lon="0.6367">
        <ele>51.2</ele>
        <time>2016-05-15T07:47:25Z</time>
      </trkpt>
      <trkpt lat="44.207" lon="0.63667">
        <ele>51.1</ele>
        <time>2016-05-15T07:47:29Z</time>
      </trkpt>
      <trkpt lat="44.20714" lon="0.6366">
        <ele>50.8</ele>
        <time>2016-05-15T07:47:34Z</time>
      </trkpt>
      <trkpt lat="44.20741" lon="0.63664">
        <ele>50.6</ele>
        <time>2016-05-15T07:47:41Z</time>
      </trkpt>
      <trkpt lat="44.20749" lon="0.63664">
        <ele>50.5</ele>
        <time>2016-05-15T07:47:43Z</time>
      </trkpt>
      <trkpt lat="44.20762" lon="0.63665">
        <ele>50.3</ele>
        <time>2016-05-15T07:47:46Z</time>
      </trkpt>
      <trkpt lat="44.20768" lon="0.63671">
        <ele>50.4</ele>
        <time>2016-05-15T07:47:48Z</time>
      </trkpt>
      <trkpt lat="44.2077" lon="0.63677">
        <ele>50.5</ele>
        <time>2016-05-15T07:47:49Z</time>
      </trkpt>
      <trkpt lat="44.20775" lon="0.63709">
        <ele>51.2</ele>
        <time>2016-05-15T07:47:54Z</time>
      </trkpt>
      <trkpt lat="44.20774" lon="0.63746">
        <ele>51.1</ele>
        <time>2016-05-15T07:47:59Z</time>
      </trkpt>
      <trkpt lat="44.20781" lon="0.63793">
        <ele>51</ele>
        <time>2016-05-15T07:48:05Z</time>
      </trkpt>
      <trkpt lat="44.20792" lon="0.63842">
        <ele>51.6</ele>
        <time>2016-05-15T07:48:12Z</time>
      </trkpt>
      <trkpt lat="44.20797" lon="0.63861">
        <ele>51.9</ele>
        <time>2016-05-15T07:48:15Z</time>
      </trkpt>
      <trkpt lat="44.20799" lon="0.63873">
        <ele>52.1</ele>
        <time>2016-05-15T07:48:17Z</time>
      </trkpt>
      <trkpt lat="44.20809" lon="0.63894">
        <ele>52.2</ele>
        <time>2016-05-15T07:48:21Z</time>
      </trkpt>
      <trkpt lat="44.20825" lon="0.63901">
        <ele>52.6</ele>
        <time>2016-05-15T07:48:25Z</time>
      </trkpt>
      <trkpt lat="44.20829" lon="0.63902">
        <ele>52.7</ele>
        <time>2016-05-15T07:48:26Z</time>
      </trkpt>
      <trkpt lat="44.20834" lon="0.63903">
        <ele>52.8</ele>
        <time>2016-05-15T07:48:27Z</time>
      </trkpt>
      <trkpt lat="44.20847" lon="0.63908">
        <ele>53.2</ele>
        <time>2016-05-15T07:48:30Z</time>
      </trkpt>
      <trkpt lat="44.20868" lon="0.63906">
        <ele>53.8</ele>
        <time>2016-05-15T07:48:35Z</time>
      </trkpt>
      <trkpt lat="44.20893" lon="0.63898">
        <ele>54.7</ele>
        <time>2016-05-15T07:48:41Z</time>
      </trkpt>
      <trkpt lat="44.20911" lon="0.63899">
        <ele>55.6</ele>
        <time>2016-05-15T07:48:46Z</time>
      </trkpt>
      <trkpt lat="44.20924" lon="0.63897">
        <ele>56.1</ele>
        <time>2016-05-15T07:48:50Z</time>
      </trkpt>
      <trkpt lat="44.2094" lon="0.63891">
        <ele>56.6</ele>
        <time>2016-05-15T07:48:55Z</time>
      </trkpt>
      <trkpt lat="44.20946" lon="0.63889">
        <ele>56.8</ele>
        <time>2016-05-15T07:48:59Z</time>
      </trkpt>
      <trkpt lat="44.20947" lon="0.63889">
        <ele>56.9</ele>
        <time>2016-05-15T07:49:00Z</time>
      </trkpt>
      <trkpt lat="44.20952" lon="0.63887">
        <ele>57</ele>
        <time>2016-05-15T07:49:07Z</time>
      </trkpt>
      <trkpt lat="44.20954" lon="0.63886">
        <ele>57.1</ele>
        <time>2016-05-15T07:50:12Z</time>
      </trkpt>
      <trkpt lat="44.20957" lon="0.63882">
        <ele>57.1</ele>
        <time>2016-05-15T07:50:15Z</time>
      </trkpt>
      <trkpt lat="44.20958" lon="0.63881">
        <ele>57.1</ele>
        <time>2016-05-15T07:50:16Z</time>
      </trkpt>
      <trkpt lat="44.2096" lon="0.6388">
        <ele>57.1</ele>
        <time>2016-05-15T07:50:20Z</time>
      </trkpt>
      <trkpt lat="44.20962" lon="0.63876">
        <ele>56.9</ele>
        <time>2016-05-15T07:51:26Z</time>
      </trkpt>
      <trkpt lat="44.20965" lon="0.63874">
        <ele>56.8</ele>
        <time>2016-05-15T07:51:29Z</time>
      </trkpt>
      <trkpt lat="44.20966" lon="0.63871">
        <ele>56.7</ele>
        <time>2016-05-15T07:51:35Z</time>
      </trkpt>
      <trkpt lat="44.2097" lon="0.63866">
        <ele>56.4</ele>
        <time>2016-05-15T07:51:43Z</time>
      </trkpt>
      <trkpt lat="44.20971" lon="0.63867">
        <ele>56.4</ele>
        <time>2016-05-15T07:51:59Z</time>
      </trkpt>
      <trkpt lat="44.20974" lon="0.63867">
        <ele>56.4</ele>
        <time>2016-05-15T07:52:01Z</time>
      </trkpt>
      <trkpt lat="44.20976" lon="0.63868">
        <ele>56.4</ele>
        <time>2016-05-15T07:52:03Z</time>
      </trkpt>
      <trkpt lat="44.20977" lon="0.63868">
        <ele>56.3</ele>
        <time>2016-05-15T07:52:04Z</time>
      </trkpt>
      <trkpt lat="44.20982" lon="0.63867">
        <ele>56.2</ele>
        <time>2016-05-15T07:52:06Z</time>
      </trkpt>
      <trkpt lat="44.20985" lon="0.63866">
        <ele>56.1</ele>
        <time>2016-05-15T07:52:07Z</time>
      </trkpt>
      <trkpt lat="44.2099" lon="0.63867">
        <ele>56</ele>
        <time>2016-05-15T07:52:09Z</time>
      </trkpt>
      <trkpt lat="44.21002" lon="0.63874">
        <ele>55.9</ele>
        <time>2016-05-15T07:52:18Z</time>
      </trkpt>
      <trkpt lat="44.21003" lon="0.63875">
        <ele>55.9</ele>
        <time>2016-05-15T07:52:28Z</time>
      </trkpt>
      <trkpt lat="44.21004" lon="0.63873">
        <ele>55.8</ele>
        <time>2016-05-15T07:52:31Z</time>
      </trkpt>
      <trkpt lat="44.21005" lon="0.63872">
        <ele>55.8</ele>
        <time>2016-05-15T07:52:34Z</time>
      </trkpt>
      <trkpt lat="44.21005" lon="0.63871">
        <ele>55.8</ele>
        <time>2016-05-15T07:52:36Z</time>
      </trkpt>
      <trkpt lat="44.21007" lon="0.63868">
        <ele>55.7</ele>
        <time>2016-05-15T07:52:55Z</time>
      </trkpt>
      <trkpt lat="44.21016" lon="0.63862">
        <ele>55.4</ele>
        <time>2016-05-15T07:53:02Z</time>
      </trkpt>
      <trkpt lat="44.21018" lon="0.63859">
        <ele>55.3</ele>
        <time>2016-05-15T07:53:07Z</time>
      </trkpt>
      <trkpt lat="44.21024" lon="0.6386">
        <ele>55.2</ele>
        <time>2016-05-15T07:53:12Z</time>
      </trkpt>
      <trkpt lat="44.21026" lon="0.63872">
        <ele>55.3</ele>
        <time>2016-05-15T07:53:18Z</time>
      </trkpt>
      <trkpt lat="44.21027" lon="0.63906">
        <ele>55.8</ele>
        <time>2016-05-15T07:53:26Z</time>
      </trkpt>
      <trkpt lat="44.21023" lon="0.6395">
        <ele>56.5</ele>
        <time>2016-05-15T07:53:34Z</time>
      </trkpt>
      <trkpt lat="44.2102" lon="0.63998">
        <ele>55.7</ele>
        <time>2016-05-15T07:53:42Z</time>
      </trkpt>
      <trkpt lat="44.21017" lon="0.64055">
        <ele>54.3</ele>
        <time>2016-05-15T07:53:51Z</time>
      </trkpt>
      <trkpt lat="44.21017" lon="0.64111">
        <ele>53.9</ele>
        <time>2016-05-15T07:53:59Z</time>
      </trkpt>
      <trkpt lat="44.21017" lon="0.64137">
        <ele>53.8</ele>
        <time>2016-05-15T07:54:03Z</time>
      </trkpt>
      <trkpt lat="44.21018" lon="0.64164">
        <ele>53.7</ele>
        <time>2016-05-15T07:54:07Z</time>
      </trkpt>
      <trkpt lat="44.21019" lon="0.64171">
        <ele>53.8</ele>
        <time>2016-05-15T07:54:08Z</time>
      </trkpt>
      <trkpt lat="44.21025" lon="0.64196">
        <ele>54</ele>
        <time>2016-05-15T07:54:12Z</time>
      </trkpt>
      <trkpt lat="44.21028" lon="0.64201">
        <ele>54.2</ele>
        <time>2016-05-15T07:54:13Z</time>
      </trkpt>
      <trkpt lat="44.21039" lon="0.64218">
        <ele>54.7</ele>
        <time>2016-05-15T07:54:17Z</time>
      </trkpt>
      <trkpt lat="44.21066" lon="0.64252">
        <ele>56.2</ele>
        <time>2016-05-15T07:54:26Z</time>
      </trkpt>
      <trkpt lat="44.21087" lon="0.64275">
        <ele>56.8</ele>
        <time>2016-05-15T07:54:32Z</time>
      </trkpt>
      <trkpt lat="44.21094" lon="0.64283">
        <ele>56.8</ele>
        <time>2016-05-15T07:54:34Z</time>
      </trkpt>
      <trkpt lat="44.21109" lon="0.64304">
        <ele>56.8</ele>
        <time>2016-05-15T07:54:39Z</time>
      </trkpt>
      <trkpt lat="44.21122" lon="0.64319">
        <ele>56.9</ele>
        <time>2016-05-15T07:54:43Z</time>
      </trkpt>
      <trkpt lat="44.21127" lon="0.64327">
        <ele>57</ele>
        <time>2016-05-15T07:54:45Z</time>
      </trkpt>
      <trkpt lat="44.2113" lon="0.64331">
        <ele>57.2</ele>
        <time>2016-05-15T07:54:46Z</time>
      </trkpt>
      <trkpt lat="44.21154" lon="0.64362">
        <ele>57.7</ele>
        <time>2016-05-15T07:54:53Z</time>
      </trkpt>
      <trkpt lat="44.21188" lon="0.64406">
        <ele>57</ele>
        <time>2016-05-15T07:55:02Z</time>
      </trkpt>
      <trkpt lat="44.2122" lon="0.64446">
        <ele>55.9</ele>
        <time>2016-05-15T07:55:10Z</time>
      </trkpt>
      <trkpt lat="44.21241" lon="0.6447">
        <ele>56.6</ele>
        <time>2016-05-15T07:55:15Z</time>
      </trkpt>
      <trkpt lat="44.2125" lon="0.6448">
        <ele>57.1</ele>
        <time>2016-05-15T07:55:17Z</time>
      </trkpt>
      <trkpt lat="44.21277" lon="0.64508">
        <ele>58.3</ele>
        <time>2016-05-15T07:55:23Z</time>
      </trkpt>
      <trkpt lat="44.2129" lon="0.64521">
        <ele>58.7</ele>
        <time>2016-05-15T07:55:26Z</time>
      </trkpt>
      <trkpt lat="44.21305" lon="0.64533">
        <ele>59.1</ele>
        <time>2016-05-15T07:55:29Z</time>
      </trkpt>
      <trkpt lat="44.21342" lon="0.64561">
        <ele>59.8</ele>
        <time>2016-05-15T07:55:36Z</time>
      </trkpt>
      <trkpt lat="44.21371" lon="0.64578">
        <ele>60.5</ele>
        <time>2016-05-15T07:55:42Z</time>
      </trkpt>
      <trkpt lat="44.21406" lon="0.64592">
        <ele>60.9</ele>
        <time>2016-05-15T07:55:50Z</time>
      </trkpt>
      <trkpt lat="44.21443" lon="0.64602">
        <ele>61</ele>
        <time>2016-05-15T07:55:58Z</time>
      </trkpt>
      <trkpt lat="44.21456" lon="0.64604">
        <ele>61</ele>
        <time>2016-05-15T07:56:01Z</time>
      </trkpt>
      <trkpt lat="44.2146" lon="0.64605">
        <ele>60.9</ele>
        <time>2016-05-15T07:56:02Z</time>
      </trkpt>
      <trkpt lat="44.21473" lon="0.64609">
        <ele>60.6</ele>
        <time>2016-05-15T07:56:05Z</time>
      </trkpt>
      <trkpt lat="44.21495" lon="0.64614">
        <ele>60.2</ele>
        <time>2016-05-15T07:56:10Z</time>
      </trkpt>
      <trkpt lat="44.21502" lon="0.64618">
        <ele>60</ele>
        <time>2016-05-15T07:56:12Z</time>
      </trkpt>
      <trkpt lat="44.2152" lon="0.64634">
        <ele>59.6</ele>
        <time>2016-05-15T07:56:17Z</time>
      </trkpt>
      <trkpt lat="44.21535" lon="0.64647">
        <ele>59.4</ele>
        <time>2016-05-15T07:56:21Z</time>
      </trkpt>
      <trkpt lat="44.21565" lon="0.64674">
        <ele>60.9</ele>
        <time>2016-05-15T07:56:29Z</time>
      </trkpt>
      <trkpt lat="44.21576" lon="0.64684">
        <ele>61.6</ele>
        <time>2016-05-15T07:56:32Z</time>
      </trkpt>
      <trkpt lat="44.21599" lon="0.64705">
        <ele>62.4</ele>
        <time>2016-05-15T07:56:38Z</time>
      </trkpt>
      <trkpt lat="44.21631" lon="0.64732">
        <ele>63.2</ele>
        <time>2016-05-15T07:56:46Z</time>
      </trkpt>
      <trkpt lat="44.2167" lon="0.64761">
        <ele>64.3</ele>
        <time>2016-05-15T07:56:55Z</time>
      </trkpt>
      <trkpt lat="44.21714" lon="0.64781">
        <ele>64.2</ele>
        <time>2016-05-15T07:57:03Z</time>
      </trkpt>
      <trkpt lat="44.21719" lon="0.64783">
        <ele>64.1</ele>
        <time>2016-05-15T07:57:04Z</time>
      </trkpt>
      <trkpt lat="44.21758" lon="0.648">
        <ele>64.6</ele>
        <time>2016-05-15T07:57:11Z</time>
      </trkpt>
      <trkpt lat="44.21797" lon="0.64824">
        <ele>64.4</ele>
        <time>2016-05-15T07:57:19Z</time>
      </trkpt>
      <trkpt lat="44.21828" lon="0.64853">
        <ele>62.1</ele>
        <time>2016-05-15T07:57:26Z</time>
      </trkpt>
      <trkpt lat="44.21849" lon="0.64875">
        <ele>60</ele>
        <time>2016-05-15T07:57:31Z</time>
      </trkpt>
      <trkpt lat="44.21865" lon="0.64893">
        <ele>59.3</ele>
        <time>2016-05-15T07:57:35Z</time>
      </trkpt>
      <trkpt lat="44.219" lon="0.64932">
        <ele>58.3</ele>
        <time>2016-05-15T07:57:44Z</time>
      </trkpt>
      <trkpt lat="44.21929" lon="0.6497">
        <ele>57.4</ele>
        <time>2016-05-15T07:57:52Z</time>
      </trkpt>
      <trkpt lat="44.21949" lon="0.6501">
        <ele>56.7</ele>
        <time>2016-05-15T07:57:59Z</time>
      </trkpt>
      <trkpt lat="44.21955" lon="0.65022">
        <ele>56.4</ele>
        <time>2016-05-15T07:58:01Z</time>
      </trkpt>
      <trkpt lat="44.21989" lon="0.65088">
        <ele>56</ele>
        <time>2016-05-15T07:58:12Z</time>
      </trkpt>
      <trkpt lat="44.22014" lon="0.65139">
        <ele>55.9</ele>
        <time>2016-05-15T07:58:20Z</time>
      </trkpt>
      <trkpt lat="44.22017" lon="0.65146">
        <ele>56</ele>
        <time>2016-05-15T07:58:21Z</time>
      </trkpt>
      <trkpt lat="44.2205" lon="0.65208">
        <ele>56.2</ele>
        <time>2016-05-15T07:58:31Z</time>
      </trkpt>
      <trkpt lat="44.22053" lon="0.65214">
        <ele>56.3</ele>
        <time>2016-05-15T07:58:32Z</time>
      </trkpt>
      <trkpt lat="44.22084" lon="0.65261">
        <ele>56.7</ele>
        <time>2016-05-15T07:58:41Z</time>
      </trkpt>
      <trkpt lat="44.22104" lon="0.65294">
        <ele>56.7</ele>
        <time>2016-05-15T07:58:47Z</time>
      </trkpt>
      <trkpt lat="44.22119" lon="0.65322">
        <ele>56.6</ele>
        <time>2016-05-15T07:58:52Z</time>
      </trkpt>
      <trkpt lat="44.22138" lon="0.65355">
        <ele>56.9</ele>
        <time>2016-05-15T07:58:58Z</time>
      </trkpt>
      <trkpt lat="44.22144" lon="0.65365">
        <ele>57.1</ele>
        <time>2016-05-15T07:59:00Z</time>
      </trkpt>
      <trkpt lat="44.22166" lon="0.65391">
        <ele>57.6</ele>
        <time>2016-05-15T07:59:06Z</time>
      </trkpt>
      <trkpt lat="44.222" lon="0.65416">
        <ele>58.2</ele>
        <time>2016-05-15T07:59:14Z</time>
      </trkpt>
      <trkpt lat="44.22204" lon="0.65419">
        <ele>58.3</ele>
        <time>2016-05-15T07:59:15Z</time>
      </trkpt>
      <trkpt lat="44.22231" lon="0.65443">
        <ele>58.5</ele>
        <time>2016-05-15T07:59:22Z</time>
      </trkpt>
      <trkpt lat="44.22255" lon="0.65472">
        <ele>58.6</ele>
        <time>2016-05-15T07:59:29Z</time>
      </trkpt>
      <trkpt lat="44.22274" lon="0.65519">
        <ele>58.4</ele>
        <time>2016-05-15T07:59:37Z</time>
      </trkpt>
      <trkpt lat="44.22286" lon="0.65563">
        <ele>58.3</ele>
        <time>2016-05-15T07:59:44Z</time>
      </trkpt>
      <trkpt lat="44.22299" lon="0.65632">
        <ele>59.2</ele>
        <time>2016-05-15T07:59:54Z</time>
      </trkpt>
      <trkpt lat="44.22316" lon="0.65698">
        <ele>59</ele>
        <time>2016-05-15T08:00:03Z</time>
      </trkpt>
      <trkpt lat="44.2234" lon="0.65769">
        <ele>59.2</ele>
        <time>2016-05-15T08:00:13Z</time>
      </trkpt>
      <trkpt lat="44.22342" lon="0.65776">
        <ele>59.1</ele>
        <time>2016-05-15T08:00:14Z</time>
      </trkpt>
      <trkpt lat="44.22362" lon="0.65836">
        <ele>59.1</ele>
        <time>2016-05-15T08:00:23Z</time>
      </trkpt>
      <trkpt lat="44.22384" lon="0.6588">
        <ele>59.9</ele>
        <time>2016-05-15T08:00:31Z</time>
      </trkpt>
      <trkpt lat="44.22387" lon="0.65885">
        <ele>60.1</ele>
        <time>2016-05-15T08:00:32Z</time>
      </trkpt>
      <trkpt lat="44.22409" lon="0.6592">
        <ele>61.4</ele>
        <time>2016-05-15T08:00:39Z</time>
      </trkpt>
      <trkpt lat="44.22413" lon="0.65926">
        <ele>61.5</ele>
        <time>2016-05-15T08:00:40Z</time>
      </trkpt>
      <trkpt lat="44.22431" lon="0.65956">
        <ele>61.8</ele>
        <time>2016-05-15T08:00:46Z</time>
      </trkpt>
      <trkpt lat="44.22444" lon="0.65974">
        <ele>61.8</ele>
        <time>2016-05-15T08:00:50Z</time>
      </trkpt>
      <trkpt lat="44.22458" lon="0.65997">
        <ele>61.6</ele>
        <time>2016-05-15T08:00:55Z</time>
      </trkpt>
      <trkpt lat="44.22466" lon="0.66011">
        <ele>61.7</ele>
        <time>2016-05-15T08:00:58Z</time>
      </trkpt>
      <trkpt lat="44.22482" lon="0.66038">
        <ele>62.1</ele>
        <time>2016-05-15T08:01:04Z</time>
      </trkpt>
      <trkpt lat="44.22494" lon="0.66059">
        <ele>62.5</ele>
        <time>2016-05-15T08:01:08Z</time>
      </trkpt>
      <trkpt lat="44.22521" lon="0.6611">
        <ele>62.6</ele>
        <time>2016-05-15T08:01:16Z</time>
      </trkpt>
      <trkpt lat="44.22538" lon="0.66139">
        <ele>62.3</ele>
        <time>2016-05-15T08:01:20Z</time>
      </trkpt>
      <trkpt lat="44.2255" lon="0.66162">
        <ele>62</ele>
        <time>2016-05-15T08:01:23Z</time>
      </trkpt>
      <trkpt lat="44.22558" lon="0.66178">
        <ele>61.7</ele>
        <time>2016-05-15T08:01:25Z</time>
      </trkpt>
      <trkpt lat="44.22576" lon="0.66225">
        <ele>61.2</ele>
        <time>2016-05-15T08:01:31Z</time>
      </trkpt>
      <trkpt lat="44.22581" lon="0.6624">
        <ele>61.2</ele>
        <time>2016-05-15T08:01:33Z</time>
      </trkpt>
      <trkpt lat="44.2259" lon="0.66271">
        <ele>61.3</ele>
        <time>2016-05-15T08:01:37Z</time>
      </trkpt>
      <trkpt lat="44.22596" lon="0.66293">
        <ele>61.3</ele>
        <time>2016-05-15T08:01:40Z</time>
      </trkpt>
      <trkpt lat="44.22602" lon="0.6632">
        <ele>61.4</ele>
        <time>2016-05-15T08:01:44Z</time>
      </trkpt>
      <trkpt lat="44.22617" lon="0.66355">
        <ele>61.8</ele>
        <time>2016-05-15T08:01:50Z</time>
      </trkpt>
      <trkpt lat="44.22627" lon="0.6637">
        <ele>62.1</ele>
        <time>2016-05-15T08:01:53Z</time>
      </trkpt>
      <trkpt lat="44.22641" lon="0.6639">
        <ele>62.8</ele>
        <time>2016-05-15T08:01:57Z</time>
      </trkpt>
      <trkpt lat="44.22655" lon="0.66407">
        <ele>63.4</ele>
        <time>2016-05-15T08:02:01Z</time>
      </trkpt>
      <trkpt lat="44.22665" lon="0.6642">
        <ele>63.9</ele>
        <time>2016-05-15T08:02:04Z</time>
      </trkpt>
      <trkpt lat="44.22675" lon="0.66432">
        <ele>64.3</ele>
        <time>2016-05-15T08:02:07Z</time>
      </trkpt>
      <trkpt lat="44.22684" lon="0.66444">
        <ele>64.7</ele>
        <time>2016-05-15T08:02:10Z</time>
      </trkpt>
      <trkpt lat="44.2269" lon="0.66451">
        <ele>65</ele>
        <time>2016-05-15T08:02:12Z</time>
      </trkpt>
      <trkpt lat="44.22699" lon="0.66463">
        <ele>65.5</ele>
        <time>2016-05-15T08:02:15Z</time>
      </trkpt>
      <trkpt lat="44.22712" lon="0.66477">
        <ele>66.4</ele>
        <time>2016-05-15T08:02:19Z</time>
      </trkpt>
      <trkpt lat="44.22715" lon="0.66481">
        <ele>66.8</ele>
        <time>2016-05-15T08:02:20Z</time>
      </trkpt>
      <trkpt lat="44.22727" lon="0.66495">
        <ele>68</ele>
        <time>2016-05-15T08:02:24Z</time>
      </trkpt>
      <trkpt lat="44.22737" lon="0.66509">
        <ele>68.9</ele>
        <time>2016-05-15T08:02:28Z</time>
      </trkpt>
      <trkpt lat="44.22755" lon="0.6653">
        <ele>69.8</ele>
        <time>2016-05-15T08:02:34Z</time>
      </trkpt>
      <trkpt lat="44.22761" lon="0.66537">
        <ele>70</ele>
        <time>2016-05-15T08:02:36Z</time>
      </trkpt>
      <trkpt lat="44.22787" lon="0.66561">
        <ele>70.3</ele>
        <time>2016-05-15T08:02:44Z</time>
      </trkpt>
      <trkpt lat="44.22812" lon="0.66582">
        <ele>70.8</ele>
        <time>2016-05-15T08:02:51Z</time>
      </trkpt>
      <trkpt lat="44.22823" lon="0.66591">
        <ele>71</ele>
        <time>2016-05-15T08:02:54Z</time>
      </trkpt>
      <trkpt lat="44.22832" lon="0.66599">
        <ele>71.1</ele>
        <time>2016-05-15T08:02:56Z</time>
      </trkpt>
      <trkpt lat="44.22836" lon="0.66602">
        <ele>71.2</ele>
        <time>2016-05-15T08:02:57Z</time>
      </trkpt>
      <trkpt lat="44.22844" lon="0.66608">
        <ele>71.3</ele>
        <time>2016-05-15T08:03:00Z</time>
      </trkpt>
      <trkpt lat="44.22849" lon="0.66612">
        <ele>71.2</ele>
        <time>2016-05-15T08:03:02Z</time>
      </trkpt>
      <trkpt lat="44.22868" lon="0.66635">
        <ele>71.3</ele>
        <time>2016-05-15T08:03:10Z</time>
      </trkpt>
      <trkpt lat="44.22876" lon="0.66658">
        <ele>71.3</ele>
        <time>2016-05-15T08:03:15Z</time>
      </trkpt>
      <trkpt lat="44.22882" lon="0.66678">
        <ele>71.1</ele>
        <time>2016-05-15T08:03:19Z</time>
      </trkpt>
      <trkpt lat="44.22885" lon="0.66689">
        <ele>71.1</ele>
        <time>2016-05-15T08:03:21Z</time>
      </trkpt>
      <trkpt lat="44.22896" lon="0.66738">
        <ele>71</ele>
        <time>2016-05-15T08:03:29Z</time>
      </trkpt>
      <trkpt lat="44.22897" lon="0.66744">
        <ele>71.1</ele>
        <time>2016-05-15T08:03:30Z</time>
      </trkpt>
      <trkpt lat="44.22904" lon="0.66774">
        <ele>71.3</ele>
        <time>2016-05-15T08:03:35Z</time>
      </trkpt>
      <trkpt lat="44.22907" lon="0.66787">
        <ele>71.5</ele>
        <time>2016-05-15T08:03:37Z</time>
      </trkpt>
      <trkpt lat="44.22916" lon="0.66817">
        <ele>71.6</ele>
        <time>2016-05-15T08:03:42Z</time>
      </trkpt>
      <trkpt lat="44.22921" lon="0.66834">
        <ele>71.5</ele>
        <time>2016-05-15T08:03:45Z</time>
      </trkpt>
      <trkpt lat="44.22937" lon="0.66872">
        <ele>71.8</ele>
        <time>2016-05-15T08:03:52Z</time>
      </trkpt>
      <trkpt lat="44.22954" lon="0.66907">
        <ele>71.7</ele>
        <time>2016-05-15T08:03:59Z</time>
      </trkpt>
      <trkpt lat="44.22981" lon="0.66952">
        <ele>72.8</ele>
        <time>2016-05-15T08:04:07Z</time>
      </trkpt>
      <trkpt lat="44.22985" lon="0.66958">
        <ele>72.9</ele>
        <time>2016-05-15T08:04:08Z</time>
      </trkpt>
      <trkpt lat="44.22996" lon="0.66977">
        <ele>73</ele>
        <time>2016-05-15T08:04:11Z</time>
      </trkpt>
      <trkpt lat="44.23006" lon="0.66996">
        <ele>72.8</ele>
        <time>2016-05-15T08:04:14Z</time>
      </trkpt>
      <trkpt lat="44.23029" lon="0.67041">
        <ele>71</ele>
        <time>2016-05-15T08:04:22Z</time>
      </trkpt>
      <trkpt lat="44.23031" lon="0.67047">
        <ele>70.9</ele>
        <time>2016-05-15T08:04:23Z</time>
      </trkpt>
      <trkpt lat="44.23048" lon="0.67086">
        <ele>70.7</ele>
        <time>2016-05-15T08:04:30Z</time>
      </trkpt>
      <trkpt lat="44.23053" lon="0.67096">
        <ele>70.7</ele>
        <time>2016-05-15T08:04:32Z</time>
      </trkpt>
      <trkpt lat="44.23069" lon="0.67127">
        <ele>71.3</ele>
        <time>2016-05-15T08:04:38Z</time>
      </trkpt>
      <trkpt lat="44.23081" lon="0.67146">
        <ele>72.1</ele>
        <time>2016-05-15T08:04:41Z</time>
      </trkpt>
      <trkpt lat="44.23088" lon="0.67161">
        <ele>72.4</ele>
        <time>2016-05-15T08:04:43Z</time>
      </trkpt>
      <trkpt lat="44.23096" lon="0.67176">
        <ele>72.5</ele>
        <time>2016-05-15T08:04:45Z</time>
      </trkpt>
      <trkpt lat="44.23112" lon="0.6721">
        <ele>72.1</ele>
        <time>2016-05-15T08:04:49Z</time>
      </trkpt>
      <trkpt lat="44.23131" lon="0.67252">
        <ele>70.8</ele>
        <time>2016-05-15T08:04:55Z</time>
      </trkpt>
      <trkpt lat="44.23148" lon="0.67292">
        <ele>69.9</ele>
        <time>2016-05-15T08:05:02Z</time>
      </trkpt>
      <trkpt lat="44.2316" lon="0.67323">
        <ele>70.3</ele>
        <time>2016-05-15T08:05:07Z</time>
      </trkpt>
      <trkpt lat="44.23163" lon="0.67329">
        <ele>70.3</ele>
        <time>2016-05-15T08:05:08Z</time>
      </trkpt>
      <trkpt lat="44.23172" lon="0.67351">
        <ele>70.5</ele>
        <time>2016-05-15T08:05:11Z</time>
      </trkpt>
      <trkpt lat="44.23176" lon="0.67357">
        <ele>70.5</ele>
        <time>2016-05-15T08:05:12Z</time>
      </trkpt>
      <trkpt lat="44.2318" lon="0.67364">
        <ele>70.6</ele>
        <time>2016-05-15T08:05:13Z</time>
      </trkpt>
      <trkpt lat="44.23184" lon="0.67371">
        <ele>70.7</ele>
        <time>2016-05-15T08:05:14Z</time>
      </trkpt>
      <trkpt lat="44.23211" lon="0.67413">
        <ele>71.3</ele>
        <time>2016-05-15T08:05:21Z</time>
      </trkpt>
      <trkpt lat="44.23214" lon="0.67419">
        <ele>71.5</ele>
        <time>2016-05-15T08:05:22Z</time>
      </trkpt>
      <trkpt lat="44.23226" lon="0.67448">
        <ele>71.8</ele>
        <time>2016-05-15T08:05:26Z</time>
      </trkpt>
      <trkpt lat="44.2323" lon="0.67455">
        <ele>71.9</ele>
        <time>2016-05-15T08:05:27Z</time>
      </trkpt>
      <trkpt lat="44.23249" lon="0.67484">
        <ele>71.9</ele>
        <time>2016-05-15T08:05:31Z</time>
      </trkpt>
      <trkpt lat="44.23261" lon="0.67495">
        <ele>71.9</ele>
        <time>2016-05-15T08:05:33Z</time>
      </trkpt>
      <trkpt lat="44.23279" lon="0.67509">
        <ele>71.7</ele>
        <time>2016-05-15T08:05:36Z</time>
      </trkpt>
      <trkpt lat="44.23315" lon="0.67541">
        <ele>70.2</ele>
        <time>2016-05-15T08:05:43Z</time>
      </trkpt>
      <trkpt lat="44.23343" lon="0.67582">
        <ele>69.7</ele>
        <time>2016-05-15T08:05:50Z</time>
      </trkpt>
      <trkpt lat="44.23369" lon="0.67622">
        <ele>68.9</ele>
        <time>2016-05-15T08:05:57Z</time>
      </trkpt>
      <trkpt lat="44.23395" lon="0.67646">
        <ele>68.9</ele>
        <time>2016-05-15T08:06:03Z</time>
      </trkpt>
      <trkpt lat="44.23403" lon="0.67651">
        <ele>68.9</ele>
        <time>2016-05-15T08:06:05Z</time>
      </trkpt>
      <trkpt lat="44.23416" lon="0.67654">
        <ele>69</ele>
        <time>2016-05-15T08:06:08Z</time>
      </trkpt>
      <trkpt lat="44.23427" lon="0.6766">
        <ele>68.9</ele>
        <time>2016-05-15T08:06:11Z</time>
      </trkpt>
      <trkpt lat="44.23434" lon="0.67664">
        <ele>68.9</ele>
        <time>2016-05-15T08:06:13Z</time>
      </trkpt>
      <trkpt lat="44.23437" lon="0.67667">
        <ele>68.9</ele>
        <time>2016-05-15T08:06:14Z</time>
      </trkpt>
      <trkpt lat="44.23451" lon="0.67683">
        <ele>68.6</ele>
        <time>2016-05-15T08:06:19Z</time>
      </trkpt>
      <trkpt lat="44.2346" lon="0.67694">
        <ele>68.4</ele>
        <time>2016-05-15T08:06:24Z</time>
      </trkpt>
      <trkpt lat="44.23473" lon="0.677">
        <ele>68.5</ele>
        <time>2016-05-15T08:06:28Z</time>
      </trkpt>
      <trkpt lat="44.23491" lon="0.677">
        <ele>68.9</ele>
        <time>2016-05-15T08:06:33Z</time>
      </trkpt>
      <trkpt lat="44.2352" lon="0.67699">
        <ele>69.5</ele>
        <time>2016-05-15T08:06:40Z</time>
      </trkpt>
      <trkpt lat="44.23559" lon="0.67699">
        <ele>70</ele>
        <time>2016-05-15T08:06:50Z</time>
      </trkpt>
      <trkpt lat="44.236" lon="0.67699">
        <ele>70.2</ele>
        <time>2016-05-15T08:06:59Z</time>
      </trkpt>
      <trkpt lat="44.23642" lon="0.67699">
        <ele>70.2</ele>
        <time>2016-05-15T08:07:07Z</time>
      </trkpt>
      <trkpt lat="44.2368" lon="0.677">
        <ele>70.2</ele>
        <time>2016-05-15T08:07:14Z</time>
      </trkpt>
      <trkpt lat="44.23685" lon="0.67701">
        <ele>70.2</ele>
        <time>2016-05-15T08:07:15Z</time>
      </trkpt>
      <trkpt lat="44.23733" lon="0.67703">
        <ele>70.5</ele>
        <time>2016-05-15T08:07:24Z</time>
      </trkpt>
      <trkpt lat="44.23762" lon="0.67701">
        <ele>71</ele>
        <time>2016-05-15T08:07:30Z</time>
      </trkpt>
      <trkpt lat="44.23782" lon="0.67695">
        <ele>71.6</ele>
        <time>2016-05-15T08:07:34Z</time>
      </trkpt>
      <trkpt lat="44.23802" lon="0.67689">
        <ele>72.4</ele>
        <time>2016-05-15T08:07:38Z</time>
      </trkpt>
      <trkpt lat="44.23824" lon="0.6768">
        <ele>73.6</ele>
        <time>2016-05-15T08:07:43Z</time>
      </trkpt>
      <trkpt lat="44.23833" lon="0.67675">
        <ele>74.1</ele>
        <time>2016-05-15T08:07:45Z</time>
      </trkpt>
      <trkpt lat="44.23841" lon="0.67672">
        <ele>74.6</ele>
        <time>2016-05-15T08:07:47Z</time>
      </trkpt>
      <trkpt lat="44.23849" lon="0.67669">
        <ele>75.1</ele>
        <time>2016-05-15T08:07:49Z</time>
      </trkpt>
      <trkpt lat="44.23858" lon="0.67667">
        <ele>75.5</ele>
        <time>2016-05-15T08:07:51Z</time>
      </trkpt>
      <trkpt lat="44.23878" lon="0.67664">
        <ele>76.3</ele>
        <time>2016-05-15T08:07:56Z</time>
      </trkpt>
      <trkpt lat="44.23885" lon="0.67666">
        <ele>76.4</ele>
        <time>2016-05-15T08:07:58Z</time>
      </trkpt>
      <trkpt lat="44.23907" lon="0.67673">
        <ele>76.6</ele>
        <time>2016-05-15T08:08:05Z</time>
      </trkpt>
      <trkpt lat="44.23933" lon="0.67684">
        <ele>76.5</ele>
        <time>2016-05-15T08:08:11Z</time>
      </trkpt>
      <trkpt lat="44.23983" lon="0.67713">
        <ele>75.6</ele>
        <time>2016-05-15T08:08:21Z</time>
      </trkpt>
      <trkpt lat="44.24003" lon="0.67727">
        <ele>75.1</ele>
        <time>2016-05-15T08:08:25Z</time>
      </trkpt>
      <trkpt lat="44.24028" lon="0.67741">
        <ele>74.5</ele>
        <time>2016-05-15T08:08:30Z</time>
      </trkpt>
      <trkpt lat="44.24075" lon="0.67767">
        <ele>73.4</ele>
        <time>2016-05-15T08:08:39Z</time>
      </trkpt>
      <trkpt lat="44.24113" lon="0.67789">
        <ele>72.8</ele>
        <time>2016-05-15T08:08:46Z</time>
      </trkpt>
      <trkpt lat="44.24137" lon="0.67802">
        <ele>73</ele>
        <time>2016-05-15T08:08:50Z</time>
      </trkpt>
      <trkpt lat="44.24165" lon="0.67819">
        <ele>73.3</ele>
        <time>2016-05-15T08:08:55Z</time>
      </trkpt>
      <trkpt lat="44.24196" lon="0.67834">
        <ele>73.6</ele>
        <time>2016-05-15T08:09:01Z</time>
      </trkpt>
      <trkpt lat="44.24204" lon="0.67839">
        <ele>73.6</ele>
        <time>2016-05-15T08:09:03Z</time>
      </trkpt>
      <trkpt lat="44.24218" lon="0.67847">
        <ele>74</ele>
        <time>2016-05-15T08:09:06Z</time>
      </trkpt>
      <trkpt lat="44.24222" lon="0.6785">
        <ele>74.1</ele>
        <time>2016-05-15T08:09:07Z</time>
      </trkpt>
      <trkpt lat="44.24231" lon="0.67854">
        <ele>74.3</ele>
        <time>2016-05-15T08:09:09Z</time>
      </trkpt>
      <trkpt lat="44.24241" lon="0.67859">
        <ele>74.6</ele>
        <time>2016-05-15T08:09:11Z</time>
      </trkpt>
      <trkpt lat="44.24246" lon="0.6786">
        <ele>74.8</ele>
        <time>2016-05-15T08:09:12Z</time>
      </trkpt>
      <trkpt lat="44.24254" lon="0.67862">
        <ele>75.1</ele>
        <time>2016-05-15T08:09:14Z</time>
      </trkpt>
      <trkpt lat="44.24267" lon="0.67865">
        <ele>75.6</ele>
        <time>2016-05-15T08:09:17Z</time>
      </trkpt>
      <trkpt lat="44.24272" lon="0.67865">
        <ele>75.8</ele>
        <time>2016-05-15T08:09:18Z</time>
      </trkpt>
      <trkpt lat="44.24276" lon="0.67865">
        <ele>76</ele>
        <time>2016-05-15T08:09:19Z</time>
      </trkpt>
      <trkpt lat="44.24294" lon="0.67862">
        <ele>77.2</ele>
        <time>2016-05-15T08:09:23Z</time>
      </trkpt>
      <trkpt lat="44.24322" lon="0.67856">
        <ele>78.6</ele>
        <time>2016-05-15T08:09:28Z</time>
      </trkpt>
      <trkpt lat="44.24328" lon="0.67856">
        <ele>78.8</ele>
        <time>2016-05-15T08:09:29Z</time>
      </trkpt>
      <trkpt lat="44.24333" lon="0.67857">
        <ele>78.9</ele>
        <time>2016-05-15T08:09:30Z</time>
      </trkpt>
      <trkpt lat="44.24351" lon="0.67862">
        <ele>79.1</ele>
        <time>2016-05-15T08:09:33Z</time>
      </trkpt>
      <trkpt lat="44.24378" lon="0.6787">
        <ele>79.5</ele>
        <time>2016-05-15T08:09:37Z</time>
      </trkpt>
      <trkpt lat="44.24398" lon="0.67877">
        <ele>79.7</ele>
        <time>2016-05-15T08:09:40Z</time>
      </trkpt>
      <trkpt lat="44.24432" lon="0.67889">
        <ele>79.6</ele>
        <time>2016-05-15T08:09:46Z</time>
      </trkpt>
      <trkpt lat="44.24442" lon="0.67893">
        <ele>79.5</ele>
        <time>2016-05-15T08:09:48Z</time>
      </trkpt>
      <trkpt lat="44.2446" lon="0.67901">
        <ele>79.3</ele>
        <time>2016-05-15T08:09:52Z</time>
      </trkpt>
      <trkpt lat="44.24464" lon="0.67902">
        <ele>79.2</ele>
        <time>2016-05-15T08:09:53Z</time>
      </trkpt>
      <trkpt lat="44.24472" lon="0.67906">
        <ele>79.2</ele>
        <time>2016-05-15T08:09:55Z</time>
      </trkpt>
      <trkpt lat="44.24476" lon="0.67908">
        <ele>79.2</ele>
        <time>2016-05-15T08:09:56Z</time>
      </trkpt>
      <trkpt lat="44.24488" lon="0.67914">
        <ele>79.2</ele>
        <time>2016-05-15T08:09:59Z</time>
      </trkpt>
      <trkpt lat="44.24502" lon="0.67922">
        <ele>79.2</ele>
        <time>2016-05-15T08:10:02Z</time>
      </trkpt>
      <trkpt lat="44.24514" lon="0.67928">
        <ele>79.5</ele>
        <time>2016-05-15T08:10:05Z</time>
      </trkpt>
      <trkpt lat="44.24526" lon="0.67934">
        <ele>79.9</ele>
        <time>2016-05-15T08:10:08Z</time>
      </trkpt>
      <trkpt lat="44.24549" lon="0.67944">
        <ele>81.3</ele>
        <time>2016-05-15T08:10:14Z</time>
      </trkpt>
      <trkpt lat="44.24579" lon="0.67952">
        <ele>83.9</ele>
        <time>2016-05-15T08:10:21Z</time>
      </trkpt>
      <trkpt lat="44.24618" lon="0.67962">
        <ele>86.9</ele>
        <time>2016-05-15T08:10:29Z</time>
      </trkpt>
      <trkpt lat="44.24649" lon="0.6797">
        <ele>87.5</ele>
        <time>2016-05-15T08:10:36Z</time>
      </trkpt>
      <trkpt lat="44.24657" lon="0.67973">
        <ele>87.4</ele>
        <time>2016-05-15T08:10:38Z</time>
      </trkpt>
      <trkpt lat="44.24686" lon="0.67988">
        <ele>86.6</ele>
        <time>2016-05-15T08:10:46Z</time>
      </trkpt>
      <trkpt lat="44.24689" lon="0.67991">
        <ele>86.4</ele>
        <time>2016-05-15T08:10:47Z</time>
      </trkpt>
      <trkpt lat="44.24714" lon="0.68016">
        <ele>84.5</ele>
        <time>2016-05-15T08:10:54Z</time>
      </trkpt>
      <trkpt lat="44.24744" lon="0.68048">
        <ele>83.7</ele>
        <time>2016-05-15T08:11:01Z</time>
      </trkpt>
      <trkpt lat="44.24784" lon="0.68084">
        <ele>84</ele>
        <time>2016-05-15T08:11:09Z</time>
      </trkpt>
      <trkpt lat="44.24789" lon="0.68089">
        <ele>83.9</ele>
        <time>2016-05-15T08:11:10Z</time>
      </trkpt>
      <trkpt lat="44.24818" lon="0.68117">
        <ele>81.7</ele>
        <time>2016-05-15T08:11:15Z</time>
      </trkpt>
      <trkpt lat="44.24824" lon="0.68123">
        <ele>81.2</ele>
        <time>2016-05-15T08:11:16Z</time>
      </trkpt>
      <trkpt lat="44.2485" lon="0.68158">
        <ele>80</ele>
        <time>2016-05-15T08:11:22Z</time>
      </trkpt>
      <trkpt lat="44.24857" lon="0.68167">
        <ele>80</ele>
        <time>2016-05-15T08:11:24Z</time>
      </trkpt>
      <trkpt lat="44.2487" lon="0.68183">
        <ele>80.1</ele>
        <time>2016-05-15T08:11:28Z</time>
      </trkpt>
      <trkpt lat="44.24873" lon="0.68187">
        <ele>80.2</ele>
        <time>2016-05-15T08:11:29Z</time>
      </trkpt>
      <trkpt lat="44.24879" lon="0.68195">
        <ele>80.7</ele>
        <time>2016-05-15T08:11:31Z</time>
      </trkpt>
      <trkpt lat="44.24887" lon="0.68209">
        <ele>81.7</ele>
        <time>2016-05-15T08:11:34Z</time>
      </trkpt>
      <trkpt lat="44.2489" lon="0.68212">
        <ele>82.1</ele>
        <time>2016-05-15T08:11:35Z</time>
      </trkpt>
      <trkpt lat="44.24896" lon="0.68222">
        <ele>82.9</ele>
        <time>2016-05-15T08:11:38Z</time>
      </trkpt>
      <trkpt lat="44.249" lon="0.68229">
        <ele>83.3</ele>
        <time>2016-05-15T08:11:40Z</time>
      </trkpt>
      <trkpt lat="44.24909" lon="0.68241">
        <ele>84.5</ele>
        <time>2016-05-15T08:11:44Z</time>
      </trkpt>
      <trkpt lat="44.24913" lon="0.68249">
        <ele>85</ele>
        <time>2016-05-15T08:11:46Z</time>
      </trkpt>
      <trkpt lat="44.24935" lon="0.68284">
        <ele>87.7</ele>
        <time>2016-05-15T08:11:55Z</time>
      </trkpt>
      <trkpt lat="44.24958" lon="0.68314">
        <ele>89.1</ele>
        <time>2016-05-15T08:12:03Z</time>
      </trkpt>
      <trkpt lat="44.24977" lon="0.68337">
        <ele>89.2</ele>
        <time>2016-05-15T08:12:09Z</time>
      </trkpt>
      <trkpt lat="44.24984" lon="0.68347">
        <ele>89.1</ele>
        <time>2016-05-15T08:12:11Z</time>
      </trkpt>
      <trkpt lat="44.24995" lon="0.68369">
        <ele>88.5</ele>
        <time>2016-05-15T08:12:15Z</time>
      </trkpt>
      <trkpt lat="44.25004" lon="0.68387">
        <ele>87.7</ele>
        <time>2016-05-15T08:12:18Z</time>
      </trkpt>
      <trkpt lat="44.25015" lon="0.68415">
        <ele>86</ele>
        <time>2016-05-15T08:12:22Z</time>
      </trkpt>
      <trkpt lat="44.2502" lon="0.68431">
        <ele>84.8</ele>
        <time>2016-05-15T08:12:24Z</time>
      </trkpt>
      <trkpt lat="44.25029" lon="0.68465">
        <ele>82.5</ele>
        <time>2016-05-15T08:12:28Z</time>
      </trkpt>
      <trkpt lat="44.25036" lon="0.68513">
        <ele>81.5</ele>
        <time>2016-05-15T08:12:34Z</time>
      </trkpt>
      <trkpt lat="44.25048" lon="0.68553">
        <ele>81.4</ele>
        <time>2016-05-15T08:12:39Z</time>
      </trkpt>
      <trkpt lat="44.25051" lon="0.68562">
        <ele>81.5</ele>
        <time>2016-05-15T08:12:40Z</time>
      </trkpt>
      <trkpt lat="44.25058" lon="0.68582">
        <ele>81.7</ele>
        <time>2016-05-15T08:12:42Z</time>
      </trkpt>
      <trkpt lat="44.25071" lon="0.68615">
        <ele>81.5</ele>
        <time>2016-05-15T08:12:45Z</time>
      </trkpt>
      <trkpt lat="44.25086" lon="0.68651">
        <ele>81.5</ele>
        <time>2016-05-15T08:12:48Z</time>
      </trkpt>
      <trkpt lat="44.25097" lon="0.68673">
        <ele>81.6</ele>
        <time>2016-05-15T08:12:50Z</time>
      </trkpt>
      <trkpt lat="44.25126" lon="0.68717">
        <ele>81.9</ele>
        <time>2016-05-15T08:12:55Z</time>
      </trkpt>
      <trkpt lat="44.25138" lon="0.68737">
        <ele>82.3</ele>
        <time>2016-05-15T08:12:58Z</time>
      </trkpt>
      <trkpt lat="44.25142" lon="0.68742">
        <ele>82.4</ele>
        <time>2016-05-15T08:12:59Z</time>
      </trkpt>
      <trkpt lat="44.25144" lon="0.68747">
        <ele>82.4</ele>
        <time>2016-05-15T08:13:00Z</time>
      </trkpt>
      <trkpt lat="44.25149" lon="0.68759">
        <ele>82.5</ele>
        <time>2016-05-15T08:13:03Z</time>
      </trkpt>
      <trkpt lat="44.25163" lon="0.68799">
        <ele>82.5</ele>
        <time>2016-05-15T08:13:11Z</time>
      </trkpt>
      <trkpt lat="44.25178" lon="0.68843">
        <ele>81.5</ele>
        <time>2016-05-15T08:13:18Z</time>
      </trkpt>
      <trkpt lat="44.25201" lon="0.68892">
        <ele>81.1</ele>
        <time>2016-05-15T08:13:27Z</time>
      </trkpt>
      <trkpt lat="44.25208" lon="0.68902">
        <ele>81.3</ele>
        <time>2016-05-15T08:13:29Z</time>
      </trkpt>
      <trkpt lat="44.25215" lon="0.68911">
        <ele>81.7</ele>
        <time>2016-05-15T08:13:31Z</time>
      </trkpt>
      <trkpt lat="44.25231" lon="0.68929">
        <ele>82.6</ele>
        <time>2016-05-15T08:13:35Z</time>
      </trkpt>
      <trkpt lat="44.25255" lon="0.68954">
        <ele>84</ele>
        <time>2016-05-15T08:13:41Z</time>
      </trkpt>
      <trkpt lat="44.25262" lon="0.68964">
        <ele>84.3</ele>
        <time>2016-05-15T08:13:43Z</time>
      </trkpt>
      <trkpt lat="44.25272" lon="0.6898">
        <ele>84.5</ele>
        <time>2016-05-15T08:13:46Z</time>
      </trkpt>
      <trkpt lat="44.2528" lon="0.68999">
        <ele>84.5</ele>
        <time>2016-05-15T08:13:49Z</time>
      </trkpt>
      <trkpt lat="44.253" lon="0.69045">
        <ele>84.4</ele>
        <time>2016-05-15T08:13:57Z</time>
      </trkpt>
      <trkpt lat="44.25313" lon="0.69079">
        <ele>83.9</ele>
        <time>2016-05-15T08:14:03Z</time>
      </trkpt>
      <trkpt lat="44.25318" lon="0.69092">
        <ele>83.7</ele>
        <time>2016-05-15T08:14:05Z</time>
      </trkpt>
      <trkpt lat="44.25329" lon="0.69121">
        <ele>83.4</ele>
        <time>2016-05-15T08:14:09Z</time>
      </trkpt>
      <trkpt lat="44.25347" lon="0.69156">
        <ele>83.5</ele>
        <time>2016-05-15T08:14:15Z</time>
      </trkpt>
      <trkpt lat="44.25351" lon="0.69161">
        <ele>83.6</ele>
        <time>2016-05-15T08:14:16Z</time>
      </trkpt>
      <trkpt lat="44.25359" lon="0.69172">
        <ele>83.8</ele>
        <time>2016-05-15T08:14:19Z</time>
      </trkpt>
      <trkpt lat="44.25364" lon="0.69179">
        <ele>84</ele>
        <time>2016-05-15T08:14:21Z</time>
      </trkpt>
      <trkpt lat="44.25376" lon="0.692">
        <ele>84.3</ele>
        <time>2016-05-15T08:14:26Z</time>
      </trkpt>
      <trkpt lat="44.25377" lon="0.69211">
        <ele>84.2</ele>
        <time>2016-05-15T08:14:28Z</time>
      </trkpt>
      <trkpt lat="44.25372" lon="0.69225">
        <ele>83.4</ele>
        <time>2016-05-15T08:14:31Z</time>
      </trkpt>
      <trkpt lat="44.25367" lon="0.69232">
        <ele>82.9</ele>
        <time>2016-05-15T08:14:33Z</time>
      </trkpt>
      <trkpt lat="44.25357" lon="0.69245">
        <ele>81.8</ele>
        <time>2016-05-15T08:14:37Z</time>
      </trkpt>
      <trkpt lat="44.25353" lon="0.69256">
        <ele>81.3</ele>
        <time>2016-05-15T08:14:39Z</time>
      </trkpt>
      <trkpt lat="44.25355" lon="0.69273">
        <ele>81</ele>
        <time>2016-05-15T08:14:41Z</time>
      </trkpt>
      <trkpt lat="44.2536" lon="0.69288">
        <ele>81</ele>
        <time>2016-05-15T08:14:43Z</time>
      </trkpt>
      <trkpt lat="44.25367" lon="0.69291">
        <ele>81.4</ele>
        <time>2016-05-15T08:14:44Z</time>
      </trkpt>
      <trkpt lat="44.25373" lon="0.69294">
        <ele>81.8</ele>
        <time>2016-05-15T08:14:45Z</time>
      </trkpt>
      <trkpt lat="44.2538" lon="0.69296">
        <ele>82.1</ele>
        <time>2016-05-15T08:14:46Z</time>
      </trkpt>
      <trkpt lat="44.25395" lon="0.69301">
        <ele>82.7</ele>
        <time>2016-05-15T08:14:48Z</time>
      </trkpt>
      <trkpt lat="44.25416" lon="0.69318">
        <ele>83.2</ele>
        <time>2016-05-15T08:14:51Z</time>
      </trkpt>
      <trkpt lat="44.25422" lon="0.69326">
        <ele>83.2</ele>
        <time>2016-05-15T08:14:52Z</time>
      </trkpt>
      <trkpt lat="44.25432" lon="0.69346">
        <ele>83</ele>
        <time>2016-05-15T08:14:54Z</time>
      </trkpt>
      <trkpt lat="44.25438" lon="0.69356">
        <ele>82.9</ele>
        <time>2016-05-15T08:14:55Z</time>
      </trkpt>
      <trkpt lat="44.25443" lon="0.69365">
        <ele>82.8</ele>
        <time>2016-05-15T08:14:56Z</time>
      </trkpt>
      <trkpt lat="44.25456" lon="0.69384">
        <ele>82.7</ele>
        <time>2016-05-15T08:14:58Z</time>
      </trkpt>
      <trkpt lat="44.25475" lon="0.69407">
        <ele>83.3</ele>
        <time>2016-05-15T08:15:01Z</time>
      </trkpt>
      <trkpt lat="44.25516" lon="0.69454">
        <ele>84</ele>
        <time>2016-05-15T08:15:08Z</time>
      </trkpt>
      <trkpt lat="44.25551" lon="0.69497">
        <ele>83.3</ele>
        <time>2016-05-15T08:15:15Z</time>
      </trkpt>
      <trkpt lat="44.25576" lon="0.6953">
        <ele>83.2</ele>
        <time>2016-05-15T08:15:22Z</time>
      </trkpt>
      <trkpt lat="44.25605" lon="0.69565">
        <ele>83.5</ele>
        <time>2016-05-15T08:15:29Z</time>
      </trkpt>
      <trkpt lat="44.25635" lon="0.69602">
        <ele>84.2</ele>
        <time>2016-05-15T08:15:36Z</time>
      </trkpt>
      <trkpt lat="44.25666" lon="0.69641">
        <ele>84.5</ele>
        <time>2016-05-15T08:15:43Z</time>
      </trkpt>
      <trkpt lat="44.25695" lon="0.69671">
        <ele>84.4</ele>
        <time>2016-05-15T08:15:49Z</time>
      </trkpt>
      <trkpt lat="44.25731" lon="0.69706">
        <ele>84.1</ele>
        <time>2016-05-15T08:15:56Z</time>
      </trkpt>
      <trkpt lat="44.25767" lon="0.69742">
        <ele>85</ele>
        <time>2016-05-15T08:16:03Z</time>
      </trkpt>
      <trkpt lat="44.25806" lon="0.69781">
        <ele>84.5</ele>
        <time>2016-05-15T08:16:11Z</time>
      </trkpt>
      <trkpt lat="44.2581" lon="0.69785">
        <ele>84.5</ele>
        <time>2016-05-15T08:16:12Z</time>
      </trkpt>
      <trkpt lat="44.25828" lon="0.69803">
        <ele>84.8</ele>
        <time>2016-05-15T08:16:16Z</time>
      </trkpt>
      <trkpt lat="44.25836" lon="0.69812">
        <ele>85</ele>
        <time>2016-05-15T08:16:18Z</time>
      </trkpt>
      <trkpt lat="44.25845" lon="0.6982">
        <ele>85.2</ele>
        <time>2016-05-15T08:16:20Z</time>
      </trkpt>
      <trkpt lat="44.25865" lon="0.69842">
        <ele>85.2</ele>
        <time>2016-05-15T08:16:25Z</time>
      </trkpt>
      <trkpt lat="44.25886" lon="0.69858">
        <ele>86</ele>
        <time>2016-05-15T08:16:30Z</time>
      </trkpt>
      <trkpt lat="44.25889" lon="0.69861">
        <ele>86.3</ele>
        <time>2016-05-15T08:16:31Z</time>
      </trkpt>
      <trkpt lat="44.259" lon="0.69872">
        <ele>86.9</ele>
        <time>2016-05-15T08:16:34Z</time>
      </trkpt>
      <trkpt lat="44.25912" lon="0.69887">
        <ele>87.4</ele>
        <time>2016-05-15T08:16:37Z</time>
      </trkpt>
      <trkpt lat="44.25933" lon="0.69919">
        <ele>87</ele>
        <time>2016-05-15T08:16:42Z</time>
      </trkpt>
      <trkpt lat="44.25959" lon="0.69957">
        <ele>84.2</ele>
        <time>2016-05-15T08:16:48Z</time>
      </trkpt>
      <trkpt lat="44.25986" lon="0.69987">
        <ele>85.8</ele>
        <time>2016-05-15T08:16:54Z</time>
      </trkpt>
      <trkpt lat="44.2599" lon="0.69991">
        <ele>86</ele>
        <time>2016-05-15T08:16:55Z</time>
      </trkpt>
      <trkpt lat="44.26009" lon="0.70009">
        <ele>86.8</ele>
        <time>2016-05-15T08:17:00Z</time>
      </trkpt>
      <trkpt lat="44.26013" lon="0.70011">
        <ele>87</ele>
        <time>2016-05-15T08:17:01Z</time>
      </trkpt>
      <trkpt lat="44.26022" lon="0.70016">
        <ele>87.4</ele>
        <time>2016-05-15T08:17:03Z</time>
      </trkpt>
      <trkpt lat="44.26042" lon="0.70027">
        <ele>88.1</ele>
        <time>2016-05-15T08:17:07Z</time>
      </trkpt>
      <trkpt lat="44.26051" lon="0.70034">
        <ele>88.3</ele>
        <time>2016-05-15T08:17:09Z</time>
      </trkpt>
      <trkpt lat="44.26064" lon="0.70048">
        <ele>88.6</ele>
        <time>2016-05-15T08:17:12Z</time>
      </trkpt>
      <trkpt lat="44.26081" lon="0.7007">
        <ele>89.3</ele>
        <time>2016-05-15T08:17:17Z</time>
      </trkpt>
      <trkpt lat="44.26084" lon="0.70074">
        <ele>89.4</ele>
        <time>2016-05-15T08:17:18Z</time>
      </trkpt>
      <trkpt lat="44.26091" lon="0.70087">
        <ele>89.5</ele>
        <time>2016-05-15T08:17:21Z</time>
      </trkpt>
      <trkpt lat="44.26099" lon="0.701">
        <ele>89.7</ele>
        <time>2016-05-15T08:17:24Z</time>
      </trkpt>
      <trkpt lat="44.26103" lon="0.70103">
        <ele>89.9</ele>
        <time>2016-05-15T08:17:25Z</time>
      </trkpt>
      <trkpt lat="44.2611" lon="0.70109">
        <ele>90.3</ele>
        <time>2016-05-15T08:17:27Z</time>
      </trkpt>
      <trkpt lat="44.26118" lon="0.70115">
        <ele>90.7</ele>
        <time>2016-05-15T08:17:29Z</time>
      </trkpt>
      <trkpt lat="44.26124" lon="0.70121">
        <ele>91.1</ele>
        <time>2016-05-15T08:17:31Z</time>
      </trkpt>
      <trkpt lat="44.26131" lon="0.70125">
        <ele>91.8</ele>
        <time>2016-05-15T08:17:33Z</time>
      </trkpt>
      <trkpt lat="44.26141" lon="0.70134">
        <ele>93</ele>
        <time>2016-05-15T08:17:37Z</time>
      </trkpt>
      <trkpt lat="44.26144" lon="0.70137">
        <ele>93.3</ele>
        <time>2016-05-15T08:17:38Z</time>
      </trkpt>
      <trkpt lat="44.26162" lon="0.70154">
        <ele>94.8</ele>
        <time>2016-05-15T08:17:44Z</time>
      </trkpt>
      <trkpt lat="44.26164" lon="0.70157">
        <ele>95</ele>
        <time>2016-05-15T08:17:45Z</time>
      </trkpt>
      <trkpt lat="44.26186" lon="0.70183">
        <ele>95.8</ele>
        <time>2016-05-15T08:17:53Z</time>
      </trkpt>
      <trkpt lat="44.26203" lon="0.70207">
        <ele>95.7</ele>
        <time>2016-05-15T08:17:58Z</time>
      </trkpt>
      <trkpt lat="44.26206" lon="0.7021">
        <ele>95.7</ele>
        <time>2016-05-15T08:17:59Z</time>
      </trkpt>
      <trkpt lat="44.26211" lon="0.70216">
        <ele>95.8</ele>
        <time>2016-05-15T08:18:01Z</time>
      </trkpt>
      <trkpt lat="44.26213" lon="0.70215">
        <ele>95.9</ele>
        <time>2016-05-15T08:18:02Z</time>
      </trkpt>
      <trkpt lat="44.26218" lon="0.70206">
        <ele>96.7</ele>
        <time>2016-05-15T08:18:05Z</time>
      </trkpt>
      <trkpt lat="44.26234" lon="0.70191">
        <ele>98.7</ele>
        <time>2016-05-15T08:18:11Z</time>
      </trkpt>
      <trkpt lat="44.26245" lon="0.70201">
        <ele>98.3</ele>
        <time>2016-05-15T08:18:15Z</time>
      </trkpt>
      <trkpt lat="44.26247" lon="0.70204">
        <ele>98.2</ele>
        <time>2016-05-15T08:18:16Z</time>
      </trkpt>
      <trkpt lat="44.26253" lon="0.70217">
        <ele>97.9</ele>
        <time>2016-05-15T08:18:21Z</time>
      </trkpt>
      <trkpt lat="44.26255" lon="0.7022">
        <ele>97.8</ele>
        <time>2016-05-15T08:25:50Z</time>
      </trkpt>
      <trkpt lat="44.26259" lon="0.70228">
        <ele>97.8</ele>
        <time>2016-05-15T08:25:53Z</time>
      </trkpt>
      <trkpt lat="44.26263" lon="0.70234">
        <ele>97.8</ele>
        <time>2016-05-15T08:25:55Z</time>
      </trkpt>
      <trkpt lat="44.26267" lon="0.70241">
        <ele>97.8</ele>
        <time>2016-05-15T08:25:57Z</time>
      </trkpt>
      <trkpt lat="44.26279" lon="0.70255">
        <ele>98.1</ele>
        <time>2016-05-15T08:26:02Z</time>
      </trkpt>
      <trkpt lat="44.26299" lon="0.7028">
        <ele>99.3</ele>
        <time>2016-05-15T08:26:10Z</time>
      </trkpt>
      <trkpt lat="44.26303" lon="0.70287">
        <ele>99.8</ele>
        <time>2016-05-15T08:26:12Z</time>
      </trkpt>
      <trkpt lat="44.26318" lon="0.70312">
        <ele>100.5</ele>
        <time>2016-05-15T08:26:19Z</time>
      </trkpt>
      <trkpt lat="44.26338" lon="0.70339">
        <ele>100.8</ele>
        <time>2016-05-15T08:26:27Z</time>
      </trkpt>
      <trkpt lat="44.26356" lon="0.70348">
        <ele>101.6</ele>
        <time>2016-05-15T08:26:33Z</time>
      </trkpt>
      <trkpt lat="44.26369" lon="0.70349">
        <ele>102.5</ele>
        <time>2016-05-15T08:26:37Z</time>
      </trkpt>
      <trkpt lat="44.26382" lon="0.7035">
        <ele>103</ele>
        <time>2016-05-15T08:26:41Z</time>
      </trkpt>
      <trkpt lat="44.26405" lon="0.70353">
        <ele>102.7</ele>
        <time>2016-05-15T08:26:47Z</time>
      </trkpt>
      <trkpt lat="44.26433" lon="0.70361">
        <ele>102</ele>
        <time>2016-05-15T08:26:53Z</time>
      </trkpt>
      <trkpt lat="44.26437" lon="0.70363">
        <ele>101.9</ele>
        <time>2016-05-15T08:26:54Z</time>
      </trkpt>
      <trkpt lat="44.26466" lon="0.70375">
        <ele>101.2</ele>
        <time>2016-05-15T08:27:00Z</time>
      </trkpt>
      <trkpt lat="44.26482" lon="0.70385">
        <ele>100.9</ele>
        <time>2016-05-15T08:27:03Z</time>
      </trkpt>
      <trkpt lat="44.26493" lon="0.70393">
        <ele>100.5</ele>
        <time>2016-05-15T08:27:05Z</time>
      </trkpt>
      <trkpt lat="44.26523" lon="0.70414">
        <ele>99.1</ele>
        <time>2016-05-15T08:27:10Z</time>
      </trkpt>
      <trkpt lat="44.26567" lon="0.70444">
        <ele>97.4</ele>
        <time>2016-05-15T08:27:18Z</time>
      </trkpt>
      <trkpt lat="44.26588" lon="0.70458">
        <ele>96.7</ele>
        <time>2016-05-15T08:27:22Z</time>
      </trkpt>
      <trkpt lat="44.26599" lon="0.70467">
        <ele>96.5</ele>
        <time>2016-05-15T08:27:24Z</time>
      </trkpt>
      <trkpt lat="44.26603" lon="0.70472">
        <ele>96.4</ele>
        <time>2016-05-15T08:27:25Z</time>
      </trkpt>
      <trkpt lat="44.26612" lon="0.70497">
        <ele>95.2</ele>
        <time>2016-05-15T08:27:28Z</time>
      </trkpt>
      <trkpt lat="44.26611" lon="0.70518">
        <ele>93.9</ele>
        <time>2016-05-15T08:27:30Z</time>
      </trkpt>
      <trkpt lat="44.2661" lon="0.70528">
        <ele>93.3</ele>
        <time>2016-05-15T08:27:31Z</time>
      </trkpt>
      <trkpt lat="44.26608" lon="0.70539">
        <ele>92.5</ele>
        <time>2016-05-15T08:27:32Z</time>
      </trkpt>
      <trkpt lat="44.266" lon="0.70581">
        <ele>91</ele>
        <time>2016-05-15T08:27:36Z</time>
      </trkpt>
      <trkpt lat="44.26598" lon="0.70592">
        <ele>90.6</ele>
        <time>2016-05-15T08:27:37Z</time>
      </trkpt>
      <trkpt lat="44.26596" lon="0.70613">
        <ele>90</ele>
        <time>2016-05-15T08:27:39Z</time>
      </trkpt>
      <trkpt lat="44.26597" lon="0.70633">
        <ele>89.5</ele>
        <time>2016-05-15T08:27:41Z</time>
      </trkpt>
      <trkpt lat="44.26595" lon="0.70643">
        <ele>89.3</ele>
        <time>2016-05-15T08:27:42Z</time>
      </trkpt>
      <trkpt lat="44.26588" lon="0.70659">
        <ele>88.9</ele>
        <time>2016-05-15T08:27:44Z</time>
      </trkpt>
      <trkpt lat="44.26584" lon="0.70665">
        <ele>88.8</ele>
        <time>2016-05-15T08:27:45Z</time>
      </trkpt>
      <trkpt lat="44.2658" lon="0.70672">
        <ele>88.6</ele>
        <time>2016-05-15T08:27:46Z</time>
      </trkpt>
      <trkpt lat="44.26575" lon="0.70687">
        <ele>88.4</ele>
        <time>2016-05-15T08:27:48Z</time>
      </trkpt>
      <trkpt lat="44.26573" lon="0.70696">
        <ele>88.2</ele>
        <time>2016-05-15T08:27:49Z</time>
      </trkpt>
      <trkpt lat="44.26566" lon="0.70745">
        <ele>88.1</ele>
        <time>2016-05-15T08:27:55Z</time>
      </trkpt>
      <trkpt lat="44.26563" lon="0.70785">
        <ele>88.2</ele>
        <time>2016-05-15T08:28:01Z</time>
      </trkpt>
      <trkpt lat="44.26562" lon="0.70807">
        <ele>88.7</ele>
        <time>2016-05-15T08:28:05Z</time>
      </trkpt>
      <trkpt lat="44.26562" lon="0.70811">
        <ele>88.8</ele>
        <time>2016-05-15T08:28:06Z</time>
      </trkpt>
      <trkpt lat="44.26562" lon="0.7082">
        <ele>89.1</ele>
        <time>2016-05-15T08:28:08Z</time>
      </trkpt>
      <trkpt lat="44.26563" lon="0.70823">
        <ele>89.2</ele>
        <time>2016-05-15T08:28:09Z</time>
      </trkpt>
      <trkpt lat="44.26561" lon="0.70833">
        <ele>89.4</ele>
        <time>2016-05-15T08:28:13Z</time>
      </trkpt>
      <trkpt lat="44.26556" lon="0.70845">
        <ele>89.7</ele>
        <time>2016-05-15T08:28:20Z</time>
      </trkpt>
      <trkpt lat="44.26554" lon="0.70849">
        <ele>89.7</ele>
        <time>2016-05-15T08:28:23Z</time>
      </trkpt>
      <trkpt lat="44.26554" lon="0.70848">
        <ele>89.7</ele>
        <time>2016-05-15T08:28:26Z</time>
      </trkpt>
      <trkpt lat="44.26557" lon="0.70851">
        <ele>89.9</ele>
        <time>2016-05-15T08:29:00Z</time>
      </trkpt>
      <trkpt lat="44.26558" lon="0.70847">
        <ele>89.8</ele>
        <time>2016-05-15T08:29:03Z</time>
      </trkpt>
      <trkpt lat="44.26565" lon="0.70842">
        <ele>89.8</ele>
        <time>2016-05-15T08:29:09Z</time>
      </trkpt>
      <trkpt lat="44.26566" lon="0.7084">
        <ele>89.8</ele>
        <time>2016-05-15T08:29:10Z</time>
      </trkpt>
      <trkpt lat="44.26567" lon="0.70829">
        <ele>89.5</ele>
        <time>2016-05-15T08:29:13Z</time>
      </trkpt>
      <trkpt lat="44.26568" lon="0.70818">
        <ele>89.1</ele>
        <time>2016-05-15T08:29:15Z</time>
      </trkpt>
      <trkpt lat="44.26568" lon="0.70813">
        <ele>89</ele>
        <time>2016-05-15T08:29:16Z</time>
      </trkpt>
      <trkpt lat="44.26568" lon="0.70799">
        <ele>88.6</ele>
        <time>2016-05-15T08:29:18Z</time>
      </trkpt>
      <trkpt lat="44.26569" lon="0.70792">
        <ele>88.3</ele>
        <time>2016-05-15T08:29:19Z</time>
      </trkpt>
      <trkpt lat="44.26571" lon="0.70773">
        <ele>88.3</ele>
        <time>2016-05-15T08:29:22Z</time>
      </trkpt>
      <trkpt lat="44.26572" lon="0.70759">
        <ele>88.2</ele>
        <time>2016-05-15T08:29:24Z</time>
      </trkpt>
      <trkpt lat="44.26573" lon="0.70751">
        <ele>88.2</ele>
        <time>2016-05-15T08:29:25Z</time>
      </trkpt>
      <trkpt lat="44.26579" lon="0.70705">
        <ele>88.1</ele>
        <time>2016-05-15T08:29:31Z</time>
      </trkpt>
      <trkpt lat="44.26587" lon="0.70669">
        <ele>88.7</ele>
        <time>2016-05-15T08:29:37Z</time>
      </trkpt>
      <trkpt lat="44.26589" lon="0.70663">
        <ele>88.8</ele>
        <time>2016-05-15T08:29:38Z</time>
      </trkpt>
      <trkpt lat="44.26599" lon="0.70645">
        <ele>89.3</ele>
        <time>2016-05-15T08:29:42Z</time>
      </trkpt>
      <trkpt lat="44.26602" lon="0.70622">
        <ele>89.8</ele>
        <time>2016-05-15T08:29:46Z</time>
      </trkpt>
      <trkpt lat="44.26602" lon="0.70616">
        <ele>90</ele>
        <time>2016-05-15T08:29:47Z</time>
      </trkpt>
      <trkpt lat="44.26601" lon="0.70609">
        <ele>90.2</ele>
        <time>2016-05-15T08:29:48Z</time>
      </trkpt>
      <trkpt lat="44.266" lon="0.70596">
        <ele>90.5</ele>
        <time>2016-05-15T08:29:50Z</time>
      </trkpt>
      <trkpt lat="44.26602" lon="0.70584">
        <ele>90.9</ele>
        <time>2016-05-15T08:29:52Z</time>
      </trkpt>
      <trkpt lat="44.2661" lon="0.70544">
        <ele>92.4</ele>
        <time>2016-05-15T08:29:59Z</time>
      </trkpt>
      <trkpt lat="44.26616" lon="0.70522">
        <ele>93.9</ele>
        <time>2016-05-15T08:30:05Z</time>
      </trkpt>
      <trkpt lat="44.26618" lon="0.70519">
        <ele>94.2</ele>
        <time>2016-05-15T08:30:08Z</time>
      </trkpt>
      <trkpt lat="44.26619" lon="0.7052">
        <ele>94.1</ele>
        <time>2016-05-15T08:30:09Z</time>
      </trkpt>
      <trkpt lat="44.26627" lon="0.70526">
        <ele>94</ele>
        <time>2016-05-15T08:30:14Z</time>
      </trkpt>
      <trkpt lat="44.26629" lon="0.70528">
        <ele>93.9</ele>
        <time>2016-05-15T08:30:15Z</time>
      </trkpt>
      <trkpt lat="44.26647" lon="0.70541">
        <ele>93.6</ele>
        <time>2016-05-15T08:30:22Z</time>
      </trkpt>
      <trkpt lat="44.26664" lon="0.70553">
        <ele>93.5</ele>
        <time>2016-05-15T08:30:29Z</time>
      </trkpt>
      <trkpt lat="44.26666" lon="0.70554">
        <ele>93.5</ele>
        <time>2016-05-15T08:30:30Z</time>
      </trkpt>
      <trkpt lat="44.26669" lon="0.70555">
        <ele>93.5</ele>
        <time>2016-05-15T08:30:31Z</time>
      </trkpt>
      <trkpt lat="44.26673" lon="0.70558">
        <ele>93.5</ele>
        <time>2016-05-15T08:30:33Z</time>
      </trkpt>
      <trkpt lat="44.26678" lon="0.7056">
        <ele>93.5</ele>
        <time>2016-05-15T08:30:35Z</time>
      </trkpt>
      <trkpt lat="44.26681" lon="0.70561">
        <ele>93.5</ele>
        <time>2016-05-15T08:30:36Z</time>
      </trkpt>
      <trkpt lat="44.26693" lon="0.70564">
        <ele>93.6</ele>
        <time>2016-05-15T08:30:40Z</time>
      </trkpt>
      <trkpt lat="44.26712" lon="0.70565">
        <ele>94.2</ele>
        <time>2016-05-15T08:30:46Z</time>
      </trkpt>
      <trkpt lat="44.26716" lon="0.70565">
        <ele>94.4</ele>
        <time>2016-05-15T08:30:47Z</time>
      </trkpt>
      <trkpt lat="44.26741" lon="0.7057">
        <ele>95.7</ele>
        <time>2016-05-15T08:30:54Z</time>
      </trkpt>
      <trkpt lat="44.26772" lon="0.70579">
        <ele>96.9</ele>
        <time>2016-05-15T08:31:01Z</time>
      </trkpt>
      <trkpt lat="44.26776" lon="0.7058">
        <ele>97</ele>
        <time>2016-05-15T08:31:02Z</time>
      </trkpt>
      <trkpt lat="44.26807" lon="0.70589">
        <ele>98.1</ele>
        <time>2016-05-15T08:31:10Z</time>
      </trkpt>
      <trkpt lat="44.26815" lon="0.70591">
        <ele>98.4</ele>
        <time>2016-05-15T08:31:12Z</time>
      </trkpt>
      <trkpt lat="44.26832" lon="0.70599">
        <ele>98.7</ele>
        <time>2016-05-15T08:31:17Z</time>
      </trkpt>
      <trkpt lat="44.26839" lon="0.70602">
        <ele>98.7</ele>
        <time>2016-05-15T08:31:19Z</time>
      </trkpt>
      <trkpt lat="44.26855" lon="0.70609">
        <ele>99</ele>
        <time>2016-05-15T08:31:23Z</time>
      </trkpt>
      <trkpt lat="44.26886" lon="0.70622">
        <ele>99</ele>
        <time>2016-05-15T08:31:31Z</time>
      </trkpt>
      <trkpt lat="44.2689" lon="0.70623">
        <ele>99</ele>
        <time>2016-05-15T08:31:32Z</time>
      </trkpt>
      <trkpt lat="44.26914" lon="0.70635">
        <ele>99</ele>
        <time>2016-05-15T08:31:38Z</time>
      </trkpt>
      <trkpt lat="44.26922" lon="0.70639">
        <ele>99</ele>
        <time>2016-05-15T08:31:40Z</time>
      </trkpt>
      <trkpt lat="44.26947" lon="0.7065">
        <ele>99.3</ele>
        <time>2016-05-15T08:31:47Z</time>
      </trkpt>
      <trkpt lat="44.26951" lon="0.70651">
        <ele>99.4</ele>
        <time>2016-05-15T08:31:48Z</time>
      </trkpt>
      <trkpt lat="44.26969" lon="0.70662">
        <ele>99.8</ele>
        <time>2016-05-15T08:31:53Z</time>
      </trkpt>
      <trkpt lat="44.26994" lon="0.70677">
        <ele>100.5</ele>
        <time>2016-05-15T08:32:00Z</time>
      </trkpt>
      <trkpt lat="44.27027" lon="0.70697">
        <ele>101.2</ele>
        <time>2016-05-15T08:32:08Z</time>
      </trkpt>
      <trkpt lat="44.27066" lon="0.70714">
        <ele>100.5</ele>
        <time>2016-05-15T08:32:16Z</time>
      </trkpt>
      <trkpt lat="44.27071" lon="0.70716">
        <ele>100.4</ele>
        <time>2016-05-15T08:32:17Z</time>
      </trkpt>
      <trkpt lat="44.27086" lon="0.70726">
        <ele>99.6</ele>
        <time>2016-05-15T08:32:20Z</time>
      </trkpt>
      <trkpt lat="44.27098" lon="0.70736">
        <ele>98.9</ele>
        <time>2016-05-15T08:32:22Z</time>
      </trkpt>
      <trkpt lat="44.27117" lon="0.70755">
        <ele>97.6</ele>
        <time>2016-05-15T08:32:25Z</time>
      </trkpt>
      <trkpt lat="44.27136" lon="0.70774">
        <ele>96</ele>
        <time>2016-05-15T08:32:28Z</time>
      </trkpt>
      <trkpt lat="44.27149" lon="0.70785">
        <ele>94.9</ele>
        <time>2016-05-15T08:32:30Z</time>
      </trkpt>
      <trkpt lat="44.27168" lon="0.70798">
        <ele>93.7</ele>
        <time>2016-05-15T08:32:33Z</time>
      </trkpt>
      <trkpt lat="44.27192" lon="0.70808">
        <ele>92.8</ele>
        <time>2016-05-15T08:32:37Z</time>
      </trkpt>
      <trkpt lat="44.27226" lon="0.70832">
        <ele>92.3</ele>
        <time>2016-05-15T08:32:44Z</time>
      </trkpt>
      <trkpt lat="44.27263" lon="0.70854">
        <ele>92.9</ele>
        <time>2016-05-15T08:32:51Z</time>
      </trkpt>
      <trkpt lat="44.27282" lon="0.7087">
        <ele>92.9</ele>
        <time>2016-05-15T08:32:55Z</time>
      </trkpt>
      <trkpt lat="44.27291" lon="0.70881">
        <ele>92.7</ele>
        <time>2016-05-15T08:32:57Z</time>
      </trkpt>
      <trkpt lat="44.2731" lon="0.70907">
        <ele>92.5</ele>
        <time>2016-05-15T08:33:01Z</time>
      </trkpt>
      <trkpt lat="44.27315" lon="0.70913">
        <ele>92.4</ele>
        <time>2016-05-15T08:33:02Z</time>
      </trkpt>
      <trkpt lat="44.27331" lon="0.70929">
        <ele>92.3</ele>
        <time>2016-05-15T08:33:05Z</time>
      </trkpt>
      <trkpt lat="44.27347" lon="0.70943">
        <ele>92.1</ele>
        <time>2016-05-15T08:33:08Z</time>
      </trkpt>
      <trkpt lat="44.27382" lon="0.70971">
        <ele>92</ele>
        <time>2016-05-15T08:33:15Z</time>
      </trkpt>
      <trkpt lat="44.27387" lon="0.70975">
        <ele>92.1</ele>
        <time>2016-05-15T08:33:16Z</time>
      </trkpt>
      <trkpt lat="44.27411" lon="0.7099">
        <ele>92.6</ele>
        <time>2016-05-15T08:33:21Z</time>
      </trkpt>
      <trkpt lat="44.27425" lon="0.70998">
        <ele>92.9</ele>
        <time>2016-05-15T08:33:24Z</time>
      </trkpt>
      <trkpt lat="44.27462" lon="0.71017">
        <ele>93.4</ele>
        <time>2016-05-15T08:33:32Z</time>
      </trkpt>
      <trkpt lat="44.27471" lon="0.71019">
        <ele>93.9</ele>
        <time>2016-05-15T08:33:34Z</time>
      </trkpt>
      <trkpt lat="44.27491" lon="0.7102">
        <ele>95</ele>
        <time>2016-05-15T08:33:38Z</time>
      </trkpt>
      <trkpt lat="44.27502" lon="0.71019">
        <ele>95.8</ele>
        <time>2016-05-15T08:33:40Z</time>
      </trkpt>
      <trkpt lat="44.27518" lon="0.71014">
        <ele>97.2</ele>
        <time>2016-05-15T08:33:43Z</time>
      </trkpt>
      <trkpt lat="44.27555" lon="0.71002">
        <ele>99.8</ele>
        <time>2016-05-15T08:33:50Z</time>
      </trkpt>
      <trkpt lat="44.27576" lon="0.70986">
        <ele>100.8</ele>
        <time>2016-05-15T08:33:55Z</time>
      </trkpt>
      <trkpt lat="44.27584" lon="0.7098">
        <ele>101.1</ele>
        <time>2016-05-15T08:33:57Z</time>
      </trkpt>
      <trkpt lat="44.27588" lon="0.70979">
        <ele>101</ele>
        <time>2016-05-15T08:33:58Z</time>
      </trkpt>
      <trkpt lat="44.27601" lon="0.70983">
        <ele>100.5</ele>
        <time>2016-05-15T08:34:01Z</time>
      </trkpt>
      <trkpt lat="44.2761" lon="0.70992">
        <ele>100</ele>
        <time>2016-05-15T08:34:03Z</time>
      </trkpt>
      <trkpt lat="44.27614" lon="0.70996">
        <ele>99.7</ele>
        <time>2016-05-15T08:34:04Z</time>
      </trkpt>
      <trkpt lat="44.27618" lon="0.71001">
        <ele>99.5</ele>
        <time>2016-05-15T08:34:05Z</time>
      </trkpt>
      <trkpt lat="44.27646" lon="0.71036">
        <ele>98.4</ele>
        <time>2016-05-15T08:34:12Z</time>
      </trkpt>
      <trkpt lat="44.2765" lon="0.7104">
        <ele>98.3</ele>
        <time>2016-05-15T08:34:13Z</time>
      </trkpt>
      <trkpt lat="44.27666" lon="0.71058">
        <ele>98.7</ele>
        <time>2016-05-15T08:34:18Z</time>
      </trkpt>
      <trkpt lat="44.27669" lon="0.71062">
        <ele>98.8</ele>
        <time>2016-05-15T08:34:19Z</time>
      </trkpt>
      <trkpt lat="44.27672" lon="0.71065">
        <ele>98.9</ele>
        <time>2016-05-15T08:34:20Z</time>
      </trkpt>
      <trkpt lat="44.27678" lon="0.71075">
        <ele>99.3</ele>
        <time>2016-05-15T08:34:23Z</time>
      </trkpt>
      <trkpt lat="44.27682" lon="0.71082">
        <ele>99.5</ele>
        <time>2016-05-15T08:34:25Z</time>
      </trkpt>
      <trkpt lat="44.2769" lon="0.71091">
        <ele>100.1</ele>
        <time>2016-05-15T08:34:29Z</time>
      </trkpt>
      <trkpt lat="44.27693" lon="0.71093">
        <ele>100.2</ele>
        <time>2016-05-15T08:34:30Z</time>
      </trkpt>
      <trkpt lat="44.27706" lon="0.71094">
        <ele>100.8</ele>
        <time>2016-05-15T08:34:34Z</time>
      </trkpt>
      <trkpt lat="44.27709" lon="0.71093">
        <ele>100.9</ele>
        <time>2016-05-15T08:34:35Z</time>
      </trkpt>
      <trkpt lat="44.27717" lon="0.71087">
        <ele>101.4</ele>
        <time>2016-05-15T08:34:38Z</time>
      </trkpt>
      <trkpt lat="44.27723" lon="0.71079">
        <ele>101.6</ele>
        <time>2016-05-15T08:34:40Z</time>
      </trkpt>
      <trkpt lat="44.27736" lon="0.71062">
        <ele>101.5</ele>
        <time>2016-05-15T08:34:45Z</time>
      </trkpt>
      <trkpt lat="44.27744" lon="0.7105">
        <ele>101.3</ele>
        <time>2016-05-15T08:34:48Z</time>
      </trkpt>
      <trkpt lat="44.27749" lon="0.71042">
        <ele>101</ele>
        <time>2016-05-15T08:34:50Z</time>
      </trkpt>
      <trkpt lat="44.27764" lon="0.71022">
        <ele>101.3</ele>
        <time>2016-05-15T08:34:55Z</time>
      </trkpt>
      <trkpt lat="44.27767" lon="0.71017">
        <ele>101.4</ele>
        <time>2016-05-15T08:34:56Z</time>
      </trkpt>
      <trkpt lat="44.27779" lon="0.71">
        <ele>101.5</ele>
        <time>2016-05-15T08:35:00Z</time>
      </trkpt>
      <trkpt lat="44.278" lon="0.7097">
        <ele>102.5</ele>
        <time>2016-05-15T08:35:08Z</time>
      </trkpt>
      <trkpt lat="44.27821" lon="0.7094">
        <ele>104.9</ele>
        <time>2016-05-15T08:35:16Z</time>
      </trkpt>
      <trkpt lat="44.27837" lon="0.7092">
        <ele>106.6</ele>
        <time>2016-05-15T08:35:22Z</time>
      </trkpt>
      <trkpt lat="44.27842" lon="0.70914">
        <ele>107</ele>
        <time>2016-05-15T08:35:24Z</time>
      </trkpt>
      <trkpt lat="44.27858" lon="0.70886">
        <ele>108</ele>
        <time>2016-05-15T08:35:31Z</time>
      </trkpt>
      <trkpt lat="44.2786" lon="0.70882">
        <ele>108.1</ele>
        <time>2016-05-15T08:35:32Z</time>
      </trkpt>
      <trkpt lat="44.27867" lon="0.7087">
        <ele>108.5</ele>
        <time>2016-05-15T08:35:35Z</time>
      </trkpt>
      <trkpt lat="44.27874" lon="0.7086">
        <ele>109.1</ele>
        <time>2016-05-15T08:35:38Z</time>
      </trkpt>
      <trkpt lat="44.27879" lon="0.70854">
        <ele>109.7</ele>
        <time>2016-05-15T08:35:40Z</time>
      </trkpt>
      <trkpt lat="44.27889" lon="0.70845">
        <ele>110.7</ele>
        <time>2016-05-15T08:35:44Z</time>
      </trkpt>
      <trkpt lat="44.27896" lon="0.70837">
        <ele>111.3</ele>
        <time>2016-05-15T08:35:47Z</time>
      </trkpt>
      <trkpt lat="44.27903" lon="0.70828">
        <ele>111.7</ele>
        <time>2016-05-15T08:35:50Z</time>
      </trkpt>
      <trkpt lat="44.27909" lon="0.70817">
        <ele>111.9</ele>
        <time>2016-05-15T08:35:53Z</time>
      </trkpt>
      <trkpt lat="44.27918" lon="0.70806">
        <ele>112.1</ele>
        <time>2016-05-15T08:35:57Z</time>
      </trkpt>
      <trkpt lat="44.27925" lon="0.70796">
        <ele>112</ele>
        <time>2016-05-15T08:36:00Z</time>
      </trkpt>
      <trkpt lat="44.27935" lon="0.70779">
        <ele>111.9</ele>
        <time>2016-05-15T08:36:05Z</time>
      </trkpt>
      <trkpt lat="44.27937" lon="0.70776">
        <ele>111.9</ele>
        <time>2016-05-15T08:36:06Z</time>
      </trkpt>
      <trkpt lat="44.27949" lon="0.70757">
        <ele>111.7</ele>
        <time>2016-05-15T08:36:12Z</time>
      </trkpt>
      <trkpt lat="44.27951" lon="0.70755">
        <ele>111.6</ele>
        <time>2016-05-15T08:36:13Z</time>
      </trkpt>
      <trkpt lat="44.27975" lon="0.70728">
        <ele>112</ele>
        <time>2016-05-15T08:36:22Z</time>
      </trkpt>
      <trkpt lat="44.27991" lon="0.70714">
        <ele>111.7</ele>
        <time>2016-05-15T08:36:27Z</time>
      </trkpt>
      <trkpt lat="44.28001" lon="0.70706">
        <ele>111.5</ele>
        <time>2016-05-15T08:36:30Z</time>
      </trkpt>
      <trkpt lat="44.2802" lon="0.70691">
        <ele>111.8</ele>
        <time>2016-05-15T08:36:36Z</time>
      </trkpt>
      <trkpt lat="44.28023" lon="0.70688">
        <ele>111.8</ele>
        <time>2016-05-15T08:36:37Z</time>
      </trkpt>
      <trkpt lat="44.28043" lon="0.70671">
        <ele>111.8</ele>
        <time>2016-05-15T08:36:44Z</time>
      </trkpt>
      <trkpt lat="44.28048" lon="0.70666">
        <ele>112.2</ele>
        <time>2016-05-15T08:36:46Z</time>
      </trkpt>
      <trkpt lat="44.28059" lon="0.70657">
        <ele>112.9</ele>
        <time>2016-05-15T08:36:50Z</time>
      </trkpt>
      <trkpt lat="44.2807" lon="0.7065">
        <ele>113.3</ele>
        <time>2016-05-15T08:36:54Z</time>
      </trkpt>
      <trkpt lat="44.28083" lon="0.70641">
        <ele>113.5</ele>
        <time>2016-05-15T08:36:59Z</time>
      </trkpt>
      <trkpt lat="44.28105" lon="0.70624">
        <ele>112.3</ele>
        <time>2016-05-15T08:37:05Z</time>
      </trkpt>
      <trkpt lat="44.28124" lon="0.70608">
        <ele>112.6</ele>
        <time>2016-05-15T08:37:10Z</time>
      </trkpt>
      <trkpt lat="44.28135" lon="0.706">
        <ele>113.6</ele>
        <time>2016-05-15T08:37:13Z</time>
      </trkpt>
      <trkpt lat="44.28158" lon="0.70579">
        <ele>114.7</ele>
        <time>2016-05-15T08:37:20Z</time>
      </trkpt>
      <trkpt lat="44.28175" lon="0.70561">
        <ele>114</ele>
        <time>2016-05-15T08:37:25Z</time>
      </trkpt>
      <trkpt lat="44.28185" lon="0.7055">
        <ele>112.9</ele>
        <time>2016-05-15T08:37:28Z</time>
      </trkpt>
      <trkpt lat="44.28203" lon="0.70531">
        <ele>111.7</ele>
        <time>2016-05-15T08:37:34Z</time>
      </trkpt>
      <trkpt lat="44.28213" lon="0.70521">
        <ele>112.2</ele>
        <time>2016-05-15T08:37:37Z</time>
      </trkpt>
      <trkpt lat="44.2823" lon="0.70503">
        <ele>114.3</ele>
        <time>2016-05-15T08:37:43Z</time>
      </trkpt>
      <trkpt lat="44.28237" lon="0.70499">
        <ele>115</ele>
        <time>2016-05-15T08:37:45Z</time>
      </trkpt>
      <trkpt lat="44.28259" lon="0.70473">
        <ele>116</ele>
        <time>2016-05-15T08:37:53Z</time>
      </trkpt>
      <trkpt lat="44.28266" lon="0.70461">
        <ele>115.7</ele>
        <time>2016-05-15T08:37:56Z</time>
      </trkpt>
      <trkpt lat="44.28272" lon="0.70448">
        <ele>115.8</ele>
        <time>2016-05-15T08:37:59Z</time>
      </trkpt>
      <trkpt lat="44.28288" lon="0.70413">
        <ele>115.6</ele>
        <time>2016-05-15T08:38:07Z</time>
      </trkpt>
      <trkpt lat="44.28298" lon="0.70385">
        <ele>115.4</ele>
        <time>2016-05-15T08:38:14Z</time>
      </trkpt>
      <trkpt lat="44.28311" lon="0.70357">
        <ele>116.1</ele>
        <time>2016-05-15T08:38:19Z</time>
      </trkpt>
      <trkpt lat="44.28331" lon="0.70328">
        <ele>116.8</ele>
        <time>2016-05-15T08:38:24Z</time>
      </trkpt>
      <trkpt lat="44.2834" lon="0.70315">
        <ele>116.6</ele>
        <time>2016-05-15T08:38:26Z</time>
      </trkpt>
      <trkpt lat="44.28356" lon="0.70293">
        <ele>115.7</ele>
        <time>2016-05-15T08:38:29Z</time>
      </trkpt>
      <trkpt lat="44.28362" lon="0.70285">
        <ele>117.3</ele>
        <time>2016-05-15T08:38:30Z</time>
      </trkpt>
      <trkpt lat="44.28379" lon="0.70262">
        <ele>123.9</ele>
        <time>2016-05-15T08:38:33Z</time>
      </trkpt>
      <trkpt lat="44.28395" lon="0.70241">
        <ele>129.3</ele>
        <time>2016-05-15T08:38:36Z</time>
      </trkpt>
      <trkpt lat="44.28416" lon="0.70218">
        <ele>134.2</ele>
        <time>2016-05-15T08:38:40Z</time>
      </trkpt>
      <trkpt lat="44.28426" lon="0.70212">
        <ele>135.4</ele>
        <time>2016-05-15T08:38:42Z</time>
      </trkpt>
      <trkpt lat="44.28439" lon="0.70206">
        <ele>136.3</ele>
        <time>2016-05-15T08:38:45Z</time>
      </trkpt>
      <trkpt lat="44.28446" lon="0.70202">
        <ele>137.1</ele>
        <time>2016-05-15T08:38:47Z</time>
      </trkpt>
      <trkpt lat="44.28455" lon="0.70197">
        <ele>138.1</ele>
        <time>2016-05-15T08:38:50Z</time>
      </trkpt>
      <trkpt lat="44.28464" lon="0.70193">
        <ele>138.8</ele>
        <time>2016-05-15T08:38:53Z</time>
      </trkpt>
      <trkpt lat="44.28467" lon="0.70191">
        <ele>139</ele>
        <time>2016-05-15T08:38:54Z</time>
      </trkpt>
      <trkpt lat="44.2848" lon="0.70183">
        <ele>140</ele>
        <time>2016-05-15T08:38:59Z</time>
      </trkpt>
      <trkpt lat="44.28483" lon="0.70181">
        <ele>140.2</ele>
        <time>2016-05-15T08:39:00Z</time>
      </trkpt>
      <trkpt lat="44.28492" lon="0.70177">
        <ele>140.5</ele>
        <time>2016-05-15T08:39:03Z</time>
      </trkpt>
      <trkpt lat="44.28502" lon="0.70171">
        <ele>141</ele>
        <time>2016-05-15T08:39:07Z</time>
      </trkpt>
      <trkpt lat="44.28511" lon="0.70166">
        <ele>141.4</ele>
        <time>2016-05-15T08:39:10Z</time>
      </trkpt>
      <trkpt lat="44.28513" lon="0.70164">
        <ele>141.6</ele>
        <time>2016-05-15T08:39:11Z</time>
      </trkpt>
      <trkpt lat="44.28519" lon="0.70159">
        <ele>142.2</ele>
        <time>2016-05-15T08:39:13Z</time>
      </trkpt>
      <trkpt lat="44.28527" lon="0.70146">
        <ele>144.1</ele>
        <time>2016-05-15T08:39:17Z</time>
      </trkpt>
      <trkpt lat="44.2853" lon="0.70139">
        <ele>145.3</ele>
        <time>2016-05-15T08:39:19Z</time>
      </trkpt>
      <trkpt lat="44.28534" lon="0.70129">
        <ele>147.2</ele>
        <time>2016-05-15T08:39:22Z</time>
      </trkpt>
      <trkpt lat="44.28538" lon="0.70109">
        <ele>150.1</ele>
        <time>2016-05-15T08:39:27Z</time>
      </trkpt>
      <trkpt lat="44.2854" lon="0.70101">
        <ele>151.3</ele>
        <time>2016-05-15T08:39:29Z</time>
      </trkpt>
      <trkpt lat="44.28543" lon="0.70083">
        <ele>153.9</ele>
        <time>2016-05-15T08:39:34Z</time>
      </trkpt>
      <trkpt lat="44.28546" lon="0.70064">
        <ele>156.5</ele>
        <time>2016-05-15T08:39:39Z</time>
      </trkpt>
      <trkpt lat="44.28548" lon="0.70052">
        <ele>158</ele>
        <time>2016-05-15T08:39:42Z</time>
      </trkpt>
      <trkpt lat="44.2855" lon="0.70044">
        <ele>158.9</ele>
        <time>2016-05-15T08:39:44Z</time>
      </trkpt>
      <trkpt lat="44.28557" lon="0.7002">
        <ele>159.2</ele>
        <time>2016-05-15T08:39:50Z</time>
      </trkpt>
      <trkpt lat="44.2856" lon="0.7001">
        <ele>159.2</ele>
        <time>2016-05-15T08:39:53Z</time>
      </trkpt>
      <trkpt lat="44.28563" lon="0.70003">
        <ele>159.2</ele>
        <time>2016-05-15T08:39:55Z</time>
      </trkpt>
      <trkpt lat="44.28569" lon="0.6999">
        <ele>159.2</ele>
        <time>2016-05-15T08:39:58Z</time>
      </trkpt>
      <trkpt lat="44.28576" lon="0.69976">
        <ele>159.2</ele>
        <time>2016-05-15T08:40:02Z</time>
      </trkpt>
      <trkpt lat="44.28577" lon="0.69972">
        <ele>159.3</ele>
        <time>2016-05-15T08:40:03Z</time>
      </trkpt>
      <trkpt lat="44.28587" lon="0.69952">
        <ele>159.5</ele>
        <time>2016-05-15T08:40:09Z</time>
      </trkpt>
      <trkpt lat="44.2859" lon="0.69946">
        <ele>159.5</ele>
        <time>2016-05-15T08:40:11Z</time>
      </trkpt>
      <trkpt lat="44.28594" lon="0.69938">
        <ele>159.7</ele>
        <time>2016-05-15T08:40:14Z</time>
      </trkpt>
      <trkpt lat="44.28597" lon="0.69931">
        <ele>160</ele>
        <time>2016-05-15T08:40:16Z</time>
      </trkpt>
      <trkpt lat="44.28598" lon="0.69927">
        <ele>160.1</ele>
        <time>2016-05-15T08:40:17Z</time>
      </trkpt>
      <trkpt lat="44.286" lon="0.6992">
        <ele>160.5</ele>
        <time>2016-05-15T08:40:19Z</time>
      </trkpt>
      <trkpt lat="44.28601" lon="0.69916">
        <ele>160.7</ele>
        <time>2016-05-15T08:40:20Z</time>
      </trkpt>
      <trkpt lat="44.28608" lon="0.69898">
        <ele>161.7</ele>
        <time>2016-05-15T08:40:25Z</time>
      </trkpt>
      <trkpt lat="44.28611" lon="0.69891">
        <ele>162.2</ele>
        <time>2016-05-15T08:40:27Z</time>
      </trkpt>
      <trkpt lat="44.28615" lon="0.6988">
        <ele>163</ele>
        <time>2016-05-15T08:40:30Z</time>
      </trkpt>
      <trkpt lat="44.28621" lon="0.69871">
        <ele>163.5</ele>
        <time>2016-05-15T08:40:33Z</time>
      </trkpt>
      <trkpt lat="44.28629" lon="0.69859">
        <ele>163.6</ele>
        <time>2016-05-15T08:40:37Z</time>
      </trkpt>
      <trkpt lat="44.28632" lon="0.69842">
        <ele>164.2</ele>
        <time>2016-05-15T08:40:41Z</time>
      </trkpt>
      <trkpt lat="44.28632" lon="0.69838">
        <ele>164.4</ele>
        <time>2016-05-15T08:40:42Z</time>
      </trkpt>
      <trkpt lat="44.28636" lon="0.6982">
        <ele>164.8</ele>
        <time>2016-05-15T08:40:47Z</time>
      </trkpt>
      <trkpt lat="44.28639" lon="0.69814">
        <ele>164.7</ele>
        <time>2016-05-15T08:40:49Z</time>
      </trkpt>
      <trkpt lat="44.28642" lon="0.69809">
        <ele>164.5</ele>
        <time>2016-05-15T08:40:51Z</time>
      </trkpt>
      <trkpt lat="44.28645" lon="0.69806">
        <ele>164.3</ele>
        <time>2016-05-15T08:40:52Z</time>
      </trkpt>
      <trkpt lat="44.2865" lon="0.69797">
        <ele>163.8</ele>
        <time>2016-05-15T08:40:55Z</time>
      </trkpt>
      <trkpt lat="44.28655" lon="0.69789">
        <ele>163.7</ele>
        <time>2016-05-15T08:40:58Z</time>
      </trkpt>
      <trkpt lat="44.28665" lon="0.69779">
        <ele>163.5</ele>
        <time>2016-05-15T08:41:02Z</time>
      </trkpt>
      <trkpt lat="44.28667" lon="0.69778">
        <ele>163.3</ele>
        <time>2016-05-15T08:41:03Z</time>
      </trkpt>
      <trkpt lat="44.28681" lon="0.69776">
        <ele>161</ele>
        <time>2016-05-15T08:41:08Z</time>
      </trkpt>
      <trkpt lat="44.28687" lon="0.69782">
        <ele>159.4</ele>
        <time>2016-05-15T08:41:10Z</time>
      </trkpt>
      <trkpt lat="44.28692" lon="0.6979">
        <ele>157.8</ele>
        <time>2016-05-15T08:41:12Z</time>
      </trkpt>
      <trkpt lat="44.2869" lon="0.69812">
        <ele>157.5</ele>
        <time>2016-05-15T08:41:16Z</time>
      </trkpt>
      <trkpt lat="44.28683" lon="0.69825">
        <ele>158.3</ele>
        <time>2016-05-15T08:41:19Z</time>
      </trkpt>
      <trkpt lat="44.28677" lon="0.69834">
        <ele>159</ele>
        <time>2016-05-15T08:41:21Z</time>
      </trkpt>
      <trkpt lat="44.28672" lon="0.69843">
        <ele>159.3</ele>
        <time>2016-05-15T08:41:23Z</time>
      </trkpt>
      <trkpt lat="44.28669" lon="0.69853">
        <ele>159.5</ele>
        <time>2016-05-15T08:41:25Z</time>
      </trkpt>
      <trkpt lat="44.28667" lon="0.69858">
        <ele>159.4</ele>
        <time>2016-05-15T08:41:26Z</time>
      </trkpt>
      <trkpt lat="44.28666" lon="0.69863">
        <ele>159.4</ele>
        <time>2016-05-15T08:41:27Z</time>
      </trkpt>
      <trkpt lat="44.28666" lon="0.69883">
        <ele>158.7</ele>
        <time>2016-05-15T08:41:32Z</time>
      </trkpt>
      <trkpt lat="44.28665" lon="0.69886">
        <ele>158.5</ele>
        <time>2016-05-15T08:41:33Z</time>
      </trkpt>
      <trkpt lat="44.28665" lon="0.69894">
        <ele>158</ele>
        <time>2016-05-15T08:41:37Z</time>
      </trkpt>
      <trkpt lat="44.28666" lon="0.69902">
        <ele>157.6</ele>
        <time>2016-05-15T08:41:40Z</time>
      </trkpt>
      <trkpt lat="44.28667" lon="0.69905">
        <ele>157.3</ele>
        <time>2016-05-15T08:41:42Z</time>
      </trkpt>
      <trkpt lat="44.28667" lon="0.69913">
        <ele>156.9</ele>
        <time>2016-05-15T08:41:45Z</time>
      </trkpt>
      <trkpt lat="44.28667" lon="0.69922">
        <ele>156.5</ele>
        <time>2016-05-15T08:41:48Z</time>
      </trkpt>
      <trkpt lat="44.28667" lon="0.69925">
        <ele>156.3</ele>
        <time>2016-05-15T08:41:49Z</time>
      </trkpt>
      <trkpt lat="44.28667" lon="0.6994">
        <ele>155.5</ele>
        <time>2016-05-15T08:41:54Z</time>
      </trkpt>
      <trkpt lat="44.28667" lon="0.69947">
        <ele>155.1</ele>
        <time>2016-05-15T08:41:56Z</time>
      </trkpt>
      <trkpt lat="44.28668" lon="0.69961">
        <ele>154.4</ele>
        <time>2016-05-15T08:42:00Z</time>
      </trkpt>
      <trkpt lat="44.28669" lon="0.69971">
        <ele>153.7</ele>
        <time>2016-05-15T08:42:03Z</time>
      </trkpt>
      <trkpt lat="44.28671" lon="0.69984">
        <ele>152.9</ele>
        <time>2016-05-15T08:42:07Z</time>
      </trkpt>
      <trkpt lat="44.28675" lon="0.69991">
        <ele>152.6</ele>
        <time>2016-05-15T08:42:10Z</time>
      </trkpt>
      <trkpt lat="44.28678" lon="0.69995">
        <ele>152.5</ele>
        <time>2016-05-15T08:42:12Z</time>
      </trkpt>
      <trkpt lat="44.28686" lon="0.70004">
        <ele>152.5</ele>
        <time>2016-05-15T08:42:17Z</time>
      </trkpt>
      <trkpt lat="44.28691" lon="0.70006">
        <ele>152.7</ele>
        <time>2016-05-15T08:42:19Z</time>
      </trkpt>
      <trkpt lat="44.28701" lon="0.70008">
        <ele>153.3</ele>
        <time>2016-05-15T08:42:24Z</time>
      </trkpt>
      <trkpt lat="44.28705" lon="0.70008">
        <ele>153.5</ele>
        <time>2016-05-15T08:42:26Z</time>
      </trkpt>
      <trkpt lat="44.28715" lon="0.70006">
        <ele>154.6</ele>
        <time>2016-05-15T08:42:31Z</time>
      </trkpt>
      <trkpt lat="44.2872" lon="0.70003">
        <ele>155.4</ele>
        <time>2016-05-15T08:42:35Z</time>
      </trkpt>
      <trkpt lat="44.2872" lon="0.70003">
        <ele>155.4</ele>
        <time>2016-05-15T08:42:37Z</time>
      </trkpt>
      <trkpt lat="44.28724" lon="0.69999">
        <ele>156.2</ele>
        <time>2016-05-15T08:44:26Z</time>
      </trkpt>
      <trkpt lat="44.28727" lon="0.69998">
        <ele>156.6</ele>
        <time>2016-05-15T08:44:27Z</time>
      </trkpt>
      <trkpt lat="44.28732" lon="0.69994">
        <ele>157.4</ele>
        <time>2016-05-15T08:44:29Z</time>
      </trkpt>
      <trkpt lat="44.28741" lon="0.69986">
        <ele>159.3</ele>
        <time>2016-05-15T08:44:33Z</time>
      </trkpt>
      <trkpt lat="44.28753" lon="0.69974">
        <ele>162.2</ele>
        <time>2016-05-15T08:44:38Z</time>
      </trkpt>
      <trkpt lat="44.28763" lon="0.69965">
        <ele>164.8</ele>
        <time>2016-05-15T08:44:42Z</time>
      </trkpt>
      <trkpt lat="44.28777" lon="0.69952">
        <ele>168.1</ele>
        <time>2016-05-15T08:44:48Z</time>
      </trkpt>
      <trkpt lat="44.2878" lon="0.69949">
        <ele>168.5</ele>
        <time>2016-05-15T08:44:49Z</time>
      </trkpt>
      <trkpt lat="44.28787" lon="0.69943">
        <ele>169.8</ele>
        <time>2016-05-15T08:44:52Z</time>
      </trkpt>
      <trkpt lat="44.28798" lon="0.69935">
        <ele>171</ele>
        <time>2016-05-15T08:44:56Z</time>
      </trkpt>
      <trkpt lat="44.28801" lon="0.69934">
        <ele>171.3</ele>
        <time>2016-05-15T08:44:57Z</time>
      </trkpt>
      <trkpt lat="44.28815" lon="0.69928">
        <ele>172.7</ele>
        <time>2016-05-15T08:45:02Z</time>
      </trkpt>
      <trkpt lat="44.28818" lon="0.69927">
        <ele>173.1</ele>
        <time>2016-05-15T08:45:03Z</time>
      </trkpt>
      <trkpt lat="44.28829" lon="0.69924">
        <ele>174.3</ele>
        <time>2016-05-15T08:45:07Z</time>
      </trkpt>
      <trkpt lat="44.28836" lon="0.69922">
        <ele>175</ele>
        <time>2016-05-15T08:45:09Z</time>
      </trkpt>
      <trkpt lat="44.28842" lon="0.69922">
        <ele>175.8</ele>
        <time>2016-05-15T08:45:11Z</time>
      </trkpt>
      <trkpt lat="44.2885" lon="0.69921">
        <ele>176.8</ele>
        <time>2016-05-15T08:45:14Z</time>
      </trkpt>
      <trkpt lat="44.28855" lon="0.69918">
        <ele>177.5</ele>
        <time>2016-05-15T08:45:16Z</time>
      </trkpt>
      <trkpt lat="44.28866" lon="0.69912">
        <ele>179.3</ele>
        <time>2016-05-15T08:45:21Z</time>
      </trkpt>
      <trkpt lat="44.28869" lon="0.69908">
        <ele>180.1</ele>
        <time>2016-05-15T08:45:23Z</time>
      </trkpt>
      <trkpt lat="44.28877" lon="0.69898">
        <ele>181.8</ele>
        <time>2016-05-15T08:45:28Z</time>
      </trkpt>
      <trkpt lat="44.28878" lon="0.69896">
        <ele>182</ele>
        <time>2016-05-15T08:45:29Z</time>
      </trkpt>
      <trkpt lat="44.28887" lon="0.69883">
        <ele>183.2</ele>
        <time>2016-05-15T08:45:34Z</time>
      </trkpt>
      <trkpt lat="44.28888" lon="0.69881">
        <ele>183.5</ele>
        <time>2016-05-15T08:45:35Z</time>
      </trkpt>
      <trkpt lat="44.28895" lon="0.69871">
        <ele>184.3</ele>
        <time>2016-05-15T08:45:40Z</time>
      </trkpt>
      <trkpt lat="44.28898" lon="0.69866">
        <ele>184.4</ele>
        <time>2016-05-15T08:45:42Z</time>
      </trkpt>
      <trkpt lat="44.28905" lon="0.69853">
        <ele>184.8</ele>
        <time>2016-05-15T08:45:47Z</time>
      </trkpt>
      <trkpt lat="44.28906" lon="0.6985">
        <ele>184.9</ele>
        <time>2016-05-15T08:45:48Z</time>
      </trkpt>
      <trkpt lat="44.2892" lon="0.69833">
        <ele>185.9</ele>
        <time>2016-05-15T08:45:54Z</time>
      </trkpt>
      <trkpt lat="44.28921" lon="0.69831">
        <ele>186</ele>
        <time>2016-05-15T08:45:55Z</time>
      </trkpt>
      <trkpt lat="44.2893" lon="0.69823">
        <ele>186.7</ele>
        <time>2016-05-15T08:45:59Z</time>
      </trkpt>
      <trkpt lat="44.28938" lon="0.69815">
        <ele>187.5</ele>
        <time>2016-05-15T08:46:03Z</time>
      </trkpt>
      <trkpt lat="44.28942" lon="0.69812">
        <ele>187.8</ele>
        <time>2016-05-15T08:46:05Z</time>
      </trkpt>
      <trkpt lat="44.28954" lon="0.69805">
        <ele>189</ele>
        <time>2016-05-15T08:46:11Z</time>
      </trkpt>
      <trkpt lat="44.28967" lon="0.698">
        <ele>189.4</ele>
        <time>2016-05-15T08:46:16Z</time>
      </trkpt>
      <trkpt lat="44.28973" lon="0.698">
        <ele>189.4</ele>
        <time>2016-05-15T08:46:18Z</time>
      </trkpt>
      <trkpt lat="44.28978" lon="0.698">
        <ele>189.4</ele>
        <time>2016-05-15T08:46:20Z</time>
      </trkpt>
      <trkpt lat="44.28992" lon="0.69801">
        <ele>189.3</ele>
        <time>2016-05-15T08:46:26Z</time>
      </trkpt>
      <trkpt lat="44.29005" lon="0.69809">
        <ele>188.6</ele>
        <time>2016-05-15T08:46:33Z</time>
      </trkpt>
      <trkpt lat="44.29013" lon="0.69816">
        <ele>187.9</ele>
        <time>2016-05-15T08:46:38Z</time>
      </trkpt>
      <trkpt lat="44.29018" lon="0.6982">
        <ele>187.6</ele>
        <time>2016-05-15T08:46:41Z</time>
      </trkpt>
      <trkpt lat="44.29031" lon="0.69824">
        <ele>187</ele>
        <time>2016-05-15T08:46:45Z</time>
      </trkpt>
      <trkpt lat="44.29035" lon="0.69824">
        <ele>187</ele>
        <time>2016-05-15T08:46:46Z</time>
      </trkpt>
      <trkpt lat="44.29052" lon="0.69819">
        <ele>187.9</ele>
        <time>2016-05-15T08:46:52Z</time>
      </trkpt>
      <trkpt lat="44.29055" lon="0.69817">
        <ele>188.2</ele>
        <time>2016-05-15T08:46:53Z</time>
      </trkpt>
      <trkpt lat="44.29063" lon="0.69807">
        <ele>189.4</ele>
        <time>2016-05-15T08:46:58Z</time>
      </trkpt>
      <trkpt lat="44.29065" lon="0.69805">
        <ele>189.6</ele>
        <time>2016-05-15T08:46:59Z</time>
      </trkpt>
      <trkpt lat="44.29075" lon="0.69796">
        <ele>190.5</ele>
        <time>2016-05-15T08:47:05Z</time>
      </trkpt>
      <trkpt lat="44.29077" lon="0.69795">
        <ele>190.6</ele>
        <time>2016-05-15T08:47:06Z</time>
      </trkpt>
      <trkpt lat="44.29083" lon="0.6979">
        <ele>191</ele>
        <time>2016-05-15T08:47:10Z</time>
      </trkpt>
      <trkpt lat="44.29088" lon="0.6979">
        <ele>191.1</ele>
        <time>2016-05-15T08:47:14Z</time>
      </trkpt>
      <trkpt lat="44.29092" lon="0.6979">
        <ele>191.2</ele>
        <time>2016-05-15T08:47:17Z</time>
      </trkpt>
      <trkpt lat="44.29093" lon="0.6979">
        <ele>191.2</ele>
        <time>2016-05-15T08:47:22Z</time>
      </trkpt>
      <trkpt lat="44.29102" lon="0.69789">
        <ele>191.5</ele>
        <time>2016-05-15T08:50:20Z</time>
      </trkpt>
      <trkpt lat="44.29106" lon="0.6979">
        <ele>191.5</ele>
        <time>2016-05-15T08:50:21Z</time>
      </trkpt>
      <trkpt lat="44.2913" lon="0.69794">
        <ele>192.2</ele>
        <time>2016-05-15T08:50:27Z</time>
      </trkpt>
      <trkpt lat="44.29164" lon="0.698">
        <ele>193.3</ele>
        <time>2016-05-15T08:50:35Z</time>
      </trkpt>
      <trkpt lat="44.29172" lon="0.69801">
        <ele>193.6</ele>
        <time>2016-05-15T08:50:37Z</time>
      </trkpt>
      <trkpt lat="44.29187" lon="0.698">
        <ele>194.1</ele>
        <time>2016-05-15T08:50:41Z</time>
      </trkpt>
      <trkpt lat="44.29191" lon="0.69798">
        <ele>194.3</ele>
        <time>2016-05-15T08:50:42Z</time>
      </trkpt>
      <trkpt lat="44.29196" lon="0.69794">
        <ele>194.5</ele>
        <time>2016-05-15T08:50:43Z</time>
      </trkpt>
      <trkpt lat="44.29206" lon="0.69784">
        <ele>194.6</ele>
        <time>2016-05-15T08:50:45Z</time>
      </trkpt>
      <trkpt lat="44.29214" lon="0.69769">
        <ele>194.1</ele>
        <time>2016-05-15T08:50:47Z</time>
      </trkpt>
      <trkpt lat="44.29218" lon="0.6975">
        <ele>193.4</ele>
        <time>2016-05-15T08:50:49Z</time>
      </trkpt>
      <trkpt lat="44.29218" lon="0.69719">
        <ele>192.3</ele>
        <time>2016-05-15T08:50:52Z</time>
      </trkpt>
      <trkpt lat="44.29217" lon="0.69709">
        <ele>192</ele>
        <time>2016-05-15T08:50:53Z</time>
      </trkpt>
      <trkpt lat="44.29214" lon="0.69659">
        <ele>190.9</ele>
        <time>2016-05-15T08:50:58Z</time>
      </trkpt>
      <trkpt lat="44.29215" lon="0.69632">
        <ele>190.3</ele>
        <time>2016-05-15T08:51:01Z</time>
      </trkpt>
      <trkpt lat="44.29217" lon="0.69616">
        <ele>190.2</ele>
        <time>2016-05-15T08:51:03Z</time>
      </trkpt>
      <trkpt lat="44.29219" lon="0.69558">
        <ele>190.2</ele>
        <time>2016-05-15T08:51:11Z</time>
      </trkpt>
      <trkpt lat="44.2922" lon="0.6954">
        <ele>190.3</ele>
        <time>2016-05-15T08:51:14Z</time>
      </trkpt>
      <trkpt lat="44.29223" lon="0.69517">
        <ele>190.7</ele>
        <time>2016-05-15T08:51:18Z</time>
      </trkpt>
      <trkpt lat="44.29227" lon="0.69499">
        <ele>191.1</ele>
        <time>2016-05-15T08:51:21Z</time>
      </trkpt>
      <trkpt lat="44.29232" lon="0.69475">
        <ele>191.6</ele>
        <time>2016-05-15T08:51:25Z</time>
      </trkpt>
      <trkpt lat="44.29234" lon="0.69469">
        <ele>191.8</ele>
        <time>2016-05-15T08:51:26Z</time>
      </trkpt>
      <trkpt lat="44.29236" lon="0.69464">
        <ele>191.9</ele>
        <time>2016-05-15T08:51:27Z</time>
      </trkpt>
      <trkpt lat="44.2924" lon="0.69453">
        <ele>192.3</ele>
        <time>2016-05-15T08:51:29Z</time>
      </trkpt>
      <trkpt lat="44.29242" lon="0.69448">
        <ele>192.5</ele>
        <time>2016-05-15T08:51:30Z</time>
      </trkpt>
      <trkpt lat="44.29243" lon="0.69443">
        <ele>192.8</ele>
        <time>2016-05-15T08:51:31Z</time>
      </trkpt>
      <trkpt lat="44.29248" lon="0.69433">
        <ele>193.3</ele>
        <time>2016-05-15T08:51:33Z</time>
      </trkpt>
      <trkpt lat="44.29253" lon="0.69419">
        <ele>194.1</ele>
        <time>2016-05-15T08:51:36Z</time>
      </trkpt>
      <trkpt lat="44.29261" lon="0.69393">
        <ele>195.6</ele>
        <time>2016-05-15T08:51:41Z</time>
      </trkpt>
      <trkpt lat="44.29264" lon="0.69383">
        <ele>196.3</ele>
        <time>2016-05-15T08:51:43Z</time>
      </trkpt>
      <trkpt lat="44.29271" lon="0.69362">
        <ele>197.5</ele>
        <time>2016-05-15T08:51:48Z</time>
      </trkpt>
      <trkpt lat="44.29274" lon="0.69343">
        <ele>198.1</ele>
        <time>2016-05-15T08:51:52Z</time>
      </trkpt>
      <trkpt lat="44.29274" lon="0.69335">
        <ele>198.2</ele>
        <time>2016-05-15T08:51:54Z</time>
      </trkpt>
      <trkpt lat="44.29271" lon="0.69316">
        <ele>198.3</ele>
        <time>2016-05-15T08:51:59Z</time>
      </trkpt>
      <trkpt lat="44.2927" lon="0.69308">
        <ele>198.3</ele>
        <time>2016-05-15T08:52:01Z</time>
      </trkpt>
      <trkpt lat="44.29267" lon="0.69294">
        <ele>198.3</ele>
        <time>2016-05-15T08:52:04Z</time>
      </trkpt>
      <trkpt lat="44.29264" lon="0.69277">
        <ele>198.1</ele>
        <time>2016-05-15T08:52:08Z</time>
      </trkpt>
      <trkpt lat="44.29261" lon="0.6926">
        <ele>198.1</ele>
        <time>2016-05-15T08:52:12Z</time>
      </trkpt>
      <trkpt lat="44.2926" lon="0.69244">
        <ele>198.2</ele>
        <time>2016-05-15T08:52:16Z</time>
      </trkpt>
      <trkpt lat="44.29258" lon="0.69211">
        <ele>198.6</ele>
        <time>2016-05-15T08:52:23Z</time>
      </trkpt>
      <trkpt lat="44.29262" lon="0.69173">
        <ele>199.4</ele>
        <time>2016-05-15T08:52:31Z</time>
      </trkpt>
      <trkpt lat="44.29266" lon="0.69153">
        <ele>200</ele>
        <time>2016-05-15T08:52:37Z</time>
      </trkpt>
      <trkpt lat="44.29271" lon="0.69153">
        <ele>200.3</ele>
        <time>2016-05-15T08:52:52Z</time>
      </trkpt>
      <trkpt lat="44.29272" lon="0.69157">
        <ele>200.4</ele>
        <time>2016-05-15T08:52:54Z</time>
      </trkpt>
      <trkpt lat="44.29276" lon="0.69161">
        <ele>200.6</ele>
        <time>2016-05-15T08:52:57Z</time>
      </trkpt>
      <trkpt lat="44.2928" lon="0.69163">
        <ele>200.7</ele>
        <time>2016-05-15T08:52:59Z</time>
      </trkpt>
      <trkpt lat="44.29285" lon="0.69167">
        <ele>201</ele>
        <time>2016-05-15T08:53:02Z</time>
      </trkpt>
      <trkpt lat="44.29292" lon="0.69172">
        <ele>201.4</ele>
        <time>2016-05-15T08:53:06Z</time>
      </trkpt>
      <trkpt lat="44.29308" lon="0.69186">
        <ele>201.5</ele>
        <time>2016-05-15T08:53:13Z</time>
      </trkpt>
      <trkpt lat="44.29319" lon="0.69196">
        <ele>201.8</ele>
        <time>2016-05-15T08:53:17Z</time>
      </trkpt>
      <trkpt lat="44.29324" lon="0.69201">
        <ele>202.1</ele>
        <time>2016-05-15T08:53:19Z</time>
      </trkpt>
      <trkpt lat="44.29346" lon="0.69216">
        <ele>203</ele>
        <time>2016-05-15T08:53:26Z</time>
      </trkpt>
      <trkpt lat="44.29368" lon="0.69233">
        <ele>204</ele>
        <time>2016-05-15T08:53:32Z</time>
      </trkpt>
      <trkpt lat="44.29397" lon="0.69259">
        <ele>204.1</ele>
        <time>2016-05-15T08:53:39Z</time>
      </trkpt>
      <trkpt lat="44.29411" lon="0.6927">
        <ele>203.9</ele>
        <time>2016-05-15T08:53:42Z</time>
      </trkpt>
      <trkpt lat="44.29439" lon="0.69292">
        <ele>203.5</ele>
        <time>2016-05-15T08:53:48Z</time>
      </trkpt>
      <trkpt lat="44.29453" lon="0.69303">
        <ele>203.1</ele>
        <time>2016-05-15T08:53:51Z</time>
      </trkpt>
      <trkpt lat="44.29472" lon="0.6932">
        <ele>202.4</ele>
        <time>2016-05-15T08:53:55Z</time>
      </trkpt>
      <trkpt lat="44.29499" lon="0.69341">
        <ele>201.3</ele>
        <time>2016-05-15T08:54:00Z</time>
      </trkpt>
      <trkpt lat="44.2951" lon="0.69351">
        <ele>201</ele>
        <time>2016-05-15T08:54:02Z</time>
      </trkpt>
      <trkpt lat="44.29556" lon="0.69388">
        <ele>199.4</ele>
        <time>2016-05-15T08:54:10Z</time>
      </trkpt>
      <trkpt lat="44.29594" lon="0.69419">
        <ele>198.2</ele>
        <time>2016-05-15T08:54:17Z</time>
      </trkpt>
      <trkpt lat="44.29628" lon="0.69446">
        <ele>197.7</ele>
        <time>2016-05-15T08:54:24Z</time>
      </trkpt>
      <trkpt lat="44.2966" lon="0.69474">
        <ele>198</ele>
        <time>2016-05-15T08:54:31Z</time>
      </trkpt>
      <trkpt lat="44.29705" lon="0.69509">
        <ele>198.3</ele>
        <time>2016-05-15T08:54:40Z</time>
      </trkpt>
      <trkpt lat="44.29756" lon="0.6955">
        <ele>196.9</ele>
        <time>2016-05-15T08:54:50Z</time>
      </trkpt>
      <trkpt lat="44.29803" lon="0.69588">
        <ele>196.7</ele>
        <time>2016-05-15T08:55:00Z</time>
      </trkpt>
      <trkpt lat="44.29808" lon="0.69591">
        <ele>196.8</ele>
        <time>2016-05-15T08:55:01Z</time>
      </trkpt>
      <trkpt lat="44.29849" lon="0.69623">
        <ele>197.9</ele>
        <time>2016-05-15T08:55:10Z</time>
      </trkpt>
      <trkpt lat="44.29885" lon="0.69651">
        <ele>198.6</ele>
        <time>2016-05-15T08:55:18Z</time>
      </trkpt>
      <trkpt lat="44.29932" lon="0.69688">
        <ele>199.9</ele>
        <time>2016-05-15T08:55:28Z</time>
      </trkpt>
      <trkpt lat="44.2998" lon="0.69724">
        <ele>200.8</ele>
        <time>2016-05-15T08:55:38Z</time>
      </trkpt>
      <trkpt lat="44.3002" lon="0.69754">
        <ele>200.9</ele>
        <time>2016-05-15T08:55:46Z</time>
      </trkpt>
      <trkpt lat="44.30055" lon="0.69783">
        <ele>201.2</ele>
        <time>2016-05-15T08:55:53Z</time>
      </trkpt>
      <trkpt lat="44.30077" lon="0.69816">
        <ele>200.6</ele>
        <time>2016-05-15T08:55:58Z</time>
      </trkpt>
      <trkpt lat="44.3008" lon="0.69824">
        <ele>200.4</ele>
        <time>2016-05-15T08:55:59Z</time>
      </trkpt>
      <trkpt lat="44.30095" lon="0.69864">
        <ele>199.8</ele>
        <time>2016-05-15T08:56:04Z</time>
      </trkpt>
      <trkpt lat="44.3012" lon="0.69933">
        <ele>199.2</ele>
        <time>2016-05-15T08:56:13Z</time>
      </trkpt>
      <trkpt lat="44.30123" lon="0.69941">
        <ele>199.1</ele>
        <time>2016-05-15T08:56:14Z</time>
      </trkpt>
      <trkpt lat="44.30147" lon="0.69999">
        <ele>199.5</ele>
        <time>2016-05-15T08:56:22Z</time>
      </trkpt>
      <trkpt lat="44.30158" lon="0.70016">
        <ele>199.7</ele>
        <time>2016-05-15T08:56:25Z</time>
      </trkpt>
      <trkpt lat="44.30172" lon="0.7003">
        <ele>199.9</ele>
        <time>2016-05-15T08:56:28Z</time>
      </trkpt>
      <trkpt lat="44.30201" lon="0.7005">
        <ele>200.1</ele>
        <time>2016-05-15T08:56:34Z</time>
      </trkpt>
      <trkpt lat="44.30211" lon="0.70054">
        <ele>200.1</ele>
        <time>2016-05-15T08:56:36Z</time>
      </trkpt>
      <trkpt lat="44.30238" lon="0.70059">
        <ele>200</ele>
        <time>2016-05-15T08:56:41Z</time>
      </trkpt>
      <trkpt lat="44.30265" lon="0.70057">
        <ele>199.8</ele>
        <time>2016-05-15T08:56:47Z</time>
      </trkpt>
      <trkpt lat="44.3027" lon="0.70056">
        <ele>199.8</ele>
        <time>2016-05-15T08:56:48Z</time>
      </trkpt>
      <trkpt lat="44.30309" lon="0.7005">
        <ele>199.8</ele>
        <time>2016-05-15T08:56:56Z</time>
      </trkpt>
      <trkpt lat="44.30356" lon="0.70043">
        <ele>200</ele>
        <time>2016-05-15T08:57:05Z</time>
      </trkpt>
      <trkpt lat="44.30379" lon="0.70043">
        <ele>199.9</ele>
        <time>2016-05-15T08:57:09Z</time>
      </trkpt>
      <trkpt lat="44.3039" lon="0.70046">
        <ele>199.6</ele>
        <time>2016-05-15T08:57:11Z</time>
      </trkpt>
      <trkpt lat="44.30421" lon="0.70062">
        <ele>199.1</ele>
        <time>2016-05-15T08:57:17Z</time>
      </trkpt>
      <trkpt lat="44.30461" lon="0.70094">
        <ele>199.8</ele>
        <time>2016-05-15T08:57:26Z</time>
      </trkpt>
      <trkpt lat="44.30478" lon="0.70107">
        <ele>200.1</ele>
        <time>2016-05-15T08:57:30Z</time>
      </trkpt>
      <trkpt lat="44.30495" lon="0.7012">
        <ele>200.4</ele>
        <time>2016-05-15T08:57:34Z</time>
      </trkpt>
      <trkpt lat="44.30534" lon="0.70152">
        <ele>201.6</ele>
        <time>2016-05-15T08:57:44Z</time>
      </trkpt>
      <trkpt lat="44.30555" lon="0.70167">
        <ele>202.2</ele>
        <time>2016-05-15T08:57:50Z</time>
      </trkpt>
      <trkpt lat="44.30559" lon="0.70169">
        <ele>202.3</ele>
        <time>2016-05-15T08:57:51Z</time>
      </trkpt>
      <trkpt lat="44.30582" lon="0.70188">
        <ele>203</ele>
        <time>2016-05-15T08:57:58Z</time>
      </trkpt>
      <trkpt lat="44.30609" lon="0.70207">
        <ele>204.1</ele>
        <time>2016-05-15T08:58:06Z</time>
      </trkpt>
      <trkpt lat="44.30613" lon="0.70211">
        <ele>204.2</ele>
        <time>2016-05-15T08:58:07Z</time>
      </trkpt>
      <trkpt lat="44.30631" lon="0.70225">
        <ele>204</ele>
        <time>2016-05-15T08:58:11Z</time>
      </trkpt>
      <trkpt lat="44.3066" lon="0.70248">
        <ele>203.2</ele>
        <time>2016-05-15T08:58:16Z</time>
      </trkpt>
      <trkpt lat="44.30666" lon="0.70253">
        <ele>203</ele>
        <time>2016-05-15T08:58:17Z</time>
      </trkpt>
      <trkpt lat="44.30716" lon="0.7029">
        <ele>202.1</ele>
        <time>2016-05-15T08:58:25Z</time>
      </trkpt>
      <trkpt lat="44.30721" lon="0.70295">
        <ele>202.2</ele>
        <time>2016-05-15T08:58:26Z</time>
      </trkpt>
      <trkpt lat="44.30766" lon="0.7033">
        <ele>203</ele>
        <time>2016-05-15T08:58:35Z</time>
      </trkpt>
      <trkpt lat="44.30779" lon="0.70341">
        <ele>203.3</ele>
        <time>2016-05-15T08:58:38Z</time>
      </trkpt>
      <trkpt lat="44.30799" lon="0.70356">
        <ele>203.8</ele>
        <time>2016-05-15T08:58:42Z</time>
      </trkpt>
      <trkpt lat="44.30816" lon="0.70369">
        <ele>204</ele>
        <time>2016-05-15T08:58:45Z</time>
      </trkpt>
      <trkpt lat="44.30833" lon="0.70382">
        <ele>204.2</ele>
        <time>2016-05-15T08:58:48Z</time>
      </trkpt>
      <trkpt lat="44.30844" lon="0.7039">
        <ele>204.4</ele>
        <time>2016-05-15T08:58:50Z</time>
      </trkpt>
      <trkpt lat="44.30866" lon="0.70407">
        <ele>204.5</ele>
        <time>2016-05-15T08:58:55Z</time>
      </trkpt>
      <trkpt lat="44.3087" lon="0.7041">
        <ele>204.5</ele>
        <time>2016-05-15T08:58:56Z</time>
      </trkpt>
      <trkpt lat="44.30889" lon="0.70425">
        <ele>205.5</ele>
        <time>2016-05-15T08:59:01Z</time>
      </trkpt>
      <trkpt lat="44.30897" lon="0.7043">
        <ele>206</ele>
        <time>2016-05-15T08:59:03Z</time>
      </trkpt>
      <trkpt lat="44.309" lon="0.70433">
        <ele>206.3</ele>
        <time>2016-05-15T08:59:04Z</time>
      </trkpt>
      <trkpt lat="44.30916" lon="0.70444">
        <ele>207.6</ele>
        <time>2016-05-15T08:59:09Z</time>
      </trkpt>
      <trkpt lat="44.30926" lon="0.70454">
        <ele>208.6</ele>
        <time>2016-05-15T08:59:14Z</time>
      </trkpt>
      <trkpt lat="44.30933" lon="0.7046">
        <ele>209.3</ele>
        <time>2016-05-15T08:59:17Z</time>
      </trkpt>
      <trkpt lat="44.30942" lon="0.70469">
        <ele>210.2</ele>
        <time>2016-05-15T08:59:21Z</time>
      </trkpt>
      <trkpt lat="44.30945" lon="0.70471">
        <ele>210.5</ele>
        <time>2016-05-15T08:59:22Z</time>
      </trkpt>
      <trkpt lat="44.30955" lon="0.70478">
        <ele>211.5</ele>
        <time>2016-05-15T08:59:26Z</time>
      </trkpt>
      <trkpt lat="44.30964" lon="0.70485">
        <ele>212.3</ele>
        <time>2016-05-15T08:59:30Z</time>
      </trkpt>
      <trkpt lat="44.30967" lon="0.70486">
        <ele>212.5</ele>
        <time>2016-05-15T08:59:31Z</time>
      </trkpt>
      <trkpt lat="44.30973" lon="0.70492">
        <ele>213.2</ele>
        <time>2016-05-15T08:59:34Z</time>
      </trkpt>
      <trkpt lat="44.30977" lon="0.70496">
        <ele>213.6</ele>
        <time>2016-05-15T08:59:36Z</time>
      </trkpt>
      <trkpt lat="44.30982" lon="0.70499">
        <ele>214.1</ele>
        <time>2016-05-15T08:59:39Z</time>
      </trkpt>
      <trkpt lat="44.30988" lon="0.70503">
        <ele>214.6</ele>
        <time>2016-05-15T08:59:42Z</time>
      </trkpt>
      <trkpt lat="44.30991" lon="0.70506">
        <ele>214.9</ele>
        <time>2016-05-15T08:59:44Z</time>
      </trkpt>
      <trkpt lat="44.30997" lon="0.70511">
        <ele>215.5</ele>
        <time>2016-05-15T08:59:47Z</time>
      </trkpt>
      <trkpt lat="44.31001" lon="0.70513">
        <ele>215.9</ele>
        <time>2016-05-15T08:59:49Z</time>
      </trkpt>
      <trkpt lat="44.31008" lon="0.70519">
        <ele>216.6</ele>
        <time>2016-05-15T08:59:53Z</time>
      </trkpt>
      <trkpt lat="44.31014" lon="0.70524">
        <ele>217.2</ele>
        <time>2016-05-15T08:59:56Z</time>
      </trkpt>
      <trkpt lat="44.31017" lon="0.70526">
        <ele>217.5</ele>
        <time>2016-05-15T08:59:58Z</time>
      </trkpt>
      <trkpt lat="44.31021" lon="0.70527">
        <ele>217.9</ele>
        <time>2016-05-15T09:00:00Z</time>
      </trkpt>
      <trkpt lat="44.31031" lon="0.70536">
        <ele>218.9</ele>
        <time>2016-05-15T09:00:05Z</time>
      </trkpt>
      <trkpt lat="44.3104" lon="0.70544">
        <ele>220</ele>
        <time>2016-05-15T09:00:10Z</time>
      </trkpt>
      <trkpt lat="44.31041" lon="0.70545">
        <ele>220.2</ele>
        <time>2016-05-15T09:00:11Z</time>
      </trkpt>
      <trkpt lat="44.31048" lon="0.7055">
        <ele>221.1</ele>
        <time>2016-05-15T09:00:15Z</time>
      </trkpt>
      <trkpt lat="44.31055" lon="0.70556">
        <ele>222.1</ele>
        <time>2016-05-15T09:00:19Z</time>
      </trkpt>
      <trkpt lat="44.31059" lon="0.70559">
        <ele>222.6</ele>
        <time>2016-05-15T09:00:21Z</time>
      </trkpt>
      <trkpt lat="44.31066" lon="0.70568">
        <ele>223.8</ele>
        <time>2016-05-15T09:00:26Z</time>
      </trkpt>
      <trkpt lat="44.31069" lon="0.70571">
        <ele>224.2</ele>
        <time>2016-05-15T09:00:28Z</time>
      </trkpt>
      <trkpt lat="44.31072" lon="0.70577">
        <ele>224.8</ele>
        <time>2016-05-15T09:00:31Z</time>
      </trkpt>
      <trkpt lat="44.31075" lon="0.70585">
        <ele>225.5</ele>
        <time>2016-05-15T09:00:35Z</time>
      </trkpt>
      <trkpt lat="44.31076" lon="0.7059">
        <ele>225.9</ele>
        <time>2016-05-15T09:00:37Z</time>
      </trkpt>
      <trkpt lat="44.31075" lon="0.706">
        <ele>226.4</ele>
        <time>2016-05-15T09:00:41Z</time>
      </trkpt>
      <trkpt lat="44.31074" lon="0.70605">
        <ele>226.6</ele>
        <time>2016-05-15T09:00:46Z</time>
      </trkpt>
      <trkpt lat="44.31069" lon="0.70617">
        <ele>227.1</ele>
        <time>2016-05-15T09:03:13Z</time>
      </trkpt>
      <trkpt lat="44.31064" lon="0.70631">
        <ele>227.5</ele>
        <time>2016-05-15T09:03:16Z</time>
      </trkpt>
      <trkpt lat="44.31063" lon="0.70636">
        <ele>227.6</ele>
        <time>2016-05-15T09:03:17Z</time>
      </trkpt>
      <trkpt lat="44.31057" lon="0.70662">
        <ele>228.5</ele>
        <time>2016-05-15T09:03:23Z</time>
      </trkpt>
      <trkpt lat="44.31054" lon="0.70671">
        <ele>228.9</ele>
        <time>2016-05-15T09:03:25Z</time>
      </trkpt>
      <trkpt lat="44.31053" lon="0.70677">
        <ele>229.1</ele>
        <time>2016-05-15T09:03:26Z</time>
      </trkpt>
      <trkpt lat="44.31052" lon="0.70685">
        <ele>229.5</ele>
        <time>2016-05-15T09:03:27Z</time>
      </trkpt>
      <trkpt lat="44.3105" lon="0.70692">
        <ele>229.9</ele>
        <time>2016-05-15T09:03:28Z</time>
      </trkpt>
      <trkpt lat="44.31045" lon="0.70709">
        <ele>230.9</ele>
        <time>2016-05-15T09:03:30Z</time>
      </trkpt>
      <trkpt lat="44.31042" lon="0.70719">
        <ele>230.7</ele>
        <time>2016-05-15T09:03:31Z</time>
      </trkpt>
      <trkpt lat="44.31036" lon="0.70741">
        <ele>230.1</ele>
        <time>2016-05-15T09:03:33Z</time>
      </trkpt>
      <trkpt lat="44.31029" lon="0.70765">
        <ele>229.6</ele>
        <time>2016-05-15T09:03:35Z</time>
      </trkpt>
      <trkpt lat="44.31024" lon="0.70791">
        <ele>229.2</ele>
        <time>2016-05-15T09:03:37Z</time>
      </trkpt>
      <trkpt lat="44.31025" lon="0.7082">
        <ele>228.2</ele>
        <time>2016-05-15T09:03:39Z</time>
      </trkpt>
      <trkpt lat="44.31035" lon="0.70861">
        <ele>226.1</ele>
        <time>2016-05-15T09:03:42Z</time>
      </trkpt>
      <trkpt lat="44.31043" lon="0.7089">
        <ele>224.5</ele>
        <time>2016-05-15T09:03:44Z</time>
      </trkpt>
      <trkpt lat="44.31051" lon="0.70918">
        <ele>222.8</ele>
        <time>2016-05-15T09:03:46Z</time>
      </trkpt>
      <trkpt lat="44.31057" lon="0.70932">
        <ele>221.8</ele>
        <time>2016-05-15T09:03:47Z</time>
      </trkpt>
      <trkpt lat="44.31064" lon="0.70944">
        <ele>220.7</ele>
        <time>2016-05-15T09:03:48Z</time>
      </trkpt>
      <trkpt lat="44.31079" lon="0.70969">
        <ele>218.2</ele>
        <time>2016-05-15T09:03:50Z</time>
      </trkpt>
      <trkpt lat="44.31087" lon="0.70981">
        <ele>216.9</ele>
        <time>2016-05-15T09:03:51Z</time>
      </trkpt>
      <trkpt lat="44.31095" lon="0.70993">
        <ele>215.8</ele>
        <time>2016-05-15T09:03:52Z</time>
      </trkpt>
      <trkpt lat="44.31104" lon="0.71005">
        <ele>214.8</ele>
        <time>2016-05-15T09:03:53Z</time>
      </trkpt>
      <trkpt lat="44.31134" lon="0.7105">
        <ele>212.9</ele>
        <time>2016-05-15T09:03:57Z</time>
      </trkpt>
      <trkpt lat="44.31147" lon="0.71071">
        <ele>212.5</ele>
        <time>2016-05-15T09:03:59Z</time>
      </trkpt>
      <trkpt lat="44.31167" lon="0.71102">
        <ele>211.6</ele>
        <time>2016-05-15T09:04:02Z</time>
      </trkpt>
      <trkpt lat="44.31173" lon="0.71111">
        <ele>211.2</ele>
        <time>2016-05-15T09:04:03Z</time>
      </trkpt>
      <trkpt lat="44.3118" lon="0.71121">
        <ele>210.8</ele>
        <time>2016-05-15T09:04:04Z</time>
      </trkpt>
      <trkpt lat="44.31198" lon="0.71149">
        <ele>209.4</ele>
        <time>2016-05-15T09:04:07Z</time>
      </trkpt>
      <trkpt lat="44.31217" lon="0.71176">
        <ele>207.8</ele>
        <time>2016-05-15T09:04:10Z</time>
      </trkpt>
      <trkpt lat="44.3123" lon="0.71191">
        <ele>206.6</ele>
        <time>2016-05-15T09:04:12Z</time>
      </trkpt>
      <trkpt lat="44.31237" lon="0.71198">
        <ele>206</ele>
        <time>2016-05-15T09:04:13Z</time>
      </trkpt>
      <trkpt lat="44.31266" lon="0.71221">
        <ele>204</ele>
        <time>2016-05-15T09:04:17Z</time>
      </trkpt>
      <trkpt lat="44.31303" lon="0.71247">
        <ele>202.4</ele>
        <time>2016-05-15T09:04:23Z</time>
      </trkpt>
      <trkpt lat="44.31314" lon="0.71255">
        <ele>202.6</ele>
        <time>2016-05-15T09:04:25Z</time>
      </trkpt>
      <trkpt lat="44.31341" lon="0.71275">
        <ele>203.2</ele>
        <time>2016-05-15T09:04:30Z</time>
      </trkpt>
      <trkpt lat="44.3138" lon="0.71305">
        <ele>204</ele>
        <time>2016-05-15T09:04:38Z</time>
      </trkpt>
      <trkpt lat="44.31414" lon="0.71331">
        <ele>203.5</ele>
        <time>2016-05-15T09:04:44Z</time>
      </trkpt>
      <trkpt lat="44.31421" lon="0.71337">
        <ele>203.4</ele>
        <time>2016-05-15T09:04:45Z</time>
      </trkpt>
      <trkpt lat="44.31435" lon="0.71347">
        <ele>203</ele>
        <time>2016-05-15T09:04:47Z</time>
      </trkpt>
      <trkpt lat="44.31458" lon="0.71364">
        <ele>202.3</ele>
        <time>2016-05-15T09:04:50Z</time>
      </trkpt>
      <trkpt lat="44.31483" lon="0.71382">
        <ele>201</ele>
        <time>2016-05-15T09:04:53Z</time>
      </trkpt>
      <trkpt lat="44.31509" lon="0.71403">
        <ele>199.6</ele>
        <time>2016-05-15T09:04:56Z</time>
      </trkpt>
      <trkpt lat="44.31518" lon="0.7141">
        <ele>199.1</ele>
        <time>2016-05-15T09:04:57Z</time>
      </trkpt>
      <trkpt lat="44.31567" lon="0.71446">
        <ele>197.1</ele>
        <time>2016-05-15T09:05:03Z</time>
      </trkpt>
      <trkpt lat="44.31592" lon="0.71465">
        <ele>197.1</ele>
        <time>2016-05-15T09:05:07Z</time>
      </trkpt>
      <trkpt lat="44.31598" lon="0.71469">
        <ele>197.1</ele>
        <time>2016-05-15T09:05:08Z</time>
      </trkpt>
      <trkpt lat="44.31607" lon="0.71477">
        <ele>197.3</ele>
        <time>2016-05-15T09:05:10Z</time>
      </trkpt>
      <trkpt lat="44.31624" lon="0.7149">
        <ele>197.7</ele>
        <time>2016-05-15T09:05:14Z</time>
      </trkpt>
      <trkpt lat="44.31638" lon="0.71502">
        <ele>198.4</ele>
        <time>2016-05-15T09:05:19Z</time>
      </trkpt>
      <trkpt lat="44.31652" lon="0.71514">
        <ele>199.2</ele>
        <time>2016-05-15T09:05:24Z</time>
      </trkpt>
      <trkpt lat="44.31662" lon="0.7152">
        <ele>199.7</ele>
        <time>2016-05-15T09:05:27Z</time>
      </trkpt>
      <trkpt lat="44.31671" lon="0.71527">
        <ele>200.2</ele>
        <time>2016-05-15T09:05:30Z</time>
      </trkpt>
      <trkpt lat="44.31681" lon="0.71534">
        <ele>200.8</ele>
        <time>2016-05-15T09:05:33Z</time>
      </trkpt>
      <trkpt lat="44.31704" lon="0.71552">
        <ele>202</ele>
        <time>2016-05-15T09:05:39Z</time>
      </trkpt>
      <trkpt lat="44.31708" lon="0.71556">
        <ele>202.2</ele>
        <time>2016-05-15T09:05:40Z</time>
      </trkpt>
      <trkpt lat="44.31725" lon="0.71568">
        <ele>201.8</ele>
        <time>2016-05-15T09:05:43Z</time>
      </trkpt>
      <trkpt lat="44.31737" lon="0.71578">
        <ele>201.4</ele>
        <time>2016-05-15T09:05:45Z</time>
      </trkpt>
      <trkpt lat="44.3175" lon="0.71588">
        <ele>201</ele>
        <time>2016-05-15T09:05:47Z</time>
      </trkpt>
      <trkpt lat="44.31789" lon="0.71618">
        <ele>199.2</ele>
        <time>2016-05-15T09:05:53Z</time>
      </trkpt>
      <trkpt lat="44.3182" lon="0.71641">
        <ele>199.4</ele>
        <time>2016-05-15T09:05:59Z</time>
      </trkpt>
      <trkpt lat="44.31838" lon="0.71655">
        <ele>199.9</ele>
        <time>2016-05-15T09:06:03Z</time>
      </trkpt>
      <trkpt lat="44.31851" lon="0.71666">
        <ele>200.5</ele>
        <time>2016-05-15T09:06:06Z</time>
      </trkpt>
      <trkpt lat="44.31864" lon="0.71675">
        <ele>201</ele>
        <time>2016-05-15T09:06:09Z</time>
      </trkpt>
      <trkpt lat="44.31881" lon="0.71686">
        <ele>201.9</ele>
        <time>2016-05-15T09:06:13Z</time>
      </trkpt>
      <trkpt lat="44.31888" lon="0.71692">
        <ele>202.5</ele>
        <time>2016-05-15T09:06:15Z</time>
      </trkpt>
      <trkpt lat="44.31899" lon="0.71701">
        <ele>203.4</ele>
        <time>2016-05-15T09:06:19Z</time>
      </trkpt>
      <trkpt lat="44.31903" lon="0.71705">
        <ele>203.8</ele>
        <time>2016-05-15T09:06:21Z</time>
      </trkpt>
      <trkpt lat="44.31908" lon="0.7171">
        <ele>204.2</ele>
        <time>2016-05-15T09:06:25Z</time>
      </trkpt>
      <trkpt lat="44.31911" lon="0.71713">
        <ele>204.4</ele>
        <time>2016-05-15T09:06:31Z</time>
      </trkpt>
      <trkpt lat="44.31917" lon="0.71717">
        <ele>204.7</ele>
        <time>2016-05-15T09:07:36Z</time>
      </trkpt>
      <trkpt lat="44.31917" lon="0.71718">
        <ele>204.7</ele>
        <time>2016-05-15T09:07:38Z</time>
      </trkpt>
      <trkpt lat="44.31922" lon="0.71722">
        <ele>204.9</ele>
        <time>2016-05-15T09:08:20Z</time>
      </trkpt>
      <trkpt lat="44.31927" lon="0.71727">
        <ele>205.1</ele>
        <time>2016-05-15T09:08:22Z</time>
      </trkpt>
      <trkpt lat="44.31931" lon="0.71732">
        <ele>205.3</ele>
        <time>2016-05-15T09:08:23Z</time>
      </trkpt>
      <trkpt lat="44.31943" lon="0.71748">
        <ele>205.7</ele>
        <time>2016-05-15T09:08:26Z</time>
      </trkpt>
      <trkpt lat="44.3196" lon="0.71768">
        <ele>205.9</ele>
        <time>2016-05-15T09:08:29Z</time>
      </trkpt>
      <trkpt lat="44.31972" lon="0.71784">
        <ele>204.9</ele>
        <time>2016-05-15T09:08:31Z</time>
      </trkpt>
      <trkpt lat="44.31986" lon="0.71802">
        <ele>203.5</ele>
        <time>2016-05-15T09:08:33Z</time>
      </trkpt>
      <trkpt lat="44.32001" lon="0.71821">
        <ele>201.7</ele>
        <time>2016-05-15T09:08:35Z</time>
      </trkpt>
      <trkpt lat="44.32016" lon="0.71841">
        <ele>199.9</ele>
        <time>2016-05-15T09:08:37Z</time>
      </trkpt>
      <trkpt lat="44.32041" lon="0.7187">
        <ele>197.2</ele>
        <time>2016-05-15T09:08:40Z</time>
      </trkpt>
      <trkpt lat="44.32065" lon="0.71898">
        <ele>195</ele>
        <time>2016-05-15T09:08:43Z</time>
      </trkpt>
      <trkpt lat="44.32073" lon="0.71906">
        <ele>194.4</ele>
        <time>2016-05-15T09:08:44Z</time>
      </trkpt>
      <trkpt lat="44.3209" lon="0.71919">
        <ele>193.3</ele>
        <time>2016-05-15T09:08:46Z</time>
      </trkpt>
      <trkpt lat="44.32099" lon="0.71922">
        <ele>192.7</ele>
        <time>2016-05-15T09:08:47Z</time>
      </trkpt>
      <trkpt lat="44.32131" lon="0.7193">
        <ele>191.1</ele>
        <time>2016-05-15T09:08:51Z</time>
      </trkpt>
      <trkpt lat="44.32165" lon="0.71927">
        <ele>191.8</ele>
        <time>2016-05-15T09:08:56Z</time>
      </trkpt>
      <trkpt lat="44.32171" lon="0.71925">
        <ele>191.9</ele>
        <time>2016-05-15T09:08:57Z</time>
      </trkpt>
      <trkpt lat="44.32196" lon="0.71917">
        <ele>192.2</ele>
        <time>2016-05-15T09:09:01Z</time>
      </trkpt>
      <trkpt lat="44.32206" lon="0.71913">
        <ele>192.3</ele>
        <time>2016-05-15T09:09:03Z</time>
      </trkpt>
      <trkpt lat="44.3221" lon="0.71912">
        <ele>192.5</ele>
        <time>2016-05-15T09:09:04Z</time>
      </trkpt>
      <trkpt lat="44.32222" lon="0.71908">
        <ele>193.7</ele>
        <time>2016-05-15T09:09:07Z</time>
      </trkpt>
      <trkpt lat="44.32226" lon="0.71907">
        <ele>194.1</ele>
        <time>2016-05-15T09:09:08Z</time>
      </trkpt>
      <trkpt lat="44.32236" lon="0.71904">
        <ele>195.2</ele>
        <time>2016-05-15T09:09:11Z</time>
      </trkpt>
      <trkpt lat="44.32246" lon="0.71902">
        <ele>196.2</ele>
        <time>2016-05-15T09:09:14Z</time>
      </trkpt>
      <trkpt lat="44.32253" lon="0.719">
        <ele>197</ele>
        <time>2016-05-15T09:09:16Z</time>
      </trkpt>
      <trkpt lat="44.32268" lon="0.71896">
        <ele>198.5</ele>
        <time>2016-05-15T09:09:20Z</time>
      </trkpt>
      <trkpt lat="44.32277" lon="0.71894">
        <ele>199.5</ele>
        <time>2016-05-15T09:09:22Z</time>
      </trkpt>
      <trkpt lat="44.32281" lon="0.71892">
        <ele>199.9</ele>
        <time>2016-05-15T09:09:23Z</time>
      </trkpt>
      <trkpt lat="44.32296" lon="0.71887">
        <ele>201.4</ele>
        <time>2016-05-15T09:09:27Z</time>
      </trkpt>
      <trkpt lat="44.32299" lon="0.71886">
        <ele>201.6</ele>
        <time>2016-05-15T09:09:28Z</time>
      </trkpt>
      <trkpt lat="44.32307" lon="0.71884">
        <ele>202.2</ele>
        <time>2016-05-15T09:09:31Z</time>
      </trkpt>
      <trkpt lat="44.32317" lon="0.71881">
        <ele>202.9</ele>
        <time>2016-05-15T09:09:35Z</time>
      </trkpt>
      <trkpt lat="44.32322" lon="0.71879">
        <ele>203.2</ele>
        <time>2016-05-15T09:09:37Z</time>
      </trkpt>
      <trkpt lat="44.32339" lon="0.71874">
        <ele>204.4</ele>
        <time>2016-05-15T09:09:44Z</time>
      </trkpt>
      <trkpt lat="44.32358" lon="0.71867">
        <ele>205.5</ele>
        <time>2016-05-15T09:09:51Z</time>
      </trkpt>
      <trkpt lat="44.3237" lon="0.71864">
        <ele>206.3</ele>
        <time>2016-05-15T09:09:55Z</time>
      </trkpt>
      <trkpt lat="44.32381" lon="0.71862">
        <ele>206.8</ele>
        <time>2016-05-15T09:09:58Z</time>
      </trkpt>
      <trkpt lat="44.32407" lon="0.71854">
        <ele>207.7</ele>
        <time>2016-05-15T09:10:06Z</time>
      </trkpt>
      <trkpt lat="44.32417" lon="0.7185">
        <ele>207.9</ele>
        <time>2016-05-15T09:10:09Z</time>
      </trkpt>
      <trkpt lat="44.32432" lon="0.71845">
        <ele>208.4</ele>
        <time>2016-05-15T09:10:14Z</time>
      </trkpt>
      <trkpt lat="44.32442" lon="0.71843">
        <ele>208.7</ele>
        <time>2016-05-15T09:10:17Z</time>
      </trkpt>
      <trkpt lat="44.32458" lon="0.71838">
        <ele>209.2</ele>
        <time>2016-05-15T09:10:22Z</time>
      </trkpt>
      <trkpt lat="44.32464" lon="0.71836">
        <ele>209.2</ele>
        <time>2016-05-15T09:10:24Z</time>
      </trkpt>
      <trkpt lat="44.32486" lon="0.7183">
        <ele>209.3</ele>
        <time>2016-05-15T09:10:30Z</time>
      </trkpt>
      <trkpt lat="44.32517" lon="0.71821">
        <ele>209.3</ele>
        <time>2016-05-15T09:10:37Z</time>
      </trkpt>
      <trkpt lat="44.32563" lon="0.71807">
        <ele>209.6</ele>
        <time>2016-05-15T09:10:47Z</time>
      </trkpt>
      <trkpt lat="44.32597" lon="0.71798">
        <ele>210.2</ele>
        <time>2016-05-15T09:10:55Z</time>
      </trkpt>
      <trkpt lat="44.32627" lon="0.71789">
        <ele>211</ele>
        <time>2016-05-15T09:11:02Z</time>
      </trkpt>
      <trkpt lat="44.32637" lon="0.71786">
        <ele>211</ele>
        <time>2016-05-15T09:11:04Z</time>
      </trkpt>
      <trkpt lat="44.32662" lon="0.71772">
        <ele>211.4</ele>
        <time>2016-05-15T09:11:09Z</time>
      </trkpt>
      <trkpt lat="44.32667" lon="0.71768">
        <ele>211.6</ele>
        <time>2016-05-15T09:11:10Z</time>
      </trkpt>
      <trkpt lat="44.32697" lon="0.71741">
        <ele>213.1</ele>
        <time>2016-05-15T09:11:16Z</time>
      </trkpt>
      <trkpt lat="44.32722" lon="0.71713">
        <ele>213.8</ele>
        <time>2016-05-15T09:11:21Z</time>
      </trkpt>
      <trkpt lat="44.32738" lon="0.71696">
        <ele>212.9</ele>
        <time>2016-05-15T09:11:24Z</time>
      </trkpt>
      <trkpt lat="44.32743" lon="0.7169">
        <ele>212.6</ele>
        <time>2016-05-15T09:11:25Z</time>
      </trkpt>
      <trkpt lat="44.32763" lon="0.7167">
        <ele>211.8</ele>
        <time>2016-05-15T09:11:29Z</time>
      </trkpt>
      <trkpt lat="44.32766" lon="0.71665">
        <ele>211.8</ele>
        <time>2016-05-15T09:11:30Z</time>
      </trkpt>
      <trkpt lat="44.32775" lon="0.71656">
        <ele>211.6</ele>
        <time>2016-05-15T09:11:33Z</time>
      </trkpt>
      <trkpt lat="44.32778" lon="0.71659">
        <ele>211.4</ele>
        <time>2016-05-15T09:11:34Z</time>
      </trkpt>
      <trkpt lat="44.32781" lon="0.71662">
        <ele>211.1</ele>
        <time>2016-05-15T09:11:37Z</time>
      </trkpt>
      <trkpt lat="44.32781" lon="0.71662">
        <ele>211.2</ele>
        <time>2016-05-15T09:11:38Z</time>
      </trkpt>
      <trkpt lat="44.32785" lon="0.71669">
        <ele>210.7</ele>
        <time>2016-05-15T09:11:57Z</time>
      </trkpt>
      <trkpt lat="44.32789" lon="0.71676">
        <ele>210.3</ele>
        <time>2016-05-15T09:11:59Z</time>
      </trkpt>
      <trkpt lat="44.32793" lon="0.71702">
        <ele>209.2</ele>
        <time>2016-05-15T09:12:06Z</time>
      </trkpt>
      <trkpt lat="44.32798" lon="0.71722">
        <ele>208.8</ele>
        <time>2016-05-15T09:12:11Z</time>
      </trkpt>
      <trkpt lat="44.3281" lon="0.71727">
        <ele>208.6</ele>
        <time>2016-05-15T09:12:15Z</time>
      </trkpt>
      <trkpt lat="44.32827" lon="0.71733">
        <ele>208.3</ele>
        <time>2016-05-15T09:12:21Z</time>
      </trkpt>
      <trkpt lat="44.32848" lon="0.71737">
        <ele>208</ele>
        <time>2016-05-15T09:12:27Z</time>
      </trkpt>
      <trkpt lat="44.32851" lon="0.71735">
        <ele>208</ele>
        <time>2016-05-15T09:12:28Z</time>
      </trkpt>
      <trkpt lat="44.3287" lon="0.71731">
        <ele>207.8</ele>
        <time>2016-05-15T09:12:32Z</time>
      </trkpt>
      <trkpt lat="44.32876" lon="0.7173">
        <ele>207.7</ele>
        <time>2016-05-15T09:12:33Z</time>
      </trkpt>
      <trkpt lat="44.32905" lon="0.71722">
        <ele>207.4</ele>
        <time>2016-05-15T09:12:38Z</time>
      </trkpt>
      <trkpt lat="44.3291" lon="0.71721">
        <ele>207.3</ele>
        <time>2016-05-15T09:12:39Z</time>
      </trkpt>
      <trkpt lat="44.32941" lon="0.71714">
        <ele>207</ele>
        <time>2016-05-15T09:12:45Z</time>
      </trkpt>
      <trkpt lat="44.32972" lon="0.71706">
        <ele>207.1</ele>
        <time>2016-05-15T09:12:52Z</time>
      </trkpt>
      <trkpt lat="44.3298" lon="0.71705">
        <ele>207.1</ele>
        <time>2016-05-15T09:12:54Z</time>
      </trkpt>
      <trkpt lat="44.32993" lon="0.71701">
        <ele>207.2</ele>
        <time>2016-05-15T09:12:57Z</time>
      </trkpt>
      <trkpt lat="44.33025" lon="0.71694">
        <ele>207.2</ele>
        <time>2016-05-15T09:13:04Z</time>
      </trkpt>
      <trkpt lat="44.33047" lon="0.7169">
        <ele>207.4</ele>
        <time>2016-05-15T09:13:09Z</time>
      </trkpt>
      <trkpt lat="44.3306" lon="0.71688">
        <ele>207.7</ele>
        <time>2016-05-15T09:13:12Z</time>
      </trkpt>
      <trkpt lat="44.33091" lon="0.71683">
        <ele>208.7</ele>
        <time>2016-05-15T09:13:19Z</time>
      </trkpt>
      <trkpt lat="44.33095" lon="0.71683">
        <ele>208.8</ele>
        <time>2016-05-15T09:13:20Z</time>
      </trkpt>
      <trkpt lat="44.33127" lon="0.71679">
        <ele>209.8</ele>
        <time>2016-05-15T09:13:28Z</time>
      </trkpt>
      <trkpt lat="44.33131" lon="0.71679">
        <ele>209.9</ele>
        <time>2016-05-15T09:13:29Z</time>
      </trkpt>
      <trkpt lat="44.33151" lon="0.71676">
        <ele>210.4</ele>
        <time>2016-05-15T09:13:34Z</time>
      </trkpt>
      <trkpt lat="44.33169" lon="0.71674">
        <ele>211</ele>
        <time>2016-05-15T09:13:39Z</time>
      </trkpt>
      <trkpt lat="44.33204" lon="0.71672">
        <ele>212.1</ele>
        <time>2016-05-15T09:13:48Z</time>
      </trkpt>
      <trkpt lat="44.33241" lon="0.7167">
        <ele>211.6</ele>
        <time>2016-05-15T09:13:56Z</time>
      </trkpt>
      <trkpt lat="44.33245" lon="0.71669">
        <ele>211.5</ele>
        <time>2016-05-15T09:13:57Z</time>
      </trkpt>
      <trkpt lat="44.33254" lon="0.71668">
        <ele>211.4</ele>
        <time>2016-05-15T09:13:59Z</time>
      </trkpt>
      <trkpt lat="44.33264" lon="0.71666">
        <ele>211.2</ele>
        <time>2016-05-15T09:14:01Z</time>
      </trkpt>
      <trkpt lat="44.33269" lon="0.71665">
        <ele>211.1</ele>
        <time>2016-05-15T09:14:02Z</time>
      </trkpt>
      <trkpt lat="44.33303" lon="0.71655">
        <ele>210.4</ele>
        <time>2016-05-15T09:14:09Z</time>
      </trkpt>
      <trkpt lat="44.33336" lon="0.71646">
        <ele>209.7</ele>
        <time>2016-05-15T09:14:17Z</time>
      </trkpt>
      <trkpt lat="44.33362" lon="0.71638">
        <ele>209.1</ele>
        <time>2016-05-15T09:14:24Z</time>
      </trkpt>
      <trkpt lat="44.33388" lon="0.7163">
        <ele>209.3</ele>
        <time>2016-05-15T09:14:31Z</time>
      </trkpt>
      <trkpt lat="44.33392" lon="0.71628">
        <ele>209.4</ele>
        <time>2016-05-15T09:14:32Z</time>
      </trkpt>
      <trkpt lat="44.33417" lon="0.7162">
        <ele>210.1</ele>
        <time>2016-05-15T09:14:39Z</time>
      </trkpt>
      <trkpt lat="44.33427" lon="0.71616">
        <ele>210.4</ele>
        <time>2016-05-15T09:14:42Z</time>
      </trkpt>
      <trkpt lat="44.33441" lon="0.71612">
        <ele>210.8</ele>
        <time>2016-05-15T09:14:45Z</time>
      </trkpt>
      <trkpt lat="44.3345" lon="0.71609">
        <ele>211</ele>
        <time>2016-05-15T09:14:47Z</time>
      </trkpt>
      <trkpt lat="44.33462" lon="0.71606">
        <ele>211.4</ele>
        <time>2016-05-15T09:14:50Z</time>
      </trkpt>
      <trkpt lat="44.33468" lon="0.71604">
        <ele>211.8</ele>
        <time>2016-05-15T09:14:52Z</time>
      </trkpt>
      <trkpt lat="44.33482" lon="0.716">
        <ele>212.5</ele>
        <time>2016-05-15T09:14:56Z</time>
      </trkpt>
      <trkpt lat="44.33495" lon="0.71596">
        <ele>213.3</ele>
        <time>2016-05-15T09:15:00Z</time>
      </trkpt>
      <trkpt lat="44.33515" lon="0.71589">
        <ele>214.4</ele>
        <time>2016-05-15T09:15:05Z</time>
      </trkpt>
      <trkpt lat="44.33519" lon="0.71588">
        <ele>214.7</ele>
        <time>2016-05-15T09:15:06Z</time>
      </trkpt>
      <trkpt lat="44.33533" lon="0.71584">
        <ele>215.5</ele>
        <time>2016-05-15T09:15:10Z</time>
      </trkpt>
      <trkpt lat="44.33544" lon="0.71581">
        <ele>216.3</ele>
        <time>2016-05-15T09:15:13Z</time>
      </trkpt>
      <trkpt lat="44.33561" lon="0.71575">
        <ele>217.8</ele>
        <time>2016-05-15T09:15:18Z</time>
      </trkpt>
      <trkpt lat="44.33567" lon="0.71573">
        <ele>218.3</ele>
        <time>2016-05-15T09:15:20Z</time>
      </trkpt>
      <trkpt lat="44.33586" lon="0.71569">
        <ele>220.1</ele>
        <time>2016-05-15T09:15:26Z</time>
      </trkpt>
      <trkpt lat="44.33592" lon="0.71567">
        <ele>220.7</ele>
        <time>2016-05-15T09:15:28Z</time>
      </trkpt>
      <trkpt lat="44.3361" lon="0.71561">
        <ele>222.5</ele>
        <time>2016-05-15T09:15:34Z</time>
      </trkpt>
      <trkpt lat="44.33634" lon="0.71551">
        <ele>224.2</ele>
        <time>2016-05-15T09:15:41Z</time>
      </trkpt>
      <trkpt lat="44.33654" lon="0.71542">
        <ele>223.9</ele>
        <time>2016-05-15T09:15:47Z</time>
      </trkpt>
      <trkpt lat="44.33682" lon="0.71528">
        <ele>223.7</ele>
        <time>2016-05-15T09:15:54Z</time>
      </trkpt>
      <trkpt lat="44.33705" lon="0.71517">
        <ele>223.6</ele>
        <time>2016-05-15T09:15:59Z</time>
      </trkpt>
      <trkpt lat="44.33719" lon="0.7151">
        <ele>223.3</ele>
        <time>2016-05-15T09:16:02Z</time>
      </trkpt>
      <trkpt lat="44.3373" lon="0.71505">
        <ele>222.9</ele>
        <time>2016-05-15T09:16:04Z</time>
      </trkpt>
      <trkpt lat="44.33769" lon="0.71485">
        <ele>220.7</ele>
        <time>2016-05-15T09:16:11Z</time>
      </trkpt>
      <trkpt lat="44.33815" lon="0.71462">
        <ele>217.8</ele>
        <time>2016-05-15T09:16:19Z</time>
      </trkpt>
      <trkpt lat="44.33821" lon="0.7146">
        <ele>217.6</ele>
        <time>2016-05-15T09:16:20Z</time>
      </trkpt>
      <trkpt lat="44.33868" lon="0.71437">
        <ele>216.4</ele>
        <time>2016-05-15T09:16:29Z</time>
      </trkpt>
      <trkpt lat="44.33902" lon="0.71419">
        <ele>216.6</ele>
        <time>2016-05-15T09:16:36Z</time>
      </trkpt>
      <trkpt lat="44.33938" lon="0.71403">
        <ele>216.9</ele>
        <time>2016-05-15T09:16:43Z</time>
      </trkpt>
      <trkpt lat="44.33991" lon="0.71378">
        <ele>217.1</ele>
        <time>2016-05-15T09:16:53Z</time>
      </trkpt>
      <trkpt lat="44.33996" lon="0.71375">
        <ele>217.1</ele>
        <time>2016-05-15T09:16:54Z</time>
      </trkpt>
      <trkpt lat="44.34037" lon="0.71355">
        <ele>217.1</ele>
        <time>2016-05-15T09:17:02Z</time>
      </trkpt>
      <trkpt lat="44.34073" lon="0.71337">
        <ele>218.2</ele>
        <time>2016-05-15T09:17:10Z</time>
      </trkpt>
      <trkpt lat="44.34077" lon="0.71335">
        <ele>218.3</ele>
        <time>2016-05-15T09:17:11Z</time>
      </trkpt>
      <trkpt lat="44.34106" lon="0.71321">
        <ele>219.6</ele>
        <time>2016-05-15T09:17:18Z</time>
      </trkpt>
      <trkpt lat="44.34113" lon="0.71318">
        <ele>219.9</ele>
        <time>2016-05-15T09:17:20Z</time>
      </trkpt>
      <trkpt lat="44.34144" lon="0.71302">
        <ele>220.6</ele>
        <time>2016-05-15T09:17:28Z</time>
      </trkpt>
      <trkpt lat="44.3418" lon="0.71279">
        <ele>220.4</ele>
        <time>2016-05-15T09:17:37Z</time>
      </trkpt>
      <trkpt lat="44.34216" lon="0.71246">
        <ele>219.1</ele>
        <time>2016-05-15T09:17:46Z</time>
      </trkpt>
      <trkpt lat="44.34239" lon="0.71225">
        <ele>217.7</ele>
        <time>2016-05-15T09:17:51Z</time>
      </trkpt>
      <trkpt lat="44.34249" lon="0.71214">
        <ele>217.1</ele>
        <time>2016-05-15T09:17:53Z</time>
      </trkpt>
      <trkpt lat="44.34265" lon="0.71198">
        <ele>215.6</ele>
        <time>2016-05-15T09:17:56Z</time>
      </trkpt>
      <trkpt lat="44.34289" lon="0.71174">
        <ele>213</ele>
        <time>2016-05-15T09:18:00Z</time>
      </trkpt>
      <trkpt lat="44.34309" lon="0.71155">
        <ele>211.5</ele>
        <time>2016-05-15T09:18:03Z</time>
      </trkpt>
      <trkpt lat="44.34331" lon="0.71134">
        <ele>210.3</ele>
        <time>2016-05-15T09:18:06Z</time>
      </trkpt>
      <trkpt lat="44.34338" lon="0.71126">
        <ele>209.9</ele>
        <time>2016-05-15T09:18:07Z</time>
      </trkpt>
      <trkpt lat="44.34368" lon="0.71097">
        <ele>208.9</ele>
        <time>2016-05-15T09:18:11Z</time>
      </trkpt>
      <trkpt lat="44.34389" lon="0.71076">
        <ele>207.9</ele>
        <time>2016-05-15T09:18:14Z</time>
      </trkpt>
      <trkpt lat="44.34411" lon="0.71054">
        <ele>206.9</ele>
        <time>2016-05-15T09:18:17Z</time>
      </trkpt>
      <trkpt lat="44.34452" lon="0.71013">
        <ele>205.6</ele>
        <time>2016-05-15T09:18:23Z</time>
      </trkpt>
      <trkpt lat="44.34472" lon="0.70994">
        <ele>205.5</ele>
        <time>2016-05-15T09:18:26Z</time>
      </trkpt>
      <trkpt lat="44.34497" lon="0.70969">
        <ele>205.8</ele>
        <time>2016-05-15T09:18:30Z</time>
      </trkpt>
      <trkpt lat="44.34528" lon="0.70938">
        <ele>206.2</ele>
        <time>2016-05-15T09:18:35Z</time>
      </trkpt>
      <trkpt lat="44.3456" lon="0.70907">
        <ele>205.9</ele>
        <time>2016-05-15T09:18:40Z</time>
      </trkpt>
      <trkpt lat="44.34591" lon="0.70875">
        <ele>204.6</ele>
        <time>2016-05-15T09:18:45Z</time>
      </trkpt>
      <trkpt lat="44.34604" lon="0.70863">
        <ele>203.8</ele>
        <time>2016-05-15T09:18:47Z</time>
      </trkpt>
      <trkpt lat="44.34628" lon="0.7084">
        <ele>202</ele>
        <time>2016-05-15T09:18:51Z</time>
      </trkpt>
      <trkpt lat="44.34654" lon="0.70819">
        <ele>200.2</ele>
        <time>2016-05-15T09:18:55Z</time>
      </trkpt>
      <trkpt lat="44.34682" lon="0.70802">
        <ele>198.5</ele>
        <time>2016-05-15T09:18:59Z</time>
      </trkpt>
      <trkpt lat="44.34696" lon="0.70796">
        <ele>197.7</ele>
        <time>2016-05-15T09:19:01Z</time>
      </trkpt>
      <trkpt lat="44.34711" lon="0.70792">
        <ele>196.9</ele>
        <time>2016-05-15T09:19:03Z</time>
      </trkpt>
      <trkpt lat="44.34742" lon="0.70786">
        <ele>195.8</ele>
        <time>2016-05-15T09:19:07Z</time>
      </trkpt>
      <trkpt lat="44.3475" lon="0.70784">
        <ele>195.5</ele>
        <time>2016-05-15T09:19:08Z</time>
      </trkpt>
      <trkpt lat="44.34802" lon="0.70766">
        <ele>193.3</ele>
        <time>2016-05-15T09:19:15Z</time>
      </trkpt>
      <trkpt lat="44.34808" lon="0.70761">
        <ele>193.1</ele>
        <time>2016-05-15T09:19:16Z</time>
      </trkpt>
      <trkpt lat="44.34826" lon="0.70743">
        <ele>192.5</ele>
        <time>2016-05-15T09:19:19Z</time>
      </trkpt>
      <trkpt lat="44.34831" lon="0.70735">
        <ele>192.4</ele>
        <time>2016-05-15T09:19:20Z</time>
      </trkpt>
      <trkpt lat="44.34844" lon="0.70711">
        <ele>192.3</ele>
        <time>2016-05-15T09:19:23Z</time>
      </trkpt>
      <trkpt lat="44.34852" lon="0.70695">
        <ele>192.7</ele>
        <time>2016-05-15T09:19:25Z</time>
      </trkpt>
      <trkpt lat="44.34875" lon="0.70646">
        <ele>194.2</ele>
        <time>2016-05-15T09:19:32Z</time>
      </trkpt>
      <trkpt lat="44.34897" lon="0.70603">
        <ele>195.7</ele>
        <time>2016-05-15T09:19:39Z</time>
      </trkpt>
      <trkpt lat="44.34906" lon="0.70586">
        <ele>196.4</ele>
        <time>2016-05-15T09:19:42Z</time>
      </trkpt>
      <trkpt lat="44.34925" lon="0.70556">
        <ele>197.5</ele>
        <time>2016-05-15T09:19:48Z</time>
      </trkpt>
      <trkpt lat="44.34938" lon="0.70539">
        <ele>197.8</ele>
        <time>2016-05-15T09:19:52Z</time>
      </trkpt>
      <trkpt lat="44.34942" lon="0.70535">
        <ele>197.9</ele>
        <time>2016-05-15T09:19:53Z</time>
      </trkpt>
      <trkpt lat="44.3496" lon="0.70516">
        <ele>198.2</ele>
        <time>2016-05-15T09:19:58Z</time>
      </trkpt>
      <trkpt lat="44.34971" lon="0.70505">
        <ele>198.6</ele>
        <time>2016-05-15T09:20:01Z</time>
      </trkpt>
      <trkpt lat="44.34995" lon="0.70481">
        <ele>199.5</ele>
        <time>2016-05-15T09:20:07Z</time>
      </trkpt>
      <trkpt lat="44.3503" lon="0.70448">
        <ele>200.4</ele>
        <time>2016-05-15T09:20:16Z</time>
      </trkpt>
      <trkpt lat="44.35061" lon="0.70427">
        <ele>200.1</ele>
        <time>2016-05-15T09:20:24Z</time>
      </trkpt>
      <trkpt lat="44.35096" lon="0.70416">
        <ele>199.1</ele>
        <time>2016-05-15T09:20:32Z</time>
      </trkpt>
      <trkpt lat="44.35141" lon="0.70402">
        <ele>198.4</ele>
        <time>2016-05-15T09:20:42Z</time>
      </trkpt>
      <trkpt lat="44.3515" lon="0.704">
        <ele>198.5</ele>
        <time>2016-05-15T09:20:44Z</time>
      </trkpt>
      <trkpt lat="44.35172" lon="0.70394">
        <ele>198.7</ele>
        <time>2016-05-15T09:20:49Z</time>
      </trkpt>
      <trkpt lat="44.3518" lon="0.70391">
        <ele>198.7</ele>
        <time>2016-05-15T09:20:51Z</time>
      </trkpt>
      <trkpt lat="44.35207" lon="0.70381">
        <ele>198.9</ele>
        <time>2016-05-15T09:20:57Z</time>
      </trkpt>
      <trkpt lat="44.35227" lon="0.70375">
        <ele>198.5</ele>
        <time>2016-05-15T09:21:01Z</time>
      </trkpt>
      <trkpt lat="44.35249" lon="0.70368">
        <ele>198.1</ele>
        <time>2016-05-15T09:21:05Z</time>
      </trkpt>
      <trkpt lat="44.35276" lon="0.70359">
        <ele>197.5</ele>
        <time>2016-05-15T09:21:10Z</time>
      </trkpt>
      <trkpt lat="44.35292" lon="0.70354">
        <ele>197.2</ele>
        <time>2016-05-15T09:21:13Z</time>
      </trkpt>
      <trkpt lat="44.35316" lon="0.70351">
        <ele>197</ele>
        <time>2016-05-15T09:21:18Z</time>
      </trkpt>
      <trkpt lat="44.35321" lon="0.7035">
        <ele>197</ele>
        <time>2016-05-15T09:21:19Z</time>
      </trkpt>
      <trkpt lat="44.35324" lon="0.70347">
        <ele>196.9</ele>
        <time>2016-05-15T09:21:20Z</time>
      </trkpt>
      <trkpt lat="44.35338" lon="0.70336">
        <ele>196.7</ele>
        <time>2016-05-15T09:21:24Z</time>
      </trkpt>
      <trkpt lat="44.35358" lon="0.70328">
        <ele>196.2</ele>
        <time>2016-05-15T09:21:29Z</time>
      </trkpt>
      <trkpt lat="44.35362" lon="0.70328">
        <ele>196.1</ele>
        <time>2016-05-15T09:21:30Z</time>
      </trkpt>
      <trkpt lat="44.35391" lon="0.7032">
        <ele>195.6</ele>
        <time>2016-05-15T09:21:37Z</time>
      </trkpt>
      <trkpt lat="44.35427" lon="0.70309">
        <ele>195.3</ele>
        <time>2016-05-15T09:21:45Z</time>
      </trkpt>
      <trkpt lat="44.35457" lon="0.703">
        <ele>195.1</ele>
        <time>2016-05-15T09:21:52Z</time>
      </trkpt>
      <trkpt lat="44.35485" lon="0.7029">
        <ele>195.6</ele>
        <time>2016-05-15T09:21:59Z</time>
      </trkpt>
      <trkpt lat="44.3549" lon="0.70289">
        <ele>195.7</ele>
        <time>2016-05-15T09:22:00Z</time>
      </trkpt>
      <trkpt lat="44.35531" lon="0.70275">
        <ele>196.5</ele>
        <time>2016-05-15T09:22:10Z</time>
      </trkpt>
      <trkpt lat="44.35543" lon="0.70271">
        <ele>196.8</ele>
        <time>2016-05-15T09:22:13Z</time>
      </trkpt>
      <trkpt lat="44.35553" lon="0.70267">
        <ele>197</ele>
        <time>2016-05-15T09:22:16Z</time>
      </trkpt>
      <trkpt lat="44.35569" lon="0.70262">
        <ele>197.4</ele>
        <time>2016-05-15T09:22:20Z</time>
      </trkpt>
      <trkpt lat="44.35577" lon="0.70259">
        <ele>197.6</ele>
        <time>2016-05-15T09:22:22Z</time>
      </trkpt>
      <trkpt lat="44.35581" lon="0.70258">
        <ele>197.7</ele>
        <time>2016-05-15T09:22:23Z</time>
      </trkpt>
      <trkpt lat="44.35598" lon="0.70252">
        <ele>198.2</ele>
        <time>2016-05-15T09:22:27Z</time>
      </trkpt>
      <trkpt lat="44.35611" lon="0.70249">
        <ele>198.6</ele>
        <time>2016-05-15T09:22:30Z</time>
      </trkpt>
      <trkpt lat="44.3562" lon="0.70249">
        <ele>198.9</ele>
        <time>2016-05-15T09:22:32Z</time>
      </trkpt>
      <trkpt lat="44.3563" lon="0.7025">
        <ele>199</ele>
        <time>2016-05-15T09:22:34Z</time>
      </trkpt>
      <trkpt lat="44.35639" lon="0.70251">
        <ele>198.9</ele>
        <time>2016-05-15T09:22:36Z</time>
      </trkpt>
      <trkpt lat="44.35657" lon="0.70257">
        <ele>198.8</ele>
        <time>2016-05-15T09:22:40Z</time>
      </trkpt>
      <trkpt lat="44.35702" lon="0.7027">
        <ele>198.3</ele>
        <time>2016-05-15T09:22:50Z</time>
      </trkpt>
      <trkpt lat="44.35727" lon="0.70279">
        <ele>198.3</ele>
        <time>2016-05-15T09:22:56Z</time>
      </trkpt>
      <trkpt lat="44.35737" lon="0.70282">
        <ele>198.4</ele>
        <time>2016-05-15T09:22:58Z</time>
      </trkpt>
      <trkpt lat="44.35752" lon="0.70288">
        <ele>198.5</ele>
        <time>2016-05-15T09:23:01Z</time>
      </trkpt>
      <trkpt lat="44.35757" lon="0.70289">
        <ele>198.6</ele>
        <time>2016-05-15T09:23:02Z</time>
      </trkpt>
      <trkpt lat="44.35792" lon="0.70301">
        <ele>198.9</ele>
        <time>2016-05-15T09:23:09Z</time>
      </trkpt>
      <trkpt lat="44.35834" lon="0.70315">
        <ele>198.7</ele>
        <time>2016-05-15T09:23:18Z</time>
      </trkpt>
      <trkpt lat="44.35839" lon="0.70317">
        <ele>198.7</ele>
        <time>2016-05-15T09:23:19Z</time>
      </trkpt>
      <trkpt lat="44.3587" lon="0.70327">
        <ele>198.6</ele>
        <time>2016-05-15T09:23:25Z</time>
      </trkpt>
      <trkpt lat="44.35882" lon="0.70331">
        <ele>198.6</ele>
        <time>2016-05-15T09:23:27Z</time>
      </trkpt>
      <trkpt lat="44.35909" lon="0.7034">
        <ele>198.6</ele>
        <time>2016-05-15T09:23:32Z</time>
      </trkpt>
      <trkpt lat="44.35933" lon="0.70348">
        <ele>198.6</ele>
        <time>2016-05-15T09:23:36Z</time>
      </trkpt>
      <trkpt lat="44.35979" lon="0.70362">
        <ele>198</ele>
        <time>2016-05-15T09:23:44Z</time>
      </trkpt>
      <trkpt lat="44.35995" lon="0.70368">
        <ele>197.7</ele>
        <time>2016-05-15T09:23:47Z</time>
      </trkpt>
      <trkpt lat="44.36012" lon="0.70374">
        <ele>197.4</ele>
        <time>2016-05-15T09:23:50Z</time>
      </trkpt>
      <trkpt lat="44.36057" lon="0.70388">
        <ele>196.2</ele>
        <time>2016-05-15T09:23:58Z</time>
      </trkpt>
      <trkpt lat="44.3611" lon="0.70406">
        <ele>196.1</ele>
        <time>2016-05-15T09:24:07Z</time>
      </trkpt>
      <trkpt lat="44.36162" lon="0.70423">
        <ele>196.3</ele>
        <time>2016-05-15T09:24:16Z</time>
      </trkpt>
      <trkpt lat="44.36188" lon="0.70432">
        <ele>196.5</ele>
        <time>2016-05-15T09:24:22Z</time>
      </trkpt>
      <trkpt lat="44.36196" lon="0.70435">
        <ele>196.6</ele>
        <time>2016-05-15T09:24:25Z</time>
      </trkpt>
      <trkpt lat="44.362" lon="0.70436">
        <ele>196.7</ele>
        <time>2016-05-15T09:24:27Z</time>
      </trkpt>
      <trkpt lat="44.36205" lon="0.70434">
        <ele>196.5</ele>
        <time>2016-05-15T09:24:32Z</time>
      </trkpt>
      <trkpt lat="44.36206" lon="0.7043">
        <ele>196.3</ele>
        <time>2016-05-15T09:24:33Z</time>
      </trkpt>
      <trkpt lat="44.36212" lon="0.70414">
        <ele>195.6</ele>
        <time>2016-05-15T09:24:37Z</time>
      </trkpt>
      <trkpt lat="44.36226" lon="0.704">
        <ele>195.7</ele>
        <time>2016-05-15T09:24:42Z</time>
      </trkpt>
      <trkpt lat="44.36246" lon="0.70385">
        <ele>196.2</ele>
        <time>2016-05-15T09:24:48Z</time>
      </trkpt>
      <trkpt lat="44.36285" lon="0.70354">
        <ele>197.3</ele>
        <time>2016-05-15T09:24:59Z</time>
      </trkpt>
      <trkpt lat="44.36292" lon="0.70348">
        <ele>197.4</ele>
        <time>2016-05-15T09:25:01Z</time>
      </trkpt>
      <trkpt lat="44.36323" lon="0.7032">
        <ele>197.2</ele>
        <time>2016-05-15T09:25:09Z</time>
      </trkpt>
      <trkpt lat="44.36352" lon="0.70286">
        <ele>197.1</ele>
        <time>2016-05-15T09:25:17Z</time>
      </trkpt>
      <trkpt lat="44.36391" lon="0.70238">
        <ele>195.9</ele>
        <time>2016-05-15T09:25:27Z</time>
      </trkpt>
      <trkpt lat="44.36419" lon="0.70202">
        <ele>195.7</ele>
        <time>2016-05-15T09:25:34Z</time>
      </trkpt>
      <trkpt lat="44.36423" lon="0.70196">
        <ele>195.7</ele>
        <time>2016-05-15T09:25:35Z</time>
      </trkpt>
      <trkpt lat="44.36434" lon="0.70179">
        <ele>195.7</ele>
        <time>2016-05-15T09:25:38Z</time>
      </trkpt>
      <trkpt lat="44.36458" lon="0.70146">
        <ele>196.7</ele>
        <time>2016-05-15T09:25:44Z</time>
      </trkpt>
      <trkpt lat="44.36489" lon="0.7009">
        <ele>195.3</ele>
        <time>2016-05-15T09:25:53Z</time>
      </trkpt>
      <trkpt lat="44.36493" lon="0.70084">
        <ele>195.2</ele>
        <time>2016-05-15T09:25:54Z</time>
      </trkpt>
      <trkpt lat="44.36514" lon="0.70057">
        <ele>196.1</ele>
        <time>2016-05-15T09:25:59Z</time>
      </trkpt>
      <trkpt lat="44.36523" lon="0.70051">
        <ele>196.9</ele>
        <time>2016-05-15T09:26:01Z</time>
      </trkpt>
      <trkpt lat="44.36548" lon="0.70045">
        <ele>199.4</ele>
        <time>2016-05-15T09:26:06Z</time>
      </trkpt>
      <trkpt lat="44.36558" lon="0.70047">
        <ele>199.9</ele>
        <time>2016-05-15T09:26:08Z</time>
      </trkpt>
      <trkpt lat="44.36562" lon="0.70049">
        <ele>200.2</ele>
        <time>2016-05-15T09:26:09Z</time>
      </trkpt>
      <trkpt lat="44.36577" lon="0.70055">
        <ele>200.9</ele>
        <time>2016-05-15T09:26:12Z</time>
      </trkpt>
      <trkpt lat="44.36603" lon="0.70063">
        <ele>202.1</ele>
        <time>2016-05-15T09:26:17Z</time>
      </trkpt>
      <trkpt lat="44.36616" lon="0.70065">
        <ele>202.7</ele>
        <time>2016-05-15T09:26:19Z</time>
      </trkpt>
      <trkpt lat="44.36629" lon="0.70065">
        <ele>203.1</ele>
        <time>2016-05-15T09:26:21Z</time>
      </trkpt>
      <trkpt lat="44.36642" lon="0.70062">
        <ele>202.7</ele>
        <time>2016-05-15T09:26:23Z</time>
      </trkpt>
      <trkpt lat="44.36649" lon="0.70061">
        <ele>202.6</ele>
        <time>2016-05-15T09:26:24Z</time>
      </trkpt>
      <trkpt lat="44.36657" lon="0.70059">
        <ele>202.4</ele>
        <time>2016-05-15T09:26:25Z</time>
      </trkpt>
      <trkpt lat="44.36688" lon="0.70051">
        <ele>201.6</ele>
        <time>2016-05-15T09:26:29Z</time>
      </trkpt>
      <trkpt lat="44.36696" lon="0.70048">
        <ele>201.3</ele>
        <time>2016-05-15T09:26:30Z</time>
      </trkpt>
      <trkpt lat="44.36705" lon="0.70046">
        <ele>201.1</ele>
        <time>2016-05-15T09:26:31Z</time>
      </trkpt>
      <trkpt lat="44.36732" lon="0.70037">
        <ele>198.1</ele>
        <time>2016-05-15T09:26:34Z</time>
      </trkpt>
      <trkpt lat="44.36751" lon="0.70031">
        <ele>195.6</ele>
        <time>2016-05-15T09:26:36Z</time>
      </trkpt>
      <trkpt lat="44.36761" lon="0.70028">
        <ele>194.3</ele>
        <time>2016-05-15T09:26:37Z</time>
      </trkpt>
      <trkpt lat="44.36771" lon="0.70025">
        <ele>193</ele>
        <time>2016-05-15T09:26:38Z</time>
      </trkpt>
      <trkpt lat="44.368" lon="0.70017">
        <ele>189.4</ele>
        <time>2016-05-15T09:26:41Z</time>
      </trkpt>
      <trkpt lat="44.36829" lon="0.70009">
        <ele>186.8</ele>
        <time>2016-05-15T09:26:44Z</time>
      </trkpt>
      <trkpt lat="44.36848" lon="0.70003">
        <ele>185.1</ele>
        <time>2016-05-15T09:26:46Z</time>
      </trkpt>
      <trkpt lat="44.36875" lon="0.69998">
        <ele>182.8</ele>
        <time>2016-05-15T09:26:49Z</time>
      </trkpt>
      <trkpt lat="44.36902" lon="0.69996">
        <ele>183</ele>
        <time>2016-05-15T09:26:52Z</time>
      </trkpt>
      <trkpt lat="44.36921" lon="0.69995">
        <ele>183.1</ele>
        <time>2016-05-15T09:26:54Z</time>
      </trkpt>
      <trkpt lat="44.36931" lon="0.69995">
        <ele>183.3</ele>
        <time>2016-05-15T09:26:55Z</time>
      </trkpt>
      <trkpt lat="44.3695" lon="0.69996">
        <ele>183.6</ele>
        <time>2016-05-15T09:26:57Z</time>
      </trkpt>
      <trkpt lat="44.36979" lon="0.69998">
        <ele>183.5</ele>
        <time>2016-05-15T09:27:00Z</time>
      </trkpt>
      <trkpt lat="44.37" lon="0.69999">
        <ele>183.2</ele>
        <time>2016-05-15T09:27:02Z</time>
      </trkpt>
      <trkpt lat="44.37059" lon="0.70005">
        <ele>181.8</ele>
        <time>2016-05-15T09:27:08Z</time>
      </trkpt>
      <trkpt lat="44.37077" lon="0.70007">
        <ele>181.1</ele>
        <time>2016-05-15T09:27:10Z</time>
      </trkpt>
      <trkpt lat="44.37133" lon="0.70014">
        <ele>178.9</ele>
        <time>2016-05-15T09:27:17Z</time>
      </trkpt>
      <trkpt lat="44.37191" lon="0.70021">
        <ele>178.2</ele>
        <time>2016-05-15T09:27:25Z</time>
      </trkpt>
      <trkpt lat="44.37244" lon="0.70026">
        <ele>178.5</ele>
        <time>2016-05-15T09:27:33Z</time>
      </trkpt>
      <trkpt lat="44.37288" lon="0.7003">
        <ele>179.1</ele>
        <time>2016-05-15T09:27:40Z</time>
      </trkpt>
      <trkpt lat="44.37299" lon="0.7003">
        <ele>179.5</ele>
        <time>2016-05-15T09:27:42Z</time>
      </trkpt>
      <trkpt lat="44.3732" lon="0.70032">
        <ele>180.5</ele>
        <time>2016-05-15T09:27:46Z</time>
      </trkpt>
      <trkpt lat="44.37325" lon="0.70033">
        <ele>180.8</ele>
        <time>2016-05-15T09:27:47Z</time>
      </trkpt>
      <trkpt lat="44.37336" lon="0.70034">
        <ele>181.2</ele>
        <time>2016-05-15T09:27:49Z</time>
      </trkpt>
      <trkpt lat="44.37355" lon="0.70036">
        <ele>182.1</ele>
        <time>2016-05-15T09:27:53Z</time>
      </trkpt>
      <trkpt lat="44.37365" lon="0.70036">
        <ele>182.5</ele>
        <time>2016-05-15T09:27:55Z</time>
      </trkpt>
      <trkpt lat="44.37384" lon="0.70037">
        <ele>183.6</ele>
        <time>2016-05-15T09:27:59Z</time>
      </trkpt>
      <trkpt lat="44.37389" lon="0.70037">
        <ele>183.9</ele>
        <time>2016-05-15T09:28:00Z</time>
      </trkpt>
      <trkpt lat="44.37418" lon="0.7004">
        <ele>186.1</ele>
        <time>2016-05-15T09:28:06Z</time>
      </trkpt>
      <trkpt lat="44.37423" lon="0.7004">
        <ele>186.4</ele>
        <time>2016-05-15T09:28:07Z</time>
      </trkpt>
      <trkpt lat="44.37443" lon="0.70042">
        <ele>187.8</ele>
        <time>2016-05-15T09:28:11Z</time>
      </trkpt>
      <trkpt lat="44.37456" lon="0.70043">
        <ele>188.8</ele>
        <time>2016-05-15T09:28:14Z</time>
      </trkpt>
      <trkpt lat="44.37465" lon="0.70044">
        <ele>189.1</ele>
        <time>2016-05-15T09:28:16Z</time>
      </trkpt>
      <trkpt lat="44.37485" lon="0.70045">
        <ele>189.8</ele>
        <time>2016-05-15T09:28:21Z</time>
      </trkpt>
      <trkpt lat="44.37489" lon="0.70045">
        <ele>190</ele>
        <time>2016-05-15T09:28:22Z</time>
      </trkpt>
      <trkpt lat="44.37513" lon="0.70047">
        <ele>190.8</ele>
        <time>2016-05-15T09:28:28Z</time>
      </trkpt>
      <trkpt lat="44.37527" lon="0.70048">
        <ele>191.3</ele>
        <time>2016-05-15T09:28:31Z</time>
      </trkpt>
      <trkpt lat="44.37548" lon="0.70049">
        <ele>192.1</ele>
        <time>2016-05-15T09:28:36Z</time>
      </trkpt>
      <trkpt lat="44.37587" lon="0.70051">
        <ele>193.4</ele>
        <time>2016-05-15T09:28:46Z</time>
      </trkpt>
      <trkpt lat="44.37591" lon="0.70051">
        <ele>193.5</ele>
        <time>2016-05-15T09:28:47Z</time>
      </trkpt>
      <trkpt lat="44.3762" lon="0.70052">
        <ele>194.5</ele>
        <time>2016-05-15T09:28:55Z</time>
      </trkpt>
      <trkpt lat="44.37623" lon="0.70052">
        <ele>194.7</ele>
        <time>2016-05-15T09:28:56Z</time>
      </trkpt>
      <trkpt lat="44.37636" lon="0.70055">
        <ele>194.7</ele>
        <time>2016-05-15T09:29:00Z</time>
      </trkpt>
      <trkpt lat="44.37662" lon="0.70055">
        <ele>194.9</ele>
        <time>2016-05-15T09:29:08Z</time>
      </trkpt>
      <trkpt lat="44.37665" lon="0.70055">
        <ele>194.9</ele>
        <time>2016-05-15T09:29:09Z</time>
      </trkpt>
      <trkpt lat="44.37673" lon="0.70057">
        <ele>194.9</ele>
        <time>2016-05-15T09:29:14Z</time>
      </trkpt>
      <trkpt lat="44.37681" lon="0.70057">
        <ele>195</ele>
        <time>2016-05-15T09:29:21Z</time>
      </trkpt>
      <trkpt lat="44.37682" lon="0.70057">
        <ele>195</ele>
        <time>2016-05-15T09:29:22Z</time>
      </trkpt>
      <trkpt lat="44.37687" lon="0.70059">
        <ele>195</ele>
        <time>2016-05-15T09:29:26Z</time>
      </trkpt>
      <trkpt lat="44.3769" lon="0.70065">
        <ele>195.1</ele>
        <time>2016-05-15T09:29:30Z</time>
      </trkpt>
      <trkpt lat="44.37697" lon="0.70069">
        <ele>195.2</ele>
        <time>2016-05-15T09:29:33Z</time>
      </trkpt>
      <trkpt lat="44.377" lon="0.70069">
        <ele>195.2</ele>
        <time>2016-05-15T09:29:34Z</time>
      </trkpt>
      <trkpt lat="44.37714" lon="0.70071">
        <ele>195.4</ele>
        <time>2016-05-15T09:29:40Z</time>
      </trkpt>
      <trkpt lat="44.37723" lon="0.70069">
        <ele>195.4</ele>
        <time>2016-05-15T09:29:44Z</time>
      </trkpt>
      <trkpt lat="44.37726" lon="0.70068">
        <ele>195.5</ele>
        <time>2016-05-15T09:29:46Z</time>
      </trkpt>
      <trkpt lat="44.37734" lon="0.70072">
        <ele>195.6</ele>
        <time>2016-05-15T09:29:51Z</time>
      </trkpt>
      <trkpt lat="44.3774" lon="0.70072">
        <ele>195.6</ele>
        <time>2016-05-15T09:29:54Z</time>
      </trkpt>
      <trkpt lat="44.37741" lon="0.70072">
        <ele>195.6</ele>
        <time>2016-05-15T09:29:55Z</time>
      </trkpt>
      <trkpt lat="44.37743" lon="0.70069">
        <ele>195.6</ele>
        <time>2016-05-15T09:29:57Z</time>
      </trkpt>
      <trkpt lat="44.37748" lon="0.70067">
        <ele>195.6</ele>
        <time>2016-05-15T09:30:01Z</time>
      </trkpt>
      <trkpt lat="44.3775" lon="0.70065">
        <ele>195.6</ele>
        <time>2016-05-15T09:30:04Z</time>
      </trkpt>
      <trkpt lat="44.3775" lon="0.70065">
        <ele>195.6</ele>
        <time>2016-05-15T09:30:06Z</time>
      </trkpt>
      <trkpt lat="44.37753" lon="0.70063">
        <ele>195.7</ele>
        <time>2016-05-15T09:30:11Z</time>
      </trkpt>
      <trkpt lat="44.37755" lon="0.7006">
        <ele>195.7</ele>
        <time>2016-05-15T09:30:16Z</time>
      </trkpt>
      <trkpt lat="44.37755" lon="0.70059">
        <ele>195.7</ele>
        <time>2016-05-15T09:32:15Z</time>
      </trkpt>
      <trkpt lat="44.37759" lon="0.70056">
        <ele>195.7</ele>
        <time>2016-05-15T09:32:17Z</time>
      </trkpt>
      <trkpt lat="44.37778" lon="0.70049">
        <ele>195.8</ele>
        <time>2016-05-15T09:32:22Z</time>
      </trkpt>
      <trkpt lat="44.37782" lon="0.70048">
        <ele>195.9</ele>
        <time>2016-05-15T09:32:23Z</time>
      </trkpt>
      <trkpt lat="44.37803" lon="0.70038">
        <ele>195.7</ele>
        <time>2016-05-15T09:32:27Z</time>
      </trkpt>
      <trkpt lat="44.37819" lon="0.70028">
        <ele>195.2</ele>
        <time>2016-05-15T09:32:30Z</time>
      </trkpt>
      <trkpt lat="44.37834" lon="0.70015">
        <ele>194.8</ele>
        <time>2016-05-15T09:32:33Z</time>
      </trkpt>
      <trkpt lat="44.37862" lon="0.69977">
        <ele>194.2</ele>
        <time>2016-05-15T09:32:40Z</time>
      </trkpt>
      <trkpt lat="44.37892" lon="0.69927">
        <ele>192.1</ele>
        <time>2016-05-15T09:32:49Z</time>
      </trkpt>
      <trkpt lat="44.37922" lon="0.69885">
        <ele>189</ele>
        <time>2016-05-15T09:32:57Z</time>
      </trkpt>
      <trkpt lat="44.37955" lon="0.69844">
        <ele>181.2</ele>
        <time>2016-05-15T09:33:04Z</time>
      </trkpt>
      <trkpt lat="44.37989" lon="0.698">
        <ele>177.8</ele>
        <time>2016-05-15T09:33:11Z</time>
      </trkpt>
      <trkpt lat="44.37998" lon="0.69787">
        <ele>177.4</ele>
        <time>2016-05-15T09:33:13Z</time>
      </trkpt>
      <trkpt lat="44.3803" lon="0.69745">
        <ele>176.5</ele>
        <time>2016-05-15T09:33:20Z</time>
      </trkpt>
      <trkpt lat="44.38038" lon="0.69733">
        <ele>176.7</ele>
        <time>2016-05-15T09:33:22Z</time>
      </trkpt>
      <trkpt lat="44.38049" lon="0.69712">
        <ele>176.5</ele>
        <time>2016-05-15T09:33:25Z</time>
      </trkpt>
      <trkpt lat="44.38064" lon="0.69671">
        <ele>175.4</ele>
        <time>2016-05-15T09:33:30Z</time>
      </trkpt>
      <trkpt lat="44.3807" lon="0.69646">
        <ele>174.3</ele>
        <time>2016-05-15T09:33:33Z</time>
      </trkpt>
      <trkpt lat="44.38076" lon="0.69612">
        <ele>172.9</ele>
        <time>2016-05-15T09:33:37Z</time>
      </trkpt>
      <trkpt lat="44.38084" lon="0.69572">
        <ele>171.4</ele>
        <time>2016-05-15T09:33:42Z</time>
      </trkpt>
      <trkpt lat="44.38089" lon="0.69557">
        <ele>171.5</ele>
        <time>2016-05-15T09:33:44Z</time>
      </trkpt>
      <trkpt lat="44.3811" lon="0.69521">
        <ele>173.4</ele>
        <time>2016-05-15T09:33:49Z</time>
      </trkpt>
      <trkpt lat="44.3813" lon="0.69481">
        <ele>173.2</ele>
        <time>2016-05-15T09:33:54Z</time>
      </trkpt>
      <trkpt lat="44.38136" lon="0.69462">
        <ele>171.9</ele>
        <time>2016-05-15T09:33:56Z</time>
      </trkpt>
      <trkpt lat="44.38152" lon="0.69415">
        <ele>169.3</ele>
        <time>2016-05-15T09:34:01Z</time>
      </trkpt>
      <trkpt lat="44.38161" lon="0.69397">
        <ele>169.1</ele>
        <time>2016-05-15T09:34:03Z</time>
      </trkpt>
      <trkpt lat="44.38166" lon="0.6939">
        <ele>169.2</ele>
        <time>2016-05-15T09:34:04Z</time>
      </trkpt>
      <trkpt lat="44.38178" lon="0.69377">
        <ele>170.1</ele>
        <time>2016-05-15T09:34:06Z</time>
      </trkpt>
      <trkpt lat="44.38197" lon="0.69359">
        <ele>170.9</ele>
        <time>2016-05-15T09:34:09Z</time>
      </trkpt>
      <trkpt lat="44.38223" lon="0.69337">
        <ele>170.5</ele>
        <time>2016-05-15T09:34:13Z</time>
      </trkpt>
      <trkpt lat="44.38244" lon="0.69326">
        <ele>169.9</ele>
        <time>2016-05-15T09:34:16Z</time>
      </trkpt>
      <trkpt lat="44.38252" lon="0.69324">
        <ele>170.3</ele>
        <time>2016-05-15T09:34:17Z</time>
      </trkpt>
      <trkpt lat="44.38274" lon="0.69328">
        <ele>172.9</ele>
        <time>2016-05-15T09:34:20Z</time>
      </trkpt>
      <trkpt lat="44.38287" lon="0.69336">
        <ele>175.7</ele>
        <time>2016-05-15T09:34:22Z</time>
      </trkpt>
      <trkpt lat="44.383" lon="0.69344">
        <ele>177.4</ele>
        <time>2016-05-15T09:34:24Z</time>
      </trkpt>
      <trkpt lat="44.38307" lon="0.69345">
        <ele>177.6</ele>
        <time>2016-05-15T09:34:25Z</time>
      </trkpt>
      <trkpt lat="44.38353" lon="0.6935">
        <ele>176.8</ele>
        <time>2016-05-15T09:34:32Z</time>
      </trkpt>
      <trkpt lat="44.38371" lon="0.69349">
        <ele>175.8</ele>
        <time>2016-05-15T09:34:35Z</time>
      </trkpt>
      <trkpt lat="44.38402" lon="0.69348">
        <ele>174</ele>
        <time>2016-05-15T09:34:40Z</time>
      </trkpt>
      <trkpt lat="44.38415" lon="0.69348">
        <ele>173.4</ele>
        <time>2016-05-15T09:34:42Z</time>
      </trkpt>
      <trkpt lat="44.38436" lon="0.69347">
        <ele>172.3</ele>
        <time>2016-05-15T09:34:45Z</time>
      </trkpt>
      <trkpt lat="44.38443" lon="0.69346">
        <ele>171.8</ele>
        <time>2016-05-15T09:34:46Z</time>
      </trkpt>
      <trkpt lat="44.3846" lon="0.69344">
        <ele>170.9</ele>
        <time>2016-05-15T09:34:49Z</time>
      </trkpt>
      <trkpt lat="44.38466" lon="0.69342">
        <ele>170.8</ele>
        <time>2016-05-15T09:34:50Z</time>
      </trkpt>
      <trkpt lat="44.38488" lon="0.69323">
        <ele>168.6</ele>
        <time>2016-05-15T09:34:54Z</time>
      </trkpt>
      <trkpt lat="44.38512" lon="0.69286">
        <ele>164.9</ele>
        <time>2016-05-15T09:34:59Z</time>
      </trkpt>
      <trkpt lat="44.38532" lon="0.69256">
        <ele>162.5</ele>
        <time>2016-05-15T09:35:03Z</time>
      </trkpt>
      <trkpt lat="44.38541" lon="0.69239">
        <ele>161.3</ele>
        <time>2016-05-15T09:35:05Z</time>
      </trkpt>
      <trkpt lat="44.3855" lon="0.69221">
        <ele>159.8</ele>
        <time>2016-05-15T09:35:07Z</time>
      </trkpt>
      <trkpt lat="44.38561" lon="0.69191">
        <ele>159.2</ele>
        <time>2016-05-15T09:35:10Z</time>
      </trkpt>
      <trkpt lat="44.38564" lon="0.69181">
        <ele>159.3</ele>
        <time>2016-05-15T09:35:11Z</time>
      </trkpt>
      <trkpt lat="44.38587" lon="0.69112">
        <ele>162.4</ele>
        <time>2016-05-15T09:35:18Z</time>
      </trkpt>
      <trkpt lat="44.386" lon="0.69073">
        <ele>167.3</ele>
        <time>2016-05-15T09:35:23Z</time>
      </trkpt>
      <trkpt lat="44.38607" lon="0.69048">
        <ele>170.3</ele>
        <time>2016-05-15T09:35:27Z</time>
      </trkpt>
      <trkpt lat="44.38608" lon="0.69037">
        <ele>171.3</ele>
        <time>2016-05-15T09:35:29Z</time>
      </trkpt>
      <trkpt lat="44.38606" lon="0.69028">
        <ele>171.5</ele>
        <time>2016-05-15T09:35:31Z</time>
      </trkpt>
      <trkpt lat="44.38604" lon="0.69024">
        <ele>171.4</ele>
        <time>2016-05-15T09:35:32Z</time>
      </trkpt>
      <trkpt lat="44.38603" lon="0.6902">
        <ele>171.4</ele>
        <time>2016-05-15T09:35:33Z</time>
      </trkpt>
      <trkpt lat="44.38602" lon="0.69016">
        <ele>171.4</ele>
        <time>2016-05-15T09:35:34Z</time>
      </trkpt>
      <trkpt lat="44.386" lon="0.69007">
        <ele>171.7</ele>
        <time>2016-05-15T09:35:37Z</time>
      </trkpt>
      <trkpt lat="44.38599" lon="0.69004">
        <ele>171.9</ele>
        <time>2016-05-15T09:35:38Z</time>
      </trkpt>
      <trkpt lat="44.38597" lon="0.68996">
        <ele>172.1</ele>
        <time>2016-05-15T09:35:41Z</time>
      </trkpt>
      <trkpt lat="44.38596" lon="0.6899">
        <ele>172.5</ele>
        <time>2016-05-15T09:35:43Z</time>
      </trkpt>
      <trkpt lat="44.38594" lon="0.68979">
        <ele>173</ele>
        <time>2016-05-15T09:35:46Z</time>
      </trkpt>
      <trkpt lat="44.3859" lon="0.68964">
        <ele>173.2</ele>
        <time>2016-05-15T09:35:50Z</time>
      </trkpt>
      <trkpt lat="44.38588" lon="0.6896">
        <ele>173.3</ele>
        <time>2016-05-15T09:35:51Z</time>
      </trkpt>
      <trkpt lat="44.38582" lon="0.68938">
        <ele>172.5</ele>
        <time>2016-05-15T09:35:57Z</time>
      </trkpt>
      <trkpt lat="44.38574" lon="0.68917">
        <ele>171.7</ele>
        <time>2016-05-15T09:36:04Z</time>
      </trkpt>
      <trkpt lat="44.3857" lon="0.68903">
        <ele>171.5</ele>
        <time>2016-05-15T09:36:10Z</time>
      </trkpt>
      <trkpt lat="44.38567" lon="0.68893">
        <ele>171.5</ele>
        <time>2016-05-15T09:36:15Z</time>
      </trkpt>
      <trkpt lat="44.38568" lon="0.68889">
        <ele>171.6</ele>
        <time>2016-05-15T09:36:17Z</time>
      </trkpt>
      <trkpt lat="44.38567" lon="0.68876">
        <ele>172</ele>
        <time>2016-05-15T09:36:25Z</time>
      </trkpt>
      <trkpt lat="44.38567" lon="0.68873">
        <ele>172</ele>
        <time>2016-05-15T09:36:36Z</time>
      </trkpt>
      <trkpt lat="44.38567" lon="0.6887">
        <ele>172.1</ele>
        <time>2016-05-15T09:36:39Z</time>
      </trkpt>
      <trkpt lat="44.38567" lon="0.68867">
        <ele>172.2</ele>
        <time>2016-05-15T09:36:45Z</time>
      </trkpt>
      <trkpt lat="44.38567" lon="0.68862">
        <ele>172.2</ele>
        <time>2016-05-15T09:36:52Z</time>
      </trkpt>
      <trkpt lat="44.38565" lon="0.68857">
        <ele>172.1</ele>
        <time>2016-05-15T09:36:58Z</time>
      </trkpt>
      <trkpt lat="44.38565" lon="0.68842">
        <ele>172.3</ele>
        <time>2016-05-15T09:37:13Z</time>
      </trkpt>
      <trkpt lat="44.38565" lon="0.68842">
        <ele>172.4</ele>
        <time>2016-05-15T09:37:14Z</time>
      </trkpt>
      <trkpt lat="44.38565" lon="0.68841">
        <ele>172.4</ele>
        <time>2016-05-15T09:37:15Z</time>
      </trkpt>
      <trkpt lat="44.38564" lon="0.68835">
        <ele>172.4</ele>
        <time>2016-05-15T09:37:23Z</time>
      </trkpt>
      <trkpt lat="44.38555" lon="0.68831">
        <ele>171.5</ele>
        <time>2016-05-15T09:37:28Z</time>
      </trkpt>
      <trkpt lat="44.38553" lon="0.68827">
        <ele>171.3</ele>
        <time>2016-05-15T09:37:36Z</time>
      </trkpt>
      <trkpt lat="44.38553" lon="0.6882">
        <ele>171.6</ele>
        <time>2016-05-15T09:37:42Z</time>
      </trkpt>
      <trkpt lat="44.3856" lon="0.68813">
        <ele>172.3</ele>
        <time>2016-05-15T09:37:48Z</time>
      </trkpt>
      <trkpt lat="44.38563" lon="0.68804">
        <ele>172.8</ele>
        <time>2016-05-15T09:37:56Z</time>
      </trkpt>
      <trkpt lat="44.38563" lon="0.68798">
        <ele>172.9</ele>
        <time>2016-05-15T09:38:07Z</time>
      </trkpt>
      <trkpt lat="44.38561" lon="0.68786">
        <ele>173</ele>
        <time>2016-05-15T09:38:24Z</time>
      </trkpt>
      <trkpt lat="44.38561" lon="0.68782">
        <ele>173.1</ele>
        <time>2016-05-15T09:38:27Z</time>
      </trkpt>
      <trkpt lat="44.38558" lon="0.68768">
        <ele>173.1</ele>
        <time>2016-05-15T09:38:36Z</time>
      </trkpt>
      <trkpt lat="44.38558" lon="0.68758">
        <ele>173.4</ele>
        <time>2016-05-15T09:38:44Z</time>
      </trkpt>
      <trkpt lat="44.38558" lon="0.6875">
        <ele>173.6</ele>
        <time>2016-05-15T09:38:51Z</time>
      </trkpt>
      <trkpt lat="44.38559" lon="0.6874">
        <ele>173.9</ele>
        <time>2016-05-15T09:38:58Z</time>
      </trkpt>
      <trkpt lat="44.38557" lon="0.68731">
        <ele>174</ele>
        <time>2016-05-15T09:39:05Z</time>
      </trkpt>
      <trkpt lat="44.38557" lon="0.68729">
        <ele>174</ele>
        <time>2016-05-15T09:39:06Z</time>
      </trkpt>
      <trkpt lat="44.38557" lon="0.68718">
        <ele>174.3</ele>
        <time>2016-05-15T09:39:15Z</time>
      </trkpt>
      <trkpt lat="44.38556" lon="0.68715">
        <ele>174.3</ele>
        <time>2016-05-15T09:39:25Z</time>
      </trkpt>
      <trkpt lat="44.38555" lon="0.6871">
        <ele>174.4</ele>
        <time>2016-05-15T09:39:30Z</time>
      </trkpt>
      <trkpt lat="44.38554" lon="0.68707">
        <ele>174.4</ele>
        <time>2016-05-15T09:39:32Z</time>
      </trkpt>
      <trkpt lat="44.38553" lon="0.68704">
        <ele>174.2</ele>
        <time>2016-05-15T09:39:39Z</time>
      </trkpt>
      <trkpt lat="44.38558" lon="0.68701">
        <ele>174.2</ele>
        <time>2016-05-15T09:39:51Z</time>
      </trkpt>
      <trkpt lat="44.38561" lon="0.68701">
        <ele>174.4</ele>
        <time>2016-05-15T09:39:53Z</time>
      </trkpt>
      <trkpt lat="44.38578" lon="0.68698">
        <ele>174.8</ele>
        <time>2016-05-15T09:40:02Z</time>
      </trkpt>
      <trkpt lat="44.38592" lon="0.68699">
        <ele>175.4</ele>
        <time>2016-05-15T09:40:08Z</time>
      </trkpt>
      <trkpt lat="44.38594" lon="0.68699">
        <ele>175.5</ele>
        <time>2016-05-15T09:40:09Z</time>
      </trkpt>
      <trkpt lat="44.38602" lon="0.68701">
        <ele>175.8</ele>
        <time>2016-05-15T09:40:13Z</time>
      </trkpt>
      <trkpt lat="44.38604" lon="0.68701">
        <ele>175.9</ele>
        <time>2016-05-15T09:40:15Z</time>
      </trkpt>
      <trkpt lat="44.38609" lon="0.68713">
        <ele>176.5</ele>
        <time>2016-05-15T09:41:07Z</time>
      </trkpt>
      <trkpt lat="44.3861" lon="0.68726">
        <ele>176.7</ele>
        <time>2016-05-15T09:41:10Z</time>
      </trkpt>
      <trkpt lat="44.3861" lon="0.6873">
        <ele>176.7</ele>
        <time>2016-05-15T09:41:11Z</time>
      </trkpt>
      <trkpt lat="44.38609" lon="0.68751">
        <ele>176.9</ele>
        <time>2016-05-15T09:41:15Z</time>
      </trkpt>
      <trkpt lat="44.38608" lon="0.68763">
        <ele>177</ele>
        <time>2016-05-15T09:41:17Z</time>
      </trkpt>
      <trkpt lat="44.38606" lon="0.68796">
        <ele>177.2</ele>
        <time>2016-05-15T09:41:24Z</time>
      </trkpt>
      <trkpt lat="44.38604" lon="0.68823">
        <ele>176.8</ele>
        <time>2016-05-15T09:41:31Z</time>
      </trkpt>
      <trkpt lat="44.38603" lon="0.68849">
        <ele>176.5</ele>
        <time>2016-05-15T09:41:38Z</time>
      </trkpt>
      <trkpt lat="44.38603" lon="0.68854">
        <ele>176.5</ele>
        <time>2016-05-15T09:41:40Z</time>
      </trkpt>
      <trkpt lat="44.38603" lon="0.68857">
        <ele>176.5</ele>
        <time>2016-05-15T09:41:42Z</time>
      </trkpt>
      <trkpt lat="44.38604" lon="0.68857">
        <ele>176.5</ele>
        <time>2016-05-15T09:41:43Z</time>
      </trkpt>
      <trkpt lat="44.38607" lon="0.68858">
        <ele>177</ele>
        <time>2016-05-15T09:41:48Z</time>
      </trkpt>
      <trkpt lat="44.38609" lon="0.68858">
        <ele>177.2</ele>
        <time>2016-05-15T09:41:50Z</time>
      </trkpt>
      <trkpt lat="44.3861" lon="0.68857">
        <ele>177.2</ele>
        <time>2016-05-15T09:41:53Z</time>
      </trkpt>
      <trkpt lat="44.3861" lon="0.6885">
        <ele>177.3</ele>
        <time>2016-05-15T09:42:06Z</time>
      </trkpt>
      <trkpt lat="44.3861" lon="0.68845">
        <ele>177.4</ele>
        <time>2016-05-15T09:42:07Z</time>
      </trkpt>
      <trkpt lat="44.38611" lon="0.68839">
        <ele>177.5</ele>
        <time>2016-05-15T09:42:08Z</time>
      </trkpt>
      <trkpt lat="44.38613" lon="0.68817">
        <ele>177.7</ele>
        <time>2016-05-15T09:42:11Z</time>
      </trkpt>
      <trkpt lat="44.38614" lon="0.68798">
        <ele>177.9</ele>
        <time>2016-05-15T09:42:14Z</time>
      </trkpt>
      <trkpt lat="44.38615" lon="0.68791">
        <ele>178</ele>
        <time>2016-05-15T09:42:16Z</time>
      </trkpt>
      <trkpt lat="44.38616" lon="0.68786">
        <ele>178.1</ele>
        <time>2016-05-15T09:42:18Z</time>
      </trkpt>
      <trkpt lat="44.38617" lon="0.68777">
        <ele>178</ele>
        <time>2016-05-15T09:42:21Z</time>
      </trkpt>
      <trkpt lat="44.38621" lon="0.68755">
        <ele>177.9</ele>
        <time>2016-05-15T09:42:25Z</time>
      </trkpt>
      <trkpt lat="44.38622" lon="0.68749">
        <ele>177.8</ele>
        <time>2016-05-15T09:42:26Z</time>
      </trkpt>
      <trkpt lat="44.38626" lon="0.68734">
        <ele>177.5</ele>
        <time>2016-05-15T09:42:28Z</time>
      </trkpt>
      <trkpt lat="44.38633" lon="0.6871">
        <ele>175.5</ele>
        <time>2016-05-15T09:42:31Z</time>
      </trkpt>
      <trkpt lat="44.38636" lon="0.687">
        <ele>174.6</ele>
        <time>2016-05-15T09:42:32Z</time>
      </trkpt>
      <trkpt lat="44.38645" lon="0.68672">
        <ele>171.7</ele>
        <time>2016-05-15T09:42:35Z</time>
      </trkpt>
      <trkpt lat="44.38651" lon="0.68653">
        <ele>169.7</ele>
        <time>2016-05-15T09:42:37Z</time>
      </trkpt>
      <trkpt lat="44.38655" lon="0.68644">
        <ele>168.8</ele>
        <time>2016-05-15T09:42:38Z</time>
      </trkpt>
      <trkpt lat="44.38657" lon="0.68634">
        <ele>167.9</ele>
        <time>2016-05-15T09:42:39Z</time>
      </trkpt>
      <trkpt lat="44.38662" lon="0.68611">
        <ele>166.5</ele>
        <time>2016-05-15T09:42:41Z</time>
      </trkpt>
      <trkpt lat="44.38663" lon="0.68599">
        <ele>165.9</ele>
        <time>2016-05-15T09:42:42Z</time>
      </trkpt>
      <trkpt lat="44.38667" lon="0.68572">
        <ele>164.7</ele>
        <time>2016-05-15T09:42:44Z</time>
      </trkpt>
      <trkpt lat="44.3867" lon="0.68542">
        <ele>163.4</ele>
        <time>2016-05-15T09:42:46Z</time>
      </trkpt>
      <trkpt lat="44.38673" lon="0.68526">
        <ele>162.3</ele>
        <time>2016-05-15T09:42:47Z</time>
      </trkpt>
      <trkpt lat="44.38679" lon="0.68494">
        <ele>160</ele>
        <time>2016-05-15T09:42:49Z</time>
      </trkpt>
      <trkpt lat="44.38682" lon="0.68477">
        <ele>158.9</ele>
        <time>2016-05-15T09:42:50Z</time>
      </trkpt>
      <trkpt lat="44.38686" lon="0.68461">
        <ele>157.8</ele>
        <time>2016-05-15T09:42:51Z</time>
      </trkpt>
      <trkpt lat="44.38689" lon="0.68444">
        <ele>155.4</ele>
        <time>2016-05-15T09:42:52Z</time>
      </trkpt>
      <trkpt lat="44.38692" lon="0.68427">
        <ele>153</ele>
        <time>2016-05-15T09:42:53Z</time>
      </trkpt>
      <trkpt lat="44.38695" lon="0.68411">
        <ele>150.7</ele>
        <time>2016-05-15T09:42:54Z</time>
      </trkpt>
      <trkpt lat="44.38696" lon="0.68394">
        <ele>148.6</ele>
        <time>2016-05-15T09:42:55Z</time>
      </trkpt>
      <trkpt lat="44.38696" lon="0.68378">
        <ele>146.6</ele>
        <time>2016-05-15T09:42:56Z</time>
      </trkpt>
      <trkpt lat="44.3869" lon="0.68343">
        <ele>142</ele>
        <time>2016-05-15T09:42:58Z</time>
      </trkpt>
      <trkpt lat="44.38686" lon="0.68326">
        <ele>139.6</ele>
        <time>2016-05-15T09:42:59Z</time>
      </trkpt>
      <trkpt lat="44.38681" lon="0.68309">
        <ele>136.9</ele>
        <time>2016-05-15T09:43:00Z</time>
      </trkpt>
      <trkpt lat="44.38676" lon="0.68292">
        <ele>134.1</ele>
        <time>2016-05-15T09:43:01Z</time>
      </trkpt>
      <trkpt lat="44.38673" lon="0.68276">
        <ele>131.8</ele>
        <time>2016-05-15T09:43:02Z</time>
      </trkpt>
      <trkpt lat="44.38673" lon="0.6826">
        <ele>129.6</ele>
        <time>2016-05-15T09:43:03Z</time>
      </trkpt>
      <trkpt lat="44.38675" lon="0.68245">
        <ele>127.6</ele>
        <time>2016-05-15T09:43:04Z</time>
      </trkpt>
      <trkpt lat="44.3868" lon="0.6823">
        <ele>125.8</ele>
        <time>2016-05-15T09:43:05Z</time>
      </trkpt>
      <trkpt lat="44.38686" lon="0.68216">
        <ele>124.4</ele>
        <time>2016-05-15T09:43:06Z</time>
      </trkpt>
      <trkpt lat="44.38694" lon="0.68202">
        <ele>123.5</ele>
        <time>2016-05-15T09:43:07Z</time>
      </trkpt>
      <trkpt lat="44.38701" lon="0.68189">
        <ele>123.1</ele>
        <time>2016-05-15T09:43:08Z</time>
      </trkpt>
      <trkpt lat="44.38708" lon="0.68176">
        <ele>122.7</ele>
        <time>2016-05-15T09:43:09Z</time>
      </trkpt>
      <trkpt lat="44.38715" lon="0.68164">
        <ele>122</ele>
        <time>2016-05-15T09:43:10Z</time>
      </trkpt>
      <trkpt lat="44.38726" lon="0.68143">
        <ele>121.3</ele>
        <time>2016-05-15T09:43:12Z</time>
      </trkpt>
      <trkpt lat="44.3873" lon="0.68134">
        <ele>121.1</ele>
        <time>2016-05-15T09:43:13Z</time>
      </trkpt>
      <trkpt lat="44.38737" lon="0.68124">
        <ele>121</ele>
        <time>2016-05-15T09:43:15Z</time>
      </trkpt>
      <trkpt lat="44.38743" lon="0.68121">
        <ele>121.2</ele>
        <time>2016-05-15T09:43:17Z</time>
      </trkpt>
      <trkpt lat="44.38746" lon="0.68122">
        <ele>121.5</ele>
        <time>2016-05-15T09:43:18Z</time>
      </trkpt>
      <trkpt lat="44.38749" lon="0.68126">
        <ele>122</ele>
        <time>2016-05-15T09:43:20Z</time>
      </trkpt>
      <trkpt lat="44.3875" lon="0.68128">
        <ele>122.1</ele>
        <time>2016-05-15T09:43:21Z</time>
      </trkpt>
      <trkpt lat="44.38751" lon="0.68129">
        <ele>122.2</ele>
        <time>2016-05-15T09:43:22Z</time>
      </trkpt>
      <trkpt lat="44.38752" lon="0.68133">
        <ele>122.4</ele>
        <time>2016-05-15T09:43:27Z</time>
      </trkpt>
      <trkpt lat="44.38755" lon="0.68151">
        <ele>123.2</ele>
        <time>2016-05-15T09:43:32Z</time>
      </trkpt>
      <trkpt lat="44.38756" lon="0.68157">
        <ele>123.4</ele>
        <time>2016-05-15T09:43:33Z</time>
      </trkpt>
      <trkpt lat="44.3876" lon="0.6818">
        <ele>124.2</ele>
        <time>2016-05-15T09:43:36Z</time>
      </trkpt>
      <trkpt lat="44.38765" lon="0.68206">
        <ele>124.9</ele>
        <time>2016-05-15T09:43:39Z</time>
      </trkpt>
      <trkpt lat="44.38771" lon="0.68234">
        <ele>126.1</ele>
        <time>2016-05-15T09:43:42Z</time>
      </trkpt>
      <trkpt lat="44.38778" lon="0.68266">
        <ele>126.8</ele>
        <time>2016-05-15T09:43:45Z</time>
      </trkpt>
      <trkpt lat="44.38783" lon="0.68289">
        <ele>127</ele>
        <time>2016-05-15T09:43:47Z</time>
      </trkpt>
      <trkpt lat="44.38786" lon="0.68302">
        <ele>127.2</ele>
        <time>2016-05-15T09:43:48Z</time>
      </trkpt>
      <trkpt lat="44.3879" lon="0.68329">
        <ele>127.6</ele>
        <time>2016-05-15T09:43:50Z</time>
      </trkpt>
      <trkpt lat="44.38796" lon="0.68354">
        <ele>127.3</ele>
        <time>2016-05-15T09:43:52Z</time>
      </trkpt>
      <trkpt lat="44.38804" lon="0.6839">
        <ele>126.9</ele>
        <time>2016-05-15T09:43:55Z</time>
      </trkpt>
      <trkpt lat="44.38812" lon="0.68424">
        <ele>126.3</ele>
        <time>2016-05-15T09:43:58Z</time>
      </trkpt>
      <trkpt lat="44.38826" lon="0.68492">
        <ele>124</ele>
        <time>2016-05-15T09:44:04Z</time>
      </trkpt>
      <trkpt lat="44.38828" lon="0.68503">
        <ele>123.7</ele>
        <time>2016-05-15T09:44:05Z</time>
      </trkpt>
      <trkpt lat="44.3884" lon="0.68567">
        <ele>122.1</ele>
        <time>2016-05-15T09:44:11Z</time>
      </trkpt>
      <trkpt lat="44.38846" lon="0.68621">
        <ele>121.9</ele>
        <time>2016-05-15T09:44:16Z</time>
      </trkpt>
      <trkpt lat="44.38848" lon="0.68655">
        <ele>120.8</ele>
        <time>2016-05-15T09:44:19Z</time>
      </trkpt>
      <trkpt lat="44.38851" lon="0.68692">
        <ele>119.6</ele>
        <time>2016-05-15T09:44:22Z</time>
      </trkpt>
      <trkpt lat="44.38852" lon="0.68705">
        <ele>119.1</ele>
        <time>2016-05-15T09:44:23Z</time>
      </trkpt>
      <trkpt lat="44.38854" lon="0.68732">
        <ele>118</ele>
        <time>2016-05-15T09:44:25Z</time>
      </trkpt>
      <trkpt lat="44.38859" lon="0.68773">
        <ele>115.9</ele>
        <time>2016-05-15T09:44:28Z</time>
      </trkpt>
      <trkpt lat="44.38861" lon="0.68787">
        <ele>115</ele>
        <time>2016-05-15T09:44:29Z</time>
      </trkpt>
      <trkpt lat="44.38867" lon="0.68815">
        <ele>112.9</ele>
        <time>2016-05-15T09:44:31Z</time>
      </trkpt>
      <trkpt lat="44.38872" lon="0.68829">
        <ele>111.3</ele>
        <time>2016-05-15T09:44:32Z</time>
      </trkpt>
      <trkpt lat="44.38883" lon="0.68856">
        <ele>108.1</ele>
        <time>2016-05-15T09:44:34Z</time>
      </trkpt>
      <trkpt lat="44.38895" lon="0.68885">
        <ele>105.3</ele>
        <time>2016-05-15T09:44:36Z</time>
      </trkpt>
      <trkpt lat="44.38907" lon="0.68914">
        <ele>103.2</ele>
        <time>2016-05-15T09:44:38Z</time>
      </trkpt>
      <trkpt lat="44.38918" lon="0.68943">
        <ele>101.1</ele>
        <time>2016-05-15T09:44:40Z</time>
      </trkpt>
      <trkpt lat="44.38924" lon="0.68958">
        <ele>100</ele>
        <time>2016-05-15T09:44:41Z</time>
      </trkpt>
      <trkpt lat="44.3893" lon="0.68973">
        <ele>99.5</ele>
        <time>2016-05-15T09:44:42Z</time>
      </trkpt>
      <trkpt lat="44.38941" lon="0.69002">
        <ele>98.5</ele>
        <time>2016-05-15T09:44:44Z</time>
      </trkpt>
      <trkpt lat="44.3896" lon="0.69044">
        <ele>96.6</ele>
        <time>2016-05-15T09:44:47Z</time>
      </trkpt>
      <trkpt lat="44.38969" lon="0.69056">
        <ele>95.2</ele>
        <time>2016-05-15T09:44:48Z</time>
      </trkpt>
      <trkpt lat="44.38978" lon="0.69067">
        <ele>93.6</ele>
        <time>2016-05-15T09:44:49Z</time>
      </trkpt>
      <trkpt lat="44.38988" lon="0.69077">
        <ele>92</ele>
        <time>2016-05-15T09:44:50Z</time>
      </trkpt>
      <trkpt lat="44.38998" lon="0.69086">
        <ele>90.5</ele>
        <time>2016-05-15T09:44:51Z</time>
      </trkpt>
      <trkpt lat="44.39019" lon="0.69104">
        <ele>87.7</ele>
        <time>2016-05-15T09:44:53Z</time>
      </trkpt>
      <trkpt lat="44.39029" lon="0.69114">
        <ele>86.5</ele>
        <time>2016-05-15T09:44:54Z</time>
      </trkpt>
      <trkpt lat="44.39039" lon="0.69123">
        <ele>85.3</ele>
        <time>2016-05-15T09:44:55Z</time>
      </trkpt>
      <trkpt lat="44.3905" lon="0.6913">
        <ele>84.3</ele>
        <time>2016-05-15T09:44:56Z</time>
      </trkpt>
      <trkpt lat="44.39072" lon="0.69142">
        <ele>82.6</ele>
        <time>2016-05-15T09:44:58Z</time>
      </trkpt>
      <trkpt lat="44.39083" lon="0.6915">
        <ele>81.8</ele>
        <time>2016-05-15T09:44:59Z</time>
      </trkpt>
      <trkpt lat="44.39093" lon="0.69159">
        <ele>81.1</ele>
        <time>2016-05-15T09:45:00Z</time>
      </trkpt>
      <trkpt lat="44.39112" lon="0.69174">
        <ele>79.9</ele>
        <time>2016-05-15T09:45:02Z</time>
      </trkpt>
      <trkpt lat="44.39121" lon="0.69181">
        <ele>79.4</ele>
        <time>2016-05-15T09:45:03Z</time>
      </trkpt>
      <trkpt lat="44.39138" lon="0.69193">
        <ele>78.9</ele>
        <time>2016-05-15T09:45:05Z</time>
      </trkpt>
      <trkpt lat="44.39161" lon="0.69211">
        <ele>78.3</ele>
        <time>2016-05-15T09:45:08Z</time>
      </trkpt>
      <trkpt lat="44.39201" lon="0.69243">
        <ele>76.8</ele>
        <time>2016-05-15T09:45:14Z</time>
      </trkpt>
      <trkpt lat="44.39232" lon="0.69266">
        <ele>76.5</ele>
        <time>2016-05-15T09:45:19Z</time>
      </trkpt>
      <trkpt lat="44.39244" lon="0.69276">
        <ele>76.5</ele>
        <time>2016-05-15T09:45:21Z</time>
      </trkpt>
      <trkpt lat="44.39278" lon="0.69302">
        <ele>76.2</ele>
        <time>2016-05-15T09:45:27Z</time>
      </trkpt>
      <trkpt lat="44.39283" lon="0.69306">
        <ele>76.1</ele>
        <time>2016-05-15T09:45:28Z</time>
      </trkpt>
      <trkpt lat="44.39315" lon="0.69331">
        <ele>75.3</ele>
        <time>2016-05-15T09:45:34Z</time>
      </trkpt>
      <trkpt lat="44.3932" lon="0.69334">
        <ele>75.1</ele>
        <time>2016-05-15T09:45:35Z</time>
      </trkpt>
      <trkpt lat="44.39339" lon="0.69336">
        <ele>74.6</ele>
        <time>2016-05-15T09:45:38Z</time>
      </trkpt>
      <trkpt lat="44.39345" lon="0.69335">
        <ele>74.4</ele>
        <time>2016-05-15T09:45:39Z</time>
      </trkpt>
      <trkpt lat="44.39351" lon="0.69333">
        <ele>74.2</ele>
        <time>2016-05-15T09:45:40Z</time>
      </trkpt>
      <trkpt lat="44.39362" lon="0.69326">
        <ele>74</ele>
        <time>2016-05-15T09:45:42Z</time>
      </trkpt>
      <trkpt lat="44.39368" lon="0.69323">
        <ele>73.8</ele>
        <time>2016-05-15T09:45:43Z</time>
      </trkpt>
      <trkpt lat="44.39373" lon="0.69321">
        <ele>73.7</ele>
        <time>2016-05-15T09:45:44Z</time>
      </trkpt>
      <trkpt lat="44.3938" lon="0.6932">
        <ele>73.4</ele>
        <time>2016-05-15T09:45:46Z</time>
      </trkpt>
      <trkpt lat="44.39393" lon="0.69327">
        <ele>72.6</ele>
        <time>2016-05-15T09:45:50Z</time>
      </trkpt>
      <trkpt lat="44.39412" lon="0.6933">
        <ele>71.5</ele>
        <time>2016-05-15T09:45:55Z</time>
      </trkpt>
      <trkpt lat="44.39427" lon="0.69318">
        <ele>70.7</ele>
        <time>2016-05-15T09:45:59Z</time>
      </trkpt>
      <trkpt lat="44.39432" lon="0.69316">
        <ele>70.5</ele>
        <time>2016-05-15T09:46:00Z</time>
      </trkpt>
      <trkpt lat="44.39443" lon="0.69319">
        <ele>69.9</ele>
        <time>2016-05-15T09:46:02Z</time>
      </trkpt>
      <trkpt lat="44.39451" lon="0.69337">
        <ele>69.4</ele>
        <time>2016-05-15T09:46:05Z</time>
      </trkpt>
      <trkpt lat="44.39452" lon="0.69344">
        <ele>69.3</ele>
        <time>2016-05-15T09:46:06Z</time>
      </trkpt>
      <trkpt lat="44.39453" lon="0.69375">
        <ele>69.3</ele>
        <time>2016-05-15T09:46:10Z</time>
      </trkpt>
      <trkpt lat="44.39452" lon="0.69383">
        <ele>69.4</ele>
        <time>2016-05-15T09:46:11Z</time>
      </trkpt>
      <trkpt lat="44.3945" lon="0.69405">
        <ele>69.7</ele>
        <time>2016-05-15T09:46:14Z</time>
      </trkpt>
      <trkpt lat="44.39451" lon="0.69416">
        <ele>69.8</ele>
        <time>2016-05-15T09:46:16Z</time>
      </trkpt>
      <trkpt lat="44.39454" lon="0.69425">
        <ele>69.8</ele>
        <time>2016-05-15T09:46:18Z</time>
      </trkpt>
      <trkpt lat="44.39458" lon="0.69435">
        <ele>69.7</ele>
        <time>2016-05-15T09:46:21Z</time>
      </trkpt>
      <trkpt lat="44.39463" lon="0.69445">
        <ele>69.7</ele>
        <time>2016-05-15T09:46:24Z</time>
      </trkpt>
      <trkpt lat="44.39471" lon="0.69453">
        <ele>69.6</ele>
        <time>2016-05-15T09:46:27Z</time>
      </trkpt>
      <trkpt lat="44.39492" lon="0.69469">
        <ele>69.2</ele>
        <time>2016-05-15T09:46:34Z</time>
      </trkpt>
      <trkpt lat="44.39516" lon="0.69487">
        <ele>68.8</ele>
        <time>2016-05-15T09:46:41Z</time>
      </trkpt>
      <trkpt lat="44.39519" lon="0.6949">
        <ele>68.7</ele>
        <time>2016-05-15T09:46:42Z</time>
      </trkpt>
      <trkpt lat="44.39538" lon="0.69504">
        <ele>68.6</ele>
        <time>2016-05-15T09:46:48Z</time>
      </trkpt>
      <trkpt lat="44.39558" lon="0.6952">
        <ele>68.4</ele>
        <time>2016-05-15T09:46:55Z</time>
      </trkpt>
      <trkpt lat="44.39568" lon="0.69528">
        <ele>68.2</ele>
        <time>2016-05-15T09:47:02Z</time>
      </trkpt>
      <trkpt lat="44.39569" lon="0.69523">
        <ele>68.1</ele>
        <time>2016-05-15T09:48:44Z</time>
      </trkpt>
      <trkpt lat="44.39557" lon="0.69513">
        <ele>68.3</ele>
        <time>2016-05-15T09:48:49Z</time>
      </trkpt>
      <trkpt lat="44.39534" lon="0.69494">
        <ele>68.5</ele>
        <time>2016-05-15T09:48:58Z</time>
      </trkpt>
      <trkpt lat="44.3951" lon="0.69475">
        <ele>68.8</ele>
        <time>2016-05-15T09:49:04Z</time>
      </trkpt>
      <trkpt lat="44.39486" lon="0.69455">
        <ele>69.3</ele>
        <time>2016-05-15T09:49:10Z</time>
      </trkpt>
      <trkpt lat="44.39482" lon="0.69452">
        <ele>69.3</ele>
        <time>2016-05-15T09:49:11Z</time>
      </trkpt>
      <trkpt lat="44.39471" lon="0.69441">
        <ele>69.5</ele>
        <time>2016-05-15T09:49:14Z</time>
      </trkpt>
      <trkpt lat="44.39463" lon="0.69426">
        <ele>69.5</ele>
        <time>2016-05-15T09:49:17Z</time>
      </trkpt>
      <trkpt lat="44.39461" lon="0.69421">
        <ele>69.5</ele>
        <time>2016-05-15T09:49:18Z</time>
      </trkpt>
      <trkpt lat="44.39456" lon="0.69402">
        <ele>69.4</ele>
        <time>2016-05-15T09:49:21Z</time>
      </trkpt>
      <trkpt lat="44.39456" lon="0.69395">
        <ele>69.3</ele>
        <time>2016-05-15T09:49:22Z</time>
      </trkpt>
      <trkpt lat="44.39459" lon="0.69356">
        <ele>69</ele>
        <time>2016-05-15T09:49:28Z</time>
      </trkpt>
      <trkpt lat="44.39459" lon="0.6935">
        <ele>69</ele>
        <time>2016-05-15T09:49:29Z</time>
      </trkpt>
      <trkpt lat="44.39459" lon="0.69337">
        <ele>69</ele>
        <time>2016-05-15T09:49:31Z</time>
      </trkpt>
      <trkpt lat="44.39454" lon="0.6932">
        <ele>69.2</ele>
        <time>2016-05-15T09:49:34Z</time>
      </trkpt>
      <trkpt lat="44.39449" lon="0.69312">
        <ele>69.5</ele>
        <time>2016-05-15T09:49:36Z</time>
      </trkpt>
      <trkpt lat="44.39444" lon="0.69305">
        <ele>69.8</ele>
        <time>2016-05-15T09:49:38Z</time>
      </trkpt>
      <trkpt lat="44.3944" lon="0.693">
        <ele>70.1</ele>
        <time>2016-05-15T09:49:40Z</time>
      </trkpt>
      <trkpt lat="44.39436" lon="0.69295">
        <ele>70.3</ele>
        <time>2016-05-15T09:49:44Z</time>
      </trkpt>
      <trkpt lat="44.3943" lon="0.69289">
        <ele>70.7</ele>
        <time>2016-05-15T09:49:48Z</time>
      </trkpt>
      <trkpt lat="44.3943" lon="0.69288">
        <ele>70.7</ele>
        <time>2016-05-15T09:49:49Z</time>
      </trkpt>
      <trkpt lat="44.39435" lon="0.69294">
        <ele>70.4</ele>
        <time>2016-05-15T09:51:06Z</time>
      </trkpt>
      <trkpt lat="44.39438" lon="0.69296">
        <ele>70.2</ele>
        <time>2016-05-15T09:51:08Z</time>
      </trkpt>
      <trkpt lat="44.39439" lon="0.69298">
        <ele>70.1</ele>
        <time>2016-05-15T09:51:09Z</time>
      </trkpt>
      <trkpt lat="44.39441" lon="0.69309">
        <ele>70</ele>
        <time>2016-05-15T09:51:14Z</time>
      </trkpt>
      <trkpt lat="44.39437" lon="0.69325">
        <ele>70.2</ele>
        <time>2016-05-15T09:51:19Z</time>
      </trkpt>
      <trkpt lat="44.39437" lon="0.69329">
        <ele>70.2</ele>
        <time>2016-05-15T09:51:20Z</time>
      </trkpt>
      <trkpt lat="44.3944" lon="0.69344">
        <ele>69.9</ele>
        <time>2016-05-15T09:51:23Z</time>
      </trkpt>
      <trkpt lat="44.39441" lon="0.69352">
        <ele>69.9</ele>
        <time>2016-05-15T09:51:24Z</time>
      </trkpt>
      <trkpt lat="44.39442" lon="0.6936">
        <ele>69.8</ele>
        <time>2016-05-15T09:51:25Z</time>
      </trkpt>
      <trkpt lat="44.39442" lon="0.69375">
        <ele>69.8</ele>
        <time>2016-05-15T09:51:27Z</time>
      </trkpt>
      <trkpt lat="44.39439" lon="0.69395">
        <ele>70.1</ele>
        <time>2016-05-15T09:51:30Z</time>
      </trkpt>
      <trkpt lat="44.39439" lon="0.69401">
        <ele>70.2</ele>
        <time>2016-05-15T09:51:31Z</time>
      </trkpt>
      <trkpt lat="44.39442" lon="0.69419">
        <ele>70.2</ele>
        <time>2016-05-15T09:51:34Z</time>
      </trkpt>
      <trkpt lat="44.39444" lon="0.69425">
        <ele>70.2</ele>
        <time>2016-05-15T09:51:35Z</time>
      </trkpt>
      <trkpt lat="44.39446" lon="0.6943">
        <ele>70.2</ele>
        <time>2016-05-15T09:51:36Z</time>
      </trkpt>
      <trkpt lat="44.39457" lon="0.6944">
        <ele>69.8</ele>
        <time>2016-05-15T09:51:39Z</time>
      </trkpt>
      <trkpt lat="44.39468" lon="0.6945">
        <ele>69.7</ele>
        <time>2016-05-15T09:51:42Z</time>
      </trkpt>
      <trkpt lat="44.39472" lon="0.69454">
        <ele>69.6</ele>
        <time>2016-05-15T09:51:43Z</time>
      </trkpt>
      <trkpt lat="44.39476" lon="0.69457">
        <ele>69.6</ele>
        <time>2016-05-15T09:51:44Z</time>
      </trkpt>
      <trkpt lat="44.39485" lon="0.69464">
        <ele>69.3</ele>
        <time>2016-05-15T09:51:46Z</time>
      </trkpt>
      <trkpt lat="44.39495" lon="0.69471">
        <ele>69.1</ele>
        <time>2016-05-15T09:51:48Z</time>
      </trkpt>
      <trkpt lat="44.39531" lon="0.69499">
        <ele>68.6</ele>
        <time>2016-05-15T09:51:55Z</time>
      </trkpt>
      <trkpt lat="44.39547" lon="0.69511">
        <ele>68.5</ele>
        <time>2016-05-15T09:51:58Z</time>
      </trkpt>
      <trkpt lat="44.39569" lon="0.69528">
        <ele>68.2</ele>
        <time>2016-05-15T09:52:02Z</time>
      </trkpt>
      <trkpt lat="44.39613" lon="0.69561">
        <ele>67.1</ele>
        <time>2016-05-15T09:52:09Z</time>
      </trkpt>
      <trkpt lat="44.3965" lon="0.69591">
        <ele>66.3</ele>
        <time>2016-05-15T09:52:15Z</time>
      </trkpt>
      <trkpt lat="44.397" lon="0.69629">
        <ele>66</ele>
        <time>2016-05-15T09:52:23Z</time>
      </trkpt>
      <trkpt lat="44.39707" lon="0.69634">
        <ele>65.9</ele>
        <time>2016-05-15T09:52:24Z</time>
      </trkpt>
      <trkpt lat="44.39713" lon="0.69639">
        <ele>65.7</ele>
        <time>2016-05-15T09:52:25Z</time>
      </trkpt>
      <trkpt lat="44.39758" lon="0.69674">
        <ele>64.6</ele>
        <time>2016-05-15T09:52:32Z</time>
      </trkpt>
      <trkpt lat="44.39771" lon="0.69684">
        <ele>64.3</ele>
        <time>2016-05-15T09:52:34Z</time>
      </trkpt>
      <trkpt lat="44.39803" lon="0.69709">
        <ele>63.7</ele>
        <time>2016-05-15T09:52:39Z</time>
      </trkpt>
      <trkpt lat="44.3985" lon="0.69743">
        <ele>63</ele>
        <time>2016-05-15T09:52:46Z</time>
      </trkpt>
      <trkpt lat="44.39878" lon="0.69765">
        <ele>62.7</ele>
        <time>2016-05-15T09:52:50Z</time>
      </trkpt>
      <trkpt lat="44.39912" lon="0.69794">
        <ele>62.6</ele>
        <time>2016-05-15T09:52:55Z</time>
      </trkpt>
      <trkpt lat="44.3996" lon="0.6983">
        <ele>62.5</ele>
        <time>2016-05-15T09:53:02Z</time>
      </trkpt>
      <trkpt lat="44.39979" lon="0.69845">
        <ele>62.6</ele>
        <time>2016-05-15T09:53:05Z</time>
      </trkpt>
      <trkpt lat="44.40004" lon="0.69864">
        <ele>62.9</ele>
        <time>2016-05-15T09:53:09Z</time>
      </trkpt>
      <trkpt lat="44.40046" lon="0.69897">
        <ele>62.4</ele>
        <time>2016-05-15T09:53:16Z</time>
      </trkpt>
      <trkpt lat="44.40058" lon="0.69906">
        <ele>61.9</ele>
        <time>2016-05-15T09:53:18Z</time>
      </trkpt>
      <trkpt lat="44.40087" lon="0.69928">
        <ele>61</ele>
        <time>2016-05-15T09:53:23Z</time>
      </trkpt>
      <trkpt lat="44.40098" lon="0.69936">
        <ele>60.7</ele>
        <time>2016-05-15T09:53:25Z</time>
      </trkpt>
      <trkpt lat="44.40113" lon="0.69948">
        <ele>60.3</ele>
        <time>2016-05-15T09:53:28Z</time>
      </trkpt>
      <trkpt lat="44.40147" lon="0.69975">
        <ele>60</ele>
        <time>2016-05-15T09:53:35Z</time>
      </trkpt>
      <trkpt lat="44.40175" lon="0.69997">
        <ele>60</ele>
        <time>2016-05-15T09:53:41Z</time>
      </trkpt>
      <trkpt lat="44.40184" lon="0.70004">
        <ele>60</ele>
        <time>2016-05-15T09:53:43Z</time>
      </trkpt>
      <trkpt lat="44.40219" lon="0.70032">
        <ele>60</ele>
        <time>2016-05-15T09:53:52Z</time>
      </trkpt>
      <trkpt lat="44.40224" lon="0.70036">
        <ele>60</ele>
        <time>2016-05-15T09:53:54Z</time>
      </trkpt>
      <trkpt lat="44.40242" lon="0.70049">
        <ele>60.1</ele>
        <time>2016-05-15T09:53:59Z</time>
      </trkpt>
      <trkpt lat="44.40267" lon="0.70067">
        <ele>60.1</ele>
        <time>2016-05-15T09:54:05Z</time>
      </trkpt>
      <trkpt lat="44.40272" lon="0.70071">
        <ele>60.1</ele>
        <time>2016-05-15T09:54:06Z</time>
      </trkpt>
      <trkpt lat="44.40303" lon="0.70096">
        <ele>60</ele>
        <time>2016-05-15T09:54:13Z</time>
      </trkpt>
      <trkpt lat="44.40311" lon="0.70102">
        <ele>59.9</ele>
        <time>2016-05-15T09:54:15Z</time>
      </trkpt>
      <trkpt lat="44.4032" lon="0.7011">
        <ele>59.9</ele>
        <time>2016-05-15T09:54:19Z</time>
      </trkpt>
      <trkpt lat="44.40324" lon="0.70115">
        <ele>60</ele>
        <time>2016-05-15T09:54:22Z</time>
      </trkpt>
      <trkpt lat="44.40325" lon="0.70115">
        <ele>60</ele>
        <time>2016-05-15T09:54:24Z</time>
      </trkpt>
      <trkpt lat="44.40335" lon="0.70122">
        <ele>60</ele>
        <time>2016-05-15T09:54:29Z</time>
      </trkpt>
      <trkpt lat="44.40354" lon="0.70129">
        <ele>60</ele>
        <time>2016-05-15T09:54:35Z</time>
      </trkpt>
      <trkpt lat="44.4037" lon="0.70141">
        <ele>59.8</ele>
        <time>2016-05-15T09:54:41Z</time>
      </trkpt>
      <trkpt lat="44.40385" lon="0.70154">
        <ele>59.7</ele>
        <time>2016-05-15T09:54:46Z</time>
      </trkpt>
      <trkpt lat="44.40388" lon="0.70157">
        <ele>59.7</ele>
        <time>2016-05-15T09:54:47Z</time>
      </trkpt>
      <trkpt lat="44.40396" lon="0.70162">
        <ele>59.8</ele>
        <time>2016-05-15T09:54:49Z</time>
      </trkpt>
      <trkpt lat="44.40408" lon="0.70171">
        <ele>59.9</ele>
        <time>2016-05-15T09:54:52Z</time>
      </trkpt>
      <trkpt lat="44.40439" lon="0.70192">
        <ele>60.4</ele>
        <time>2016-05-15T09:55:00Z</time>
      </trkpt>
      <trkpt lat="44.40451" lon="0.70204">
        <ele>60.8</ele>
        <time>2016-05-15T09:55:05Z</time>
      </trkpt>
      <trkpt lat="44.40458" lon="0.70209">
        <ele>61</ele>
        <time>2016-05-15T09:55:10Z</time>
      </trkpt>
      <trkpt lat="44.40465" lon="0.70218">
        <ele>60.6</ele>
        <time>2016-05-15T09:55:14Z</time>
      </trkpt>
      <trkpt lat="44.40468" lon="0.7022">
        <ele>60.5</ele>
        <time>2016-05-15T09:55:15Z</time>
      </trkpt>
      <trkpt lat="44.40486" lon="0.70231">
        <ele>60.1</ele>
        <time>2016-05-15T09:55:21Z</time>
      </trkpt>
      <trkpt lat="44.40508" lon="0.70246">
        <ele>59.7</ele>
        <time>2016-05-15T09:55:28Z</time>
      </trkpt>
      <trkpt lat="44.40519" lon="0.70253">
        <ele>59.6</ele>
        <time>2016-05-15T09:55:31Z</time>
      </trkpt>
      <trkpt lat="44.40535" lon="0.70267">
        <ele>59.7</ele>
        <time>2016-05-15T09:55:35Z</time>
      </trkpt>
      <trkpt lat="44.4054" lon="0.7027">
        <ele>59.7</ele>
        <time>2016-05-15T09:55:36Z</time>
      </trkpt>
      <trkpt lat="44.40569" lon="0.70297">
        <ele>59.5</ele>
        <time>2016-05-15T09:55:42Z</time>
      </trkpt>
      <trkpt lat="44.40601" lon="0.70335">
        <ele>56.5</ele>
        <time>2016-05-15T09:55:48Z</time>
      </trkpt>
      <trkpt lat="44.40613" lon="0.70353">
        <ele>54.5</ele>
        <time>2016-05-15T09:55:53Z</time>
      </trkpt>
      <trkpt lat="44.40615" lon="0.70358">
        <ele>54</ele>
        <time>2016-05-15T09:55:58Z</time>
      </trkpt>
      <trkpt lat="44.40623" lon="0.70365">
        <ele>53</ele>
        <time>2016-05-15T09:56:42Z</time>
      </trkpt>
      <trkpt lat="44.40625" lon="0.70367">
        <ele>52.6</ele>
        <time>2016-05-15T09:56:44Z</time>
      </trkpt>
      <trkpt lat="44.40627" lon="0.7037">
        <ele>52.4</ele>
        <time>2016-05-15T09:56:46Z</time>
      </trkpt>
      <trkpt lat="44.40634" lon="0.70379">
        <ele>51.7</ele>
        <time>2016-05-15T09:56:52Z</time>
      </trkpt>
      <trkpt lat="44.40648" lon="0.70394">
        <ele>50.8</ele>
        <time>2016-05-15T09:57:00Z</time>
      </trkpt>
      <trkpt lat="44.40656" lon="0.70401">
        <ele>50.4</ele>
        <time>2016-05-15T09:57:03Z</time>
      </trkpt>
      <trkpt lat="44.40662" lon="0.70406">
        <ele>50.2</ele>
        <time>2016-05-15T09:57:06Z</time>
      </trkpt>
      <trkpt lat="44.40668" lon="0.70411">
        <ele>49.9</ele>
        <time>2016-05-15T09:57:10Z</time>
      </trkpt>
      <trkpt lat="44.40673" lon="0.70416">
        <ele>49.7</ele>
        <time>2016-05-15T09:57:12Z</time>
      </trkpt>
      <trkpt lat="44.40688" lon="0.70427">
        <ele>49.1</ele>
        <time>2016-05-15T09:57:18Z</time>
      </trkpt>
      <trkpt lat="44.40696" lon="0.70437">
        <ele>48.7</ele>
        <time>2016-05-15T09:57:21Z</time>
      </trkpt>
      <trkpt lat="44.40704" lon="0.70445">
        <ele>48.4</ele>
        <time>2016-05-15T09:57:24Z</time>
      </trkpt>
      <trkpt lat="44.40717" lon="0.70459">
        <ele>49</ele>
        <time>2016-05-15T09:57:29Z</time>
      </trkpt>
      <trkpt lat="44.40739" lon="0.70483">
        <ele>53.1</ele>
        <time>2016-05-15T09:57:38Z</time>
      </trkpt>
      <trkpt lat="44.40748" lon="0.70492">
        <ele>54.5</ele>
        <time>2016-05-15T09:57:43Z</time>
      </trkpt>
      <trkpt lat="44.40763" lon="0.7051">
        <ele>56.8</ele>
        <time>2016-05-15T09:57:51Z</time>
      </trkpt>
      <trkpt lat="44.40772" lon="0.70523">
        <ele>58.1</ele>
        <time>2016-05-15T09:57:58Z</time>
      </trkpt>
      <trkpt lat="44.40768" lon="0.70535">
        <ele>58.5</ele>
        <time>2016-05-15T09:58:02Z</time>
      </trkpt>
      <trkpt lat="44.40766" lon="0.70539">
        <ele>58.6</ele>
        <time>2016-05-15T09:58:03Z</time>
      </trkpt>
      <trkpt lat="44.40747" lon="0.70576">
        <ele>58.5</ele>
        <time>2016-05-15T09:58:13Z</time>
      </trkpt>
      <trkpt lat="44.40735" lon="0.70605">
        <ele>58.8</ele>
        <time>2016-05-15T09:58:21Z</time>
      </trkpt>
      <trkpt lat="44.40727" lon="0.70619">
        <ele>59.1</ele>
        <time>2016-05-15T09:58:27Z</time>
      </trkpt>
      <trkpt lat="44.40726" lon="0.70619">
        <ele>59.1</ele>
        <time>2016-05-15T09:58:28Z</time>
      </trkpt>
      <trkpt lat="44.40729" lon="0.70622">
        <ele>59.2</ele>
        <time>2016-05-15T09:58:32Z</time>
      </trkpt>
      <trkpt lat="44.40732" lon="0.70626">
        <ele>59.3</ele>
        <time>2016-05-15T09:58:35Z</time>
      </trkpt>
      <trkpt lat="44.40735" lon="0.70628">
        <ele>59.3</ele>
        <time>2016-05-15T09:58:39Z</time>
      </trkpt>
      <trkpt lat="44.40732" lon="0.70622">
        <ele>59.2</ele>
        <time>2016-05-15T09:58:43Z</time>
      </trkpt>
      <trkpt lat="44.4073" lon="0.7062">
        <ele>59.1</ele>
        <time>2016-05-15T09:58:44Z</time>
      </trkpt>
      <trkpt lat="44.40712" lon="0.70603">
        <ele>58.3</ele>
        <time>2016-05-15T09:58:50Z</time>
      </trkpt>
      <trkpt lat="44.40695" lon="0.70586">
        <ele>57</ele>
        <time>2016-05-15T09:58:57Z</time>
      </trkpt>
      <trkpt lat="44.40684" lon="0.7057">
        <ele>55.8</ele>
        <time>2016-05-15T09:59:03Z</time>
      </trkpt>
      <trkpt lat="44.4067" lon="0.70563">
        <ele>54.7</ele>
        <time>2016-05-15T09:59:09Z</time>
      </trkpt>
      <trkpt lat="44.40658" lon="0.70554">
        <ele>53.6</ele>
        <time>2016-05-15T09:59:15Z</time>
      </trkpt>
      <trkpt lat="44.40649" lon="0.70542">
        <ele>52.4</ele>
        <time>2016-05-15T09:59:21Z</time>
      </trkpt>
      <trkpt lat="44.40651" lon="0.7054">
        <ele>52.5</ele>
        <time>2016-05-15T09:59:25Z</time>
      </trkpt>
      <trkpt lat="44.40654" lon="0.70546">
        <ele>53</ele>
        <time>2016-05-15T10:00:48Z</time>
      </trkpt>
      <trkpt lat="44.40654" lon="0.70551">
        <ele>53.2</ele>
        <time>2016-05-15T10:00:50Z</time>
      </trkpt>
      <trkpt lat="44.40653" lon="0.70555">
        <ele>53.4</ele>
        <time>2016-05-15T10:00:52Z</time>
      </trkpt>
      <trkpt lat="44.40653" lon="0.70557">
        <ele>53.5</ele>
        <time>2016-05-15T10:00:53Z</time>
      </trkpt>
      <trkpt lat="44.40651" lon="0.70571">
        <ele>54.1</ele>
        <time>2016-05-15T10:01:00Z</time>
      </trkpt>
      <trkpt lat="44.40655" lon="0.70579">
        <ele>54.7</ele>
        <time>2016-05-15T10:01:02Z</time>
      </trkpt>
      <trkpt lat="44.40667" lon="0.70578">
        <ele>55.3</ele>
        <time>2016-05-15T10:01:04Z</time>
      </trkpt>
      <trkpt lat="44.407" lon="0.70602">
        <ele>57.8</ele>
        <time>2016-05-15T10:01:14Z</time>
      </trkpt>
      <trkpt lat="44.40723" lon="0.70619">
        <ele>59</ele>
        <time>2016-05-15T10:01:20Z</time>
      </trkpt>
      <trkpt lat="44.40747" lon="0.70644">
        <ele>59.6</ele>
        <time>2016-05-15T10:01:27Z</time>
      </trkpt>
      <trkpt lat="44.40772" lon="0.70671">
        <ele>60.2</ele>
        <time>2016-05-15T10:01:35Z</time>
      </trkpt>
      <trkpt lat="44.40779" lon="0.70676">
        <ele>60.4</ele>
        <time>2016-05-15T10:01:38Z</time>
      </trkpt>
      <trkpt lat="44.4079" lon="0.70688">
        <ele>60.7</ele>
        <time>2016-05-15T10:01:42Z</time>
      </trkpt>
      <trkpt lat="44.40797" lon="0.70702">
        <ele>60.9</ele>
        <time>2016-05-15T10:01:46Z</time>
      </trkpt>
      <trkpt lat="44.40804" lon="0.70708">
        <ele>60.9</ele>
        <time>2016-05-15T10:02:09Z</time>
      </trkpt>
      <trkpt lat="44.40809" lon="0.70714">
        <ele>60.7</ele>
        <time>2016-05-15T10:02:12Z</time>
      </trkpt>
      <trkpt lat="44.40809" lon="0.70715">
        <ele>60.7</ele>
        <time>2016-05-15T10:02:13Z</time>
      </trkpt>
      <trkpt lat="44.40815" lon="0.70722">
        <ele>60.6</ele>
        <time>2016-05-15T10:02:17Z</time>
      </trkpt>
      <trkpt lat="44.40829" lon="0.70739">
        <ele>60.4</ele>
        <time>2016-05-15T10:02:23Z</time>
      </trkpt>
      <trkpt lat="44.40847" lon="0.70757">
        <ele>60.1</ele>
        <time>2016-05-15T10:02:29Z</time>
      </trkpt>
      <trkpt lat="44.4085" lon="0.70762">
        <ele>60.1</ele>
        <time>2016-05-15T10:02:32Z</time>
      </trkpt>
      <trkpt lat="44.40851" lon="0.70764">
        <ele>60.1</ele>
        <time>2016-05-15T10:02:33Z</time>
      </trkpt>
      <trkpt lat="44.40854" lon="0.70767">
        <ele>60.1</ele>
        <time>2016-05-15T10:02:41Z</time>
      </trkpt>
      <trkpt lat="44.4085" lon="0.70744">
        <ele>60.2</ele>
        <time>2016-05-15T10:29:36Z</time>
      </trkpt>
      <trkpt lat="44.40848" lon="0.70743">
        <ele>60.2</ele>
        <time>2016-05-15T10:29:37Z</time>
      </trkpt>
      <trkpt lat="44.40842" lon="0.70739">
        <ele>60.2</ele>
        <time>2016-05-15T10:29:41Z</time>
      </trkpt>
      <trkpt lat="44.40839" lon="0.70734">
        <ele>60.3</ele>
        <time>2016-05-15T10:29:44Z</time>
      </trkpt>
      <trkpt lat="44.40835" lon="0.70732">
        <ele>60.3</ele>
        <time>2016-05-15T10:29:47Z</time>
      </trkpt>
      <trkpt lat="44.40831" lon="0.70733">
        <ele>60.4</ele>
        <time>2016-05-15T10:29:50Z</time>
      </trkpt>
      <trkpt lat="44.40828" lon="0.70736">
        <ele>60.4</ele>
        <time>2016-05-15T10:29:52Z</time>
      </trkpt>
      <trkpt lat="44.40825" lon="0.70741">
        <ele>60.4</ele>
        <time>2016-05-15T10:29:55Z</time>
      </trkpt>
      <trkpt lat="44.40824" lon="0.70741">
        <ele>60.4</ele>
        <time>2016-05-15T10:29:56Z</time>
      </trkpt>
      <trkpt lat="44.40819" lon="0.70739">
        <ele>60.4</ele>
        <time>2016-05-15T10:30:01Z</time>
      </trkpt>
      <trkpt lat="44.40815" lon="0.70733">
        <ele>60.5</ele>
        <time>2016-05-15T10:30:04Z</time>
      </trkpt>
      <trkpt lat="44.40814" lon="0.7073">
        <ele>60.5</ele>
        <time>2016-05-15T10:30:05Z</time>
      </trkpt>
      <trkpt lat="44.40814" lon="0.70724">
        <ele>60.6</ele>
        <time>2016-05-15T10:30:09Z</time>
      </trkpt>
      <trkpt lat="44.40813" lon="0.70718">
        <ele>60.7</ele>
        <time>2016-05-15T10:30:12Z</time>
      </trkpt>
      <trkpt lat="44.40808" lon="0.70711">
        <ele>60.8</ele>
        <time>2016-05-15T10:30:16Z</time>
      </trkpt>
      <trkpt lat="44.40807" lon="0.7071">
        <ele>60.8</ele>
        <time>2016-05-15T10:30:17Z</time>
      </trkpt>
      <trkpt lat="44.40806" lon="0.70707">
        <ele>60.8</ele>
        <time>2016-05-15T10:30:21Z</time>
      </trkpt>
      <trkpt lat="44.40804" lon="0.70703">
        <ele>60.8</ele>
        <time>2016-05-15T10:30:24Z</time>
      </trkpt>
      <trkpt lat="44.40798" lon="0.70696">
        <ele>60.8</ele>
        <time>2016-05-15T10:30:28Z</time>
      </trkpt>
      <trkpt lat="44.40786" lon="0.70684">
        <ele>60.6</ele>
        <time>2016-05-15T10:30:33Z</time>
      </trkpt>
      <trkpt lat="44.4077" lon="0.70665">
        <ele>60.1</ele>
        <time>2016-05-15T10:30:40Z</time>
      </trkpt>
      <trkpt lat="44.40755" lon="0.70646">
        <ele>59.7</ele>
        <time>2016-05-15T10:30:47Z</time>
      </trkpt>
      <trkpt lat="44.40741" lon="0.7063">
        <ele>59.4</ele>
        <time>2016-05-15T10:30:53Z</time>
      </trkpt>
      <trkpt lat="44.40717" lon="0.70606">
        <ele>58.5</ele>
        <time>2016-05-15T10:31:02Z</time>
      </trkpt>
      <trkpt lat="44.40698" lon="0.70587">
        <ele>57.1</ele>
        <time>2016-05-15T10:31:10Z</time>
      </trkpt>
      <trkpt lat="44.40689" lon="0.70573">
        <ele>56.1</ele>
        <time>2016-05-15T10:31:17Z</time>
      </trkpt>
      <trkpt lat="44.40683" lon="0.70571">
        <ele>55.7</ele>
        <time>2016-05-15T10:31:23Z</time>
      </trkpt>
      <trkpt lat="44.40679" lon="0.70574">
        <ele>55.7</ele>
        <time>2016-05-15T10:31:25Z</time>
      </trkpt>
      <trkpt lat="44.40671" lon="0.70572">
        <ele>55.2</ele>
        <time>2016-05-15T10:31:30Z</time>
      </trkpt>
      <trkpt lat="44.40662" lon="0.7057">
        <ele>54.6</ele>
        <time>2016-05-15T10:31:35Z</time>
      </trkpt>
      <trkpt lat="44.40659" lon="0.70568">
        <ele>54.4</ele>
        <time>2016-05-15T10:31:38Z</time>
      </trkpt>
      <trkpt lat="44.40658" lon="0.70568">
        <ele>54.3</ele>
        <time>2016-05-15T10:31:39Z</time>
      </trkpt>
      <trkpt lat="44.4066" lon="0.70566">
        <ele>54.3</ele>
        <time>2016-05-15T10:31:42Z</time>
      </trkpt>
      <trkpt lat="44.40661" lon="0.70567">
        <ele>54.4</ele>
        <time>2016-05-15T10:31:43Z</time>
      </trkpt>
      <trkpt lat="44.40659" lon="0.70575">
        <ele>54.7</ele>
        <time>2016-05-15T10:31:47Z</time>
      </trkpt>
      <trkpt lat="44.40655" lon="0.70585">
        <ele>55</ele>
        <time>2016-05-15T10:31:51Z</time>
      </trkpt>
      <trkpt lat="44.40657" lon="0.7059">
        <ele>55.4</ele>
        <time>2016-05-15T10:31:53Z</time>
      </trkpt>
      <trkpt lat="44.40662" lon="0.706">
        <ele>56.1</ele>
        <time>2016-05-15T10:31:59Z</time>
      </trkpt>
      <trkpt lat="44.40663" lon="0.70601">
        <ele>56.2</ele>
        <time>2016-05-15T10:32:03Z</time>
      </trkpt>
      <trkpt lat="44.40662" lon="0.70605">
        <ele>56.4</ele>
        <time>2016-05-15T10:32:08Z</time>
      </trkpt>
      <trkpt lat="44.40663" lon="0.7062">
        <ele>57.1</ele>
        <time>2016-05-15T10:32:13Z</time>
      </trkpt>
      <trkpt lat="44.40663" lon="0.70622">
        <ele>57.2</ele>
        <time>2016-05-15T10:32:14Z</time>
      </trkpt>
      <trkpt lat="44.40658" lon="0.70632">
        <ele>57.2</ele>
        <time>2016-05-15T10:32:20Z</time>
      </trkpt>
      <trkpt lat="44.40656" lon="0.70632">
        <ele>57.2</ele>
        <time>2016-05-15T10:32:25Z</time>
      </trkpt>
      <trkpt lat="44.40657" lon="0.70632">
        <ele>57.2</ele>
        <time>2016-05-15T10:32:32Z</time>
      </trkpt>
      <trkpt lat="44.40657" lon="0.70638">
        <ele>57.3</ele>
        <time>2016-05-15T10:33:36Z</time>
      </trkpt>
      <trkpt lat="44.40661" lon="0.7064">
        <ele>57.4</ele>
        <time>2016-05-15T10:33:38Z</time>
      </trkpt>
      <trkpt lat="44.40675" lon="0.70648">
        <ele>57.9</ele>
        <time>2016-05-15T10:33:44Z</time>
      </trkpt>
      <trkpt lat="44.40686" lon="0.70659">
        <ele>58.3</ele>
        <time>2016-05-15T10:33:49Z</time>
      </trkpt>
      <trkpt lat="44.40696" lon="0.70672">
        <ele>58.6</ele>
        <time>2016-05-15T10:33:54Z</time>
      </trkpt>
      <trkpt lat="44.40704" lon="0.70683">
        <ele>58.9</ele>
        <time>2016-05-15T10:33:58Z</time>
      </trkpt>
      <trkpt lat="44.40712" lon="0.70693">
        <ele>59.1</ele>
        <time>2016-05-15T10:34:03Z</time>
      </trkpt>
      <trkpt lat="44.40714" lon="0.70695">
        <ele>59.1</ele>
        <time>2016-05-15T10:34:04Z</time>
      </trkpt>
      <trkpt lat="44.40725" lon="0.70707">
        <ele>59.4</ele>
        <time>2016-05-15T10:34:10Z</time>
      </trkpt>
      <trkpt lat="44.40742" lon="0.70723">
        <ele>59.8</ele>
        <time>2016-05-15T10:34:17Z</time>
      </trkpt>
      <trkpt lat="44.40756" lon="0.70736">
        <ele>60.1</ele>
        <time>2016-05-15T10:34:25Z</time>
      </trkpt>
      <trkpt lat="44.40762" lon="0.70743">
        <ele>60.2</ele>
        <time>2016-05-15T10:34:31Z</time>
      </trkpt>
      <trkpt lat="44.40771" lon="0.70757">
        <ele>60.2</ele>
        <time>2016-05-15T10:42:33Z</time>
      </trkpt>
      <trkpt lat="44.40776" lon="0.70759">
        <ele>60.2</ele>
        <time>2016-05-15T10:42:36Z</time>
      </trkpt>
      <trkpt lat="44.40787" lon="0.70768">
        <ele>60.3</ele>
        <time>2016-05-15T10:42:41Z</time>
      </trkpt>
      <trkpt lat="44.40804" lon="0.70781">
        <ele>60.1</ele>
        <time>2016-05-15T10:42:47Z</time>
      </trkpt>
      <trkpt lat="44.4082" lon="0.708">
        <ele>59.9</ele>
        <time>2016-05-15T10:42:53Z</time>
      </trkpt>
      <trkpt lat="44.40832" lon="0.70814">
        <ele>59.7</ele>
        <time>2016-05-15T10:42:58Z</time>
      </trkpt>
      <trkpt lat="44.40854" lon="0.70838">
        <ele>59.4</ele>
        <time>2016-05-15T10:43:07Z</time>
      </trkpt>
      <trkpt lat="44.4086" lon="0.70845">
        <ele>59.4</ele>
        <time>2016-05-15T10:43:10Z</time>
      </trkpt>
      <trkpt lat="44.40862" lon="0.70847">
        <ele>59.3</ele>
        <time>2016-05-15T10:43:11Z</time>
      </trkpt>
      <trkpt lat="44.40872" lon="0.70856">
        <ele>59.2</ele>
        <time>2016-05-15T10:43:15Z</time>
      </trkpt>
      <trkpt lat="44.40878" lon="0.70863">
        <ele>59.2</ele>
        <time>2016-05-15T10:43:18Z</time>
      </trkpt>
      <trkpt lat="44.40884" lon="0.70869">
        <ele>59.2</ele>
        <time>2016-05-15T10:43:20Z</time>
      </trkpt>
      <trkpt lat="44.40892" lon="0.70876">
        <ele>59.2</ele>
        <time>2016-05-15T10:43:23Z</time>
      </trkpt>
      <trkpt lat="44.4091" lon="0.70895">
        <ele>59.6</ele>
        <time>2016-05-15T10:43:29Z</time>
      </trkpt>
      <trkpt lat="44.4093" lon="0.70916">
        <ele>59.8</ele>
        <time>2016-05-15T10:43:35Z</time>
      </trkpt>
      <trkpt lat="44.40954" lon="0.70941">
        <ele>60</ele>
        <time>2016-05-15T10:43:41Z</time>
      </trkpt>
      <trkpt lat="44.40957" lon="0.70945">
        <ele>60</ele>
        <time>2016-05-15T10:43:42Z</time>
      </trkpt>
      <trkpt lat="44.40962" lon="0.70951">
        <ele>60</ele>
        <time>2016-05-15T10:43:44Z</time>
      </trkpt>
      <trkpt lat="44.40971" lon="0.7096">
        <ele>60.2</ele>
        <time>2016-05-15T10:43:48Z</time>
      </trkpt>
      <trkpt lat="44.40981" lon="0.70975">
        <ele>60.3</ele>
        <time>2016-05-15T10:43:52Z</time>
      </trkpt>
      <trkpt lat="44.40982" lon="0.70977">
        <ele>60.3</ele>
        <time>2016-05-15T10:43:53Z</time>
      </trkpt>
      <trkpt lat="44.40987" lon="0.70977">
        <ele>60.3</ele>
        <time>2016-05-15T10:43:58Z</time>
      </trkpt>
      <trkpt lat="44.40983" lon="0.70984">
        <ele>60.3</ele>
        <time>2016-05-15T10:44:44Z</time>
      </trkpt>
      <trkpt lat="44.40981" lon="0.70989">
        <ele>60.3</ele>
        <time>2016-05-15T10:44:46Z</time>
      </trkpt>
      <trkpt lat="44.40977" lon="0.71003">
        <ele>60.2</ele>
        <time>2016-05-15T10:44:53Z</time>
      </trkpt>
      <trkpt lat="44.40972" lon="0.71021">
        <ele>60.2</ele>
        <time>2016-05-15T10:44:59Z</time>
      </trkpt>
      <trkpt lat="44.40971" lon="0.71043">
        <ele>60.1</ele>
        <time>2016-05-15T10:45:03Z</time>
      </trkpt>
      <trkpt lat="44.40971" lon="0.7108">
        <ele>59.8</ele>
        <time>2016-05-15T10:45:10Z</time>
      </trkpt>
      <trkpt lat="44.40969" lon="0.71115">
        <ele>59.4</ele>
        <time>2016-05-15T10:45:17Z</time>
      </trkpt>
      <trkpt lat="44.40968" lon="0.71167">
        <ele>59.3</ele>
        <time>2016-05-15T10:45:25Z</time>
      </trkpt>
      <trkpt lat="44.40976" lon="0.71174">
        <ele>59.5</ele>
        <time>2016-05-15T10:45:28Z</time>
      </trkpt>
      <trkpt lat="44.40979" lon="0.71175">
        <ele>59.7</ele>
        <time>2016-05-15T10:45:29Z</time>
      </trkpt>
      <trkpt lat="44.40987" lon="0.71174">
        <ele>59.9</ele>
        <time>2016-05-15T10:45:31Z</time>
      </trkpt>
      <trkpt lat="44.4099" lon="0.71175">
        <ele>60</ele>
        <time>2016-05-15T10:45:32Z</time>
      </trkpt>
      <trkpt lat="44.41009" lon="0.71182">
        <ele>60.6</ele>
        <time>2016-05-15T10:45:38Z</time>
      </trkpt>
      <trkpt lat="44.4103" lon="0.71188">
        <ele>61.4</ele>
        <time>2016-05-15T10:45:44Z</time>
      </trkpt>
      <trkpt lat="44.41044" lon="0.71194">
        <ele>61.8</ele>
        <time>2016-05-15T10:45:48Z</time>
      </trkpt>
      <trkpt lat="44.41047" lon="0.71199">
        <ele>61.9</ele>
        <time>2016-05-15T10:45:49Z</time>
      </trkpt>
      <trkpt lat="44.41052" lon="0.71215">
        <ele>62</ele>
        <time>2016-05-15T10:45:52Z</time>
      </trkpt>
      <trkpt lat="44.41057" lon="0.71232">
        <ele>62.1</ele>
        <time>2016-05-15T10:45:55Z</time>
      </trkpt>
      <trkpt lat="44.41067" lon="0.71279">
        <ele>62.3</ele>
        <time>2016-05-15T10:46:03Z</time>
      </trkpt>
      <trkpt lat="44.41077" lon="0.71328">
        <ele>62.4</ele>
        <time>2016-05-15T10:46:11Z</time>
      </trkpt>
      <trkpt lat="44.41081" lon="0.71354">
        <ele>62.5</ele>
        <time>2016-05-15T10:46:15Z</time>
      </trkpt>
      <trkpt lat="44.41086" lon="0.7138">
        <ele>62.5</ele>
        <time>2016-05-15T10:46:19Z</time>
      </trkpt>
      <trkpt lat="44.41094" lon="0.71419">
        <ele>62.3</ele>
        <time>2016-05-15T10:46:25Z</time>
      </trkpt>
      <trkpt lat="44.411" lon="0.71438">
        <ele>62.2</ele>
        <time>2016-05-15T10:46:28Z</time>
      </trkpt>
      <trkpt lat="44.41101" lon="0.71444">
        <ele>62.1</ele>
        <time>2016-05-15T10:46:29Z</time>
      </trkpt>
      <trkpt lat="44.4111" lon="0.71482">
        <ele>62.5</ele>
        <time>2016-05-15T10:46:35Z</time>
      </trkpt>
      <trkpt lat="44.41125" lon="0.71525">
        <ele>63.6</ele>
        <time>2016-05-15T10:46:42Z</time>
      </trkpt>
      <trkpt lat="44.41129" lon="0.71537">
        <ele>63.8</ele>
        <time>2016-05-15T10:46:44Z</time>
      </trkpt>
      <trkpt lat="44.41143" lon="0.71585">
        <ele>64.7</ele>
        <time>2016-05-15T10:46:51Z</time>
      </trkpt>
      <trkpt lat="44.41154" lon="0.71631">
        <ele>65.2</ele>
        <time>2016-05-15T10:46:58Z</time>
      </trkpt>
      <trkpt lat="44.41164" lon="0.71668">
        <ele>64.6</ele>
        <time>2016-05-15T10:47:04Z</time>
      </trkpt>
      <trkpt lat="44.41166" lon="0.71674">
        <ele>64.4</ele>
        <time>2016-05-15T10:47:05Z</time>
      </trkpt>
      <trkpt lat="44.41171" lon="0.71693">
        <ele>64.1</ele>
        <time>2016-05-15T10:47:08Z</time>
      </trkpt>
      <trkpt lat="44.41177" lon="0.71718">
        <ele>63.9</ele>
        <time>2016-05-15T10:47:12Z</time>
      </trkpt>
      <trkpt lat="44.4118" lon="0.71731">
        <ele>64</ele>
        <time>2016-05-15T10:47:14Z</time>
      </trkpt>
      <trkpt lat="44.41187" lon="0.71764">
        <ele>64.5</ele>
        <time>2016-05-15T10:47:19Z</time>
      </trkpt>
      <trkpt lat="44.41197" lon="0.71812">
        <ele>65.1</ele>
        <time>2016-05-15T10:47:26Z</time>
      </trkpt>
      <trkpt lat="44.41207" lon="0.71853">
        <ele>65.7</ele>
        <time>2016-05-15T10:47:32Z</time>
      </trkpt>
      <trkpt lat="44.41211" lon="0.71866">
        <ele>65.9</ele>
        <time>2016-05-15T10:47:34Z</time>
      </trkpt>
      <trkpt lat="44.41215" lon="0.71878">
        <ele>65.9</ele>
        <time>2016-05-15T10:47:36Z</time>
      </trkpt>
      <trkpt lat="44.4122" lon="0.71891">
        <ele>65.7</ele>
        <time>2016-05-15T10:47:38Z</time>
      </trkpt>
      <trkpt lat="44.41225" lon="0.71905">
        <ele>65.4</ele>
        <time>2016-05-15T10:47:40Z</time>
      </trkpt>
      <trkpt lat="44.41228" lon="0.71912">
        <ele>65.3</ele>
        <time>2016-05-15T10:47:41Z</time>
      </trkpt>
      <trkpt lat="44.41249" lon="0.7196">
        <ele>65</ele>
        <time>2016-05-15T10:47:48Z</time>
      </trkpt>
      <trkpt lat="44.41252" lon="0.71967">
        <ele>65.1</ele>
        <time>2016-05-15T10:47:49Z</time>
      </trkpt>
      <trkpt lat="44.4128" lon="0.72016">
        <ele>65.8</ele>
        <time>2016-05-15T10:47:57Z</time>
      </trkpt>
      <trkpt lat="44.41289" lon="0.72048">
        <ele>66</ele>
        <time>2016-05-15T10:48:02Z</time>
      </trkpt>
      <trkpt lat="44.41299" lon="0.72093">
        <ele>66</ele>
        <time>2016-05-15T10:48:09Z</time>
      </trkpt>
      <trkpt lat="44.41302" lon="0.72104">
        <ele>66.1</ele>
        <time>2016-05-15T10:48:11Z</time>
      </trkpt>
      <trkpt lat="44.41304" lon="0.7211">
        <ele>66.1</ele>
        <time>2016-05-15T10:48:12Z</time>
      </trkpt>
      <trkpt lat="44.41312" lon="0.72127">
        <ele>66.3</ele>
        <time>2016-05-15T10:48:15Z</time>
      </trkpt>
      <trkpt lat="44.41314" lon="0.72133">
        <ele>66.4</ele>
        <time>2016-05-15T10:48:16Z</time>
      </trkpt>
      <trkpt lat="44.41329" lon="0.72173">
        <ele>67</ele>
        <time>2016-05-15T10:48:23Z</time>
      </trkpt>
      <trkpt lat="44.41335" lon="0.7219">
        <ele>67.3</ele>
        <time>2016-05-15T10:48:26Z</time>
      </trkpt>
      <trkpt lat="44.41348" lon="0.72225">
        <ele>67.7</ele>
        <time>2016-05-15T10:48:32Z</time>
      </trkpt>
      <trkpt lat="44.41351" lon="0.72236">
        <ele>67.8</ele>
        <time>2016-05-15T10:48:34Z</time>
      </trkpt>
      <trkpt lat="44.41362" lon="0.72278">
        <ele>68</ele>
        <time>2016-05-15T10:48:41Z</time>
      </trkpt>
      <trkpt lat="44.41369" lon="0.72304">
        <ele>68.1</ele>
        <time>2016-05-15T10:48:45Z</time>
      </trkpt>
      <trkpt lat="44.41373" lon="0.72322">
        <ele>68.4</ele>
        <time>2016-05-15T10:48:48Z</time>
      </trkpt>
      <trkpt lat="44.41376" lon="0.72334">
        <ele>68.5</ele>
        <time>2016-05-15T10:48:50Z</time>
      </trkpt>
      <trkpt lat="44.41387" lon="0.72377">
        <ele>69.2</ele>
        <time>2016-05-15T10:48:57Z</time>
      </trkpt>
      <trkpt lat="44.41395" lon="0.7241">
        <ele>69.9</ele>
        <time>2016-05-15T10:49:02Z</time>
      </trkpt>
      <trkpt lat="44.41403" lon="0.72435">
        <ele>70.3</ele>
        <time>2016-05-15T10:49:06Z</time>
      </trkpt>
      <trkpt lat="44.41424" lon="0.72481">
        <ele>70.7</ele>
        <time>2016-05-15T10:49:14Z</time>
      </trkpt>
      <trkpt lat="44.41455" lon="0.72539">
        <ele>71</ele>
        <time>2016-05-15T10:49:24Z</time>
      </trkpt>
      <trkpt lat="44.41465" lon="0.72558">
        <ele>71.4</ele>
        <time>2016-05-15T10:49:27Z</time>
      </trkpt>
      <trkpt lat="44.41481" lon="0.72597">
        <ele>72.2</ele>
        <time>2016-05-15T10:49:33Z</time>
      </trkpt>
      <trkpt lat="44.41495" lon="0.72649">
        <ele>72.7</ele>
        <time>2016-05-15T10:49:40Z</time>
      </trkpt>
      <trkpt lat="44.41512" lon="0.72719">
        <ele>73.1</ele>
        <time>2016-05-15T10:49:49Z</time>
      </trkpt>
      <trkpt lat="44.41522" lon="0.72758">
        <ele>73.3</ele>
        <time>2016-05-15T10:49:54Z</time>
      </trkpt>
      <trkpt lat="44.41534" lon="0.72804">
        <ele>73.3</ele>
        <time>2016-05-15T10:50:00Z</time>
      </trkpt>
      <trkpt lat="44.4155" lon="0.7287">
        <ele>73.8</ele>
        <time>2016-05-15T10:50:09Z</time>
      </trkpt>
      <trkpt lat="44.41555" lon="0.72891">
        <ele>74.1</ele>
        <time>2016-05-15T10:50:12Z</time>
      </trkpt>
      <trkpt lat="44.41564" lon="0.72922">
        <ele>74.5</ele>
        <time>2016-05-15T10:50:17Z</time>
      </trkpt>
      <trkpt lat="44.41568" lon="0.72936">
        <ele>74.7</ele>
        <time>2016-05-15T10:50:21Z</time>
      </trkpt>
      <trkpt lat="44.4157" lon="0.72944">
        <ele>74.8</ele>
        <time>2016-05-15T10:50:27Z</time>
      </trkpt>
      <trkpt lat="44.41571" lon="0.72949">
        <ele>74.8</ele>
        <time>2016-05-15T10:53:55Z</time>
      </trkpt>
      <trkpt lat="44.41578" lon="0.72961">
        <ele>75</ele>
        <time>2016-05-15T10:53:59Z</time>
      </trkpt>
      <trkpt lat="44.4158" lon="0.72964">
        <ele>75</ele>
        <time>2016-05-15T10:54:00Z</time>
      </trkpt>
      <trkpt lat="44.41591" lon="0.72987">
        <ele>75</ele>
        <time>2016-05-15T10:54:06Z</time>
      </trkpt>
      <trkpt lat="44.41605" lon="0.73025">
        <ele>75</ele>
        <time>2016-05-15T10:54:14Z</time>
      </trkpt>
      <trkpt lat="44.41607" lon="0.7303">
        <ele>75</ele>
        <time>2016-05-15T10:54:15Z</time>
      </trkpt>
      <trkpt lat="44.41626" lon="0.73076">
        <ele>75</ele>
        <time>2016-05-15T10:54:25Z</time>
      </trkpt>
      <trkpt lat="44.41642" lon="0.73106">
        <ele>75.3</ele>
        <time>2016-05-15T10:54:32Z</time>
      </trkpt>
      <trkpt lat="44.41648" lon="0.73113">
        <ele>75.3</ele>
        <time>2016-05-15T10:54:34Z</time>
      </trkpt>
      <trkpt lat="44.41676" lon="0.73149">
        <ele>75.6</ele>
        <time>2016-05-15T10:54:43Z</time>
      </trkpt>
      <trkpt lat="44.41682" lon="0.73158">
        <ele>75.7</ele>
        <time>2016-05-15T10:54:45Z</time>
      </trkpt>
      <trkpt lat="44.41695" lon="0.73174">
        <ele>75.8</ele>
        <time>2016-05-15T10:54:49Z</time>
      </trkpt>
      <trkpt lat="44.41701" lon="0.73184">
        <ele>75.9</ele>
        <time>2016-05-15T10:54:51Z</time>
      </trkpt>
      <trkpt lat="44.41704" lon="0.73202">
        <ele>75.9</ele>
        <time>2016-05-15T10:54:54Z</time>
      </trkpt>
      <trkpt lat="44.41704" lon="0.73215">
        <ele>75.9</ele>
        <time>2016-05-15T10:54:56Z</time>
      </trkpt>
      <trkpt lat="44.41702" lon="0.73254">
        <ele>75.9</ele>
        <time>2016-05-15T10:55:02Z</time>
      </trkpt>
      <trkpt lat="44.41702" lon="0.73299">
        <ele>76</ele>
        <time>2016-05-15T10:55:09Z</time>
      </trkpt>
      <trkpt lat="44.41701" lon="0.73318">
        <ele>76.2</ele>
        <time>2016-05-15T10:55:12Z</time>
      </trkpt>
      <trkpt lat="44.41699" lon="0.73356">
        <ele>76.6</ele>
        <time>2016-05-15T10:55:18Z</time>
      </trkpt>
      <trkpt lat="44.41694" lon="0.73414">
        <ele>76.7</ele>
        <time>2016-05-15T10:55:27Z</time>
      </trkpt>
      <trkpt lat="44.4169" lon="0.73474">
        <ele>76.5</ele>
        <time>2016-05-15T10:55:36Z</time>
      </trkpt>
      <trkpt lat="44.41688" lon="0.73538">
        <ele>76</ele>
        <time>2016-05-15T10:55:45Z</time>
      </trkpt>
      <trkpt lat="44.41687" lon="0.7359">
        <ele>76</ele>
        <time>2016-05-15T10:55:52Z</time>
      </trkpt>
      <trkpt lat="44.41686" lon="0.73651">
        <ele>76</ele>
        <time>2016-05-15T10:56:00Z</time>
      </trkpt>
      <trkpt lat="44.41689" lon="0.73715">
        <ele>76</ele>
        <time>2016-05-15T10:56:08Z</time>
      </trkpt>
      <trkpt lat="44.41693" lon="0.73783">
        <ele>75.8</ele>
        <time>2016-05-15T10:56:17Z</time>
      </trkpt>
      <trkpt lat="44.41698" lon="0.73845">
        <ele>74.7</ele>
        <time>2016-05-15T10:56:25Z</time>
      </trkpt>
      <trkpt lat="44.41698" lon="0.73877">
        <ele>74</ele>
        <time>2016-05-15T10:56:29Z</time>
      </trkpt>
      <trkpt lat="44.41696" lon="0.73925">
        <ele>74</ele>
        <time>2016-05-15T10:56:35Z</time>
      </trkpt>
      <trkpt lat="44.41694" lon="0.73982">
        <ele>74.2</ele>
        <time>2016-05-15T10:56:42Z</time>
      </trkpt>
      <trkpt lat="44.41692" lon="0.74015">
        <ele>74.6</ele>
        <time>2016-05-15T10:56:46Z</time>
      </trkpt>
      <trkpt lat="44.41691" lon="0.7409">
        <ele>74.5</ele>
        <time>2016-05-15T10:56:55Z</time>
      </trkpt>
      <trkpt lat="44.41692" lon="0.74147">
        <ele>73.7</ele>
        <time>2016-05-15T10:57:02Z</time>
      </trkpt>
      <trkpt lat="44.41694" lon="0.74162">
        <ele>73.3</ele>
        <time>2016-05-15T10:57:04Z</time>
      </trkpt>
      <trkpt lat="44.41696" lon="0.74169">
        <ele>73.1</ele>
        <time>2016-05-15T10:57:05Z</time>
      </trkpt>
      <trkpt lat="44.417" lon="0.74192">
        <ele>72.5</ele>
        <time>2016-05-15T10:57:08Z</time>
      </trkpt>
      <trkpt lat="44.41704" lon="0.74205">
        <ele>72.1</ele>
        <time>2016-05-15T10:57:10Z</time>
      </trkpt>
      <trkpt lat="44.41715" lon="0.7427">
        <ele>73</ele>
        <time>2016-05-15T10:57:19Z</time>
      </trkpt>
      <trkpt lat="44.41718" lon="0.74283">
        <ele>73.2</ele>
        <time>2016-05-15T10:57:21Z</time>
      </trkpt>
      <trkpt lat="44.41725" lon="0.74307">
        <ele>74.2</ele>
        <time>2016-05-15T10:57:25Z</time>
      </trkpt>
      <trkpt lat="44.41726" lon="0.74312">
        <ele>74.5</ele>
        <time>2016-05-15T10:57:26Z</time>
      </trkpt>
      <trkpt lat="44.41737" lon="0.7434">
        <ele>75.9</ele>
        <time>2016-05-15T10:57:32Z</time>
      </trkpt>
      <trkpt lat="44.41747" lon="0.74363">
        <ele>77</ele>
        <time>2016-05-15T10:57:38Z</time>
      </trkpt>
      <trkpt lat="44.41749" lon="0.74367">
        <ele>77.2</ele>
        <time>2016-05-15T10:57:39Z</time>
      </trkpt>
      <trkpt lat="44.41762" lon="0.74387">
        <ele>77.8</ele>
        <time>2016-05-15T10:57:44Z</time>
      </trkpt>
      <trkpt lat="44.41768" lon="0.74395">
        <ele>78</ele>
        <time>2016-05-15T10:57:46Z</time>
      </trkpt>
      <trkpt lat="44.41795" lon="0.74422">
        <ele>78.6</ele>
        <time>2016-05-15T10:57:55Z</time>
      </trkpt>
      <trkpt lat="44.41798" lon="0.74424">
        <ele>78.7</ele>
        <time>2016-05-15T10:57:56Z</time>
      </trkpt>
      <trkpt lat="44.41822" lon="0.74439">
        <ele>78.9</ele>
        <time>2016-05-15T10:58:03Z</time>
      </trkpt>
      <trkpt lat="44.41836" lon="0.74446">
        <ele>79</ele>
        <time>2016-05-15T10:58:07Z</time>
      </trkpt>
      <trkpt lat="44.41857" lon="0.74456">
        <ele>79</ele>
        <time>2016-05-15T10:58:13Z</time>
      </trkpt>
      <trkpt lat="44.41873" lon="0.74466">
        <ele>79</ele>
        <time>2016-05-15T10:58:19Z</time>
      </trkpt>
      <trkpt lat="44.41875" lon="0.74468">
        <ele>79</ele>
        <time>2016-05-15T10:58:24Z</time>
      </trkpt>
      <trkpt lat="44.41874" lon="0.74459">
        <ele>79</ele>
        <time>2016-05-15T10:59:27Z</time>
      </trkpt>
      <trkpt lat="44.41873" lon="0.74457">
        <ele>79</ele>
        <time>2016-05-15T10:59:30Z</time>
      </trkpt>
      <trkpt lat="44.41868" lon="0.74455">
        <ele>79</ele>
        <time>2016-05-15T10:59:54Z</time>
      </trkpt>
      <trkpt lat="44.41861" lon="0.74453">
        <ele>79</ele>
        <time>2016-05-15T10:59:56Z</time>
      </trkpt>
      <trkpt lat="44.41837" lon="0.7444">
        <ele>79</ele>
        <time>2016-05-15T11:00:02Z</time>
      </trkpt>
      <trkpt lat="44.41796" lon="0.74415">
        <ele>78.5</ele>
        <time>2016-05-15T11:00:11Z</time>
      </trkpt>
      <trkpt lat="44.41774" lon="0.74392">
        <ele>78</ele>
        <time>2016-05-15T11:00:16Z</time>
      </trkpt>
      <trkpt lat="44.41769" lon="0.74386">
        <ele>77.9</ele>
        <time>2016-05-15T11:00:17Z</time>
      </trkpt>
      <trkpt lat="44.41752" lon="0.7436">
        <ele>77</ele>
        <time>2016-05-15T11:00:21Z</time>
      </trkpt>
      <trkpt lat="44.41744" lon="0.74345">
        <ele>76.3</ele>
        <time>2016-05-15T11:00:23Z</time>
      </trkpt>
      <trkpt lat="44.4174" lon="0.74337">
        <ele>75.9</ele>
        <time>2016-05-15T11:00:24Z</time>
      </trkpt>
      <trkpt lat="44.4173" lon="0.74312">
        <ele>74.6</ele>
        <time>2016-05-15T11:00:27Z</time>
      </trkpt>
      <trkpt lat="44.41727" lon="0.74303">
        <ele>74.2</ele>
        <time>2016-05-15T11:00:28Z</time>
      </trkpt>
      <trkpt lat="44.41724" lon="0.74296">
        <ele>73.7</ele>
        <time>2016-05-15T11:00:29Z</time>
      </trkpt>
      <trkpt lat="44.41722" lon="0.7429">
        <ele>73.5</ele>
        <time>2016-05-15T11:00:30Z</time>
      </trkpt>
      <trkpt lat="44.41714" lon="0.74286">
        <ele>73.1</ele>
        <time>2016-05-15T11:00:32Z</time>
      </trkpt>
      <trkpt lat="44.41711" lon="0.7429">
        <ele>73.1</ele>
        <time>2016-05-15T11:00:33Z</time>
      </trkpt>
      <trkpt lat="44.41707" lon="0.74298">
        <ele>73.3</ele>
        <time>2016-05-15T11:00:35Z</time>
      </trkpt>
      <trkpt lat="44.41705" lon="0.74302">
        <ele>73.4</ele>
        <time>2016-05-15T11:00:36Z</time>
      </trkpt>
      <trkpt lat="44.41693" lon="0.7433">
        <ele>74.4</ele>
        <time>2016-05-15T11:00:42Z</time>
      </trkpt>
      <trkpt lat="44.41681" lon="0.74358">
        <ele>75.1</ele>
        <time>2016-05-15T11:00:49Z</time>
      </trkpt>
      <trkpt lat="44.41678" lon="0.74367">
        <ele>75.2</ele>
        <time>2016-05-15T11:00:51Z</time>
      </trkpt>
      <trkpt lat="44.41668" lon="0.74389">
        <ele>75.5</ele>
        <time>2016-05-15T11:00:56Z</time>
      </trkpt>
      <trkpt lat="44.41652" lon="0.74433">
        <ele>76.4</ele>
        <time>2016-05-15T11:01:05Z</time>
      </trkpt>
      <trkpt lat="44.41645" lon="0.74474">
        <ele>77.2</ele>
        <time>2016-05-15T11:01:12Z</time>
      </trkpt>
      <trkpt lat="44.41642" lon="0.74504">
        <ele>77.1</ele>
        <time>2016-05-15T11:01:17Z</time>
      </trkpt>
      <trkpt lat="44.4164" lon="0.74517">
        <ele>77.1</ele>
        <time>2016-05-15T11:01:19Z</time>
      </trkpt>
      <trkpt lat="44.41634" lon="0.74575">
        <ele>77</ele>
        <time>2016-05-15T11:01:28Z</time>
      </trkpt>
      <trkpt lat="44.41623" lon="0.74626">
        <ele>77</ele>
        <time>2016-05-15T11:01:36Z</time>
      </trkpt>
      <trkpt lat="44.41622" lon="0.74631">
        <ele>77.2</ele>
        <time>2016-05-15T11:01:37Z</time>
      </trkpt>
      <trkpt lat="44.41612" lon="0.74685">
        <ele>78.5</ele>
        <time>2016-05-15T11:01:45Z</time>
      </trkpt>
      <trkpt lat="44.41604" lon="0.7474">
        <ele>78.8</ele>
        <time>2016-05-15T11:01:53Z</time>
      </trkpt>
      <trkpt lat="44.41599" lon="0.74774">
        <ele>78.5</ele>
        <time>2016-05-15T11:01:58Z</time>
      </trkpt>
      <trkpt lat="44.41595" lon="0.74815">
        <ele>78.4</ele>
        <time>2016-05-15T11:02:04Z</time>
      </trkpt>
      <trkpt lat="44.41589" lon="0.74876">
        <ele>78.6</ele>
        <time>2016-05-15T11:02:13Z</time>
      </trkpt>
      <trkpt lat="44.41583" lon="0.74902">
        <ele>79.3</ele>
        <time>2016-05-15T11:02:17Z</time>
      </trkpt>
      <trkpt lat="44.41576" lon="0.7492">
        <ele>79.7</ele>
        <time>2016-05-15T11:02:20Z</time>
      </trkpt>
      <trkpt lat="44.41573" lon="0.74925">
        <ele>79.8</ele>
        <time>2016-05-15T11:02:21Z</time>
      </trkpt>
      <trkpt lat="44.4157" lon="0.74931">
        <ele>79.9</ele>
        <time>2016-05-15T11:02:22Z</time>
      </trkpt>
      <trkpt lat="44.41561" lon="0.74947">
        <ele>80.2</ele>
        <time>2016-05-15T11:02:25Z</time>
      </trkpt>
      <trkpt lat="44.41549" lon="0.74978">
        <ele>80.4</ele>
        <time>2016-05-15T11:02:30Z</time>
      </trkpt>
      <trkpt lat="44.41545" lon="0.74991">
        <ele>80.5</ele>
        <time>2016-05-15T11:02:32Z</time>
      </trkpt>
      <trkpt lat="44.41544" lon="0.74998">
        <ele>80.6</ele>
        <time>2016-05-15T11:02:33Z</time>
      </trkpt>
      <trkpt lat="44.41533" lon="0.75052">
        <ele>80.8</ele>
        <time>2016-05-15T11:02:41Z</time>
      </trkpt>
      <trkpt lat="44.41527" lon="0.75087">
        <ele>81.3</ele>
        <time>2016-05-15T11:02:47Z</time>
      </trkpt>
      <trkpt lat="44.41526" lon="0.75099">
        <ele>81.5</ele>
        <time>2016-05-15T11:02:49Z</time>
      </trkpt>
      <trkpt lat="44.41525" lon="0.75117">
        <ele>81.8</ele>
        <time>2016-05-15T11:02:52Z</time>
      </trkpt>
      <trkpt lat="44.41528" lon="0.75141">
        <ele>82.4</ele>
        <time>2016-05-15T11:02:56Z</time>
      </trkpt>
      <trkpt lat="44.41535" lon="0.75188">
        <ele>83.5</ele>
        <time>2016-05-15T11:03:04Z</time>
      </trkpt>
      <trkpt lat="44.41535" lon="0.75206">
        <ele>83.7</ele>
        <time>2016-05-15T11:03:07Z</time>
      </trkpt>
      <trkpt lat="44.41534" lon="0.75223">
        <ele>83.9</ele>
        <time>2016-05-15T11:03:10Z</time>
      </trkpt>
      <trkpt lat="44.41533" lon="0.75228">
        <ele>84</ele>
        <time>2016-05-15T11:03:11Z</time>
      </trkpt>
      <trkpt lat="44.41525" lon="0.75272">
        <ele>84.8</ele>
        <time>2016-05-15T11:03:19Z</time>
      </trkpt>
      <trkpt lat="44.4152" lon="0.75311">
        <ele>85.3</ele>
        <time>2016-05-15T11:03:26Z</time>
      </trkpt>
      <trkpt lat="44.4152" lon="0.75316">
        <ele>85.2</ele>
        <time>2016-05-15T11:03:27Z</time>
      </trkpt>
      <trkpt lat="44.41522" lon="0.75353">
        <ele>85.3</ele>
        <time>2016-05-15T11:03:34Z</time>
      </trkpt>
      <trkpt lat="44.41523" lon="0.75358">
        <ele>85.3</ele>
        <time>2016-05-15T11:03:35Z</time>
      </trkpt>
      <trkpt lat="44.41531" lon="0.7539">
        <ele>86.1</ele>
        <time>2016-05-15T11:03:42Z</time>
      </trkpt>
      <trkpt lat="44.41533" lon="0.75394">
        <ele>86.3</ele>
        <time>2016-05-15T11:03:43Z</time>
      </trkpt>
      <trkpt lat="44.41541" lon="0.75415">
        <ele>87.4</ele>
        <time>2016-05-15T11:03:48Z</time>
      </trkpt>
      <trkpt lat="44.41554" lon="0.75451">
        <ele>89.2</ele>
        <time>2016-05-15T11:03:56Z</time>
      </trkpt>
      <trkpt lat="44.41558" lon="0.75486">
        <ele>89.9</ele>
        <time>2016-05-15T11:04:03Z</time>
      </trkpt>
      <trkpt lat="44.41558" lon="0.75501">
        <ele>90</ele>
        <time>2016-05-15T11:04:06Z</time>
      </trkpt>
      <trkpt lat="44.41558" lon="0.75506">
        <ele>90</ele>
        <time>2016-05-15T11:04:07Z</time>
      </trkpt>
      <trkpt lat="44.41557" lon="0.7552">
        <ele>90.1</ele>
        <time>2016-05-15T11:04:10Z</time>
      </trkpt>
      <trkpt lat="44.41547" lon="0.7556">
        <ele>90.4</ele>
        <time>2016-05-15T11:04:18Z</time>
      </trkpt>
      <trkpt lat="44.41537" lon="0.75596">
        <ele>90.5</ele>
        <time>2016-05-15T11:04:26Z</time>
      </trkpt>
      <trkpt lat="44.4153" lon="0.75616">
        <ele>90.6</ele>
        <time>2016-05-15T11:04:30Z</time>
      </trkpt>
      <trkpt lat="44.41526" lon="0.75632">
        <ele>90.7</ele>
        <time>2016-05-15T11:04:33Z</time>
      </trkpt>
      <trkpt lat="44.41512" lon="0.75676">
        <ele>91.1</ele>
        <time>2016-05-15T11:04:41Z</time>
      </trkpt>
      <trkpt lat="44.41503" lon="0.75708">
        <ele>91.1</ele>
        <time>2016-05-15T11:04:47Z</time>
      </trkpt>
      <trkpt lat="44.41499" lon="0.75718">
        <ele>91</ele>
        <time>2016-05-15T11:04:49Z</time>
      </trkpt>
      <trkpt lat="44.4149" lon="0.75752">
        <ele>90.4</ele>
        <time>2016-05-15T11:04:56Z</time>
      </trkpt>
      <trkpt lat="44.41487" lon="0.7576">
        <ele>90.2</ele>
        <time>2016-05-15T11:04:58Z</time>
      </trkpt>
      <trkpt lat="44.41484" lon="0.7577">
        <ele>89.9</ele>
        <time>2016-05-15T11:05:00Z</time>
      </trkpt>
      <trkpt lat="44.41482" lon="0.75776">
        <ele>89.8</ele>
        <time>2016-05-15T11:05:01Z</time>
      </trkpt>
      <trkpt lat="44.41472" lon="0.75808">
        <ele>89.2</ele>
        <time>2016-05-15T11:05:07Z</time>
      </trkpt>
      <trkpt lat="44.41471" lon="0.75813">
        <ele>89.2</ele>
        <time>2016-05-15T11:05:08Z</time>
      </trkpt>
      <trkpt lat="44.41459" lon="0.75851">
        <ele>88.8</ele>
        <time>2016-05-15T11:05:15Z</time>
      </trkpt>
      <trkpt lat="44.41451" lon="0.7589">
        <ele>88.9</ele>
        <time>2016-05-15T11:05:22Z</time>
      </trkpt>
      <trkpt lat="44.41451" lon="0.75902">
        <ele>89</ele>
        <time>2016-05-15T11:05:24Z</time>
      </trkpt>
      <trkpt lat="44.41452" lon="0.75914">
        <ele>89.2</ele>
        <time>2016-05-15T11:05:26Z</time>
      </trkpt>
      <trkpt lat="44.41452" lon="0.7592">
        <ele>89.2</ele>
        <time>2016-05-15T11:05:27Z</time>
      </trkpt>
      <trkpt lat="44.41452" lon="0.75938">
        <ele>89.4</ele>
        <time>2016-05-15T11:05:30Z</time>
      </trkpt>
      <trkpt lat="44.41453" lon="0.7595">
        <ele>89.6</ele>
        <time>2016-05-15T11:05:32Z</time>
      </trkpt>
      <trkpt lat="44.41454" lon="0.75955">
        <ele>89.7</ele>
        <time>2016-05-15T11:05:33Z</time>
      </trkpt>
      <trkpt lat="44.41456" lon="0.75979">
        <ele>89.6</ele>
        <time>2016-05-15T11:05:38Z</time>
      </trkpt>
      <trkpt lat="44.41457" lon="0.76015">
        <ele>89.3</ele>
        <time>2016-05-15T11:05:45Z</time>
      </trkpt>
      <trkpt lat="44.4146" lon="0.76044">
        <ele>89.2</ele>
        <time>2016-05-15T11:05:51Z</time>
      </trkpt>
      <trkpt lat="44.41462" lon="0.7605">
        <ele>89.4</ele>
        <time>2016-05-15T11:05:55Z</time>
      </trkpt>
      <trkpt lat="44.41462" lon="0.76057">
        <ele>89.4</ele>
        <time>2016-05-15T11:06:09Z</time>
      </trkpt>
      <trkpt lat="44.41463" lon="0.76073">
        <ele>89.5</ele>
        <time>2016-05-15T11:06:14Z</time>
      </trkpt>
      <trkpt lat="44.41464" lon="0.76084">
        <ele>89.5</ele>
        <time>2016-05-15T11:06:17Z</time>
      </trkpt>
      <trkpt lat="44.41464" lon="0.76098">
        <ele>89.5</ele>
        <time>2016-05-15T11:06:20Z</time>
      </trkpt>
      <trkpt lat="44.41467" lon="0.76127">
        <ele>89.8</ele>
        <time>2016-05-15T11:06:26Z</time>
      </trkpt>
      <trkpt lat="44.41466" lon="0.76133">
        <ele>89.7</ele>
        <time>2016-05-15T11:06:27Z</time>
      </trkpt>
      <trkpt lat="44.41468" lon="0.76169">
        <ele>89.4</ele>
        <time>2016-05-15T11:06:34Z</time>
      </trkpt>
      <trkpt lat="44.41476" lon="0.76186">
        <ele>89.9</ele>
        <time>2016-05-15T11:06:38Z</time>
      </trkpt>
      <trkpt lat="44.41482" lon="0.76186">
        <ele>90.5</ele>
        <time>2016-05-15T11:06:40Z</time>
      </trkpt>
      <trkpt lat="44.41485" lon="0.76185">
        <ele>90.9</ele>
        <time>2016-05-15T11:06:41Z</time>
      </trkpt>
      <trkpt lat="44.41496" lon="0.7619">
        <ele>91.8</ele>
        <time>2016-05-15T11:06:45Z</time>
      </trkpt>
      <trkpt lat="44.41506" lon="0.76193">
        <ele>92.8</ele>
        <time>2016-05-15T11:06:49Z</time>
      </trkpt>
      <trkpt lat="44.4151" lon="0.76193">
        <ele>93.2</ele>
        <time>2016-05-15T11:06:51Z</time>
      </trkpt>
      <trkpt lat="44.41517" lon="0.76193">
        <ele>93.8</ele>
        <time>2016-05-15T11:06:55Z</time>
      </trkpt>
      <trkpt lat="44.41521" lon="0.76189">
        <ele>94.2</ele>
        <time>2016-05-15T11:06:57Z</time>
      </trkpt>
      <trkpt lat="44.41523" lon="0.76183">
        <ele>94.5</ele>
        <time>2016-05-15T11:06:59Z</time>
      </trkpt>
      <trkpt lat="44.41524" lon="0.76179">
        <ele>94.7</ele>
        <time>2016-05-15T11:07:00Z</time>
      </trkpt>
      <trkpt lat="44.41526" lon="0.76175">
        <ele>94.9</ele>
        <time>2016-05-15T11:07:02Z</time>
      </trkpt>
      <trkpt lat="44.4153" lon="0.76157">
        <ele>95.5</ele>
        <time>2016-05-15T11:07:08Z</time>
      </trkpt>
      <trkpt lat="44.41528" lon="0.76137">
        <ele>95.6</ele>
        <time>2016-05-15T11:07:14Z</time>
      </trkpt>
      <trkpt lat="44.41523" lon="0.76103">
        <ele>95.4</ele>
        <time>2016-05-15T11:07:23Z</time>
      </trkpt>
      <trkpt lat="44.41518" lon="0.76082">
        <ele>95.1</ele>
        <time>2016-05-15T11:07:28Z</time>
      </trkpt>
      <trkpt lat="44.41515" lon="0.76073">
        <ele>94.9</ele>
        <time>2016-05-15T11:07:31Z</time>
      </trkpt>
      <trkpt lat="44.41512" lon="0.76058">
        <ele>94.6</ele>
        <time>2016-05-15T11:07:36Z</time>
      </trkpt>
      <trkpt lat="44.41511" lon="0.76048">
        <ele>94.6</ele>
        <time>2016-05-15T11:07:39Z</time>
      </trkpt>
      <trkpt lat="44.41508" lon="0.7604">
        <ele>94.4</ele>
        <time>2016-05-15T11:07:43Z</time>
      </trkpt>
      <trkpt lat="44.41509" lon="0.76031">
        <ele>94.5</ele>
        <time>2016-05-15T11:07:48Z</time>
      </trkpt>
      <trkpt lat="44.4151" lon="0.76019">
        <ele>94.5</ele>
        <time>2016-05-15T11:07:55Z</time>
      </trkpt>
      <trkpt lat="44.4151" lon="0.76014">
        <ele>94.5</ele>
        <time>2016-05-15T11:08:09Z</time>
      </trkpt>
      <trkpt lat="44.41514" lon="0.76024">
        <ele>95</ele>
        <time>2016-05-15T12:46:42Z</time>
      </trkpt>
      <trkpt lat="44.41517" lon="0.7604">
        <ele>95.4</ele>
        <time>2016-05-15T12:46:48Z</time>
      </trkpt>
      <trkpt lat="44.41518" lon="0.76045">
        <ele>95.4</ele>
        <time>2016-05-15T12:46:50Z</time>
      </trkpt>
      <trkpt lat="44.41518" lon="0.76054">
        <ele>95.3</ele>
        <time>2016-05-15T12:46:54Z</time>
      </trkpt>
      <trkpt lat="44.41519" lon="0.7606">
        <ele>95.4</ele>
        <time>2016-05-15T12:46:57Z</time>
      </trkpt>
      <trkpt lat="44.41518" lon="0.76068">
        <ele>95.2</ele>
        <time>2016-05-15T12:47:00Z</time>
      </trkpt>
      <trkpt lat="44.41518" lon="0.76081">
        <ele>95.1</ele>
        <time>2016-05-15T12:47:06Z</time>
      </trkpt>
      <trkpt lat="44.41519" lon="0.76089">
        <ele>95.1</ele>
        <time>2016-05-15T12:47:09Z</time>
      </trkpt>
      <trkpt lat="44.41517" lon="0.76093">
        <ele>94.9</ele>
        <time>2016-05-15T12:47:11Z</time>
      </trkpt>
      <trkpt lat="44.41514" lon="0.761">
        <ele>94.5</ele>
        <time>2016-05-15T12:47:16Z</time>
      </trkpt>
      <trkpt lat="44.41516" lon="0.76104">
        <ele>94.7</ele>
        <time>2016-05-15T12:47:59Z</time>
      </trkpt>
      <trkpt lat="44.41518" lon="0.76107">
        <ele>94.9</ele>
        <time>2016-05-15T12:48:00Z</time>
      </trkpt>
      <trkpt lat="44.41525" lon="0.76125">
        <ele>95.4</ele>
        <time>2016-05-15T12:48:05Z</time>
      </trkpt>
      <trkpt lat="44.41528" lon="0.76132">
        <ele>95.6</ele>
        <time>2016-05-15T12:48:07Z</time>
      </trkpt>
      <trkpt lat="44.41531" lon="0.76141">
        <ele>95.8</ele>
        <time>2016-05-15T12:48:10Z</time>
      </trkpt>
      <trkpt lat="44.41531" lon="0.76143">
        <ele>95.8</ele>
        <time>2016-05-15T12:48:11Z</time>
      </trkpt>
      <trkpt lat="44.41533" lon="0.76156">
        <ele>95.8</ele>
        <time>2016-05-15T12:48:18Z</time>
      </trkpt>
      <trkpt lat="44.41532" lon="0.76164">
        <ele>95.6</ele>
        <time>2016-05-15T12:48:23Z</time>
      </trkpt>
      <trkpt lat="44.41527" lon="0.76171">
        <ele>95.1</ele>
        <time>2016-05-15T12:48:27Z</time>
      </trkpt>
      <trkpt lat="44.41527" lon="0.76174">
        <ele>95</ele>
        <time>2016-05-15T12:48:28Z</time>
      </trkpt>
      <trkpt lat="44.41525" lon="0.76183">
        <ele>94.7</ele>
        <time>2016-05-15T12:48:32Z</time>
      </trkpt>
      <trkpt lat="44.41522" lon="0.76183">
        <ele>94.4</ele>
        <time>2016-05-15T12:48:38Z</time>
      </trkpt>
      <trkpt lat="44.41513" lon="0.76187">
        <ele>93.5</ele>
        <time>2016-05-15T12:49:19Z</time>
      </trkpt>
      <trkpt lat="44.41495" lon="0.76185">
        <ele>91.8</ele>
        <time>2016-05-15T12:49:24Z</time>
      </trkpt>
      <trkpt lat="44.4149" lon="0.76184">
        <ele>91.4</ele>
        <time>2016-05-15T12:49:25Z</time>
      </trkpt>
      <trkpt lat="44.41486" lon="0.76182">
        <ele>91</ele>
        <time>2016-05-15T12:49:26Z</time>
      </trkpt>
      <trkpt lat="44.41478" lon="0.7618">
        <ele>90.3</ele>
        <time>2016-05-15T12:49:29Z</time>
      </trkpt>
      <trkpt lat="44.41477" lon="0.76181">
        <ele>90.1</ele>
        <time>2016-05-15T12:49:30Z</time>
      </trkpt>
      <trkpt lat="44.41473" lon="0.76186">
        <ele>89.6</ele>
        <time>2016-05-15T12:49:33Z</time>
      </trkpt>
      <trkpt lat="44.41472" lon="0.7619">
        <ele>89.6</ele>
        <time>2016-05-15T12:49:34Z</time>
      </trkpt>
      <trkpt lat="44.41474" lon="0.76223">
        <ele>89.5</ele>
        <time>2016-05-15T12:49:40Z</time>
      </trkpt>
      <trkpt lat="44.41476" lon="0.76269">
        <ele>89.6</ele>
        <time>2016-05-15T12:49:47Z</time>
      </trkpt>
      <trkpt lat="44.41477" lon="0.76277">
        <ele>89.6</ele>
        <time>2016-05-15T12:49:48Z</time>
      </trkpt>
      <trkpt lat="44.41478" lon="0.76345">
        <ele>90</ele>
        <time>2016-05-15T12:49:57Z</time>
      </trkpt>
      <trkpt lat="44.41478" lon="0.76353">
        <ele>90</ele>
        <time>2016-05-15T12:49:58Z</time>
      </trkpt>
      <trkpt lat="44.41478" lon="0.7642">
        <ele>89</ele>
        <time>2016-05-15T12:50:06Z</time>
      </trkpt>
      <trkpt lat="44.41478" lon="0.76428">
        <ele>88.8</ele>
        <time>2016-05-15T12:50:07Z</time>
      </trkpt>
      <trkpt lat="44.41479" lon="0.76491">
        <ele>87.8</ele>
        <time>2016-05-15T12:50:14Z</time>
      </trkpt>
      <trkpt lat="44.41479" lon="0.76519">
        <ele>87.6</ele>
        <time>2016-05-15T12:50:17Z</time>
      </trkpt>
      <trkpt lat="44.41479" lon="0.76568">
        <ele>87.5</ele>
        <time>2016-05-15T12:50:22Z</time>
      </trkpt>
      <trkpt lat="44.41481" lon="0.76651">
        <ele>87.1</ele>
        <time>2016-05-15T12:50:31Z</time>
      </trkpt>
      <trkpt lat="44.41481" lon="0.76704">
        <ele>86.2</ele>
        <time>2016-05-15T12:50:38Z</time>
      </trkpt>
      <trkpt lat="44.41482" lon="0.76766">
        <ele>85.9</ele>
        <time>2016-05-15T12:50:47Z</time>
      </trkpt>
      <trkpt lat="44.41483" lon="0.76818">
        <ele>86.2</ele>
        <time>2016-05-15T12:50:55Z</time>
      </trkpt>
      <trkpt lat="44.41484" lon="0.76885">
        <ele>86.9</ele>
        <time>2016-05-15T12:51:05Z</time>
      </trkpt>
      <trkpt lat="44.41485" lon="0.76945">
        <ele>86.7</ele>
        <time>2016-05-15T12:51:14Z</time>
      </trkpt>
      <trkpt lat="44.41487" lon="0.76999">
        <ele>86.7</ele>
        <time>2016-05-15T12:51:23Z</time>
      </trkpt>
      <trkpt lat="44.41488" lon="0.77051">
        <ele>87</ele>
        <time>2016-05-15T12:51:31Z</time>
      </trkpt>
      <trkpt lat="44.41491" lon="0.77106">
        <ele>88.7</ele>
        <time>2016-05-15T12:51:39Z</time>
      </trkpt>
      <trkpt lat="44.41493" lon="0.77164">
        <ele>88.8</ele>
        <time>2016-05-15T12:51:47Z</time>
      </trkpt>
      <trkpt lat="44.41493" lon="0.77234">
        <ele>87.8</ele>
        <time>2016-05-15T12:51:56Z</time>
      </trkpt>
      <trkpt lat="44.41494" lon="0.77289">
        <ele>86.8</ele>
        <time>2016-05-15T12:52:03Z</time>
      </trkpt>
      <trkpt lat="44.41494" lon="0.77305">
        <ele>86.7</ele>
        <time>2016-05-15T12:52:05Z</time>
      </trkpt>
      <trkpt lat="44.41496" lon="0.77368">
        <ele>86.8</ele>
        <time>2016-05-15T12:52:13Z</time>
      </trkpt>
      <trkpt lat="44.41497" lon="0.77416">
        <ele>85.8</ele>
        <time>2016-05-15T12:52:19Z</time>
      </trkpt>
      <trkpt lat="44.41497" lon="0.77424">
        <ele>85.7</ele>
        <time>2016-05-15T12:52:20Z</time>
      </trkpt>
      <trkpt lat="44.41497" lon="0.77491">
        <ele>84.3</ele>
        <time>2016-05-15T12:52:28Z</time>
      </trkpt>
      <trkpt lat="44.41498" lon="0.7757">
        <ele>83.8</ele>
        <time>2016-05-15T12:52:38Z</time>
      </trkpt>
      <trkpt lat="44.41497" lon="0.77638">
        <ele>84.6</ele>
        <time>2016-05-15T12:52:47Z</time>
      </trkpt>
      <trkpt lat="44.41495" lon="0.77675">
        <ele>85</ele>
        <time>2016-05-15T12:52:52Z</time>
      </trkpt>
      <trkpt lat="44.41492" lon="0.7772">
        <ele>85.6</ele>
        <time>2016-05-15T12:52:58Z</time>
      </trkpt>
      <trkpt lat="44.41485" lon="0.77788">
        <ele>86.6</ele>
        <time>2016-05-15T12:53:07Z</time>
      </trkpt>
      <trkpt lat="44.41479" lon="0.77867">
        <ele>84.7</ele>
        <time>2016-05-15T12:53:17Z</time>
      </trkpt>
      <trkpt lat="44.41479" lon="0.77875">
        <ele>84.5</ele>
        <time>2016-05-15T12:53:18Z</time>
      </trkpt>
      <trkpt lat="44.41478" lon="0.77891">
        <ele>84.6</ele>
        <time>2016-05-15T12:53:20Z</time>
      </trkpt>
      <trkpt lat="44.41477" lon="0.77899">
        <ele>84.7</ele>
        <time>2016-05-15T12:53:21Z</time>
      </trkpt>
      <trkpt lat="44.41476" lon="0.7793">
        <ele>84.9</ele>
        <time>2016-05-15T12:53:25Z</time>
      </trkpt>
      <trkpt lat="44.41473" lon="0.77991">
        <ele>85.6</ele>
        <time>2016-05-15T12:53:33Z</time>
      </trkpt>
      <trkpt lat="44.4147" lon="0.78053">
        <ele>86</ele>
        <time>2016-05-15T12:53:41Z</time>
      </trkpt>
      <trkpt lat="44.41469" lon="0.7807">
        <ele>85.8</ele>
        <time>2016-05-15T12:53:43Z</time>
      </trkpt>
      <trkpt lat="44.4146" lon="0.78118">
        <ele>85.1</ele>
        <time>2016-05-15T12:53:49Z</time>
      </trkpt>
      <trkpt lat="44.41458" lon="0.78126">
        <ele>85</ele>
        <time>2016-05-15T12:53:50Z</time>
      </trkpt>
      <trkpt lat="44.41446" lon="0.78156">
        <ele>84.7</ele>
        <time>2016-05-15T12:53:54Z</time>
      </trkpt>
      <trkpt lat="44.41443" lon="0.78164">
        <ele>84.6</ele>
        <time>2016-05-15T12:53:55Z</time>
      </trkpt>
      <trkpt lat="44.41409" lon="0.7823">
        <ele>83.4</ele>
        <time>2016-05-15T12:54:04Z</time>
      </trkpt>
      <trkpt lat="44.41373" lon="0.78294">
        <ele>81</ele>
        <time>2016-05-15T12:54:13Z</time>
      </trkpt>
      <trkpt lat="44.4135" lon="0.78324">
        <ele>80.8</ele>
        <time>2016-05-15T12:54:18Z</time>
      </trkpt>
      <trkpt lat="44.4134" lon="0.78337">
        <ele>80.7</ele>
        <time>2016-05-15T12:54:20Z</time>
      </trkpt>
      <trkpt lat="44.41331" lon="0.78349">
        <ele>80.5</ele>
        <time>2016-05-15T12:54:22Z</time>
      </trkpt>
      <trkpt lat="44.4131" lon="0.78372">
        <ele>80.1</ele>
        <time>2016-05-15T12:54:26Z</time>
      </trkpt>
      <trkpt lat="44.41294" lon="0.78389">
        <ele>79.8</ele>
        <time>2016-05-15T12:54:29Z</time>
      </trkpt>
      <trkpt lat="44.41271" lon="0.7841">
        <ele>79.8</ele>
        <time>2016-05-15T12:54:33Z</time>
      </trkpt>
      <trkpt lat="44.41222" lon="0.78451">
        <ele>80.6</ele>
        <time>2016-05-15T12:54:41Z</time>
      </trkpt>
      <trkpt lat="44.41216" lon="0.78456">
        <ele>80.8</ele>
        <time>2016-05-15T12:54:42Z</time>
      </trkpt>
      <trkpt lat="44.4118" lon="0.78485">
        <ele>79.9</ele>
        <time>2016-05-15T12:54:48Z</time>
      </trkpt>
      <trkpt lat="44.41175" lon="0.78487">
        <ele>79.8</ele>
        <time>2016-05-15T12:54:49Z</time>
      </trkpt>
      <trkpt lat="44.4117" lon="0.78491">
        <ele>79.7</ele>
        <time>2016-05-15T12:54:50Z</time>
      </trkpt>
      <trkpt lat="44.41168" lon="0.78497">
        <ele>79.6</ele>
        <time>2016-05-15T12:54:51Z</time>
      </trkpt>
      <trkpt lat="44.41167" lon="0.78518">
        <ele>79.3</ele>
        <time>2016-05-15T12:54:54Z</time>
      </trkpt>
      <trkpt lat="44.41166" lon="0.78556">
        <ele>78.9</ele>
        <time>2016-05-15T12:54:59Z</time>
      </trkpt>
      <trkpt lat="44.41166" lon="0.78564">
        <ele>78.9</ele>
        <time>2016-05-15T12:55:00Z</time>
      </trkpt>
      <trkpt lat="44.41167" lon="0.78611">
        <ele>78.6</ele>
        <time>2016-05-15T12:55:06Z</time>
      </trkpt>
      <trkpt lat="44.41165" lon="0.7867">
        <ele>78.2</ele>
        <time>2016-05-15T12:55:14Z</time>
      </trkpt>
      <trkpt lat="44.41163" lon="0.78734">
        <ele>78.5</ele>
        <time>2016-05-15T12:55:23Z</time>
      </trkpt>
      <trkpt lat="44.41164" lon="0.78774">
        <ele>79.4</ele>
        <time>2016-05-15T12:55:29Z</time>
      </trkpt>
      <trkpt lat="44.41159" lon="0.78828">
        <ele>79.6</ele>
        <time>2016-05-15T12:55:37Z</time>
      </trkpt>
      <trkpt lat="44.41154" lon="0.78868">
        <ele>79.4</ele>
        <time>2016-05-15T12:55:43Z</time>
      </trkpt>
      <trkpt lat="44.41151" lon="0.78889">
        <ele>79.2</ele>
        <time>2016-05-15T12:55:46Z</time>
      </trkpt>
      <trkpt lat="44.41143" lon="0.7896">
        <ele>78.9</ele>
        <time>2016-05-15T12:55:56Z</time>
      </trkpt>
      <trkpt lat="44.4114" lon="0.79028">
        <ele>80.1</ele>
        <time>2016-05-15T12:56:05Z</time>
      </trkpt>
      <trkpt lat="44.4114" lon="0.79079">
        <ele>80.4</ele>
        <time>2016-05-15T12:56:12Z</time>
      </trkpt>
      <trkpt lat="44.41145" lon="0.79099">
        <ele>80.5</ele>
        <time>2016-05-15T12:56:15Z</time>
      </trkpt>
      <trkpt lat="44.4115" lon="0.79119">
        <ele>80.6</ele>
        <time>2016-05-15T12:56:18Z</time>
      </trkpt>
      <trkpt lat="44.41152" lon="0.79133">
        <ele>80.6</ele>
        <time>2016-05-15T12:56:20Z</time>
      </trkpt>
      <trkpt lat="44.4116" lon="0.79175">
        <ele>80.7</ele>
        <time>2016-05-15T12:56:26Z</time>
      </trkpt>
      <trkpt lat="44.41167" lon="0.79246">
        <ele>81</ele>
        <time>2016-05-15T12:56:36Z</time>
      </trkpt>
      <trkpt lat="44.41169" lon="0.793">
        <ele>81.2</ele>
        <time>2016-05-15T12:56:44Z</time>
      </trkpt>
      <trkpt lat="44.41169" lon="0.79317">
        <ele>81.5</ele>
        <time>2016-05-15T12:56:47Z</time>
      </trkpt>
      <trkpt lat="44.41168" lon="0.79331">
        <ele>81.7</ele>
        <time>2016-05-15T12:56:50Z</time>
      </trkpt>
      <trkpt lat="44.41168" lon="0.79346">
        <ele>82</ele>
        <time>2016-05-15T12:56:55Z</time>
      </trkpt>
      <trkpt lat="44.41167" lon="0.79349">
        <ele>82</ele>
        <time>2016-05-15T12:56:57Z</time>
      </trkpt>
      <trkpt lat="44.41166" lon="0.79355">
        <ele>82.1</ele>
        <time>2016-05-15T12:57:01Z</time>
      </trkpt>
      <trkpt lat="44.41168" lon="0.79362">
        <ele>82.3</ele>
        <time>2016-05-15T12:57:03Z</time>
      </trkpt>
      <trkpt lat="44.41169" lon="0.79373">
        <ele>82.5</ele>
        <time>2016-05-15T12:57:06Z</time>
      </trkpt>
      <trkpt lat="44.41169" lon="0.79387">
        <ele>82.9</ele>
        <time>2016-05-15T12:57:09Z</time>
      </trkpt>
      <trkpt lat="44.41168" lon="0.79407">
        <ele>83.3</ele>
        <time>2016-05-15T12:57:13Z</time>
      </trkpt>
      <trkpt lat="44.41168" lon="0.79412">
        <ele>83.4</ele>
        <time>2016-05-15T12:57:14Z</time>
      </trkpt>
      <trkpt lat="44.41168" lon="0.79442">
        <ele>84.2</ele>
        <time>2016-05-15T12:57:20Z</time>
      </trkpt>
      <trkpt lat="44.41169" lon="0.79483">
        <ele>84.3</ele>
        <time>2016-05-15T12:57:28Z</time>
      </trkpt>
      <trkpt lat="44.41169" lon="0.79499">
        <ele>84.1</ele>
        <time>2016-05-15T12:57:31Z</time>
      </trkpt>
      <trkpt lat="44.41169" lon="0.79524">
        <ele>83.7</ele>
        <time>2016-05-15T12:57:36Z</time>
      </trkpt>
      <trkpt lat="44.41169" lon="0.79529">
        <ele>83.7</ele>
        <time>2016-05-15T12:57:37Z</time>
      </trkpt>
      <trkpt lat="44.41169" lon="0.79535">
        <ele>83.6</ele>
        <time>2016-05-15T12:57:38Z</time>
      </trkpt>
      <trkpt lat="44.41167" lon="0.79578">
        <ele>83.5</ele>
        <time>2016-05-15T12:57:46Z</time>
      </trkpt>
      <trkpt lat="44.41165" lon="0.79618">
        <ele>83.5</ele>
        <time>2016-05-15T12:57:53Z</time>
      </trkpt>
      <trkpt lat="44.41163" lon="0.79661">
        <ele>83.5</ele>
        <time>2016-05-15T12:58:00Z</time>
      </trkpt>
      <trkpt lat="44.41161" lon="0.79679">
        <ele>83.4</ele>
        <time>2016-05-15T12:58:03Z</time>
      </trkpt>
      <trkpt lat="44.41158" lon="0.79744">
        <ele>83.6</ele>
        <time>2016-05-15T12:58:13Z</time>
      </trkpt>
      <trkpt lat="44.41156" lon="0.79795">
        <ele>83.7</ele>
        <time>2016-05-15T12:58:21Z</time>
      </trkpt>
      <trkpt lat="44.41151" lon="0.79842">
        <ele>83.6</ele>
        <time>2016-05-15T12:58:29Z</time>
      </trkpt>
      <trkpt lat="44.41146" lon="0.79883">
        <ele>83.6</ele>
        <time>2016-05-15T12:58:36Z</time>
      </trkpt>
      <trkpt lat="44.41145" lon="0.79939">
        <ele>84.1</ele>
        <time>2016-05-15T12:58:44Z</time>
      </trkpt>
      <trkpt lat="44.41149" lon="0.80017">
        <ele>84.7</ele>
        <time>2016-05-15T12:58:55Z</time>
      </trkpt>
      <trkpt lat="44.4115" lon="0.80058">
        <ele>84.8</ele>
        <time>2016-05-15T12:59:01Z</time>
      </trkpt>
      <trkpt lat="44.4115" lon="0.80071">
        <ele>84.7</ele>
        <time>2016-05-15T12:59:03Z</time>
      </trkpt>
      <trkpt lat="44.41152" lon="0.80135">
        <ele>84.4</ele>
        <time>2016-05-15T12:59:13Z</time>
      </trkpt>
      <trkpt lat="44.41151" lon="0.80197">
        <ele>85</ele>
        <time>2016-05-15T12:59:23Z</time>
      </trkpt>
      <trkpt lat="44.41144" lon="0.80253">
        <ele>86.1</ele>
        <time>2016-05-15T12:59:32Z</time>
      </trkpt>
      <trkpt lat="44.41137" lon="0.80306">
        <ele>87.2</ele>
        <time>2016-05-15T12:59:40Z</time>
      </trkpt>
      <trkpt lat="44.41136" lon="0.80312">
        <ele>87.3</ele>
        <time>2016-05-15T12:59:41Z</time>
      </trkpt>
      <trkpt lat="44.41136" lon="0.80347">
        <ele>88.1</ele>
        <time>2016-05-15T12:59:46Z</time>
      </trkpt>
      <trkpt lat="44.41141" lon="0.80399">
        <ele>90.3</ele>
        <time>2016-05-15T12:59:54Z</time>
      </trkpt>
      <trkpt lat="44.41142" lon="0.80417">
        <ele>91.4</ele>
        <time>2016-05-15T12:59:57Z</time>
      </trkpt>
      <trkpt lat="44.41145" lon="0.80441">
        <ele>92.8</ele>
        <time>2016-05-15T13:00:01Z</time>
      </trkpt>
      <trkpt lat="44.41146" lon="0.80446">
        <ele>93.1</ele>
        <time>2016-05-15T13:00:02Z</time>
      </trkpt>
      <trkpt lat="44.4115" lon="0.80489">
        <ele>94.7</ele>
        <time>2016-05-15T13:00:09Z</time>
      </trkpt>
      <trkpt lat="44.41159" lon="0.80534">
        <ele>95.8</ele>
        <time>2016-05-15T13:00:16Z</time>
      </trkpt>
      <trkpt lat="44.41164" lon="0.80589">
        <ele>92.8</ele>
        <time>2016-05-15T13:00:24Z</time>
      </trkpt>
      <trkpt lat="44.41172" lon="0.80665">
        <ele>88.6</ele>
        <time>2016-05-15T13:00:35Z</time>
      </trkpt>
      <trkpt lat="44.41173" lon="0.80673">
        <ele>88.3</ele>
        <time>2016-05-15T13:00:36Z</time>
      </trkpt>
      <trkpt lat="44.41183" lon="0.80744">
        <ele>86.9</ele>
        <time>2016-05-15T13:00:46Z</time>
      </trkpt>
      <trkpt lat="44.41184" lon="0.80793">
        <ele>86.9</ele>
        <time>2016-05-15T13:00:53Z</time>
      </trkpt>
      <trkpt lat="44.4118" lon="0.80843">
        <ele>87.5</ele>
        <time>2016-05-15T13:01:00Z</time>
      </trkpt>
      <trkpt lat="44.41175" lon="0.80905">
        <ele>87.2</ele>
        <time>2016-05-15T13:01:08Z</time>
      </trkpt>
      <trkpt lat="44.41171" lon="0.80952">
        <ele>86.3</ele>
        <time>2016-05-15T13:01:13Z</time>
      </trkpt>
      <trkpt lat="44.4117" lon="0.80963">
        <ele>86</ele>
        <time>2016-05-15T13:01:14Z</time>
      </trkpt>
      <trkpt lat="44.41159" lon="0.81018">
        <ele>83.9</ele>
        <time>2016-05-15T13:01:19Z</time>
      </trkpt>
      <trkpt lat="44.41156" lon="0.81028">
        <ele>83.5</ele>
        <time>2016-05-15T13:01:20Z</time>
      </trkpt>
      <trkpt lat="44.41148" lon="0.8106">
        <ele>83</ele>
        <time>2016-05-15T13:01:23Z</time>
      </trkpt>
      <trkpt lat="44.41146" lon="0.81075">
        <ele>83</ele>
        <time>2016-05-15T13:01:25Z</time>
      </trkpt>
      <trkpt lat="44.41145" lon="0.8108">
        <ele>83.1</ele>
        <time>2016-05-15T13:01:26Z</time>
      </trkpt>
      <trkpt lat="44.41142" lon="0.81085">
        <ele>83</ele>
        <time>2016-05-15T13:01:28Z</time>
      </trkpt>
      <trkpt lat="44.41131" lon="0.81091">
        <ele>82.8</ele>
        <time>2016-05-15T13:01:32Z</time>
      </trkpt>
      <trkpt lat="44.41127" lon="0.81092">
        <ele>82.7</ele>
        <time>2016-05-15T13:01:33Z</time>
      </trkpt>
      <trkpt lat="44.4112" lon="0.81093">
        <ele>82.4</ele>
        <time>2016-05-15T13:01:35Z</time>
      </trkpt>
      <trkpt lat="44.41102" lon="0.81098">
        <ele>81.9</ele>
        <time>2016-05-15T13:01:39Z</time>
      </trkpt>
      <trkpt lat="44.41066" lon="0.81105">
        <ele>80.4</ele>
        <time>2016-05-15T13:01:46Z</time>
      </trkpt>
      <trkpt lat="44.41043" lon="0.81105">
        <ele>79.5</ele>
        <time>2016-05-15T13:01:50Z</time>
      </trkpt>
      <trkpt lat="44.41032" lon="0.81104">
        <ele>79.5</ele>
        <time>2016-05-15T13:01:52Z</time>
      </trkpt>
      <trkpt lat="44.40984" lon="0.81098">
        <ele>79.4</ele>
        <time>2016-05-15T13:02:00Z</time>
      </trkpt>
      <trkpt lat="44.4096" lon="0.81095">
        <ele>79.4</ele>
        <time>2016-05-15T13:02:04Z</time>
      </trkpt>
      <trkpt lat="44.40938" lon="0.81092">
        <ele>79.2</ele>
        <time>2016-05-15T13:02:08Z</time>
      </trkpt>
      <trkpt lat="44.40883" lon="0.81091">
        <ele>78.7</ele>
        <time>2016-05-15T13:02:17Z</time>
      </trkpt>
      <trkpt lat="44.40833" lon="0.81094">
        <ele>77.5</ele>
        <time>2016-05-15T13:02:25Z</time>
      </trkpt>
      <trkpt lat="44.40827" lon="0.81094">
        <ele>77.3</ele>
        <time>2016-05-15T13:02:26Z</time>
      </trkpt>
      <trkpt lat="44.40787" lon="0.81093">
        <ele>76.4</ele>
        <time>2016-05-15T13:02:32Z</time>
      </trkpt>
      <trkpt lat="44.40767" lon="0.81093">
        <ele>76.3</ele>
        <time>2016-05-15T13:02:35Z</time>
      </trkpt>
      <trkpt lat="44.40735" lon="0.8109">
        <ele>76.1</ele>
        <time>2016-05-15T13:02:40Z</time>
      </trkpt>
      <trkpt lat="44.40698" lon="0.81087">
        <ele>75.9</ele>
        <time>2016-05-15T13:02:46Z</time>
      </trkpt>
      <trkpt lat="44.40685" lon="0.81086">
        <ele>75.9</ele>
        <time>2016-05-15T13:02:48Z</time>
      </trkpt>
      <trkpt lat="44.40634" lon="0.81083">
        <ele>75.6</ele>
        <time>2016-05-15T13:02:56Z</time>
      </trkpt>
      <trkpt lat="44.40603" lon="0.81077">
        <ele>75.3</ele>
        <time>2016-05-15T13:03:01Z</time>
      </trkpt>
      <trkpt lat="44.40584" lon="0.81073">
        <ele>75.1</ele>
        <time>2016-05-15T13:03:04Z</time>
      </trkpt>
      <trkpt lat="44.40533" lon="0.81059">
        <ele>74.6</ele>
        <time>2016-05-15T13:03:12Z</time>
      </trkpt>
      <trkpt lat="44.40481" lon="0.81044">
        <ele>73.5</ele>
        <time>2016-05-15T13:03:20Z</time>
      </trkpt>
      <trkpt lat="44.40454" lon="0.81037">
        <ele>73</ele>
        <time>2016-05-15T13:03:24Z</time>
      </trkpt>
      <trkpt lat="44.4042" lon="0.81032">
        <ele>73</ele>
        <time>2016-05-15T13:03:29Z</time>
      </trkpt>
      <trkpt lat="44.40386" lon="0.81028">
        <ele>73</ele>
        <time>2016-05-15T13:03:34Z</time>
      </trkpt>
      <trkpt lat="44.40372" lon="0.81026">
        <ele>72.9</ele>
        <time>2016-05-15T13:03:36Z</time>
      </trkpt>
      <trkpt lat="44.40317" lon="0.81018">
        <ele>71.4</ele>
        <time>2016-05-15T13:03:44Z</time>
      </trkpt>
      <trkpt lat="44.40311" lon="0.81018">
        <ele>71.2</ele>
        <time>2016-05-15T13:03:45Z</time>
      </trkpt>
      <trkpt lat="44.40298" lon="0.81015">
        <ele>70.9</ele>
        <time>2016-05-15T13:03:47Z</time>
      </trkpt>
      <trkpt lat="44.40259" lon="0.81003">
        <ele>69.5</ele>
        <time>2016-05-15T13:03:53Z</time>
      </trkpt>
      <trkpt lat="44.4022" lon="0.80979">
        <ele>68.7</ele>
        <time>2016-05-15T13:03:59Z</time>
      </trkpt>
      <trkpt lat="44.40169" lon="0.80946">
        <ele>68.9</ele>
        <time>2016-05-15T13:04:07Z</time>
      </trkpt>
      <trkpt lat="44.40155" lon="0.80935">
        <ele>68.6</ele>
        <time>2016-05-15T13:04:10Z</time>
      </trkpt>
      <trkpt lat="44.40153" lon="0.80929">
        <ele>68.5</ele>
        <time>2016-05-15T13:04:11Z</time>
      </trkpt>
      <trkpt lat="44.40149" lon="0.80909">
        <ele>68.2</ele>
        <time>2016-05-15T13:04:14Z</time>
      </trkpt>
      <trkpt lat="44.40148" lon="0.80902">
        <ele>68</ele>
        <time>2016-05-15T13:04:15Z</time>
      </trkpt>
      <trkpt lat="44.40147" lon="0.80895">
        <ele>67.9</ele>
        <time>2016-05-15T13:04:16Z</time>
      </trkpt>
      <trkpt lat="44.40141" lon="0.80841">
        <ele>67.5</ele>
        <time>2016-05-15T13:04:23Z</time>
      </trkpt>
      <trkpt lat="44.40135" lon="0.8079">
        <ele>67.4</ele>
        <time>2016-05-15T13:04:30Z</time>
      </trkpt>
      <trkpt lat="44.40134" lon="0.80782">
        <ele>67.4</ele>
        <time>2016-05-15T13:04:31Z</time>
      </trkpt>
      <trkpt lat="44.40125" lon="0.80725">
        <ele>67</ele>
        <time>2016-05-15T13:04:39Z</time>
      </trkpt>
      <trkpt lat="44.40107" lon="0.80672">
        <ele>67.3</ele>
        <time>2016-05-15T13:04:47Z</time>
      </trkpt>
      <trkpt lat="44.40088" lon="0.80622">
        <ele>67.9</ele>
        <time>2016-05-15T13:04:55Z</time>
      </trkpt>
      <trkpt lat="44.40079" lon="0.80599">
        <ele>68.2</ele>
        <time>2016-05-15T13:04:59Z</time>
      </trkpt>
      <trkpt lat="44.40072" lon="0.8058">
        <ele>68.3</ele>
        <time>2016-05-15T13:05:02Z</time>
      </trkpt>
      <trkpt lat="44.40056" lon="0.80537">
        <ele>68.2</ele>
        <time>2016-05-15T13:05:09Z</time>
      </trkpt>
      <trkpt lat="44.40046" lon="0.80514">
        <ele>68.1</ele>
        <time>2016-05-15T13:05:13Z</time>
      </trkpt>
      <trkpt lat="44.40042" lon="0.80499">
        <ele>68</ele>
        <time>2016-05-15T13:05:16Z</time>
      </trkpt>
      <trkpt lat="44.40036" lon="0.80484">
        <ele>67.9</ele>
        <time>2016-05-15T13:05:20Z</time>
      </trkpt>
      <trkpt lat="44.40035" lon="0.80481">
        <ele>67.9</ele>
        <time>2016-05-15T13:05:21Z</time>
      </trkpt>
      <trkpt lat="44.40035" lon="0.80473">
        <ele>67.9</ele>
        <time>2016-05-15T13:05:25Z</time>
      </trkpt>
      <trkpt lat="44.4004" lon="0.80473">
        <ele>68</ele>
        <time>2016-05-15T13:05:31Z</time>
      </trkpt>
      <trkpt lat="44.40046" lon="0.80476">
        <ele>68</ele>
        <time>2016-05-15T13:05:36Z</time>
      </trkpt>
      <trkpt lat="44.40052" lon="0.80474">
        <ele>68.1</ele>
        <time>2016-05-15T13:05:39Z</time>
      </trkpt>
      <trkpt lat="44.4006" lon="0.80473">
        <ele>68.2</ele>
        <time>2016-05-15T13:05:42Z</time>
      </trkpt>
      <trkpt lat="44.40064" lon="0.80471">
        <ele>68.3</ele>
        <time>2016-05-15T13:05:44Z</time>
      </trkpt>
      <trkpt lat="44.40068" lon="0.80473">
        <ele>68.3</ele>
        <time>2016-05-15T13:05:46Z</time>
      </trkpt>
      <trkpt lat="44.40078" lon="0.80473">
        <ele>68.4</ele>
        <time>2016-05-15T13:05:51Z</time>
      </trkpt>
      <trkpt lat="44.40082" lon="0.80471">
        <ele>68.5</ele>
        <time>2016-05-15T13:05:55Z</time>
      </trkpt>
      <trkpt lat="44.40082" lon="0.80475">
        <ele>68.5</ele>
        <time>2016-05-15T13:05:59Z</time>
      </trkpt>
      <trkpt lat="44.40073" lon="0.80475">
        <ele>68.4</ele>
        <time>2016-05-15T13:06:04Z</time>
      </trkpt>
      <trkpt lat="44.40071" lon="0.80475">
        <ele>68.3</ele>
        <time>2016-05-15T13:06:05Z</time>
      </trkpt>
      <trkpt lat="44.40054" lon="0.80476">
        <ele>68.1</ele>
        <time>2016-05-15T13:06:11Z</time>
      </trkpt>
      <trkpt lat="44.40037" lon="0.80472">
        <ele>67.9</ele>
        <time>2016-05-15T13:06:17Z</time>
      </trkpt>
      <trkpt lat="44.40018" lon="0.80473">
        <ele>67.5</ele>
        <time>2016-05-15T13:06:23Z</time>
      </trkpt>
      <trkpt lat="44.39992" lon="0.80471">
        <ele>66.9</ele>
        <time>2016-05-15T13:06:29Z</time>
      </trkpt>
      <trkpt lat="44.39976" lon="0.80471">
        <ele>66.5</ele>
        <time>2016-05-15T13:06:32Z</time>
      </trkpt>
      <trkpt lat="44.39949" lon="0.80471">
        <ele>66.1</ele>
        <time>2016-05-15T13:06:37Z</time>
      </trkpt>
      <trkpt lat="44.39906" lon="0.8047">
        <ele>66.1</ele>
        <time>2016-05-15T13:06:45Z</time>
      </trkpt>
      <trkpt lat="44.3989" lon="0.8047">
        <ele>66</ele>
        <time>2016-05-15T13:06:48Z</time>
      </trkpt>
      <trkpt lat="44.39865" lon="0.80467">
        <ele>66.1</ele>
        <time>2016-05-15T13:06:53Z</time>
      </trkpt>
      <trkpt lat="44.39859" lon="0.80468">
        <ele>66.2</ele>
        <time>2016-05-15T13:06:54Z</time>
      </trkpt>
      <trkpt lat="44.39844" lon="0.8047">
        <ele>66.3</ele>
        <time>2016-05-15T13:06:57Z</time>
      </trkpt>
      <trkpt lat="44.39834" lon="0.8047">
        <ele>66.4</ele>
        <time>2016-05-15T13:06:59Z</time>
      </trkpt>
      <trkpt lat="44.39795" lon="0.80469">
        <ele>66.8</ele>
        <time>2016-05-15T13:07:07Z</time>
      </trkpt>
      <trkpt lat="44.39755" lon="0.80469">
        <ele>65.9</ele>
        <time>2016-05-15T13:07:16Z</time>
      </trkpt>
      <trkpt lat="44.39738" lon="0.8047">
        <ele>65.5</ele>
        <time>2016-05-15T13:07:22Z</time>
      </trkpt>
      <trkpt lat="44.39735" lon="0.80471">
        <ele>65.4</ele>
        <time>2016-05-15T13:07:27Z</time>
      </trkpt>
      <trkpt lat="44.39733" lon="0.80475">
        <ele>65.2</ele>
        <time>2016-05-15T13:07:31Z</time>
      </trkpt>
      <trkpt lat="44.39727" lon="0.80492">
        <ele>64.7</ele>
        <time>2016-05-15T13:07:36Z</time>
      </trkpt>
      <trkpt lat="44.39726" lon="0.80529">
        <ele>63.9</ele>
        <time>2016-05-15T13:07:43Z</time>
      </trkpt>
      <trkpt lat="44.39724" lon="0.80567">
        <ele>63.3</ele>
        <time>2016-05-15T13:07:50Z</time>
      </trkpt>
      <trkpt lat="44.39722" lon="0.80611">
        <ele>62.8</ele>
        <time>2016-05-15T13:07:57Z</time>
      </trkpt>
      <trkpt lat="44.39719" lon="0.80674">
        <ele>62.8</ele>
        <time>2016-05-15T13:08:07Z</time>
      </trkpt>
      <trkpt lat="44.39715" lon="0.80703">
        <ele>62.5</ele>
        <time>2016-05-15T13:08:13Z</time>
      </trkpt>
      <trkpt lat="44.39697" lon="0.80706">
        <ele>61.6</ele>
        <time>2016-05-15T13:08:17Z</time>
      </trkpt>
      <trkpt lat="44.39693" lon="0.80706">
        <ele>61.4</ele>
        <time>2016-05-15T13:08:18Z</time>
      </trkpt>
      <trkpt lat="44.39678" lon="0.80706">
        <ele>60.9</ele>
        <time>2016-05-15T13:08:21Z</time>
      </trkpt>
      <trkpt lat="44.39672" lon="0.80706">
        <ele>60.7</ele>
        <time>2016-05-15T13:08:22Z</time>
      </trkpt>
      <trkpt lat="44.39659" lon="0.80706">
        <ele>60.2</ele>
        <time>2016-05-15T13:08:24Z</time>
      </trkpt>
      <trkpt lat="44.39637" lon="0.80707">
        <ele>59.4</ele>
        <time>2016-05-15T13:08:27Z</time>
      </trkpt>
      <trkpt lat="44.39613" lon="0.80707">
        <ele>58.6</ele>
        <time>2016-05-15T13:08:30Z</time>
      </trkpt>
      <trkpt lat="44.39589" lon="0.80708">
        <ele>57.7</ele>
        <time>2016-05-15T13:08:33Z</time>
      </trkpt>
      <trkpt lat="44.39581" lon="0.80708">
        <ele>57.4</ele>
        <time>2016-05-15T13:08:34Z</time>
      </trkpt>
      <trkpt lat="44.39526" lon="0.8071">
        <ele>56</ele>
        <time>2016-05-15T13:08:41Z</time>
      </trkpt>
      <trkpt lat="44.39519" lon="0.8071">
        <ele>56</ele>
        <time>2016-05-15T13:08:42Z</time>
      </trkpt>
      <trkpt lat="44.3949" lon="0.8071">
        <ele>56</ele>
        <time>2016-05-15T13:08:47Z</time>
      </trkpt>
      <trkpt lat="44.39474" lon="0.8071">
        <ele>56</ele>
        <time>2016-05-15T13:08:51Z</time>
      </trkpt>
      <trkpt lat="44.39471" lon="0.8071">
        <ele>56</ele>
        <time>2016-05-15T13:08:52Z</time>
      </trkpt>
      <trkpt lat="44.39449" lon="0.80709">
        <ele>56.5</ele>
        <time>2016-05-15T13:09:00Z</time>
      </trkpt>
      <trkpt lat="44.39425" lon="0.80709">
        <ele>58</ele>
        <time>2016-05-15T13:09:07Z</time>
      </trkpt>
      <trkpt lat="44.39421" lon="0.8071">
        <ele>58.2</ele>
        <time>2016-05-15T13:09:08Z</time>
      </trkpt>
      <trkpt lat="44.39405" lon="0.80709">
        <ele>59.2</ele>
        <time>2016-05-15T13:09:13Z</time>
      </trkpt>
      <trkpt lat="44.39403" lon="0.80709">
        <ele>59.3</ele>
        <time>2016-05-15T13:09:14Z</time>
      </trkpt>
      <trkpt lat="44.39391" lon="0.80705">
        <ele>60</ele>
        <time>2016-05-15T13:09:19Z</time>
      </trkpt>
      <trkpt lat="44.39386" lon="0.80707">
        <ele>60.3</ele>
        <time>2016-05-15T13:09:21Z</time>
      </trkpt>
      <trkpt lat="44.39383" lon="0.80709">
        <ele>60.5</ele>
        <time>2016-05-15T13:09:22Z</time>
      </trkpt>
      <trkpt lat="44.39382" lon="0.80712">
        <ele>60.6</ele>
        <time>2016-05-15T13:09:23Z</time>
      </trkpt>
      <trkpt lat="44.39381" lon="0.80722">
        <ele>60.8</ele>
        <time>2016-05-15T13:09:26Z</time>
      </trkpt>
      <trkpt lat="44.39381" lon="0.80729">
        <ele>60.8</ele>
        <time>2016-05-15T13:09:28Z</time>
      </trkpt>
      <trkpt lat="44.39378" lon="0.8075">
        <ele>61.3</ele>
        <time>2016-05-15T13:09:34Z</time>
      </trkpt>
      <trkpt lat="44.39373" lon="0.8078">
        <ele>61.9</ele>
        <time>2016-05-15T13:09:41Z</time>
      </trkpt>
      <trkpt lat="44.39369" lon="0.80798">
        <ele>62.4</ele>
        <time>2016-05-15T13:09:46Z</time>
      </trkpt>
      <trkpt lat="44.39368" lon="0.80806">
        <ele>62.5</ele>
        <time>2016-05-15T13:09:48Z</time>
      </trkpt>
      <trkpt lat="44.39361" lon="0.80828">
        <ele>63.2</ele>
        <time>2016-05-15T13:09:55Z</time>
      </trkpt>
      <trkpt lat="44.39356" lon="0.80834">
        <ele>63.6</ele>
        <time>2016-05-15T13:10:01Z</time>
      </trkpt>
      <trkpt lat="44.39352" lon="0.80837">
        <ele>63.8</ele>
        <time>2016-05-15T13:10:04Z</time>
      </trkpt>
      <trkpt lat="44.39348" lon="0.80839">
        <ele>64.1</ele>
        <time>2016-05-15T13:10:07Z</time>
      </trkpt>
      <trkpt lat="44.3934" lon="0.80848">
        <ele>64.6</ele>
        <time>2016-05-15T13:11:51Z</time>
      </trkpt>
      <trkpt lat="44.39338" lon="0.80849">
        <ele>64.8</ele>
        <time>2016-05-15T13:11:52Z</time>
      </trkpt>
      <trkpt lat="44.39327" lon="0.80857">
        <ele>65.5</ele>
        <time>2016-05-15T13:11:57Z</time>
      </trkpt>
      <trkpt lat="44.39325" lon="0.80858">
        <ele>65.7</ele>
        <time>2016-05-15T13:11:58Z</time>
      </trkpt>
      <trkpt lat="44.39305" lon="0.80865">
        <ele>67</ele>
        <time>2016-05-15T13:12:06Z</time>
      </trkpt>
      <trkpt lat="44.39278" lon="0.80874">
        <ele>69.6</ele>
        <time>2016-05-15T13:12:15Z</time>
      </trkpt>
      <trkpt lat="44.39265" lon="0.80882">
        <ele>71.2</ele>
        <time>2016-05-15T13:12:20Z</time>
      </trkpt>
      <trkpt lat="44.3926" lon="0.80887">
        <ele>71.7</ele>
        <time>2016-05-15T13:12:22Z</time>
      </trkpt>
      <trkpt lat="44.39249" lon="0.80895">
        <ele>72.8</ele>
        <time>2016-05-15T13:12:26Z</time>
      </trkpt>
      <trkpt lat="44.3924" lon="0.809">
        <ele>73.7</ele>
        <time>2016-05-15T13:12:29Z</time>
      </trkpt>
      <trkpt lat="44.39232" lon="0.80904">
        <ele>74.5</ele>
        <time>2016-05-15T13:12:32Z</time>
      </trkpt>
      <trkpt lat="44.39219" lon="0.80908">
        <ele>75.7</ele>
        <time>2016-05-15T13:12:36Z</time>
      </trkpt>
      <trkpt lat="44.39209" lon="0.8091">
        <ele>76.6</ele>
        <time>2016-05-15T13:12:39Z</time>
      </trkpt>
      <trkpt lat="44.39202" lon="0.80913">
        <ele>77.1</ele>
        <time>2016-05-15T13:12:41Z</time>
      </trkpt>
      <trkpt lat="44.39198" lon="0.80914">
        <ele>77.3</ele>
        <time>2016-05-15T13:12:42Z</time>
      </trkpt>
      <trkpt lat="44.39192" lon="0.80916">
        <ele>77.7</ele>
        <time>2016-05-15T13:12:44Z</time>
      </trkpt>
      <trkpt lat="44.39177" lon="0.80923">
        <ele>78.6</ele>
        <time>2016-05-15T13:12:49Z</time>
      </trkpt>
      <trkpt lat="44.39166" lon="0.80929">
        <ele>79.2</ele>
        <time>2016-05-15T13:12:53Z</time>
      </trkpt>
      <trkpt lat="44.39157" lon="0.80933">
        <ele>79.8</ele>
        <time>2016-05-15T13:12:56Z</time>
      </trkpt>
      <trkpt lat="44.3915" lon="0.80937">
        <ele>80.3</ele>
        <time>2016-05-15T13:12:59Z</time>
      </trkpt>
      <trkpt lat="44.39143" lon="0.8094">
        <ele>80.8</ele>
        <time>2016-05-15T13:13:02Z</time>
      </trkpt>
      <trkpt lat="44.39139" lon="0.80943">
        <ele>81.1</ele>
        <time>2016-05-15T13:13:04Z</time>
      </trkpt>
      <trkpt lat="44.39128" lon="0.80948">
        <ele>81.9</ele>
        <time>2016-05-15T13:13:09Z</time>
      </trkpt>
      <trkpt lat="44.39116" lon="0.80953">
        <ele>83.1</ele>
        <time>2016-05-15T13:13:14Z</time>
      </trkpt>
      <trkpt lat="44.39113" lon="0.80955">
        <ele>83.4</ele>
        <time>2016-05-15T13:13:15Z</time>
      </trkpt>
      <trkpt lat="44.39107" lon="0.80958">
        <ele>84.2</ele>
        <time>2016-05-15T13:13:18Z</time>
      </trkpt>
      <trkpt lat="44.39101" lon="0.80962">
        <ele>85.1</ele>
        <time>2016-05-15T13:13:21Z</time>
      </trkpt>
      <trkpt lat="44.39099" lon="0.80962">
        <ele>85.4</ele>
        <time>2016-05-15T13:13:22Z</time>
      </trkpt>
      <trkpt lat="44.39089" lon="0.80968">
        <ele>86.8</ele>
        <time>2016-05-15T13:13:27Z</time>
      </trkpt>
      <trkpt lat="44.39086" lon="0.80971">
        <ele>87.4</ele>
        <time>2016-05-15T13:13:29Z</time>
      </trkpt>
      <trkpt lat="44.39083" lon="0.80972">
        <ele>87.7</ele>
        <time>2016-05-15T13:13:30Z</time>
      </trkpt>
      <trkpt lat="44.39073" lon="0.80979">
        <ele>89.2</ele>
        <time>2016-05-15T13:13:35Z</time>
      </trkpt>
      <trkpt lat="44.39069" lon="0.8098">
        <ele>89.7</ele>
        <time>2016-05-15T13:13:37Z</time>
      </trkpt>
      <trkpt lat="44.39059" lon="0.8098">
        <ele>90.9</ele>
        <time>2016-05-15T13:13:42Z</time>
      </trkpt>
      <trkpt lat="44.39045" lon="0.80979">
        <ele>92.4</ele>
        <time>2016-05-15T13:13:49Z</time>
      </trkpt>
      <trkpt lat="44.39032" lon="0.80977">
        <ele>93.2</ele>
        <time>2016-05-15T13:13:55Z</time>
      </trkpt>
      <trkpt lat="44.39025" lon="0.80976">
        <ele>93.6</ele>
        <time>2016-05-15T13:13:58Z</time>
      </trkpt>
      <trkpt lat="44.39021" lon="0.80975">
        <ele>93.8</ele>
        <time>2016-05-15T13:14:00Z</time>
      </trkpt>
      <trkpt lat="44.39009" lon="0.80974">
        <ele>94.3</ele>
        <time>2016-05-15T13:14:05Z</time>
      </trkpt>
      <trkpt lat="44.39" lon="0.80974">
        <ele>94.9</ele>
        <time>2016-05-15T13:14:09Z</time>
      </trkpt>
      <trkpt lat="44.38993" lon="0.80975">
        <ele>95.3</ele>
        <time>2016-05-15T13:14:12Z</time>
      </trkpt>
      <trkpt lat="44.38991" lon="0.80976">
        <ele>95.4</ele>
        <time>2016-05-15T13:14:13Z</time>
      </trkpt>
      <trkpt lat="44.38983" lon="0.80978">
        <ele>95.9</ele>
        <time>2016-05-15T13:14:17Z</time>
      </trkpt>
      <trkpt lat="44.38979" lon="0.8098">
        <ele>96.1</ele>
        <time>2016-05-15T13:14:19Z</time>
      </trkpt>
      <trkpt lat="44.38972" lon="0.80982">
        <ele>96.6</ele>
        <time>2016-05-15T13:14:23Z</time>
      </trkpt>
      <trkpt lat="44.38963" lon="0.80985">
        <ele>97.1</ele>
        <time>2016-05-15T13:14:27Z</time>
      </trkpt>
      <trkpt lat="44.38952" lon="0.80988">
        <ele>96.4</ele>
        <time>2016-05-15T13:14:32Z</time>
      </trkpt>
      <trkpt lat="44.38948" lon="0.80989">
        <ele>95.8</ele>
        <time>2016-05-15T13:14:34Z</time>
      </trkpt>
      <trkpt lat="44.38943" lon="0.80992">
        <ele>95</ele>
        <time>2016-05-15T13:14:37Z</time>
      </trkpt>
      <trkpt lat="44.38935" lon="0.80993">
        <ele>93.8</ele>
        <time>2016-05-15T13:14:41Z</time>
      </trkpt>
      <trkpt lat="44.38931" lon="0.80995">
        <ele>93.1</ele>
        <time>2016-05-15T13:14:44Z</time>
      </trkpt>
      <trkpt lat="44.3893" lon="0.80996">
        <ele>93</ele>
        <time>2016-05-15T13:14:45Z</time>
      </trkpt>
      <trkpt lat="44.38928" lon="0.80999">
        <ele>92.8</ele>
        <time>2016-05-15T13:14:47Z</time>
      </trkpt>
      <trkpt lat="44.38928" lon="0.81003">
        <ele>92.8</ele>
        <time>2016-05-15T13:14:49Z</time>
      </trkpt>
      <trkpt lat="44.38929" lon="0.81021">
        <ele>93.2</ele>
        <time>2016-05-15T13:14:56Z</time>
      </trkpt>
      <trkpt lat="44.38932" lon="0.81035">
        <ele>93.7</ele>
        <time>2016-05-15T13:15:02Z</time>
      </trkpt>
      <trkpt lat="44.38932" lon="0.81038">
        <ele>93.8</ele>
        <time>2016-05-15T13:15:07Z</time>
      </trkpt>
      <trkpt lat="44.38933" lon="0.8104">
        <ele>94</ele>
        <time>2016-05-15T13:16:19Z</time>
      </trkpt>
      <trkpt lat="44.38933" lon="0.81049">
        <ele>94.6</ele>
        <time>2016-05-15T13:16:22Z</time>
      </trkpt>
      <trkpt lat="44.38933" lon="0.81054">
        <ele>95</ele>
        <time>2016-05-15T13:16:23Z</time>
      </trkpt>
      <trkpt lat="44.3894" lon="0.81072">
        <ele>97.4</ele>
        <time>2016-05-15T13:16:27Z</time>
      </trkpt>
      <trkpt lat="44.38944" lon="0.81082">
        <ele>98.6</ele>
        <time>2016-05-15T13:16:29Z</time>
      </trkpt>
      <trkpt lat="44.38945" lon="0.81087">
        <ele>99.2</ele>
        <time>2016-05-15T13:16:30Z</time>
      </trkpt>
      <trkpt lat="44.38949" lon="0.81097">
        <ele>100.3</ele>
        <time>2016-05-15T13:16:32Z</time>
      </trkpt>
      <trkpt lat="44.38952" lon="0.81101">
        <ele>100.8</ele>
        <time>2016-05-15T13:16:33Z</time>
      </trkpt>
      <trkpt lat="44.38955" lon="0.81104">
        <ele>101.4</ele>
        <time>2016-05-15T13:16:34Z</time>
      </trkpt>
      <trkpt lat="44.38961" lon="0.8111">
        <ele>102.1</ele>
        <time>2016-05-15T13:16:36Z</time>
      </trkpt>
      <trkpt lat="44.3897" lon="0.81115">
        <ele>102.4</ele>
        <time>2016-05-15T13:16:39Z</time>
      </trkpt>
      <trkpt lat="44.38979" lon="0.81121">
        <ele>102.7</ele>
        <time>2016-05-15T13:16:43Z</time>
      </trkpt>
      <trkpt lat="44.38984" lon="0.81123">
        <ele>102.8</ele>
        <time>2016-05-15T13:16:45Z</time>
      </trkpt>
      <trkpt lat="44.38994" lon="0.81127">
        <ele>103.4</ele>
        <time>2016-05-15T13:16:50Z</time>
      </trkpt>
      <trkpt lat="44.38997" lon="0.81127">
        <ele>103.4</ele>
        <time>2016-05-15T13:16:51Z</time>
      </trkpt>
      <trkpt lat="44.39011" lon="0.81129">
        <ele>103.8</ele>
        <time>2016-05-15T13:16:57Z</time>
      </trkpt>
      <trkpt lat="44.39027" lon="0.8113">
        <ele>104</ele>
        <time>2016-05-15T13:17:04Z</time>
      </trkpt>
      <trkpt lat="44.39033" lon="0.81131">
        <ele>104.2</ele>
        <time>2016-05-15T13:17:06Z</time>
      </trkpt>
      <trkpt lat="44.39042" lon="0.81133">
        <ele>104.6</ele>
        <time>2016-05-15T13:17:10Z</time>
      </trkpt>
      <trkpt lat="44.39047" lon="0.81134">
        <ele>104.7</ele>
        <time>2016-05-15T13:17:13Z</time>
      </trkpt>
      <trkpt lat="44.39049" lon="0.81134">
        <ele>104.8</ele>
        <time>2016-05-15T13:17:14Z</time>
      </trkpt>
      <trkpt lat="44.3906" lon="0.81143">
        <ele>106.2</ele>
        <time>2016-05-15T13:17:19Z</time>
      </trkpt>
      <trkpt lat="44.39064" lon="0.81148">
        <ele>107.1</ele>
        <time>2016-05-15T13:17:21Z</time>
      </trkpt>
      <trkpt lat="44.39071" lon="0.81156">
        <ele>108.3</ele>
        <time>2016-05-15T13:17:25Z</time>
      </trkpt>
      <trkpt lat="44.39073" lon="0.81158">
        <ele>108.7</ele>
        <time>2016-05-15T13:17:26Z</time>
      </trkpt>
      <trkpt lat="44.39081" lon="0.81171">
        <ele>110.6</ele>
        <time>2016-05-15T13:17:31Z</time>
      </trkpt>
      <trkpt lat="44.39082" lon="0.81173">
        <ele>111</ele>
        <time>2016-05-15T13:17:32Z</time>
      </trkpt>
      <trkpt lat="44.39086" lon="0.81187">
        <ele>113.4</ele>
        <time>2016-05-15T13:17:37Z</time>
      </trkpt>
      <trkpt lat="44.39086" lon="0.8119">
        <ele>113.9</ele>
        <time>2016-05-15T13:17:38Z</time>
      </trkpt>
      <trkpt lat="44.39085" lon="0.81199">
        <ele>115.6</ele>
        <time>2016-05-15T13:17:41Z</time>
      </trkpt>
      <trkpt lat="44.39082" lon="0.81206">
        <ele>117.1</ele>
        <time>2016-05-15T13:17:44Z</time>
      </trkpt>
      <trkpt lat="44.39072" lon="0.81218">
        <ele>119.9</ele>
        <time>2016-05-15T13:17:51Z</time>
      </trkpt>
      <trkpt lat="44.39063" lon="0.8122">
        <ele>121.1</ele>
        <time>2016-05-15T13:17:56Z</time>
      </trkpt>
      <trkpt lat="44.39062" lon="0.8122">
        <ele>121.2</ele>
        <time>2016-05-15T13:17:57Z</time>
      </trkpt>
      <trkpt lat="44.39057" lon="0.81216">
        <ele>121.1</ele>
        <time>2016-05-15T13:18:01Z</time>
      </trkpt>
      <trkpt lat="44.39054" lon="0.81212">
        <ele>120.7</ele>
        <time>2016-05-15T13:18:03Z</time>
      </trkpt>
      <trkpt lat="44.39051" lon="0.81209">
        <ele>120.3</ele>
        <time>2016-05-15T13:18:05Z</time>
      </trkpt>
      <trkpt lat="44.39045" lon="0.812">
        <ele>119</ele>
        <time>2016-05-15T13:18:10Z</time>
      </trkpt>
      <trkpt lat="44.39037" lon="0.81195">
        <ele>117.8</ele>
        <time>2016-05-15T13:18:17Z</time>
      </trkpt>
      <trkpt lat="44.39034" lon="0.81193">
        <ele>117.4</ele>
        <time>2016-05-15T13:18:19Z</time>
      </trkpt>
      <trkpt lat="44.39024" lon="0.81189">
        <ele>116.1</ele>
        <time>2016-05-15T13:18:25Z</time>
      </trkpt>
      <trkpt lat="44.39023" lon="0.81189">
        <ele>116</ele>
        <time>2016-05-15T13:18:26Z</time>
      </trkpt>
      <trkpt lat="44.39013" lon="0.81189">
        <ele>115.4</ele>
        <time>2016-05-15T13:18:32Z</time>
      </trkpt>
      <trkpt lat="44.39006" lon="0.8119">
        <ele>115.4</ele>
        <time>2016-05-15T13:18:36Z</time>
      </trkpt>
      <trkpt lat="44.38996" lon="0.81194">
        <ele>115.7</ele>
        <time>2016-05-15T13:18:41Z</time>
      </trkpt>
      <trkpt lat="44.38991" lon="0.81198">
        <ele>116.1</ele>
        <time>2016-05-15T13:18:44Z</time>
      </trkpt>
      <trkpt lat="44.38982" lon="0.81205">
        <ele>116.9</ele>
        <time>2016-05-15T13:18:49Z</time>
      </trkpt>
      <trkpt lat="44.38976" lon="0.81211">
        <ele>117.7</ele>
        <time>2016-05-15T13:18:53Z</time>
      </trkpt>
      <trkpt lat="44.3897" lon="0.81217">
        <ele>118.6</ele>
        <time>2016-05-15T13:18:57Z</time>
      </trkpt>
      <trkpt lat="44.38965" lon="0.81222">
        <ele>119.2</ele>
        <time>2016-05-15T13:19:00Z</time>
      </trkpt>
      <trkpt lat="44.38962" lon="0.81225">
        <ele>119.8</ele>
        <time>2016-05-15T13:19:02Z</time>
      </trkpt>
      <trkpt lat="44.3896" lon="0.81227">
        <ele>120.1</ele>
        <time>2016-05-15T13:19:03Z</time>
      </trkpt>
      <trkpt lat="44.3895" lon="0.81237">
        <ele>121.4</ele>
        <time>2016-05-15T13:19:10Z</time>
      </trkpt>
      <trkpt lat="44.38939" lon="0.8125">
        <ele>123</ele>
        <time>2016-05-15T13:19:18Z</time>
      </trkpt>
      <trkpt lat="44.38927" lon="0.81259">
        <ele>123.6</ele>
        <time>2016-05-15T13:19:25Z</time>
      </trkpt>
      <trkpt lat="44.38924" lon="0.81262">
        <ele>123.9</ele>
        <time>2016-05-15T13:19:27Z</time>
      </trkpt>
      <trkpt lat="44.38917" lon="0.81269">
        <ele>124.6</ele>
        <time>2016-05-15T13:19:32Z</time>
      </trkpt>
      <trkpt lat="44.38913" lon="0.81272">
        <ele>124.8</ele>
        <time>2016-05-15T13:19:34Z</time>
      </trkpt>
      <trkpt lat="44.38905" lon="0.81281">
        <ele>125.6</ele>
        <time>2016-05-15T13:19:39Z</time>
      </trkpt>
      <trkpt lat="44.38902" lon="0.81286">
        <ele>126.1</ele>
        <time>2016-05-15T13:19:41Z</time>
      </trkpt>
      <trkpt lat="44.38896" lon="0.81291">
        <ele>126.4</ele>
        <time>2016-05-15T13:19:44Z</time>
      </trkpt>
      <trkpt lat="44.3889" lon="0.81299">
        <ele>126.8</ele>
        <time>2016-05-15T13:19:47Z</time>
      </trkpt>
      <trkpt lat="44.38884" lon="0.81307">
        <ele>127</ele>
        <time>2016-05-15T13:19:50Z</time>
      </trkpt>
      <trkpt lat="44.3888" lon="0.81315">
        <ele>127.4</ele>
        <time>2016-05-15T13:19:53Z</time>
      </trkpt>
      <trkpt lat="44.38876" lon="0.81322">
        <ele>127.8</ele>
        <time>2016-05-15T13:19:55Z</time>
      </trkpt>
      <trkpt lat="44.38868" lon="0.81341">
        <ele>128.2</ele>
        <time>2016-05-15T13:20:01Z</time>
      </trkpt>
      <trkpt lat="44.38866" lon="0.81347">
        <ele>128.6</ele>
        <time>2016-05-15T13:20:03Z</time>
      </trkpt>
      <trkpt lat="44.38864" lon="0.81361">
        <ele>129.6</ele>
        <time>2016-05-15T13:20:07Z</time>
      </trkpt>
      <trkpt lat="44.38862" lon="0.81378">
        <ele>131.1</ele>
        <time>2016-05-15T13:20:12Z</time>
      </trkpt>
      <trkpt lat="44.38861" lon="0.81381">
        <ele>131.4</ele>
        <time>2016-05-15T13:20:13Z</time>
      </trkpt>
      <trkpt lat="44.38861" lon="0.81399">
        <ele>133.6</ele>
        <time>2016-05-15T13:20:19Z</time>
      </trkpt>
      <trkpt lat="44.38859" lon="0.8142">
        <ele>135.9</ele>
        <time>2016-05-15T13:20:25Z</time>
      </trkpt>
      <trkpt lat="44.38859" lon="0.81437">
        <ele>137.9</ele>
        <time>2016-05-15T13:20:30Z</time>
      </trkpt>
      <trkpt lat="44.38859" lon="0.81443">
        <ele>138.5</ele>
        <time>2016-05-15T13:20:32Z</time>
      </trkpt>
      <trkpt lat="44.38858" lon="0.81456">
        <ele>140.1</ele>
        <time>2016-05-15T13:20:37Z</time>
      </trkpt>
      <trkpt lat="44.38858" lon="0.81471">
        <ele>141.8</ele>
        <time>2016-05-15T13:20:42Z</time>
      </trkpt>
      <trkpt lat="44.38857" lon="0.81477">
        <ele>142.3</ele>
        <time>2016-05-15T13:20:44Z</time>
      </trkpt>
      <trkpt lat="44.38856" lon="0.81494">
        <ele>144.1</ele>
        <time>2016-05-15T13:20:50Z</time>
      </trkpt>
      <trkpt lat="44.38856" lon="0.81497">
        <ele>144.4</ele>
        <time>2016-05-15T13:20:51Z</time>
      </trkpt>
      <trkpt lat="44.38855" lon="0.81516">
        <ele>146.2</ele>
        <time>2016-05-15T13:20:58Z</time>
      </trkpt>
      <trkpt lat="44.38851" lon="0.81536">
        <ele>147.7</ele>
        <time>2016-05-15T13:21:04Z</time>
      </trkpt>
      <trkpt lat="44.38849" lon="0.81545">
        <ele>148</ele>
        <time>2016-05-15T13:21:07Z</time>
      </trkpt>
      <trkpt lat="44.38846" lon="0.8156">
        <ele>148.2</ele>
        <time>2016-05-15T13:21:12Z</time>
      </trkpt>
      <trkpt lat="44.38846" lon="0.81567">
        <ele>148.6</ele>
        <time>2016-05-15T13:21:14Z</time>
      </trkpt>
      <trkpt lat="44.38842" lon="0.81583">
        <ele>148.9</ele>
        <time>2016-05-15T13:21:20Z</time>
      </trkpt>
      <trkpt lat="44.3884" lon="0.81589">
        <ele>148.9</ele>
        <time>2016-05-15T13:21:22Z</time>
      </trkpt>
      <trkpt lat="44.38836" lon="0.81602">
        <ele>148.9</ele>
        <time>2016-05-15T13:21:26Z</time>
      </trkpt>
      <trkpt lat="44.38831" lon="0.81629">
        <ele>149.8</ele>
        <time>2016-05-15T13:21:33Z</time>
      </trkpt>
      <trkpt lat="44.38826" lon="0.81651">
        <ele>149.7</ele>
        <time>2016-05-15T13:21:39Z</time>
      </trkpt>
      <trkpt lat="44.38825" lon="0.81652">
        <ele>149.5</ele>
        <time>2016-05-15T13:21:40Z</time>
      </trkpt>
      <trkpt lat="44.38824" lon="0.81653">
        <ele>149.3</ele>
        <time>2016-05-15T13:21:43Z</time>
      </trkpt>
      <trkpt lat="44.38824" lon="0.81661">
        <ele>149.8</ele>
        <time>2016-05-15T13:23:43Z</time>
      </trkpt>
      <trkpt lat="44.38824" lon="0.81664">
        <ele>149.8</ele>
        <time>2016-05-15T13:23:45Z</time>
      </trkpt>
      <trkpt lat="44.38824" lon="0.81668">
        <ele>149.9</ele>
        <time>2016-05-15T13:23:47Z</time>
      </trkpt>
      <trkpt lat="44.38824" lon="0.81681">
        <ele>150.5</ele>
        <time>2016-05-15T13:23:53Z</time>
      </trkpt>
      <trkpt lat="44.38823" lon="0.8169">
        <ele>150.6</ele>
        <time>2016-05-15T13:23:57Z</time>
      </trkpt>
      <trkpt lat="44.38824" lon="0.81698">
        <ele>151.1</ele>
        <time>2016-05-15T13:24:00Z</time>
      </trkpt>
      <trkpt lat="44.38824" lon="0.81713">
        <ele>151.7</ele>
        <time>2016-05-15T13:24:06Z</time>
      </trkpt>
      <trkpt lat="44.38827" lon="0.81727">
        <ele>152.4</ele>
        <time>2016-05-15T13:24:12Z</time>
      </trkpt>
      <trkpt lat="44.38827" lon="0.81733">
        <ele>152.5</ele>
        <time>2016-05-15T13:24:14Z</time>
      </trkpt>
      <trkpt lat="44.38828" lon="0.81743">
        <ele>152.8</ele>
        <time>2016-05-15T13:24:18Z</time>
      </trkpt>
      <trkpt lat="44.3883" lon="0.81764">
        <ele>153.3</ele>
        <time>2016-05-15T13:24:26Z</time>
      </trkpt>
      <trkpt lat="44.38829" lon="0.81776">
        <ele>153.2</ele>
        <time>2016-05-15T13:24:30Z</time>
      </trkpt>
      <trkpt lat="44.38828" lon="0.81789">
        <ele>153.3</ele>
        <time>2016-05-15T13:24:34Z</time>
      </trkpt>
      <trkpt lat="44.38827" lon="0.81809">
        <ele>152.9</ele>
        <time>2016-05-15T13:24:40Z</time>
      </trkpt>
      <trkpt lat="44.38828" lon="0.81825">
        <ele>153.2</ele>
        <time>2016-05-15T13:24:45Z</time>
      </trkpt>
      <trkpt lat="44.38829" lon="0.81828">
        <ele>153.2</ele>
        <time>2016-05-15T13:24:46Z</time>
      </trkpt>
      <trkpt lat="44.38829" lon="0.81836">
        <ele>153.2</ele>
        <time>2016-05-15T13:24:49Z</time>
      </trkpt>
      <trkpt lat="44.38831" lon="0.81855">
        <ele>153.6</ele>
        <time>2016-05-15T13:24:55Z</time>
      </trkpt>
      <trkpt lat="44.38832" lon="0.81865">
        <ele>153.6</ele>
        <time>2016-05-15T13:24:58Z</time>
      </trkpt>
      <trkpt lat="44.38834" lon="0.81878">
        <ele>154.2</ele>
        <time>2016-05-15T13:25:03Z</time>
      </trkpt>
      <trkpt lat="44.38835" lon="0.81879">
        <ele>154.5</ele>
        <time>2016-05-15T13:25:04Z</time>
      </trkpt>
      <trkpt lat="44.38844" lon="0.81878">
        <ele>156.5</ele>
        <time>2016-05-15T13:25:09Z</time>
      </trkpt>
      <trkpt lat="44.38845" lon="0.81877">
        <ele>156.8</ele>
        <time>2016-05-15T13:25:10Z</time>
      </trkpt>
      <trkpt lat="44.38854" lon="0.8187">
        <ele>158.9</ele>
        <time>2016-05-15T13:25:16Z</time>
      </trkpt>
      <trkpt lat="44.38859" lon="0.81867">
        <ele>160.2</ele>
        <time>2016-05-15T13:25:21Z</time>
      </trkpt>
      <trkpt lat="44.38858" lon="0.81867">
        <ele>160</ele>
        <time>2016-05-15T13:25:23Z</time>
      </trkpt>
      <trkpt lat="44.38856" lon="0.81867">
        <ele>159.4</ele>
        <time>2016-05-15T13:25:37Z</time>
      </trkpt>
      <trkpt lat="44.38854" lon="0.81869">
        <ele>159</ele>
        <time>2016-05-15T13:25:40Z</time>
      </trkpt>
      <trkpt lat="44.38859" lon="0.81871">
        <ele>160.1</ele>
        <time>2016-05-15T13:54:54Z</time>
      </trkpt>
      <trkpt lat="44.38862" lon="0.81872">
        <ele>160.8</ele>
        <time>2016-05-15T13:54:56Z</time>
      </trkpt>
      <trkpt lat="44.38863" lon="0.81873">
        <ele>161.2</ele>
        <time>2016-05-15T13:54:57Z</time>
      </trkpt>
      <trkpt lat="44.38866" lon="0.81869">
        <ele>161.9</ele>
        <time>2016-05-15T13:55:46Z</time>
      </trkpt>
      <trkpt lat="44.38867" lon="0.81869">
        <ele>162.1</ele>
        <time>2016-05-15T13:55:48Z</time>
      </trkpt>
      <trkpt lat="44.38869" lon="0.81871">
        <ele>162.6</ele>
        <time>2016-05-15T13:55:50Z</time>
      </trkpt>
      <trkpt lat="44.38879" lon="0.81872">
        <ele>164.9</ele>
        <time>2016-05-15T13:55:55Z</time>
      </trkpt>
      <trkpt lat="44.38882" lon="0.81871">
        <ele>165.9</ele>
        <time>2016-05-15T13:55:57Z</time>
      </trkpt>
      <trkpt lat="44.38896" lon="0.81871">
        <ele>169.2</ele>
        <time>2016-05-15T13:56:05Z</time>
      </trkpt>
      <trkpt lat="44.38899" lon="0.8187">
        <ele>170</ele>
        <time>2016-05-15T13:56:07Z</time>
      </trkpt>
      <trkpt lat="44.38901" lon="0.81872">
        <ele>170.6</ele>
        <time>2016-05-15T13:56:13Z</time>
      </trkpt>
      <trkpt lat="44.38901" lon="0.81872">
        <ele>170.6</ele>
        <time>2016-05-15T13:56:14Z</time>
      </trkpt>
      <trkpt lat="44.38909" lon="0.81866">
        <ele>172.9</ele>
        <time>2016-05-15T14:30:06Z</time>
      </trkpt>
      <trkpt lat="44.38899" lon="0.81867">
        <ele>170.1</ele>
        <time>2016-05-15T14:30:53Z</time>
      </trkpt>
      <trkpt lat="44.38894" lon="0.81866">
        <ele>168.9</ele>
        <time>2016-05-15T14:30:56Z</time>
      </trkpt>
      <trkpt lat="44.3889" lon="0.81868">
        <ele>167.9</ele>
        <time>2016-05-15T14:30:57Z</time>
      </trkpt>
      <trkpt lat="44.38883" lon="0.8187">
        <ele>165.9</ele>
        <time>2016-05-15T14:31:00Z</time>
      </trkpt>
      <trkpt lat="44.38877" lon="0.81868">
        <ele>164.5</ele>
        <time>2016-05-15T14:31:02Z</time>
      </trkpt>
      <trkpt lat="44.38874" lon="0.81866">
        <ele>163.6</ele>
        <time>2016-05-15T14:31:03Z</time>
      </trkpt>
      <trkpt lat="44.38871" lon="0.81865">
        <ele>163</ele>
        <time>2016-05-15T14:31:04Z</time>
      </trkpt>
      <trkpt lat="44.38864" lon="0.81857">
        <ele>161.5</ele>
        <time>2016-05-15T14:31:07Z</time>
      </trkpt>
      <trkpt lat="44.38864" lon="0.81854">
        <ele>161.3</ele>
        <time>2016-05-15T14:31:08Z</time>
      </trkpt>
      <trkpt lat="44.38861" lon="0.81832">
        <ele>160.7</ele>
        <time>2016-05-15T14:31:12Z</time>
      </trkpt>
      <trkpt lat="44.38855" lon="0.818">
        <ele>159.4</ele>
        <time>2016-05-15T14:31:18Z</time>
      </trkpt>
      <trkpt lat="44.38853" lon="0.8178">
        <ele>158.8</ele>
        <time>2016-05-15T14:31:23Z</time>
      </trkpt>
      <trkpt lat="44.38854" lon="0.8176">
        <ele>158.7</ele>
        <time>2016-05-15T14:31:28Z</time>
      </trkpt>
      <trkpt lat="44.38855" lon="0.81756">
        <ele>158.9</ele>
        <time>2016-05-15T14:31:29Z</time>
      </trkpt>
      <trkpt lat="44.38858" lon="0.81744">
        <ele>159.2</ele>
        <time>2016-05-15T14:31:32Z</time>
      </trkpt>
      <trkpt lat="44.38861" lon="0.81734">
        <ele>159.5</ele>
        <time>2016-05-15T14:31:34Z</time>
      </trkpt>
      <trkpt lat="44.38864" lon="0.81719">
        <ele>160</ele>
        <time>2016-05-15T14:31:37Z</time>
      </trkpt>
      <trkpt lat="44.38867" lon="0.81704">
        <ele>160.2</ele>
        <time>2016-05-15T14:31:41Z</time>
      </trkpt>
      <trkpt lat="44.38869" lon="0.81698">
        <ele>160.2</ele>
        <time>2016-05-15T14:31:43Z</time>
      </trkpt>
      <trkpt lat="44.3887" lon="0.81692">
        <ele>160.1</ele>
        <time>2016-05-15T14:31:45Z</time>
      </trkpt>
      <trkpt lat="44.3887" lon="0.81685">
        <ele>159.9</ele>
        <time>2016-05-15T14:31:48Z</time>
      </trkpt>
      <trkpt lat="44.38874" lon="0.81669">
        <ele>159.8</ele>
        <time>2016-05-15T14:31:54Z</time>
      </trkpt>
      <trkpt lat="44.38875" lon="0.81655">
        <ele>159.5</ele>
        <time>2016-05-15T14:31:58Z</time>
      </trkpt>
      <trkpt lat="44.38876" lon="0.81649">
        <ele>159.4</ele>
        <time>2016-05-15T14:32:00Z</time>
      </trkpt>
      <trkpt lat="44.38878" lon="0.81635">
        <ele>159.5</ele>
        <time>2016-05-15T14:32:04Z</time>
      </trkpt>
      <trkpt lat="44.3888" lon="0.81627">
        <ele>159.6</ele>
        <time>2016-05-15T14:32:07Z</time>
      </trkpt>
      <trkpt lat="44.38883" lon="0.81609">
        <ele>159.3</ele>
        <time>2016-05-15T14:32:13Z</time>
      </trkpt>
      <trkpt lat="44.38884" lon="0.81602">
        <ele>159.2</ele>
        <time>2016-05-15T14:32:15Z</time>
      </trkpt>
      <trkpt lat="44.38886" lon="0.81595">
        <ele>159.2</ele>
        <time>2016-05-15T14:32:17Z</time>
      </trkpt>
      <trkpt lat="44.38889" lon="0.81587">
        <ele>159.4</ele>
        <time>2016-05-15T14:32:20Z</time>
      </trkpt>
      <trkpt lat="44.38894" lon="0.81568">
        <ele>159.2</ele>
        <time>2016-05-15T14:32:26Z</time>
      </trkpt>
      <trkpt lat="44.38904" lon="0.81533">
        <ele>157.7</ele>
        <time>2016-05-15T14:32:34Z</time>
      </trkpt>
      <trkpt lat="44.38915" lon="0.81503">
        <ele>155.9</ele>
        <time>2016-05-15T14:32:41Z</time>
      </trkpt>
      <trkpt lat="44.38931" lon="0.81493">
        <ele>157.1</ele>
        <time>2016-05-15T14:32:46Z</time>
      </trkpt>
      <trkpt lat="44.38949" lon="0.81496">
        <ele>160.5</ele>
        <time>2016-05-15T14:32:52Z</time>
      </trkpt>
      <trkpt lat="44.38962" lon="0.81508">
        <ele>163.4</ele>
        <time>2016-05-15T14:32:57Z</time>
      </trkpt>
      <trkpt lat="44.3897" lon="0.81527">
        <ele>165.3</ele>
        <time>2016-05-15T14:33:02Z</time>
      </trkpt>
      <trkpt lat="44.38974" lon="0.81543">
        <ele>167.3</ele>
        <time>2016-05-15T14:33:06Z</time>
      </trkpt>
      <trkpt lat="44.3898" lon="0.81572">
        <ele>171.7</ele>
        <time>2016-05-15T14:33:12Z</time>
      </trkpt>
      <trkpt lat="44.38986" lon="0.81594">
        <ele>175.1</ele>
        <time>2016-05-15T14:33:17Z</time>
      </trkpt>
      <trkpt lat="44.38989" lon="0.81603">
        <ele>176.5</ele>
        <time>2016-05-15T14:33:19Z</time>
      </trkpt>
      <trkpt lat="44.38995" lon="0.81636">
        <ele>181.1</ele>
        <time>2016-05-15T14:33:26Z</time>
      </trkpt>
      <trkpt lat="44.38996" lon="0.81641">
        <ele>181.6</ele>
        <time>2016-05-15T14:33:27Z</time>
      </trkpt>
      <trkpt lat="44.39005" lon="0.81676">
        <ele>185.4</ele>
        <time>2016-05-15T14:33:34Z</time>
      </trkpt>
      <trkpt lat="44.39007" lon="0.81688">
        <ele>186.8</ele>
        <time>2016-05-15T14:33:36Z</time>
      </trkpt>
      <trkpt lat="44.3901" lon="0.817">
        <ele>188.1</ele>
        <time>2016-05-15T14:33:38Z</time>
      </trkpt>
      <trkpt lat="44.39015" lon="0.81715">
        <ele>189.2</ele>
        <time>2016-05-15T14:33:41Z</time>
      </trkpt>
      <trkpt lat="44.3902" lon="0.81741">
        <ele>189.8</ele>
        <time>2016-05-15T14:33:46Z</time>
      </trkpt>
      <trkpt lat="44.39022" lon="0.81751">
        <ele>190.1</ele>
        <time>2016-05-15T14:33:48Z</time>
      </trkpt>
      <trkpt lat="44.39027" lon="0.81767">
        <ele>190.7</ele>
        <time>2016-05-15T14:33:51Z</time>
      </trkpt>
      <trkpt lat="44.39031" lon="0.81791">
        <ele>191.7</ele>
        <time>2016-05-15T14:33:55Z</time>
      </trkpt>
      <trkpt lat="44.39031" lon="0.81825">
        <ele>191.8</ele>
        <time>2016-05-15T14:34:01Z</time>
      </trkpt>
      <trkpt lat="44.39028" lon="0.8184">
        <ele>191.7</ele>
        <time>2016-05-15T14:34:04Z</time>
      </trkpt>
      <trkpt lat="44.39026" lon="0.81852">
        <ele>191.5</ele>
        <time>2016-05-15T14:34:07Z</time>
      </trkpt>
      <trkpt lat="44.39019" lon="0.81881">
        <ele>190.4</ele>
        <time>2016-05-15T14:34:13Z</time>
      </trkpt>
      <trkpt lat="44.39018" lon="0.81886">
        <ele>190</ele>
        <time>2016-05-15T14:34:14Z</time>
      </trkpt>
      <trkpt lat="44.39014" lon="0.81909">
        <ele>187.9</ele>
        <time>2016-05-15T14:34:19Z</time>
      </trkpt>
      <trkpt lat="44.39008" lon="0.81943">
        <ele>184.9</ele>
        <time>2016-05-15T14:34:26Z</time>
      </trkpt>
      <trkpt lat="44.39009" lon="0.81961">
        <ele>183.7</ele>
        <time>2016-05-15T14:34:30Z</time>
      </trkpt>
      <trkpt lat="44.3901" lon="0.81973">
        <ele>182.7</ele>
        <time>2016-05-15T14:34:33Z</time>
      </trkpt>
      <trkpt lat="44.39015" lon="0.82002">
        <ele>180.8</ele>
        <time>2016-05-15T14:34:40Z</time>
      </trkpt>
      <trkpt lat="44.39016" lon="0.82011">
        <ele>180.2</ele>
        <time>2016-05-15T14:34:42Z</time>
      </trkpt>
      <trkpt lat="44.39017" lon="0.82037">
        <ele>178.3</ele>
        <time>2016-05-15T14:34:49Z</time>
      </trkpt>
      <trkpt lat="44.39017" lon="0.8204">
        <ele>178.1</ele>
        <time>2016-05-15T14:34:50Z</time>
      </trkpt>
      <trkpt lat="44.39017" lon="0.82057">
        <ele>177.9</ele>
        <time>2016-05-15T14:34:57Z</time>
      </trkpt>
      <trkpt lat="44.39017" lon="0.82058">
        <ele>178.1</ele>
        <time>2016-05-15T14:34:58Z</time>
      </trkpt>
      <trkpt lat="44.3902" lon="0.82067">
        <ele>178.8</ele>
        <time>2016-05-15T14:35:02Z</time>
      </trkpt>
      <trkpt lat="44.39027" lon="0.82084">
        <ele>180.4</ele>
        <time>2016-05-15T14:35:09Z</time>
      </trkpt>
      <trkpt lat="44.39028" lon="0.82085">
        <ele>180.6</ele>
        <time>2016-05-15T14:35:10Z</time>
      </trkpt>
      <trkpt lat="44.39031" lon="0.82092">
        <ele>181.4</ele>
        <time>2016-05-15T14:35:15Z</time>
      </trkpt>
      <trkpt lat="44.39037" lon="0.82101">
        <ele>183.1</ele>
        <time>2016-05-15T14:36:49Z</time>
      </trkpt>
      <trkpt lat="44.39038" lon="0.82102">
        <ele>183.3</ele>
        <time>2016-05-15T14:36:52Z</time>
      </trkpt>
      <trkpt lat="44.39043" lon="0.82109">
        <ele>184.3</ele>
        <time>2016-05-15T14:37:18Z</time>
      </trkpt>
      <trkpt lat="44.39046" lon="0.82112">
        <ele>183.9</ele>
        <time>2016-05-15T14:37:19Z</time>
      </trkpt>
      <trkpt lat="44.39057" lon="0.82126">
        <ele>182.7</ele>
        <time>2016-05-15T14:37:22Z</time>
      </trkpt>
      <trkpt lat="44.39063" lon="0.82131">
        <ele>182.4</ele>
        <time>2016-05-15T14:37:23Z</time>
      </trkpt>
      <trkpt lat="44.39074" lon="0.82145">
        <ele>182.2</ele>
        <time>2016-05-15T14:37:25Z</time>
      </trkpt>
      <trkpt lat="44.39088" lon="0.82162">
        <ele>182.4</ele>
        <time>2016-05-15T14:37:27Z</time>
      </trkpt>
      <trkpt lat="44.39102" lon="0.82183">
        <ele>183.2</ele>
        <time>2016-05-15T14:37:29Z</time>
      </trkpt>
      <trkpt lat="44.39117" lon="0.82206">
        <ele>184.6</ele>
        <time>2016-05-15T14:37:31Z</time>
      </trkpt>
      <trkpt lat="44.39124" lon="0.82218">
        <ele>185.6</ele>
        <time>2016-05-15T14:37:32Z</time>
      </trkpt>
      <trkpt lat="44.39131" lon="0.8223">
        <ele>185.4</ele>
        <time>2016-05-15T14:37:33Z</time>
      </trkpt>
      <trkpt lat="44.39147" lon="0.82256">
        <ele>184</ele>
        <time>2016-05-15T14:37:35Z</time>
      </trkpt>
      <trkpt lat="44.39154" lon="0.82269">
        <ele>183.3</ele>
        <time>2016-05-15T14:37:36Z</time>
      </trkpt>
      <trkpt lat="44.39161" lon="0.82283">
        <ele>182.7</ele>
        <time>2016-05-15T14:37:37Z</time>
      </trkpt>
      <trkpt lat="44.39169" lon="0.82297">
        <ele>181.8</ele>
        <time>2016-05-15T14:37:38Z</time>
      </trkpt>
      <trkpt lat="44.39176" lon="0.82311">
        <ele>180.3</ele>
        <time>2016-05-15T14:37:39Z</time>
      </trkpt>
      <trkpt lat="44.39185" lon="0.82324">
        <ele>178.1</ele>
        <time>2016-05-15T14:37:40Z</time>
      </trkpt>
      <trkpt lat="44.39194" lon="0.82336">
        <ele>175.6</ele>
        <time>2016-05-15T14:37:41Z</time>
      </trkpt>
      <trkpt lat="44.39205" lon="0.82348">
        <ele>172.5</ele>
        <time>2016-05-15T14:37:42Z</time>
      </trkpt>
      <trkpt lat="44.39229" lon="0.82371">
        <ele>167.5</ele>
        <time>2016-05-15T14:37:44Z</time>
      </trkpt>
      <trkpt lat="44.39241" lon="0.82382">
        <ele>165.5</ele>
        <time>2016-05-15T14:37:45Z</time>
      </trkpt>
      <trkpt lat="44.39252" lon="0.82394">
        <ele>163.7</ele>
        <time>2016-05-15T14:37:46Z</time>
      </trkpt>
      <trkpt lat="44.39263" lon="0.82405">
        <ele>161.6</ele>
        <time>2016-05-15T14:37:47Z</time>
      </trkpt>
      <trkpt lat="44.39273" lon="0.82416">
        <ele>159.4</ele>
        <time>2016-05-15T14:37:48Z</time>
      </trkpt>
      <trkpt lat="44.39283" lon="0.82429">
        <ele>157.2</ele>
        <time>2016-05-15T14:37:49Z</time>
      </trkpt>
      <trkpt lat="44.39291" lon="0.82443">
        <ele>155.4</ele>
        <time>2016-05-15T14:37:50Z</time>
      </trkpt>
      <trkpt lat="44.39307" lon="0.82473">
        <ele>153.9</ele>
        <time>2016-05-15T14:37:52Z</time>
      </trkpt>
      <trkpt lat="44.39325" lon="0.82499">
        <ele>152.3</ele>
        <time>2016-05-15T14:37:54Z</time>
      </trkpt>
      <trkpt lat="44.39341" lon="0.82523">
        <ele>150.3</ele>
        <time>2016-05-15T14:37:56Z</time>
      </trkpt>
      <trkpt lat="44.39348" lon="0.82536">
        <ele>149.8</ele>
        <time>2016-05-15T14:37:57Z</time>
      </trkpt>
      <trkpt lat="44.39357" lon="0.82565">
        <ele>149.8</ele>
        <time>2016-05-15T14:37:59Z</time>
      </trkpt>
      <trkpt lat="44.39359" lon="0.82582">
        <ele>150.7</ele>
        <time>2016-05-15T14:38:00Z</time>
      </trkpt>
      <trkpt lat="44.39363" lon="0.82615">
        <ele>152.2</ele>
        <time>2016-05-15T14:38:02Z</time>
      </trkpt>
      <trkpt lat="44.39364" lon="0.82632">
        <ele>152.4</ele>
        <time>2016-05-15T14:38:03Z</time>
      </trkpt>
      <trkpt lat="44.39368" lon="0.82648">
        <ele>150.9</ele>
        <time>2016-05-15T14:38:04Z</time>
      </trkpt>
      <trkpt lat="44.39372" lon="0.82665">
        <ele>149</ele>
        <time>2016-05-15T14:38:05Z</time>
      </trkpt>
      <trkpt lat="44.39377" lon="0.82682">
        <ele>146.8</ele>
        <time>2016-05-15T14:38:06Z</time>
      </trkpt>
      <trkpt lat="44.39382" lon="0.82699">
        <ele>144.7</ele>
        <time>2016-05-15T14:38:07Z</time>
      </trkpt>
      <trkpt lat="44.39396" lon="0.82732">
        <ele>140.9</ele>
        <time>2016-05-15T14:38:09Z</time>
      </trkpt>
      <trkpt lat="44.39402" lon="0.82749">
        <ele>139.3</ele>
        <time>2016-05-15T14:38:10Z</time>
      </trkpt>
      <trkpt lat="44.39408" lon="0.82766">
        <ele>137.8</ele>
        <time>2016-05-15T14:38:11Z</time>
      </trkpt>
      <trkpt lat="44.39414" lon="0.82783">
        <ele>136.3</ele>
        <time>2016-05-15T14:38:12Z</time>
      </trkpt>
      <trkpt lat="44.3942" lon="0.82799">
        <ele>134.7</ele>
        <time>2016-05-15T14:38:13Z</time>
      </trkpt>
      <trkpt lat="44.39426" lon="0.82815">
        <ele>132.9</ele>
        <time>2016-05-15T14:38:14Z</time>
      </trkpt>
      <trkpt lat="44.39434" lon="0.82831">
        <ele>130.8</ele>
        <time>2016-05-15T14:38:15Z</time>
      </trkpt>
      <trkpt lat="44.39442" lon="0.82846">
        <ele>128.2</ele>
        <time>2016-05-15T14:38:16Z</time>
      </trkpt>
      <trkpt lat="44.39452" lon="0.8286">
        <ele>125.3</ele>
        <time>2016-05-15T14:38:17Z</time>
      </trkpt>
      <trkpt lat="44.39462" lon="0.82874">
        <ele>122.3</ele>
        <time>2016-05-15T14:38:18Z</time>
      </trkpt>
      <trkpt lat="44.39474" lon="0.82887">
        <ele>120.6</ele>
        <time>2016-05-15T14:38:19Z</time>
      </trkpt>
      <trkpt lat="44.39486" lon="0.82898">
        <ele>118.8</ele>
        <time>2016-05-15T14:38:20Z</time>
      </trkpt>
      <trkpt lat="44.395" lon="0.82909">
        <ele>116.8</ele>
        <time>2016-05-15T14:38:21Z</time>
      </trkpt>
      <trkpt lat="44.39526" lon="0.82929">
        <ele>112.9</ele>
        <time>2016-05-15T14:38:23Z</time>
      </trkpt>
      <trkpt lat="44.39538" lon="0.82939">
        <ele>111.3</ele>
        <time>2016-05-15T14:38:24Z</time>
      </trkpt>
      <trkpt lat="44.39551" lon="0.8295">
        <ele>109.8</ele>
        <time>2016-05-15T14:38:25Z</time>
      </trkpt>
      <trkpt lat="44.39563" lon="0.82959">
        <ele>108.5</ele>
        <time>2016-05-15T14:38:26Z</time>
      </trkpt>
      <trkpt lat="44.39576" lon="0.82969">
        <ele>107.2</ele>
        <time>2016-05-15T14:38:27Z</time>
      </trkpt>
      <trkpt lat="44.39588" lon="0.82979">
        <ele>105.8</ele>
        <time>2016-05-15T14:38:28Z</time>
      </trkpt>
      <trkpt lat="44.39601" lon="0.82989">
        <ele>104.2</ele>
        <time>2016-05-15T14:38:29Z</time>
      </trkpt>
      <trkpt lat="44.39613" lon="0.83">
        <ele>102.7</ele>
        <time>2016-05-15T14:38:30Z</time>
      </trkpt>
      <trkpt lat="44.39627" lon="0.83011">
        <ele>100.8</ele>
        <time>2016-05-15T14:38:31Z</time>
      </trkpt>
      <trkpt lat="44.3964" lon="0.83022">
        <ele>98.3</ele>
        <time>2016-05-15T14:38:32Z</time>
      </trkpt>
      <trkpt lat="44.39654" lon="0.83034">
        <ele>95.6</ele>
        <time>2016-05-15T14:38:33Z</time>
      </trkpt>
      <trkpt lat="44.39669" lon="0.83046">
        <ele>92.7</ele>
        <time>2016-05-15T14:38:34Z</time>
      </trkpt>
      <trkpt lat="44.39684" lon="0.83057">
        <ele>89.2</ele>
        <time>2016-05-15T14:38:35Z</time>
      </trkpt>
      <trkpt lat="44.39701" lon="0.8307">
        <ele>85.4</ele>
        <time>2016-05-15T14:38:36Z</time>
      </trkpt>
      <trkpt lat="44.39719" lon="0.83083">
        <ele>82.1</ele>
        <time>2016-05-15T14:38:37Z</time>
      </trkpt>
      <trkpt lat="44.39737" lon="0.83096">
        <ele>79.1</ele>
        <time>2016-05-15T14:38:38Z</time>
      </trkpt>
      <trkpt lat="44.39753" lon="0.83108">
        <ele>76.4</ele>
        <time>2016-05-15T14:38:39Z</time>
      </trkpt>
      <trkpt lat="44.39771" lon="0.83119">
        <ele>73.6</ele>
        <time>2016-05-15T14:38:40Z</time>
      </trkpt>
      <trkpt lat="44.39786" lon="0.83131">
        <ele>71.4</ele>
        <time>2016-05-15T14:38:41Z</time>
      </trkpt>
      <trkpt lat="44.39812" lon="0.83154">
        <ele>70.4</ele>
        <time>2016-05-15T14:38:43Z</time>
      </trkpt>
      <trkpt lat="44.39852" lon="0.83199">
        <ele>70.7</ele>
        <time>2016-05-15T14:38:47Z</time>
      </trkpt>
      <trkpt lat="44.39862" lon="0.83213">
        <ele>70.8</ele>
        <time>2016-05-15T14:38:49Z</time>
      </trkpt>
      <trkpt lat="44.39865" lon="0.83217">
        <ele>70.7</ele>
        <time>2016-05-15T14:38:50Z</time>
      </trkpt>
      <trkpt lat="44.39867" lon="0.83221">
        <ele>70.8</ele>
        <time>2016-05-15T14:38:52Z</time>
      </trkpt>
      <trkpt lat="44.39866" lon="0.8322">
        <ele>70.8</ele>
        <time>2016-05-15T14:38:53Z</time>
      </trkpt>
      <trkpt lat="44.39869" lon="0.83225">
        <ele>70.8</ele>
        <time>2016-05-15T14:40:14Z</time>
      </trkpt>
      <trkpt lat="44.3987" lon="0.83227">
        <ele>70.9</ele>
        <time>2016-05-15T14:40:15Z</time>
      </trkpt>
      <trkpt lat="44.39875" lon="0.83234">
        <ele>70.9</ele>
        <time>2016-05-15T14:40:18Z</time>
      </trkpt>
      <trkpt lat="44.39877" lon="0.83237">
        <ele>71</ele>
        <time>2016-05-15T14:40:19Z</time>
      </trkpt>
      <trkpt lat="44.39879" lon="0.83241">
        <ele>71.1</ele>
        <time>2016-05-15T14:40:20Z</time>
      </trkpt>
      <trkpt lat="44.39894" lon="0.83266">
        <ele>72</ele>
        <time>2016-05-15T14:40:27Z</time>
      </trkpt>
      <trkpt lat="44.39899" lon="0.83274">
        <ele>72.3</ele>
        <time>2016-05-15T14:40:29Z</time>
      </trkpt>
      <trkpt lat="44.3991" lon="0.83289">
        <ele>72.9</ele>
        <time>2016-05-15T14:40:33Z</time>
      </trkpt>
      <trkpt lat="44.39933" lon="0.83323">
        <ele>73.1</ele>
        <time>2016-05-15T14:40:41Z</time>
      </trkpt>
      <trkpt lat="44.39949" lon="0.83342">
        <ele>73.1</ele>
        <time>2016-05-15T14:40:46Z</time>
      </trkpt>
      <trkpt lat="44.39972" lon="0.83367">
        <ele>72.5</ele>
        <time>2016-05-15T14:40:52Z</time>
      </trkpt>
      <trkpt lat="44.40006" lon="0.83405">
        <ele>71.9</ele>
        <time>2016-05-15T14:41:00Z</time>
      </trkpt>
      <trkpt lat="44.40016" lon="0.83431">
        <ele>72.3</ele>
        <time>2016-05-15T14:41:04Z</time>
      </trkpt>
      <trkpt lat="44.40018" lon="0.83438">
        <ele>72.5</ele>
        <time>2016-05-15T14:41:05Z</time>
      </trkpt>
      <trkpt lat="44.40025" lon="0.83459">
        <ele>73</ele>
        <time>2016-05-15T14:41:08Z</time>
      </trkpt>
      <trkpt lat="44.40042" lon="0.83515">
        <ele>73</ele>
        <time>2016-05-15T14:41:16Z</time>
      </trkpt>
      <trkpt lat="44.40051" lon="0.83543">
        <ele>72.9</ele>
        <time>2016-05-15T14:41:20Z</time>
      </trkpt>
      <trkpt lat="44.40058" lon="0.83564">
        <ele>73</ele>
        <time>2016-05-15T14:41:23Z</time>
      </trkpt>
      <trkpt lat="44.40081" lon="0.83636">
        <ele>73.2</ele>
        <time>2016-05-15T14:41:33Z</time>
      </trkpt>
      <trkpt lat="44.40085" lon="0.83651">
        <ele>73.3</ele>
        <time>2016-05-15T14:41:35Z</time>
      </trkpt>
      <trkpt lat="44.40087" lon="0.83658">
        <ele>73.3</ele>
        <time>2016-05-15T14:41:36Z</time>
      </trkpt>
      <trkpt lat="44.4009" lon="0.83673">
        <ele>73.4</ele>
        <time>2016-05-15T14:41:38Z</time>
      </trkpt>
      <trkpt lat="44.40093" lon="0.8368">
        <ele>73.4</ele>
        <time>2016-05-15T14:41:39Z</time>
      </trkpt>
      <trkpt lat="44.40096" lon="0.83694">
        <ele>73.5</ele>
        <time>2016-05-15T14:41:41Z</time>
      </trkpt>
      <trkpt lat="44.40109" lon="0.83736">
        <ele>73.6</ele>
        <time>2016-05-15T14:41:48Z</time>
      </trkpt>
      <trkpt lat="44.40124" lon="0.83787">
        <ele>73.9</ele>
        <time>2016-05-15T14:41:56Z</time>
      </trkpt>
      <trkpt lat="44.4014" lon="0.83846">
        <ele>73.4</ele>
        <time>2016-05-15T14:42:05Z</time>
      </trkpt>
      <trkpt lat="44.40148" lon="0.83879">
        <ele>73.1</ele>
        <time>2016-05-15T14:42:10Z</time>
      </trkpt>
      <trkpt lat="44.40153" lon="0.83914">
        <ele>72.5</ele>
        <time>2016-05-15T14:42:15Z</time>
      </trkpt>
      <trkpt lat="44.40165" lon="0.83974">
        <ele>72.3</ele>
        <time>2016-05-15T14:42:24Z</time>
      </trkpt>
      <trkpt lat="44.40177" lon="0.84041">
        <ele>73.6</ele>
        <time>2016-05-15T14:42:34Z</time>
      </trkpt>
      <trkpt lat="44.40183" lon="0.84067">
        <ele>74.1</ele>
        <time>2016-05-15T14:42:38Z</time>
      </trkpt>
      <trkpt lat="44.40191" lon="0.841">
        <ele>74.6</ele>
        <time>2016-05-15T14:42:43Z</time>
      </trkpt>
      <trkpt lat="44.40207" lon="0.84158">
        <ele>75.4</ele>
        <time>2016-05-15T14:42:52Z</time>
      </trkpt>
      <trkpt lat="44.40209" lon="0.84165">
        <ele>75.5</ele>
        <time>2016-05-15T14:42:53Z</time>
      </trkpt>
      <trkpt lat="44.40225" lon="0.8421">
        <ele>76</ele>
        <time>2016-05-15T14:43:00Z</time>
      </trkpt>
      <trkpt lat="44.40253" lon="0.84269">
        <ele>75.9</ele>
        <time>2016-05-15T14:43:09Z</time>
      </trkpt>
      <trkpt lat="44.40286" lon="0.84338">
        <ele>75.2</ele>
        <time>2016-05-15T14:43:19Z</time>
      </trkpt>
      <trkpt lat="44.40307" lon="0.84401">
        <ele>74.9</ele>
        <time>2016-05-15T14:43:27Z</time>
      </trkpt>
      <trkpt lat="44.4033" lon="0.84474">
        <ele>75.3</ele>
        <time>2016-05-15T14:43:36Z</time>
      </trkpt>
      <trkpt lat="44.40337" lon="0.84497">
        <ele>75.4</ele>
        <time>2016-05-15T14:43:39Z</time>
      </trkpt>
      <trkpt lat="44.40344" lon="0.84519">
        <ele>75.5</ele>
        <time>2016-05-15T14:43:42Z</time>
      </trkpt>
      <trkpt lat="44.40355" lon="0.84556">
        <ele>75.4</ele>
        <time>2016-05-15T14:43:47Z</time>
      </trkpt>
      <trkpt lat="44.40378" lon="0.84629">
        <ele>74.9</ele>
        <time>2016-05-15T14:43:58Z</time>
      </trkpt>
      <trkpt lat="44.40392" lon="0.84684">
        <ele>74.2</ele>
        <time>2016-05-15T14:44:07Z</time>
      </trkpt>
      <trkpt lat="44.40399" lon="0.84716">
        <ele>74.1</ele>
        <time>2016-05-15T14:44:12Z</time>
      </trkpt>
      <trkpt lat="44.40405" lon="0.84741">
        <ele>74.4</ele>
        <time>2016-05-15T14:44:16Z</time>
      </trkpt>
      <trkpt lat="44.40422" lon="0.8482">
        <ele>75.5</ele>
        <time>2016-05-15T14:44:28Z</time>
      </trkpt>
      <trkpt lat="44.40429" lon="0.84852">
        <ele>76</ele>
        <time>2016-05-15T14:44:33Z</time>
      </trkpt>
      <trkpt lat="44.40437" lon="0.8489">
        <ele>76.6</ele>
        <time>2016-05-15T14:44:39Z</time>
      </trkpt>
      <trkpt lat="44.40449" lon="0.84947">
        <ele>77.7</ele>
        <time>2016-05-15T14:44:48Z</time>
      </trkpt>
      <trkpt lat="44.40452" lon="0.8496">
        <ele>78</ele>
        <time>2016-05-15T14:44:50Z</time>
      </trkpt>
      <trkpt lat="44.40464" lon="0.8501">
        <ele>78.5</ele>
        <time>2016-05-15T14:44:58Z</time>
      </trkpt>
      <trkpt lat="44.40474" lon="0.85059">
        <ele>79</ele>
        <time>2016-05-15T14:45:05Z</time>
      </trkpt>
      <trkpt lat="44.40479" lon="0.85086">
        <ele>79.1</ele>
        <time>2016-05-15T14:45:09Z</time>
      </trkpt>
      <trkpt lat="44.40496" lon="0.85159">
        <ele>79.9</ele>
        <time>2016-05-15T14:45:20Z</time>
      </trkpt>
      <trkpt lat="44.40497" lon="0.85165">
        <ele>80.1</ele>
        <time>2016-05-15T14:45:21Z</time>
      </trkpt>
      <trkpt lat="44.40504" lon="0.85191">
        <ele>80.4</ele>
        <time>2016-05-15T14:45:25Z</time>
      </trkpt>
      <trkpt lat="44.40519" lon="0.85235">
        <ele>80.5</ele>
        <time>2016-05-15T14:45:32Z</time>
      </trkpt>
      <trkpt lat="44.40533" lon="0.85262">
        <ele>80.6</ele>
        <time>2016-05-15T14:45:37Z</time>
      </trkpt>
      <trkpt lat="44.40542" lon="0.85277">
        <ele>80.7</ele>
        <time>2016-05-15T14:45:40Z</time>
      </trkpt>
      <trkpt lat="44.4057" lon="0.85319">
        <ele>82.1</ele>
        <time>2016-05-15T14:45:49Z</time>
      </trkpt>
      <trkpt lat="44.40596" lon="0.85353">
        <ele>83.1</ele>
        <time>2016-05-15T14:45:57Z</time>
      </trkpt>
      <trkpt lat="44.40609" lon="0.85369">
        <ele>83.3</ele>
        <time>2016-05-15T14:46:01Z</time>
      </trkpt>
      <trkpt lat="44.40632" lon="0.85397">
        <ele>83.7</ele>
        <time>2016-05-15T14:46:08Z</time>
      </trkpt>
      <trkpt lat="44.40643" lon="0.85413">
        <ele>84</ele>
        <time>2016-05-15T14:46:12Z</time>
      </trkpt>
      <trkpt lat="44.40655" lon="0.85428">
        <ele>84.4</ele>
        <time>2016-05-15T14:46:16Z</time>
      </trkpt>
      <trkpt lat="44.40671" lon="0.85447">
        <ele>85</ele>
        <time>2016-05-15T14:46:21Z</time>
      </trkpt>
      <trkpt lat="44.40685" lon="0.85467">
        <ele>86</ele>
        <time>2016-05-15T14:46:26Z</time>
      </trkpt>
      <trkpt lat="44.40699" lon="0.85486">
        <ele>87.4</ele>
        <time>2016-05-15T14:46:31Z</time>
      </trkpt>
      <trkpt lat="44.40716" lon="0.85506">
        <ele>88.7</ele>
        <time>2016-05-15T14:46:37Z</time>
      </trkpt>
      <trkpt lat="44.40727" lon="0.8552">
        <ele>89.4</ele>
        <time>2016-05-15T14:46:41Z</time>
      </trkpt>
      <trkpt lat="44.40736" lon="0.8553">
        <ele>89.8</ele>
        <time>2016-05-15T14:46:44Z</time>
      </trkpt>
      <trkpt lat="44.40753" lon="0.85555">
        <ele>90.5</ele>
        <time>2016-05-15T14:46:51Z</time>
      </trkpt>
      <trkpt lat="44.4076" lon="0.85566">
        <ele>90.7</ele>
        <time>2016-05-15T14:46:54Z</time>
      </trkpt>
      <trkpt lat="44.40774" lon="0.8559">
        <ele>91.2</ele>
        <time>2016-05-15T14:47:00Z</time>
      </trkpt>
      <trkpt lat="44.40778" lon="0.85598">
        <ele>91.4</ele>
        <time>2016-05-15T14:47:02Z</time>
      </trkpt>
      <trkpt lat="44.40795" lon="0.85631">
        <ele>92.2</ele>
        <time>2016-05-15T14:47:10Z</time>
      </trkpt>
      <trkpt lat="44.40796" lon="0.85635">
        <ele>92.3</ele>
        <time>2016-05-15T14:47:11Z</time>
      </trkpt>
      <trkpt lat="44.40806" lon="0.85667">
        <ele>93.7</ele>
        <time>2016-05-15T14:47:18Z</time>
      </trkpt>
      <trkpt lat="44.40808" lon="0.85678">
        <ele>94.2</ele>
        <time>2016-05-15T14:47:20Z</time>
      </trkpt>
      <trkpt lat="44.40813" lon="0.85715">
        <ele>95.9</ele>
        <time>2016-05-15T14:47:27Z</time>
      </trkpt>
      <trkpt lat="44.40814" lon="0.8572">
        <ele>96.1</ele>
        <time>2016-05-15T14:47:28Z</time>
      </trkpt>
      <trkpt lat="44.40817" lon="0.85769">
        <ele>97.2</ele>
        <time>2016-05-15T14:47:37Z</time>
      </trkpt>
      <trkpt lat="44.40818" lon="0.85774">
        <ele>97.3</ele>
        <time>2016-05-15T14:47:38Z</time>
      </trkpt>
      <trkpt lat="44.40824" lon="0.8581">
        <ele>98.1</ele>
        <time>2016-05-15T14:47:45Z</time>
      </trkpt>
      <trkpt lat="44.40827" lon="0.85819">
        <ele>98.3</ele>
        <time>2016-05-15T14:47:47Z</time>
      </trkpt>
      <trkpt lat="44.4084" lon="0.85847">
        <ele>98.7</ele>
        <time>2016-05-15T14:47:54Z</time>
      </trkpt>
      <trkpt lat="44.40842" lon="0.85851">
        <ele>98.7</ele>
        <time>2016-05-15T14:47:55Z</time>
      </trkpt>
      <trkpt lat="44.40857" lon="0.85868">
        <ele>98.6</ele>
        <time>2016-05-15T14:48:01Z</time>
      </trkpt>
      <trkpt lat="44.40859" lon="0.85871">
        <ele>98.6</ele>
        <time>2016-05-15T14:48:02Z</time>
      </trkpt>
      <trkpt lat="44.40877" lon="0.85887">
        <ele>98.7</ele>
        <time>2016-05-15T14:48:08Z</time>
      </trkpt>
      <trkpt lat="44.40884" lon="0.85891">
        <ele>99.1</ele>
        <time>2016-05-15T14:48:10Z</time>
      </trkpt>
      <trkpt lat="44.409" lon="0.85902">
        <ele>99.8</ele>
        <time>2016-05-15T14:48:15Z</time>
      </trkpt>
      <trkpt lat="44.40911" lon="0.85908">
        <ele>100.2</ele>
        <time>2016-05-15T14:48:18Z</time>
      </trkpt>
      <trkpt lat="44.40927" lon="0.85917">
        <ele>100.8</ele>
        <time>2016-05-15T14:48:23Z</time>
      </trkpt>
      <trkpt lat="44.40934" lon="0.85921">
        <ele>101.1</ele>
        <time>2016-05-15T14:48:25Z</time>
      </trkpt>
      <trkpt lat="44.40958" lon="0.85932">
        <ele>101.7</ele>
        <time>2016-05-15T14:48:32Z</time>
      </trkpt>
      <trkpt lat="44.40967" lon="0.85937">
        <ele>102</ele>
        <time>2016-05-15T14:48:35Z</time>
      </trkpt>
      <trkpt lat="44.40989" lon="0.85954">
        <ele>102.8</ele>
        <time>2016-05-15T14:48:42Z</time>
      </trkpt>
      <trkpt lat="44.41001" lon="0.85972">
        <ele>103.6</ele>
        <time>2016-05-15T14:48:47Z</time>
      </trkpt>
      <trkpt lat="44.41006" lon="0.85982">
        <ele>103.9</ele>
        <time>2016-05-15T14:48:49Z</time>
      </trkpt>
      <trkpt lat="44.41019" lon="0.86021">
        <ele>105.1</ele>
        <time>2016-05-15T14:48:56Z</time>
      </trkpt>
      <trkpt lat="44.41039" lon="0.8608">
        <ele>105.6</ele>
        <time>2016-05-15T14:49:05Z</time>
      </trkpt>
      <trkpt lat="44.41056" lon="0.86132">
        <ele>105.2</ele>
        <time>2016-05-15T14:49:12Z</time>
      </trkpt>
      <trkpt lat="44.41058" lon="0.8614">
        <ele>105.1</ele>
        <time>2016-05-15T14:49:13Z</time>
      </trkpt>
      <trkpt lat="44.41081" lon="0.86209">
        <ele>104.1</ele>
        <time>2016-05-15T14:49:22Z</time>
      </trkpt>
      <trkpt lat="44.41095" lon="0.86249">
        <ele>103.2</ele>
        <time>2016-05-15T14:49:27Z</time>
      </trkpt>
      <trkpt lat="44.41106" lon="0.86281">
        <ele>102.4</ele>
        <time>2016-05-15T14:49:31Z</time>
      </trkpt>
      <trkpt lat="44.4113" lon="0.86353">
        <ele>101.1</ele>
        <time>2016-05-15T14:49:40Z</time>
      </trkpt>
      <trkpt lat="44.41154" lon="0.86425">
        <ele>102.5</ele>
        <time>2016-05-15T14:49:50Z</time>
      </trkpt>
      <trkpt lat="44.41168" lon="0.86467">
        <ele>103.7</ele>
        <time>2016-05-15T14:49:57Z</time>
      </trkpt>
      <trkpt lat="44.41172" lon="0.86479">
        <ele>103.9</ele>
        <time>2016-05-15T14:49:59Z</time>
      </trkpt>
      <trkpt lat="44.41181" lon="0.86508">
        <ele>104.4</ele>
        <time>2016-05-15T14:50:04Z</time>
      </trkpt>
      <trkpt lat="44.41187" lon="0.86535">
        <ele>104.7</ele>
        <time>2016-05-15T14:50:09Z</time>
      </trkpt>
      <trkpt lat="44.41191" lon="0.86558">
        <ele>105.2</ele>
        <time>2016-05-15T14:50:13Z</time>
      </trkpt>
      <trkpt lat="44.41194" lon="0.86587">
        <ele>105.9</ele>
        <time>2016-05-15T14:50:18Z</time>
      </trkpt>
      <trkpt lat="44.41194" lon="0.86605">
        <ele>106.3</ele>
        <time>2016-05-15T14:50:21Z</time>
      </trkpt>
      <trkpt lat="44.41195" lon="0.86647">
        <ele>106.6</ele>
        <time>2016-05-15T14:50:29Z</time>
      </trkpt>
      <trkpt lat="44.41191" lon="0.8669">
        <ele>106.2</ele>
        <time>2016-05-15T14:50:38Z</time>
      </trkpt>
      <trkpt lat="44.41184" lon="0.86725">
        <ele>106</ele>
        <time>2016-05-15T14:50:44Z</time>
      </trkpt>
      <trkpt lat="44.41172" lon="0.86763">
        <ele>106</ele>
        <time>2016-05-15T14:50:49Z</time>
      </trkpt>
      <trkpt lat="44.41158" lon="0.86797">
        <ele>105.9</ele>
        <time>2016-05-15T14:50:53Z</time>
      </trkpt>
      <trkpt lat="44.41148" lon="0.86814">
        <ele>105.5</ele>
        <time>2016-05-15T14:50:55Z</time>
      </trkpt>
      <trkpt lat="44.41132" lon="0.86838">
        <ele>104.9</ele>
        <time>2016-05-15T14:50:58Z</time>
      </trkpt>
      <trkpt lat="44.41108" lon="0.86868">
        <ele>104.8</ele>
        <time>2016-05-15T14:51:02Z</time>
      </trkpt>
      <trkpt lat="44.41095" lon="0.86884">
        <ele>104.8</ele>
        <time>2016-05-15T14:51:04Z</time>
      </trkpt>
      <trkpt lat="44.41061" lon="0.86926">
        <ele>103.3</ele>
        <time>2016-05-15T14:51:09Z</time>
      </trkpt>
      <trkpt lat="44.41035" lon="0.86965">
        <ele>100.9</ele>
        <time>2016-05-15T14:51:13Z</time>
      </trkpt>
      <trkpt lat="44.41023" lon="0.86987">
        <ele>100</ele>
        <time>2016-05-15T14:51:15Z</time>
      </trkpt>
      <trkpt lat="44.41014" lon="0.87013">
        <ele>99</ele>
        <time>2016-05-15T14:51:17Z</time>
      </trkpt>
      <trkpt lat="44.41012" lon="0.87027">
        <ele>98.3</ele>
        <time>2016-05-15T14:51:18Z</time>
      </trkpt>
      <trkpt lat="44.41009" lon="0.87041">
        <ele>97.6</ele>
        <time>2016-05-15T14:51:19Z</time>
      </trkpt>
      <trkpt lat="44.41006" lon="0.87071">
        <ele>96.2</ele>
        <time>2016-05-15T14:51:21Z</time>
      </trkpt>
      <trkpt lat="44.41005" lon="0.87085">
        <ele>95.4</ele>
        <time>2016-05-15T14:51:22Z</time>
      </trkpt>
      <trkpt lat="44.41005" lon="0.871">
        <ele>94.7</ele>
        <time>2016-05-15T14:51:23Z</time>
      </trkpt>
      <trkpt lat="44.41009" lon="0.87155">
        <ele>92.4</ele>
        <time>2016-05-15T14:51:27Z</time>
      </trkpt>
      <trkpt lat="44.41021" lon="0.87217">
        <ele>90.9</ele>
        <time>2016-05-15T14:51:32Z</time>
      </trkpt>
      <trkpt lat="44.41031" lon="0.87265">
        <ele>91.6</ele>
        <time>2016-05-15T14:51:37Z</time>
      </trkpt>
      <trkpt lat="44.41033" lon="0.87274">
        <ele>91.7</ele>
        <time>2016-05-15T14:51:38Z</time>
      </trkpt>
      <trkpt lat="44.41038" lon="0.87298">
        <ele>92.2</ele>
        <time>2016-05-15T14:51:41Z</time>
      </trkpt>
      <trkpt lat="44.41043" lon="0.87322">
        <ele>92.8</ele>
        <time>2016-05-15T14:51:44Z</time>
      </trkpt>
      <trkpt lat="44.41046" lon="0.87337">
        <ele>93.3</ele>
        <time>2016-05-15T14:51:46Z</time>
      </trkpt>
      <trkpt lat="44.41056" lon="0.87386">
        <ele>95.1</ele>
        <time>2016-05-15T14:51:53Z</time>
      </trkpt>
      <trkpt lat="44.41062" lon="0.87418">
        <ele>96.4</ele>
        <time>2016-05-15T14:51:58Z</time>
      </trkpt>
      <trkpt lat="44.41066" lon="0.87442">
        <ele>97.3</ele>
        <time>2016-05-15T14:52:02Z</time>
      </trkpt>
      <trkpt lat="44.41072" lon="0.87471">
        <ele>98.5</ele>
        <time>2016-05-15T14:52:06Z</time>
      </trkpt>
      <trkpt lat="44.41073" lon="0.87479">
        <ele>98.8</ele>
        <time>2016-05-15T14:52:07Z</time>
      </trkpt>
      <trkpt lat="44.41079" lon="0.87505">
        <ele>99.8</ele>
        <time>2016-05-15T14:52:10Z</time>
      </trkpt>
      <trkpt lat="44.41084" lon="0.87532">
        <ele>100.7</ele>
        <time>2016-05-15T14:52:13Z</time>
      </trkpt>
      <trkpt lat="44.4109" lon="0.87566">
        <ele>101.8</ele>
        <time>2016-05-15T14:52:17Z</time>
      </trkpt>
      <trkpt lat="44.41094" lon="0.87582">
        <ele>102.2</ele>
        <time>2016-05-15T14:52:19Z</time>
      </trkpt>
      <trkpt lat="44.41097" lon="0.87596">
        <ele>102.6</ele>
        <time>2016-05-15T14:52:21Z</time>
      </trkpt>
      <trkpt lat="44.41103" lon="0.87624">
        <ele>103.4</ele>
        <time>2016-05-15T14:52:25Z</time>
      </trkpt>
      <trkpt lat="44.41104" lon="0.8763">
        <ele>103.7</ele>
        <time>2016-05-15T14:52:26Z</time>
      </trkpt>
      <trkpt lat="44.41108" lon="0.87655">
        <ele>104.7</ele>
        <time>2016-05-15T14:52:31Z</time>
      </trkpt>
      <trkpt lat="44.4111" lon="0.87663">
        <ele>105</ele>
        <time>2016-05-15T14:52:33Z</time>
      </trkpt>
      <trkpt lat="44.41112" lon="0.87674">
        <ele>105.4</ele>
        <time>2016-05-15T14:52:36Z</time>
      </trkpt>
      <trkpt lat="44.41114" lon="0.87679">
        <ele>105.7</ele>
        <time>2016-05-15T14:52:38Z</time>
      </trkpt>
      <trkpt lat="44.41119" lon="0.877">
        <ele>106.5</ele>
        <time>2016-05-15T14:52:46Z</time>
      </trkpt>
      <trkpt lat="44.41122" lon="0.87714">
        <ele>107</ele>
        <time>2016-05-15T14:52:51Z</time>
      </trkpt>
      <trkpt lat="44.41124" lon="0.87732">
        <ele>107.3</ele>
        <time>2016-05-15T14:52:56Z</time>
      </trkpt>
      <trkpt lat="44.41129" lon="0.8776">
        <ele>107.5</ele>
        <time>2016-05-15T14:53:03Z</time>
      </trkpt>
      <trkpt lat="44.41131" lon="0.87786">
        <ele>107.7</ele>
        <time>2016-05-15T14:53:08Z</time>
      </trkpt>
      <trkpt lat="44.41131" lon="0.8779">
        <ele>107.8</ele>
        <time>2016-05-15T14:53:09Z</time>
      </trkpt>
      <trkpt lat="44.41132" lon="0.87819">
        <ele>107.7</ele>
        <time>2016-05-15T14:53:16Z</time>
      </trkpt>
      <trkpt lat="44.41132" lon="0.8783">
        <ele>107.6</ele>
        <time>2016-05-15T14:53:18Z</time>
      </trkpt>
      <trkpt lat="44.4113" lon="0.87849">
        <ele>107.7</ele>
        <time>2016-05-15T14:53:21Z</time>
      </trkpt>
      <trkpt lat="44.4113" lon="0.87875">
        <ele>107.7</ele>
        <time>2016-05-15T14:53:25Z</time>
      </trkpt>
      <trkpt lat="44.41128" lon="0.8789">
        <ele>106.9</ele>
        <time>2016-05-15T14:53:27Z</time>
      </trkpt>
      <trkpt lat="44.41126" lon="0.87914">
        <ele>105.6</ele>
        <time>2016-05-15T14:53:30Z</time>
      </trkpt>
      <trkpt lat="44.41124" lon="0.8794">
        <ele>104.2</ele>
        <time>2016-05-15T14:53:33Z</time>
      </trkpt>
      <trkpt lat="44.41121" lon="0.87978">
        <ele>102.6</ele>
        <time>2016-05-15T14:53:37Z</time>
      </trkpt>
      <trkpt lat="44.4112" lon="0.88008">
        <ele>101.6</ele>
        <time>2016-05-15T14:53:40Z</time>
      </trkpt>
      <trkpt lat="44.41119" lon="0.8804">
        <ele>100.6</ele>
        <time>2016-05-15T14:53:43Z</time>
      </trkpt>
      <trkpt lat="44.4112" lon="0.88083">
        <ele>99.9</ele>
        <time>2016-05-15T14:53:47Z</time>
      </trkpt>
      <trkpt lat="44.41123" lon="0.88129">
        <ele>99.2</ele>
        <time>2016-05-15T14:53:51Z</time>
      </trkpt>
      <trkpt lat="44.41129" lon="0.88177">
        <ele>99.4</ele>
        <time>2016-05-15T14:53:55Z</time>
      </trkpt>
      <trkpt lat="44.41132" lon="0.88201">
        <ele>99.4</ele>
        <time>2016-05-15T14:53:57Z</time>
      </trkpt>
      <trkpt lat="44.41143" lon="0.88251">
        <ele>97.3</ele>
        <time>2016-05-15T14:54:01Z</time>
      </trkpt>
      <trkpt lat="44.41147" lon="0.88263">
        <ele>96.6</ele>
        <time>2016-05-15T14:54:02Z</time>
      </trkpt>
      <trkpt lat="44.41161" lon="0.88301">
        <ele>94.9</ele>
        <time>2016-05-15T14:54:05Z</time>
      </trkpt>
      <trkpt lat="44.41176" lon="0.88338">
        <ele>93.8</ele>
        <time>2016-05-15T14:54:08Z</time>
      </trkpt>
      <trkpt lat="44.41193" lon="0.88373">
        <ele>92.3</ele>
        <time>2016-05-15T14:54:11Z</time>
      </trkpt>
      <trkpt lat="44.41198" lon="0.88385">
        <ele>92.2</ele>
        <time>2016-05-15T14:54:12Z</time>
      </trkpt>
      <trkpt lat="44.4123" lon="0.88452">
        <ele>92.8</ele>
        <time>2016-05-15T14:54:18Z</time>
      </trkpt>
      <trkpt lat="44.41256" lon="0.88509">
        <ele>91.9</ele>
        <time>2016-05-15T14:54:24Z</time>
      </trkpt>
      <trkpt lat="44.41259" lon="0.88517">
        <ele>91.9</ele>
        <time>2016-05-15T14:54:25Z</time>
      </trkpt>
      <trkpt lat="44.41273" lon="0.88546">
        <ele>92.2</ele>
        <time>2016-05-15T14:54:29Z</time>
      </trkpt>
      <trkpt lat="44.41276" lon="0.88553">
        <ele>92.6</ele>
        <time>2016-05-15T14:54:30Z</time>
      </trkpt>
      <trkpt lat="44.4129" lon="0.88583">
        <ele>94.4</ele>
        <time>2016-05-15T14:54:35Z</time>
      </trkpt>
      <trkpt lat="44.41293" lon="0.88588">
        <ele>94.8</ele>
        <time>2016-05-15T14:54:36Z</time>
      </trkpt>
      <trkpt lat="44.41305" lon="0.88617">
        <ele>96.6</ele>
        <time>2016-05-15T14:54:42Z</time>
      </trkpt>
      <trkpt lat="44.41307" lon="0.88621">
        <ele>96.8</ele>
        <time>2016-05-15T14:54:43Z</time>
      </trkpt>
      <trkpt lat="44.4131" lon="0.88625">
        <ele>97</ele>
        <time>2016-05-15T14:54:44Z</time>
      </trkpt>
      <trkpt lat="44.41311" lon="0.88629">
        <ele>97</ele>
        <time>2016-05-15T14:54:45Z</time>
      </trkpt>
      <trkpt lat="44.41316" lon="0.88641">
        <ele>96.9</ele>
        <time>2016-05-15T14:54:48Z</time>
      </trkpt>
      <trkpt lat="44.41319" lon="0.88648">
        <ele>96.9</ele>
        <time>2016-05-15T14:54:50Z</time>
      </trkpt>
      <trkpt lat="44.41328" lon="0.88666">
        <ele>96.9</ele>
        <time>2016-05-15T14:54:55Z</time>
      </trkpt>
      <trkpt lat="44.41333" lon="0.88677">
        <ele>97</ele>
        <time>2016-05-15T14:54:58Z</time>
      </trkpt>
      <trkpt lat="44.41337" lon="0.88684">
        <ele>97.1</ele>
        <time>2016-05-15T14:55:00Z</time>
      </trkpt>
      <trkpt lat="44.41345" lon="0.88702">
        <ele>97.3</ele>
        <time>2016-05-15T14:55:05Z</time>
      </trkpt>
      <trkpt lat="44.4135" lon="0.88713">
        <ele>97.4</ele>
        <time>2016-05-15T14:55:08Z</time>
      </trkpt>
      <trkpt lat="44.41357" lon="0.8873">
        <ele>97.5</ele>
        <time>2016-05-15T14:55:13Z</time>
      </trkpt>
      <trkpt lat="44.41359" lon="0.88734">
        <ele>97.5</ele>
        <time>2016-05-15T14:55:14Z</time>
      </trkpt>
      <trkpt lat="44.41363" lon="0.88743">
        <ele>97.6</ele>
        <time>2016-05-15T14:55:17Z</time>
      </trkpt>
      <trkpt lat="44.41367" lon="0.88753">
        <ele>97.8</ele>
        <time>2016-05-15T14:55:20Z</time>
      </trkpt>
      <trkpt lat="44.41376" lon="0.88773">
        <ele>98.1</ele>
        <time>2016-05-15T14:55:26Z</time>
      </trkpt>
      <trkpt lat="44.41391" lon="0.88803">
        <ele>98.9</ele>
        <time>2016-05-15T14:55:35Z</time>
      </trkpt>
      <trkpt lat="44.41394" lon="0.88809">
        <ele>99.1</ele>
        <time>2016-05-15T14:55:37Z</time>
      </trkpt>
      <trkpt lat="44.41406" lon="0.88835">
        <ele>99.8</ele>
        <time>2016-05-15T14:55:45Z</time>
      </trkpt>
      <trkpt lat="44.41407" lon="0.88839">
        <ele>99.9</ele>
        <time>2016-05-15T14:55:46Z</time>
      </trkpt>
      <trkpt lat="44.41418" lon="0.88862">
        <ele>100.5</ele>
        <time>2016-05-15T14:55:53Z</time>
      </trkpt>
      <trkpt lat="44.41425" lon="0.88877">
        <ele>100.8</ele>
        <time>2016-05-15T14:55:57Z</time>
      </trkpt>
      <trkpt lat="44.41438" lon="0.88907">
        <ele>102</ele>
        <time>2016-05-15T14:56:05Z</time>
      </trkpt>
      <trkpt lat="44.4144" lon="0.8891">
        <ele>102.2</ele>
        <time>2016-05-15T14:56:06Z</time>
      </trkpt>
      <trkpt lat="44.41451" lon="0.88935">
        <ele>103.2</ele>
        <time>2016-05-15T14:56:13Z</time>
      </trkpt>
      <trkpt lat="44.41463" lon="0.88959">
        <ele>104.3</ele>
        <time>2016-05-15T14:56:20Z</time>
      </trkpt>
      <trkpt lat="44.41465" lon="0.88967">
        <ele>104.7</ele>
        <time>2016-05-15T14:56:22Z</time>
      </trkpt>
      <trkpt lat="44.41475" lon="0.88988">
        <ele>105.8</ele>
        <time>2016-05-15T14:56:28Z</time>
      </trkpt>
      <trkpt lat="44.41478" lon="0.88995">
        <ele>106.2</ele>
        <time>2016-05-15T14:56:30Z</time>
      </trkpt>
      <trkpt lat="44.41487" lon="0.89014">
        <ele>107.1</ele>
        <time>2016-05-15T14:56:35Z</time>
      </trkpt>
      <trkpt lat="44.41491" lon="0.89021">
        <ele>107.5</ele>
        <time>2016-05-15T14:56:37Z</time>
      </trkpt>
      <trkpt lat="44.41506" lon="0.89049">
        <ele>108.8</ele>
        <time>2016-05-15T14:56:45Z</time>
      </trkpt>
      <trkpt lat="44.41508" lon="0.89052">
        <ele>108.9</ele>
        <time>2016-05-15T14:56:46Z</time>
      </trkpt>
      <trkpt lat="44.41522" lon="0.8908">
        <ele>109.6</ele>
        <time>2016-05-15T14:56:54Z</time>
      </trkpt>
      <trkpt lat="44.41541" lon="0.89111">
        <ele>110.1</ele>
        <time>2016-05-15T14:57:03Z</time>
      </trkpt>
      <trkpt lat="44.41558" lon="0.8914">
        <ele>110.8</ele>
        <time>2016-05-15T14:57:11Z</time>
      </trkpt>
      <trkpt lat="44.4156" lon="0.89144">
        <ele>110.9</ele>
        <time>2016-05-15T14:57:12Z</time>
      </trkpt>
      <trkpt lat="44.41575" lon="0.89169">
        <ele>111.7</ele>
        <time>2016-05-15T14:57:19Z</time>
      </trkpt>
      <trkpt lat="44.41579" lon="0.89176">
        <ele>111.9</ele>
        <time>2016-05-15T14:57:21Z</time>
      </trkpt>
      <trkpt lat="44.41593" lon="0.89201">
        <ele>112.7</ele>
        <time>2016-05-15T14:57:28Z</time>
      </trkpt>
      <trkpt lat="44.41599" lon="0.89212">
        <ele>113.1</ele>
        <time>2016-05-15T14:57:31Z</time>
      </trkpt>
      <trkpt lat="44.41615" lon="0.8924">
        <ele>114.3</ele>
        <time>2016-05-15T14:57:40Z</time>
      </trkpt>
      <trkpt lat="44.41617" lon="0.89243">
        <ele>114.4</ele>
        <time>2016-05-15T14:57:41Z</time>
      </trkpt>
      <trkpt lat="44.41632" lon="0.89271">
        <ele>115.4</ele>
        <time>2016-05-15T14:57:50Z</time>
      </trkpt>
      <trkpt lat="44.41634" lon="0.89273">
        <ele>115.4</ele>
        <time>2016-05-15T14:57:51Z</time>
      </trkpt>
      <trkpt lat="44.41649" lon="0.893">
        <ele>116.4</ele>
        <time>2016-05-15T14:58:00Z</time>
      </trkpt>
      <trkpt lat="44.41651" lon="0.89302">
        <ele>116.5</ele>
        <time>2016-05-15T14:58:01Z</time>
      </trkpt>
      <trkpt lat="44.41658" lon="0.89324">
        <ele>117.3</ele>
        <time>2016-05-15T14:58:08Z</time>
      </trkpt>
      <trkpt lat="44.41651" lon="0.89338">
        <ele>117.4</ele>
        <time>2016-05-15T14:58:13Z</time>
      </trkpt>
      <trkpt lat="44.41645" lon="0.89349">
        <ele>117.3</ele>
        <time>2016-05-15T14:58:18Z</time>
      </trkpt>
      <trkpt lat="44.41644" lon="0.8935">
        <ele>117.3</ele>
        <time>2016-05-15T14:58:19Z</time>
      </trkpt>
      <trkpt lat="44.41641" lon="0.89356">
        <ele>117.3</ele>
        <time>2016-05-15T14:58:23Z</time>
      </trkpt>
      <trkpt lat="44.4164" lon="0.89358">
        <ele>117.3</ele>
        <time>2016-05-15T14:58:25Z</time>
      </trkpt>
      <trkpt lat="44.41639" lon="0.89361">
        <ele>117.3</ele>
        <time>2016-05-15T14:58:31Z</time>
      </trkpt>
      <trkpt lat="44.41634" lon="0.89371">
        <ele>117.3</ele>
        <time>2016-05-15T14:59:30Z</time>
      </trkpt>
      <trkpt lat="44.41631" lon="0.89377">
        <ele>117.3</ele>
        <time>2016-05-15T14:59:32Z</time>
      </trkpt>
      <trkpt lat="44.41615" lon="0.89407">
        <ele>117.6</ele>
        <time>2016-05-15T14:59:40Z</time>
      </trkpt>
      <trkpt lat="44.41596" lon="0.89446">
        <ele>118.4</ele>
        <time>2016-05-15T14:59:49Z</time>
      </trkpt>
      <trkpt lat="44.41592" lon="0.89456">
        <ele>118.7</ele>
        <time>2016-05-15T14:59:51Z</time>
      </trkpt>
      <trkpt lat="44.41577" lon="0.89498">
        <ele>119.6</ele>
        <time>2016-05-15T14:59:59Z</time>
      </trkpt>
      <trkpt lat="44.41562" lon="0.89557">
        <ele>119.9</ele>
        <time>2016-05-15T15:00:09Z</time>
      </trkpt>
      <trkpt lat="44.41559" lon="0.89569">
        <ele>119.9</ele>
        <time>2016-05-15T15:00:11Z</time>
      </trkpt>
      <trkpt lat="44.41546" lon="0.89617">
        <ele>120.1</ele>
        <time>2016-05-15T15:00:19Z</time>
      </trkpt>
      <trkpt lat="44.41537" lon="0.89655">
        <ele>120.5</ele>
        <time>2016-05-15T15:00:26Z</time>
      </trkpt>
      <trkpt lat="44.41533" lon="0.89665">
        <ele>120.6</ele>
        <time>2016-05-15T15:00:28Z</time>
      </trkpt>
      <trkpt lat="44.41521" lon="0.89699">
        <ele>121.2</ele>
        <time>2016-05-15T15:00:35Z</time>
      </trkpt>
      <trkpt lat="44.41517" lon="0.89709">
        <ele>121.4</ele>
        <time>2016-05-15T15:00:37Z</time>
      </trkpt>
      <trkpt lat="44.415" lon="0.89743">
        <ele>122</ele>
        <time>2016-05-15T15:00:45Z</time>
      </trkpt>
      <trkpt lat="44.41486" lon="0.89768">
        <ele>122.1</ele>
        <time>2016-05-15T15:00:53Z</time>
      </trkpt>
      <trkpt lat="44.41477" lon="0.89783">
        <ele>122</ele>
        <time>2016-05-15T15:00:59Z</time>
      </trkpt>
      <trkpt lat="44.41475" lon="0.89788">
        <ele>121.9</ele>
        <time>2016-05-15T15:01:01Z</time>
      </trkpt>
      <trkpt lat="44.41462" lon="0.89809">
        <ele>121.4</ele>
        <time>2016-05-15T15:01:07Z</time>
      </trkpt>
      <trkpt lat="44.41449" lon="0.8983">
        <ele>120.7</ele>
        <time>2016-05-15T15:01:11Z</time>
      </trkpt>
      <trkpt lat="44.41445" lon="0.89836">
        <ele>120.5</ele>
        <time>2016-05-15T15:01:12Z</time>
      </trkpt>
      <trkpt lat="44.41435" lon="0.89855">
        <ele>120</ele>
        <time>2016-05-15T15:01:16Z</time>
      </trkpt>
      <trkpt lat="44.41432" lon="0.89859">
        <ele>119.9</ele>
        <time>2016-05-15T15:01:17Z</time>
      </trkpt>
      <trkpt lat="44.41422" lon="0.89876">
        <ele>119.4</ele>
        <time>2016-05-15T15:01:22Z</time>
      </trkpt>
      <trkpt lat="44.41421" lon="0.8988">
        <ele>119.4</ele>
        <time>2016-05-15T15:01:23Z</time>
      </trkpt>
      <trkpt lat="44.4142" lon="0.89895">
        <ele>119.7</ele>
        <time>2016-05-15T15:01:26Z</time>
      </trkpt>
      <trkpt lat="44.41427" lon="0.89912">
        <ele>120.6</ele>
        <time>2016-05-15T15:01:31Z</time>
      </trkpt>
      <trkpt lat="44.4143" lon="0.8992">
        <ele>121</ele>
        <time>2016-05-15T15:01:34Z</time>
      </trkpt>
      <trkpt lat="44.4143" lon="0.89923">
        <ele>121.1</ele>
        <time>2016-05-15T15:01:35Z</time>
      </trkpt>
      <trkpt lat="44.41429" lon="0.89929">
        <ele>121.2</ele>
        <time>2016-05-15T15:01:37Z</time>
      </trkpt>
      <trkpt lat="44.41429" lon="0.89932">
        <ele>121.3</ele>
        <time>2016-05-15T15:01:38Z</time>
      </trkpt>
      <trkpt lat="44.41431" lon="0.89939">
        <ele>121.6</ele>
        <time>2016-05-15T15:01:40Z</time>
      </trkpt>
      <trkpt lat="44.41432" lon="0.89946">
        <ele>121.8</ele>
        <time>2016-05-15T15:01:42Z</time>
      </trkpt>
      <trkpt lat="44.41433" lon="0.89953">
        <ele>122</ele>
        <time>2016-05-15T15:01:44Z</time>
      </trkpt>
      <trkpt lat="44.41433" lon="0.8996">
        <ele>122.2</ele>
        <time>2016-05-15T15:01:46Z</time>
      </trkpt>
      <trkpt lat="44.41433" lon="0.89971">
        <ele>122.3</ele>
        <time>2016-05-15T15:01:49Z</time>
      </trkpt>
      <trkpt lat="44.41434" lon="0.8999">
        <ele>122.5</ele>
        <time>2016-05-15T15:01:54Z</time>
      </trkpt>
      <trkpt lat="44.41435" lon="0.90001">
        <ele>122.6</ele>
        <time>2016-05-15T15:01:57Z</time>
      </trkpt>
      <trkpt lat="44.41435" lon="0.90016">
        <ele>122.7</ele>
        <time>2016-05-15T15:02:01Z</time>
      </trkpt>
      <trkpt lat="44.41437" lon="0.90037">
        <ele>123</ele>
        <time>2016-05-15T15:02:06Z</time>
      </trkpt>
      <trkpt lat="44.41439" lon="0.90053">
        <ele>123.4</ele>
        <time>2016-05-15T15:02:10Z</time>
      </trkpt>
      <trkpt lat="44.41442" lon="0.9007">
        <ele>124</ele>
        <time>2016-05-15T15:02:14Z</time>
      </trkpt>
      <trkpt lat="44.41448" lon="0.90094">
        <ele>124.9</ele>
        <time>2016-05-15T15:02:20Z</time>
      </trkpt>
      <trkpt lat="44.41451" lon="0.90101">
        <ele>125.2</ele>
        <time>2016-05-15T15:02:22Z</time>
      </trkpt>
      <trkpt lat="44.41465" lon="0.90133">
        <ele>126.9</ele>
        <time>2016-05-15T15:02:31Z</time>
      </trkpt>
      <trkpt lat="44.41468" lon="0.9014">
        <ele>127.3</ele>
        <time>2016-05-15T15:02:33Z</time>
      </trkpt>
      <trkpt lat="44.41477" lon="0.9016">
        <ele>128.6</ele>
        <time>2016-05-15T15:02:39Z</time>
      </trkpt>
      <trkpt lat="44.4149" lon="0.90186">
        <ele>130.2</ele>
        <time>2016-05-15T15:02:46Z</time>
      </trkpt>
      <trkpt lat="44.41494" lon="0.90197">
        <ele>130.8</ele>
        <time>2016-05-15T15:02:49Z</time>
      </trkpt>
      <trkpt lat="44.41502" lon="0.90234">
        <ele>131.5</ele>
        <time>2016-05-15T15:02:58Z</time>
      </trkpt>
      <trkpt lat="44.41503" lon="0.9026">
        <ele>131.4</ele>
        <time>2016-05-15T15:03:04Z</time>
      </trkpt>
      <trkpt lat="44.41502" lon="0.90291">
        <ele>131.1</ele>
        <time>2016-05-15T15:03:11Z</time>
      </trkpt>
      <trkpt lat="44.41502" lon="0.90299">
        <ele>131.3</ele>
        <time>2016-05-15T15:03:13Z</time>
      </trkpt>
      <trkpt lat="44.415" lon="0.9033">
        <ele>131.9</ele>
        <time>2016-05-15T15:03:20Z</time>
      </trkpt>
      <trkpt lat="44.415" lon="0.90334">
        <ele>132</ele>
        <time>2016-05-15T15:03:21Z</time>
      </trkpt>
      <trkpt lat="44.41498" lon="0.90357">
        <ele>132.5</ele>
        <time>2016-05-15T15:03:26Z</time>
      </trkpt>
      <trkpt lat="44.41497" lon="0.90371">
        <ele>132.7</ele>
        <time>2016-05-15T15:03:29Z</time>
      </trkpt>
      <trkpt lat="44.41494" lon="0.90402">
        <ele>133.3</ele>
        <time>2016-05-15T15:03:36Z</time>
      </trkpt>
      <trkpt lat="44.41493" lon="0.90407">
        <ele>133.4</ele>
        <time>2016-05-15T15:03:37Z</time>
      </trkpt>
      <trkpt lat="44.41489" lon="0.90446">
        <ele>134</ele>
        <time>2016-05-15T15:03:46Z</time>
      </trkpt>
      <trkpt lat="44.41486" lon="0.90481">
        <ele>135</ele>
        <time>2016-05-15T15:03:54Z</time>
      </trkpt>
      <trkpt lat="44.41485" lon="0.9049">
        <ele>135.3</ele>
        <time>2016-05-15T15:03:56Z</time>
      </trkpt>
      <trkpt lat="44.41483" lon="0.9052">
        <ele>136.5</ele>
        <time>2016-05-15T15:04:03Z</time>
      </trkpt>
      <trkpt lat="44.41482" lon="0.90533">
        <ele>137</ele>
        <time>2016-05-15T15:04:06Z</time>
      </trkpt>
      <trkpt lat="44.41478" lon="0.90565">
        <ele>137.7</ele>
        <time>2016-05-15T15:04:13Z</time>
      </trkpt>
      <trkpt lat="44.41478" lon="0.90577">
        <ele>138</ele>
        <time>2016-05-15T15:04:16Z</time>
      </trkpt>
      <trkpt lat="44.41475" lon="0.90604">
        <ele>138.5</ele>
        <time>2016-05-15T15:04:22Z</time>
      </trkpt>
      <trkpt lat="44.41473" lon="0.90627">
        <ele>138.9</ele>
        <time>2016-05-15T15:04:27Z</time>
      </trkpt>
      <trkpt lat="44.41471" lon="0.90654">
        <ele>139.5</ele>
        <time>2016-05-15T15:04:33Z</time>
      </trkpt>
      <trkpt lat="44.4147" lon="0.90663">
        <ele>139.7</ele>
        <time>2016-05-15T15:04:35Z</time>
      </trkpt>
      <trkpt lat="44.41466" lon="0.90707">
        <ele>140.5</ele>
        <time>2016-05-15T15:04:45Z</time>
      </trkpt>
      <trkpt lat="44.41466" lon="0.90712">
        <ele>140.6</ele>
        <time>2016-05-15T15:04:46Z</time>
      </trkpt>
      <trkpt lat="44.41463" lon="0.90745">
        <ele>141.6</ele>
        <time>2016-05-15T15:04:53Z</time>
      </trkpt>
      <trkpt lat="44.41458" lon="0.90786">
        <ele>142.8</ele>
        <time>2016-05-15T15:05:02Z</time>
      </trkpt>
      <trkpt lat="44.41454" lon="0.9083">
        <ele>144.2</ele>
        <time>2016-05-15T15:05:10Z</time>
      </trkpt>
      <trkpt lat="44.41451" lon="0.90847">
        <ele>144.8</ele>
        <time>2016-05-15T15:05:13Z</time>
      </trkpt>
      <trkpt lat="44.41445" lon="0.90868">
        <ele>145.4</ele>
        <time>2016-05-15T15:05:17Z</time>
      </trkpt>
      <trkpt lat="44.41435" lon="0.90887">
        <ele>145.7</ele>
        <time>2016-05-15T15:05:21Z</time>
      </trkpt>
      <trkpt lat="44.4143" lon="0.90895">
        <ele>145.7</ele>
        <time>2016-05-15T15:05:23Z</time>
      </trkpt>
      <trkpt lat="44.41406" lon="0.90921">
        <ele>146.5</ele>
        <time>2016-05-15T15:05:31Z</time>
      </trkpt>
      <trkpt lat="44.41396" lon="0.90932">
        <ele>147</ele>
        <time>2016-05-15T15:05:36Z</time>
      </trkpt>
      <trkpt lat="44.41395" lon="0.90933">
        <ele>147.1</ele>
        <time>2016-05-15T15:05:37Z</time>
      </trkpt>
      <trkpt lat="44.41393" lon="0.90935">
        <ele>147.3</ele>
        <time>2016-05-15T15:05:40Z</time>
      </trkpt>
      <trkpt lat="44.4139" lon="0.90939">
        <ele>147.5</ele>
        <time>2016-05-15T15:05:44Z</time>
      </trkpt>
      <trkpt lat="44.41388" lon="0.9094">
        <ele>147.6</ele>
        <time>2016-05-15T15:05:46Z</time>
      </trkpt>
      <trkpt lat="44.41383" lon="0.90948">
        <ele>148.1</ele>
        <time>2016-05-15T15:05:53Z</time>
      </trkpt>
      <trkpt lat="44.41379" lon="0.90955">
        <ele>148.7</ele>
        <time>2016-05-15T15:05:58Z</time>
      </trkpt>
      <trkpt lat="44.41377" lon="0.90957">
        <ele>148.8</ele>
        <time>2016-05-15T15:06:03Z</time>
      </trkpt>
      <trkpt lat="44.41374" lon="0.90964">
        <ele>148.8</ele>
        <time>2016-05-15T15:06:31Z</time>
      </trkpt>
      <trkpt lat="44.41369" lon="0.90972">
        <ele>149.2</ele>
        <time>2016-05-15T15:06:43Z</time>
      </trkpt>
      <trkpt lat="44.41368" lon="0.90976">
        <ele>149.2</ele>
        <time>2016-05-15T15:06:44Z</time>
      </trkpt>
      <trkpt lat="44.41356" lon="0.91001">
        <ele>149.7</ele>
        <time>2016-05-15T15:06:49Z</time>
      </trkpt>
      <trkpt lat="44.41353" lon="0.91007">
        <ele>149.8</ele>
        <time>2016-05-15T15:06:50Z</time>
      </trkpt>
      <trkpt lat="44.41339" lon="0.91036">
        <ele>150.5</ele>
        <time>2016-05-15T15:06:54Z</time>
      </trkpt>
      <trkpt lat="44.41335" lon="0.91044">
        <ele>150.6</ele>
        <time>2016-05-15T15:06:55Z</time>
      </trkpt>
      <trkpt lat="44.41314" lon="0.91073">
        <ele>150.7</ele>
        <time>2016-05-15T15:06:59Z</time>
      </trkpt>
      <trkpt lat="44.41308" lon="0.9108">
        <ele>150.9</ele>
        <time>2016-05-15T15:07:00Z</time>
      </trkpt>
      <trkpt lat="44.41277" lon="0.91118">
        <ele>154</ele>
        <time>2016-05-15T15:07:05Z</time>
      </trkpt>
      <trkpt lat="44.41268" lon="0.91139">
        <ele>154.9</ele>
        <time>2016-05-15T15:07:07Z</time>
      </trkpt>
      <trkpt lat="44.41265" lon="0.9115">
        <ele>155</ele>
        <time>2016-05-15T15:07:08Z</time>
      </trkpt>
      <trkpt lat="44.4126" lon="0.91174">
        <ele>154.4</ele>
        <time>2016-05-15T15:07:10Z</time>
      </trkpt>
      <trkpt lat="44.41258" lon="0.91185">
        <ele>154</ele>
        <time>2016-05-15T15:07:11Z</time>
      </trkpt>
      <trkpt lat="44.41253" lon="0.91209">
        <ele>153.2</ele>
        <time>2016-05-15T15:07:13Z</time>
      </trkpt>
      <trkpt lat="44.4125" lon="0.9122">
        <ele>152.8</ele>
        <time>2016-05-15T15:07:14Z</time>
      </trkpt>
      <trkpt lat="44.41241" lon="0.91241">
        <ele>152.5</ele>
        <time>2016-05-15T15:07:16Z</time>
      </trkpt>
      <trkpt lat="44.41235" lon="0.91251">
        <ele>152.5</ele>
        <time>2016-05-15T15:07:17Z</time>
      </trkpt>
      <trkpt lat="44.4123" lon="0.9126">
        <ele>152.6</ele>
        <time>2016-05-15T15:07:18Z</time>
      </trkpt>
      <trkpt lat="44.41218" lon="0.91279">
        <ele>152.7</ele>
        <time>2016-05-15T15:07:20Z</time>
      </trkpt>
      <trkpt lat="44.41203" lon="0.9131">
        <ele>152.2</ele>
        <time>2016-05-15T15:07:23Z</time>
      </trkpt>
      <trkpt lat="44.41198" lon="0.9132">
        <ele>152</ele>
        <time>2016-05-15T15:07:24Z</time>
      </trkpt>
      <trkpt lat="44.41183" lon="0.91365">
        <ele>149.6</ele>
        <time>2016-05-15T15:07:28Z</time>
      </trkpt>
      <trkpt lat="44.41179" lon="0.91377">
        <ele>148.7</ele>
        <time>2016-05-15T15:07:29Z</time>
      </trkpt>
      <trkpt lat="44.41177" lon="0.91389">
        <ele>148.3</ele>
        <time>2016-05-15T15:07:30Z</time>
      </trkpt>
      <trkpt lat="44.41173" lon="0.91414">
        <ele>147.1</ele>
        <time>2016-05-15T15:07:32Z</time>
      </trkpt>
      <trkpt lat="44.41173" lon="0.91427">
        <ele>146.2</ele>
        <time>2016-05-15T15:07:33Z</time>
      </trkpt>
      <trkpt lat="44.41172" lon="0.91452">
        <ele>144.5</ele>
        <time>2016-05-15T15:07:35Z</time>
      </trkpt>
      <trkpt lat="44.41168" lon="0.91476">
        <ele>142.7</ele>
        <time>2016-05-15T15:07:37Z</time>
      </trkpt>
      <trkpt lat="44.41163" lon="0.91487">
        <ele>142.3</ele>
        <time>2016-05-15T15:07:38Z</time>
      </trkpt>
      <trkpt lat="44.41156" lon="0.91495">
        <ele>142.1</ele>
        <time>2016-05-15T15:07:39Z</time>
      </trkpt>
      <trkpt lat="44.41141" lon="0.91508">
        <ele>142.7</ele>
        <time>2016-05-15T15:07:41Z</time>
      </trkpt>
      <trkpt lat="44.41133" lon="0.91513">
        <ele>143.1</ele>
        <time>2016-05-15T15:07:42Z</time>
      </trkpt>
      <trkpt lat="44.41093" lon="0.91539">
        <ele>143.5</ele>
        <time>2016-05-15T15:07:47Z</time>
      </trkpt>
      <trkpt lat="44.41073" lon="0.91566">
        <ele>141.4</ele>
        <time>2016-05-15T15:07:50Z</time>
      </trkpt>
      <trkpt lat="44.41064" lon="0.91601">
        <ele>137.5</ele>
        <time>2016-05-15T15:07:53Z</time>
      </trkpt>
      <trkpt lat="44.41062" lon="0.91625">
        <ele>134.4</ele>
        <time>2016-05-15T15:07:55Z</time>
      </trkpt>
      <trkpt lat="44.41059" lon="0.91637">
        <ele>133.5</ele>
        <time>2016-05-15T15:07:56Z</time>
      </trkpt>
      <trkpt lat="44.41055" lon="0.91647">
        <ele>133</ele>
        <time>2016-05-15T15:07:57Z</time>
      </trkpt>
      <trkpt lat="44.41033" lon="0.91667">
        <ele>133.1</ele>
        <time>2016-05-15T15:08:00Z</time>
      </trkpt>
      <trkpt lat="44.41025" lon="0.91671">
        <ele>133.8</ele>
        <time>2016-05-15T15:08:01Z</time>
      </trkpt>
      <trkpt lat="44.41008" lon="0.91679">
        <ele>135.3</ele>
        <time>2016-05-15T15:08:03Z</time>
      </trkpt>
      <trkpt lat="44.41" lon="0.91685">
        <ele>135.9</ele>
        <time>2016-05-15T15:08:04Z</time>
      </trkpt>
      <trkpt lat="44.40993" lon="0.91691">
        <ele>136.6</ele>
        <time>2016-05-15T15:08:05Z</time>
      </trkpt>
      <trkpt lat="44.40973" lon="0.91718">
        <ele>137.5</ele>
        <time>2016-05-15T15:08:08Z</time>
      </trkpt>
      <trkpt lat="44.40968" lon="0.91729">
        <ele>137.2</ele>
        <time>2016-05-15T15:08:09Z</time>
      </trkpt>
      <trkpt lat="44.40958" lon="0.91765">
        <ele>135</ele>
        <time>2016-05-15T15:08:12Z</time>
      </trkpt>
      <trkpt lat="44.40954" lon="0.9179">
        <ele>132.8</ele>
        <time>2016-05-15T15:08:14Z</time>
      </trkpt>
      <trkpt lat="44.40952" lon="0.91803">
        <ele>132</ele>
        <time>2016-05-15T15:08:15Z</time>
      </trkpt>
      <trkpt lat="44.40948" lon="0.91828">
        <ele>130.6</ele>
        <time>2016-05-15T15:08:17Z</time>
      </trkpt>
      <trkpt lat="44.40942" lon="0.91853">
        <ele>129.3</ele>
        <time>2016-05-15T15:08:19Z</time>
      </trkpt>
      <trkpt lat="44.40938" lon="0.91865">
        <ele>128.6</ele>
        <time>2016-05-15T15:08:20Z</time>
      </trkpt>
      <trkpt lat="44.40933" lon="0.91877">
        <ele>128.1</ele>
        <time>2016-05-15T15:08:21Z</time>
      </trkpt>
      <trkpt lat="44.40916" lon="0.91924">
        <ele>126.6</ele>
        <time>2016-05-15T15:08:25Z</time>
      </trkpt>
      <trkpt lat="44.40913" lon="0.91937">
        <ele>126</ele>
        <time>2016-05-15T15:08:26Z</time>
      </trkpt>
      <trkpt lat="44.40909" lon="0.91976">
        <ele>124.3</ele>
        <time>2016-05-15T15:08:29Z</time>
      </trkpt>
      <trkpt lat="44.40909" lon="0.91989">
        <ele>123.7</ele>
        <time>2016-05-15T15:08:30Z</time>
      </trkpt>
      <trkpt lat="44.40912" lon="0.92026">
        <ele>122</ele>
        <time>2016-05-15T15:08:33Z</time>
      </trkpt>
      <trkpt lat="44.40914" lon="0.92038">
        <ele>121.4</ele>
        <time>2016-05-15T15:08:34Z</time>
      </trkpt>
      <trkpt lat="44.40922" lon="0.92072">
        <ele>120.9</ele>
        <time>2016-05-15T15:08:37Z</time>
      </trkpt>
      <trkpt lat="44.40926" lon="0.92082">
        <ele>120.8</ele>
        <time>2016-05-15T15:08:38Z</time>
      </trkpt>
      <trkpt lat="44.40933" lon="0.92102">
        <ele>120.9</ele>
        <time>2016-05-15T15:08:40Z</time>
      </trkpt>
      <trkpt lat="44.40943" lon="0.92128">
        <ele>121.3</ele>
        <time>2016-05-15T15:08:43Z</time>
      </trkpt>
      <trkpt lat="44.40946" lon="0.92136">
        <ele>121.6</ele>
        <time>2016-05-15T15:08:44Z</time>
      </trkpt>
      <trkpt lat="44.40952" lon="0.92157">
        <ele>122.2</ele>
        <time>2016-05-15T15:08:47Z</time>
      </trkpt>
      <trkpt lat="44.40953" lon="0.92162">
        <ele>122.4</ele>
        <time>2016-05-15T15:08:48Z</time>
      </trkpt>
      <trkpt lat="44.40954" lon="0.92168">
        <ele>122.6</ele>
        <time>2016-05-15T15:08:49Z</time>
      </trkpt>
      <trkpt lat="44.40956" lon="0.92181">
        <ele>123.1</ele>
        <time>2016-05-15T15:08:52Z</time>
      </trkpt>
      <trkpt lat="44.40956" lon="0.92184">
        <ele>123.2</ele>
        <time>2016-05-15T15:08:53Z</time>
      </trkpt>
      <trkpt lat="44.40956" lon="0.92191">
        <ele>123.4</ele>
        <time>2016-05-15T15:08:56Z</time>
      </trkpt>
      <trkpt lat="44.40956" lon="0.92194">
        <ele>123.6</ele>
        <time>2016-05-15T15:08:58Z</time>
      </trkpt>
      <trkpt lat="44.40955" lon="0.92199">
        <ele>123.8</ele>
        <time>2016-05-15T15:09:02Z</time>
      </trkpt>
      <trkpt lat="44.40955" lon="0.922">
        <ele>123.8</ele>
        <time>2016-05-15T15:09:04Z</time>
      </trkpt>
      <trkpt lat="44.40957" lon="0.92209">
        <ele>124</ele>
        <time>2016-05-15T15:09:53Z</time>
      </trkpt>
      <trkpt lat="44.40957" lon="0.92214">
        <ele>124.3</ele>
        <time>2016-05-15T15:09:55Z</time>
      </trkpt>
      <trkpt lat="44.40957" lon="0.9223">
        <ele>125.1</ele>
        <time>2016-05-15T15:09:59Z</time>
      </trkpt>
      <trkpt lat="44.40956" lon="0.92258">
        <ele>126.4</ele>
        <time>2016-05-15T15:10:05Z</time>
      </trkpt>
      <trkpt lat="44.40956" lon="0.92261">
        <ele>126.6</ele>
        <time>2016-05-15T15:10:06Z</time>
      </trkpt>
      <trkpt lat="44.40954" lon="0.92273">
        <ele>127.2</ele>
        <time>2016-05-15T15:10:10Z</time>
      </trkpt>
      <trkpt lat="44.40951" lon="0.92288">
        <ele>128.1</ele>
        <time>2016-05-15T15:10:15Z</time>
      </trkpt>
      <trkpt lat="44.40948" lon="0.92309">
        <ele>128.2</ele>
        <time>2016-05-15T15:10:21Z</time>
      </trkpt>
      <trkpt lat="44.40942" lon="0.92337">
        <ele>128.3</ele>
        <time>2016-05-15T15:10:27Z</time>
      </trkpt>
      <trkpt lat="44.40932" lon="0.92372">
        <ele>128.6</ele>
        <time>2016-05-15T15:10:33Z</time>
      </trkpt>
      <trkpt lat="44.4093" lon="0.92387">
        <ele>128.3</ele>
        <time>2016-05-15T15:10:35Z</time>
      </trkpt>
      <trkpt lat="44.40926" lon="0.92402">
        <ele>127.9</ele>
        <time>2016-05-15T15:10:37Z</time>
      </trkpt>
      <trkpt lat="44.40925" lon="0.9241">
        <ele>127.7</ele>
        <time>2016-05-15T15:10:38Z</time>
      </trkpt>
      <trkpt lat="44.40922" lon="0.92446">
        <ele>126.7</ele>
        <time>2016-05-15T15:10:42Z</time>
      </trkpt>
      <trkpt lat="44.40921" lon="0.92464">
        <ele>126.1</ele>
        <time>2016-05-15T15:10:44Z</time>
      </trkpt>
      <trkpt lat="44.40924" lon="0.92512">
        <ele>125.3</ele>
        <time>2016-05-15T15:10:49Z</time>
      </trkpt>
      <trkpt lat="44.40928" lon="0.92531">
        <ele>124.7</ele>
        <time>2016-05-15T15:10:51Z</time>
      </trkpt>
      <trkpt lat="44.40934" lon="0.9256">
        <ele>124</ele>
        <time>2016-05-15T15:10:54Z</time>
      </trkpt>
      <trkpt lat="44.40943" lon="0.92589">
        <ele>123.2</ele>
        <time>2016-05-15T15:10:57Z</time>
      </trkpt>
      <trkpt lat="44.40966" lon="0.92655">
        <ele>121.9</ele>
        <time>2016-05-15T15:11:04Z</time>
      </trkpt>
      <trkpt lat="44.4098" lon="0.927">
        <ele>121.9</ele>
        <time>2016-05-15T15:11:09Z</time>
      </trkpt>
      <trkpt lat="44.40997" lon="0.92754">
        <ele>122.8</ele>
        <time>2016-05-15T15:11:16Z</time>
      </trkpt>
      <trkpt lat="44.40999" lon="0.9276">
        <ele>123</ele>
        <time>2016-05-15T15:11:17Z</time>
      </trkpt>
      <trkpt lat="44.41" lon="0.92767">
        <ele>123.1</ele>
        <time>2016-05-15T15:11:18Z</time>
      </trkpt>
      <trkpt lat="44.41001" lon="0.92786">
        <ele>123.7</ele>
        <time>2016-05-15T15:11:21Z</time>
      </trkpt>
      <trkpt lat="44.41001" lon="0.92798">
        <ele>124.2</ele>
        <time>2016-05-15T15:11:23Z</time>
      </trkpt>
      <trkpt lat="44.40996" lon="0.92819">
        <ele>125.4</ele>
        <time>2016-05-15T15:11:27Z</time>
      </trkpt>
      <trkpt lat="44.40985" lon="0.92843">
        <ele>127.3</ele>
        <time>2016-05-15T15:11:33Z</time>
      </trkpt>
      <trkpt lat="44.40983" lon="0.92846">
        <ele>127.7</ele>
        <time>2016-05-15T15:11:34Z</time>
      </trkpt>
      <trkpt lat="44.40975" lon="0.92857">
        <ele>128.8</ele>
        <time>2016-05-15T15:11:37Z</time>
      </trkpt>
      <trkpt lat="44.40964" lon="0.9287">
        <ele>130.3</ele>
        <time>2016-05-15T15:11:41Z</time>
      </trkpt>
      <trkpt lat="44.40951" lon="0.92887">
        <ele>131.8</ele>
        <time>2016-05-15T15:11:46Z</time>
      </trkpt>
      <trkpt lat="44.40942" lon="0.92899">
        <ele>132.9</ele>
        <time>2016-05-15T15:11:50Z</time>
      </trkpt>
      <trkpt lat="44.40938" lon="0.92905">
        <ele>133.3</ele>
        <time>2016-05-15T15:11:52Z</time>
      </trkpt>
      <trkpt lat="44.40928" lon="0.9292">
        <ele>134.7</ele>
        <time>2016-05-15T15:11:58Z</time>
      </trkpt>
      <trkpt lat="44.40918" lon="0.92936">
        <ele>136.1</ele>
        <time>2016-05-15T15:12:04Z</time>
      </trkpt>
      <trkpt lat="44.40911" lon="0.92952">
        <ele>137.4</ele>
        <time>2016-05-15T15:12:09Z</time>
      </trkpt>
      <trkpt lat="44.40907" lon="0.92963">
        <ele>137.9</ele>
        <time>2016-05-15T15:12:12Z</time>
      </trkpt>
      <trkpt lat="44.40904" lon="0.92973">
        <ele>138.3</ele>
        <time>2016-05-15T15:12:15Z</time>
      </trkpt>
      <trkpt lat="44.40901" lon="0.92986">
        <ele>138.7</ele>
        <time>2016-05-15T15:12:19Z</time>
      </trkpt>
      <trkpt lat="44.409" lon="0.92989">
        <ele>138.8</ele>
        <time>2016-05-15T15:12:20Z</time>
      </trkpt>
      <trkpt lat="44.40898" lon="0.93012">
        <ele>139.2</ele>
        <time>2016-05-15T15:12:26Z</time>
      </trkpt>
      <trkpt lat="44.40896" lon="0.93036">
        <ele>139.5</ele>
        <time>2016-05-15T15:12:32Z</time>
      </trkpt>
      <trkpt lat="44.40895" lon="0.93063">
        <ele>139.6</ele>
        <time>2016-05-15T15:12:38Z</time>
      </trkpt>
      <trkpt lat="44.40894" lon="0.93069">
        <ele>139.7</ele>
        <time>2016-05-15T15:12:42Z</time>
      </trkpt>
      <trkpt lat="44.40894" lon="0.93071">
        <ele>139.7</ele>
        <time>2016-05-15T15:12:47Z</time>
      </trkpt>
      <trkpt lat="44.40896" lon="0.93074">
        <ele>139.6</ele>
        <time>2016-05-15T15:17:16Z</time>
      </trkpt>
      <trkpt lat="44.40899" lon="0.93083">
        <ele>139.4</ele>
        <time>2016-05-15T15:17:19Z</time>
      </trkpt>
      <trkpt lat="44.40902" lon="0.93102">
        <ele>139.3</ele>
        <time>2016-05-15T15:17:23Z</time>
      </trkpt>
      <trkpt lat="44.40911" lon="0.93138">
        <ele>139.1</ele>
        <time>2016-05-15T15:17:30Z</time>
      </trkpt>
      <trkpt lat="44.40924" lon="0.93187">
        <ele>139.1</ele>
        <time>2016-05-15T15:17:39Z</time>
      </trkpt>
      <trkpt lat="44.40927" lon="0.93212">
        <ele>139.3</ele>
        <time>2016-05-15T15:17:44Z</time>
      </trkpt>
      <trkpt lat="44.40925" lon="0.93229">
        <ele>140.1</ele>
        <time>2016-05-15T15:17:47Z</time>
      </trkpt>
      <trkpt lat="44.40923" lon="0.9324">
        <ele>140.6</ele>
        <time>2016-05-15T15:17:49Z</time>
      </trkpt>
      <trkpt lat="44.4092" lon="0.9325">
        <ele>141.2</ele>
        <time>2016-05-15T15:17:51Z</time>
      </trkpt>
      <trkpt lat="44.40911" lon="0.93273">
        <ele>142.9</ele>
        <time>2016-05-15T15:17:56Z</time>
      </trkpt>
      <trkpt lat="44.40904" lon="0.93286">
        <ele>144</ele>
        <time>2016-05-15T15:17:59Z</time>
      </trkpt>
      <trkpt lat="44.40895" lon="0.93309">
        <ele>145.3</ele>
        <time>2016-05-15T15:18:04Z</time>
      </trkpt>
      <trkpt lat="44.40894" lon="0.93314">
        <ele>145.5</ele>
        <time>2016-05-15T15:18:05Z</time>
      </trkpt>
      <trkpt lat="44.40891" lon="0.93339">
        <ele>146.1</ele>
        <time>2016-05-15T15:18:10Z</time>
      </trkpt>
      <trkpt lat="44.4089" lon="0.93344">
        <ele>146.2</ele>
        <time>2016-05-15T15:18:11Z</time>
      </trkpt>
      <trkpt lat="44.40889" lon="0.9336">
        <ele>146.5</ele>
        <time>2016-05-15T15:18:14Z</time>
      </trkpt>
      <trkpt lat="44.40889" lon="0.93366">
        <ele>146.6</ele>
        <time>2016-05-15T15:18:15Z</time>
      </trkpt>
      <trkpt lat="44.40889" lon="0.93378">
        <ele>146.7</ele>
        <time>2016-05-15T15:18:17Z</time>
      </trkpt>
      <trkpt lat="44.40887" lon="0.93402">
        <ele>146.5</ele>
        <time>2016-05-15T15:18:21Z</time>
      </trkpt>
      <trkpt lat="44.40887" lon="0.93419">
        <ele>146.3</ele>
        <time>2016-05-15T15:18:24Z</time>
      </trkpt>
      <trkpt lat="44.40887" lon="0.9343">
        <ele>146.2</ele>
        <time>2016-05-15T15:18:26Z</time>
      </trkpt>
      <trkpt lat="44.40887" lon="0.93436">
        <ele>146.1</ele>
        <time>2016-05-15T15:18:27Z</time>
      </trkpt>
      <trkpt lat="44.40887" lon="0.93461">
        <ele>145.9</ele>
        <time>2016-05-15T15:18:31Z</time>
      </trkpt>
      <trkpt lat="44.40886" lon="0.93494">
        <ele>146.5</ele>
        <time>2016-05-15T15:18:37Z</time>
      </trkpt>
      <trkpt lat="44.40886" lon="0.93511">
        <ele>146.7</ele>
        <time>2016-05-15T15:18:43Z</time>
      </trkpt>
      <trkpt lat="44.40886" lon="0.93527">
        <ele>147</ele>
        <time>2016-05-15T15:18:49Z</time>
      </trkpt>
      <trkpt lat="44.40885" lon="0.93547">
        <ele>147.1</ele>
        <time>2016-05-15T15:18:56Z</time>
      </trkpt>
      <trkpt lat="44.40882" lon="0.93569">
        <ele>146.2</ele>
        <time>2016-05-15T15:19:02Z</time>
      </trkpt>
      <trkpt lat="44.40877" lon="0.936">
        <ele>145</ele>
        <time>2016-05-15T15:19:08Z</time>
      </trkpt>
      <trkpt lat="44.40875" lon="0.93607">
        <ele>144.7</ele>
        <time>2016-05-15T15:19:09Z</time>
      </trkpt>
      <trkpt lat="44.40866" lon="0.93635">
        <ele>144.8</ele>
        <time>2016-05-15T15:19:13Z</time>
      </trkpt>
      <trkpt lat="44.40864" lon="0.93643">
        <ele>145.1</ele>
        <time>2016-05-15T15:19:14Z</time>
      </trkpt>
      <trkpt lat="44.40846" lon="0.93709">
        <ele>147.7</ele>
        <time>2016-05-15T15:19:23Z</time>
      </trkpt>
      <trkpt lat="44.40841" lon="0.93726">
        <ele>148</ele>
        <time>2016-05-15T15:19:26Z</time>
      </trkpt>
      <trkpt lat="44.40836" lon="0.93744">
        <ele>148.3</ele>
        <time>2016-05-15T15:19:29Z</time>
      </trkpt>
      <trkpt lat="44.40829" lon="0.93767">
        <ele>149</ele>
        <time>2016-05-15T15:19:33Z</time>
      </trkpt>
      <trkpt lat="44.4082" lon="0.93795">
        <ele>149.9</ele>
        <time>2016-05-15T15:19:38Z</time>
      </trkpt>
      <trkpt lat="44.40815" lon="0.93813">
        <ele>149.9</ele>
        <time>2016-05-15T15:19:41Z</time>
      </trkpt>
      <trkpt lat="44.4081" lon="0.93833">
        <ele>150</ele>
        <time>2016-05-15T15:19:44Z</time>
      </trkpt>
      <trkpt lat="44.40808" lon="0.93839">
        <ele>150.1</ele>
        <time>2016-05-15T15:19:45Z</time>
      </trkpt>
      <trkpt lat="44.40793" lon="0.93892">
        <ele>150.9</ele>
        <time>2016-05-15T15:19:53Z</time>
      </trkpt>
      <trkpt lat="44.40783" lon="0.93924">
        <ele>152</ele>
        <time>2016-05-15T15:19:58Z</time>
      </trkpt>
      <trkpt lat="44.40772" lon="0.9396">
        <ele>153.3</ele>
        <time>2016-05-15T15:20:04Z</time>
      </trkpt>
      <trkpt lat="44.40766" lon="0.93984">
        <ele>153.9</ele>
        <time>2016-05-15T15:20:08Z</time>
      </trkpt>
      <trkpt lat="44.40758" lon="0.94012">
        <ele>154.7</ele>
        <time>2016-05-15T15:20:13Z</time>
      </trkpt>
      <trkpt lat="44.40747" lon="0.9405">
        <ele>155.8</ele>
        <time>2016-05-15T15:20:20Z</time>
      </trkpt>
      <trkpt lat="44.40739" lon="0.94078">
        <ele>156.5</ele>
        <time>2016-05-15T15:20:25Z</time>
      </trkpt>
      <trkpt lat="44.40728" lon="0.94119">
        <ele>157.4</ele>
        <time>2016-05-15T15:20:33Z</time>
      </trkpt>
      <trkpt lat="44.40724" lon="0.94135">
        <ele>157.7</ele>
        <time>2016-05-15T15:20:36Z</time>
      </trkpt>
      <trkpt lat="44.4072" lon="0.94149">
        <ele>157.9</ele>
        <time>2016-05-15T15:20:39Z</time>
      </trkpt>
      <trkpt lat="44.40713" lon="0.94176">
        <ele>158.2</ele>
        <time>2016-05-15T15:20:46Z</time>
      </trkpt>
      <trkpt lat="44.40703" lon="0.94215">
        <ele>159.4</ele>
        <time>2016-05-15T15:20:56Z</time>
      </trkpt>
      <trkpt lat="44.407" lon="0.94248">
        <ele>159.7</ele>
        <time>2016-05-15T15:21:02Z</time>
      </trkpt>
      <trkpt lat="44.40701" lon="0.9428">
        <ele>158.9</ele>
        <time>2016-05-15T15:21:07Z</time>
      </trkpt>
      <trkpt lat="44.40702" lon="0.94294">
        <ele>158.4</ele>
        <time>2016-05-15T15:21:09Z</time>
      </trkpt>
      <trkpt lat="44.40702" lon="0.943">
        <ele>157.9</ele>
        <time>2016-05-15T15:21:10Z</time>
      </trkpt>
      <trkpt lat="44.40708" lon="0.9435">
        <ele>153.6</ele>
        <time>2016-05-15T15:21:17Z</time>
      </trkpt>
      <trkpt lat="44.40709" lon="0.94365">
        <ele>152.5</ele>
        <time>2016-05-15T15:21:19Z</time>
      </trkpt>
      <trkpt lat="44.40713" lon="0.9442">
        <ele>151.2</ele>
        <time>2016-05-15T15:21:26Z</time>
      </trkpt>
      <trkpt lat="44.40712" lon="0.94428">
        <ele>151.1</ele>
        <time>2016-05-15T15:21:27Z</time>
      </trkpt>
      <trkpt lat="44.40705" lon="0.94478">
        <ele>151.3</ele>
        <time>2016-05-15T15:21:33Z</time>
      </trkpt>
      <trkpt lat="44.40702" lon="0.94494">
        <ele>151.4</ele>
        <time>2016-05-15T15:21:35Z</time>
      </trkpt>
      <trkpt lat="44.40694" lon="0.94544">
        <ele>151.9</ele>
        <time>2016-05-15T15:21:42Z</time>
      </trkpt>
      <trkpt lat="44.40689" lon="0.94571">
        <ele>152.1</ele>
        <time>2016-05-15T15:21:46Z</time>
      </trkpt>
      <trkpt lat="44.40686" lon="0.94595">
        <ele>152.3</ele>
        <time>2016-05-15T15:21:50Z</time>
      </trkpt>
      <trkpt lat="44.40685" lon="0.94626">
        <ele>152.4</ele>
        <time>2016-05-15T15:21:55Z</time>
      </trkpt>
      <trkpt lat="44.40686" lon="0.94644">
        <ele>152.3</ele>
        <time>2016-05-15T15:21:58Z</time>
      </trkpt>
      <trkpt lat="44.40691" lon="0.94697">
        <ele>152</ele>
        <time>2016-05-15T15:22:06Z</time>
      </trkpt>
      <trkpt lat="44.40695" lon="0.94735">
        <ele>151.5</ele>
        <time>2016-05-15T15:22:11Z</time>
      </trkpt>
      <trkpt lat="44.40696" lon="0.94751">
        <ele>151.2</ele>
        <time>2016-05-15T15:22:13Z</time>
      </trkpt>
      <trkpt lat="44.40701" lon="0.94809">
        <ele>150.1</ele>
        <time>2016-05-15T15:22:20Z</time>
      </trkpt>
      <trkpt lat="44.40705" lon="0.94852">
        <ele>149.4</ele>
        <time>2016-05-15T15:22:25Z</time>
      </trkpt>
      <trkpt lat="44.40707" lon="0.94871">
        <ele>149.1</ele>
        <time>2016-05-15T15:22:27Z</time>
      </trkpt>
      <trkpt lat="44.40714" lon="0.94955">
        <ele>146.9</ele>
        <time>2016-05-15T15:22:36Z</time>
      </trkpt>
      <trkpt lat="44.40721" lon="0.95024">
        <ele>146.5</ele>
        <time>2016-05-15T15:22:42Z</time>
      </trkpt>
      <trkpt lat="44.40725" lon="0.95071">
        <ele>146.4</ele>
        <time>2016-05-15T15:22:46Z</time>
      </trkpt>
      <trkpt lat="44.40727" lon="0.95105">
        <ele>146.4</ele>
        <time>2016-05-15T15:22:49Z</time>
      </trkpt>
      <trkpt lat="44.4073" lon="0.95179">
        <ele>146.1</ele>
        <time>2016-05-15T15:22:56Z</time>
      </trkpt>
      <trkpt lat="44.40729" lon="0.95198">
        <ele>146</ele>
        <time>2016-05-15T15:22:58Z</time>
      </trkpt>
      <trkpt lat="44.40728" lon="0.95244">
        <ele>146.3</ele>
        <time>2016-05-15T15:23:03Z</time>
      </trkpt>
      <trkpt lat="44.40728" lon="0.95253">
        <ele>146.3</ele>
        <time>2016-05-15T15:23:04Z</time>
      </trkpt>
      <trkpt lat="44.40726" lon="0.95291">
        <ele>146.6</ele>
        <time>2016-05-15T15:23:09Z</time>
      </trkpt>
      <trkpt lat="44.40726" lon="0.95297">
        <ele>146.7</ele>
        <time>2016-05-15T15:23:10Z</time>
      </trkpt>
      <trkpt lat="44.40725" lon="0.9532">
        <ele>147.1</ele>
        <time>2016-05-15T15:23:14Z</time>
      </trkpt>
      <trkpt lat="44.40725" lon="0.9533">
        <ele>147.3</ele>
        <time>2016-05-15T15:23:16Z</time>
      </trkpt>
      <trkpt lat="44.40724" lon="0.95351">
        <ele>147.7</ele>
        <time>2016-05-15T15:23:21Z</time>
      </trkpt>
      <trkpt lat="44.40724" lon="0.95356">
        <ele>147.8</ele>
        <time>2016-05-15T15:23:22Z</time>
      </trkpt>
      <trkpt lat="44.40726" lon="0.95381">
        <ele>148.2</ele>
        <time>2016-05-15T15:23:27Z</time>
      </trkpt>
      <trkpt lat="44.40728" lon="0.9539">
        <ele>148.2</ele>
        <time>2016-05-15T15:23:29Z</time>
      </trkpt>
      <trkpt lat="44.40733" lon="0.95407">
        <ele>148.3</ele>
        <time>2016-05-15T15:23:33Z</time>
      </trkpt>
      <trkpt lat="44.4074" lon="0.95423">
        <ele>148.4</ele>
        <time>2016-05-15T15:23:37Z</time>
      </trkpt>
      <trkpt lat="44.40741" lon="0.95427">
        <ele>148.5</ele>
        <time>2016-05-15T15:23:38Z</time>
      </trkpt>
      <trkpt lat="44.40751" lon="0.9545">
        <ele>149</ele>
        <time>2016-05-15T15:23:44Z</time>
      </trkpt>
      <trkpt lat="44.40756" lon="0.95461">
        <ele>149.3</ele>
        <time>2016-05-15T15:23:47Z</time>
      </trkpt>
      <trkpt lat="44.40765" lon="0.95483">
        <ele>149.8</ele>
        <time>2016-05-15T15:23:53Z</time>
      </trkpt>
      <trkpt lat="44.40769" lon="0.95493">
        <ele>150.1</ele>
        <time>2016-05-15T15:23:56Z</time>
      </trkpt>
      <trkpt lat="44.40775" lon="0.95504">
        <ele>150.5</ele>
        <time>2016-05-15T15:24:02Z</time>
      </trkpt>
      <trkpt lat="44.40775" lon="0.95506">
        <ele>150.5</ele>
        <time>2016-05-15T15:24:03Z</time>
      </trkpt>
      <trkpt lat="44.40777" lon="0.95513">
        <ele>150.7</ele>
        <time>2016-05-15T15:24:07Z</time>
      </trkpt>
      <trkpt lat="44.40783" lon="0.95527">
        <ele>151.2</ele>
        <time>2016-05-15T15:24:14Z</time>
      </trkpt>
      <trkpt lat="44.40786" lon="0.95533">
        <ele>151.5</ele>
        <time>2016-05-15T15:24:19Z</time>
      </trkpt>
      <trkpt lat="44.40787" lon="0.95541">
        <ele>151.6</ele>
        <time>2016-05-15T15:24:24Z</time>
      </trkpt>
      <trkpt lat="44.40788" lon="0.95544">
        <ele>151.6</ele>
        <time>2016-05-15T15:24:26Z</time>
      </trkpt>
      <trkpt lat="44.40789" lon="0.95546">
        <ele>151.7</ele>
        <time>2016-05-15T15:24:28Z</time>
      </trkpt>
      <trkpt lat="44.4079" lon="0.95551">
        <ele>151.5</ele>
        <time>2016-05-15T15:24:31Z</time>
      </trkpt>
      <trkpt lat="44.4079" lon="0.95554">
        <ele>151.5</ele>
        <time>2016-05-15T15:24:34Z</time>
      </trkpt>
      <trkpt lat="44.4079" lon="0.95555">
        <ele>151.4</ele>
        <time>2016-05-15T15:24:35Z</time>
      </trkpt>
      <trkpt lat="44.40791" lon="0.95558">
        <ele>151.3</ele>
        <time>2016-05-15T15:24:37Z</time>
      </trkpt>
      <trkpt lat="44.40791" lon="0.95563">
        <ele>151.2</ele>
        <time>2016-05-15T15:24:40Z</time>
      </trkpt>
      <trkpt lat="44.4079" lon="0.9557">
        <ele>150.9</ele>
        <time>2016-05-15T15:24:43Z</time>
      </trkpt>
      <trkpt lat="44.40789" lon="0.95576">
        <ele>150.6</ele>
        <time>2016-05-15T15:24:45Z</time>
      </trkpt>
      <trkpt lat="44.40786" lon="0.95593">
        <ele>149.7</ele>
        <time>2016-05-15T15:24:49Z</time>
      </trkpt>
      <trkpt lat="44.40785" lon="0.95599">
        <ele>149.4</ele>
        <time>2016-05-15T15:24:50Z</time>
      </trkpt>
      <trkpt lat="44.40775" lon="0.95643">
        <ele>147.6</ele>
        <time>2016-05-15T15:24:57Z</time>
      </trkpt>
      <trkpt lat="44.40774" lon="0.95651">
        <ele>147.4</ele>
        <time>2016-05-15T15:24:58Z</time>
      </trkpt>
      <trkpt lat="44.40766" lon="0.95682">
        <ele>146.7</ele>
        <time>2016-05-15T15:25:02Z</time>
      </trkpt>
      <trkpt lat="44.40761" lon="0.95699">
        <ele>146.1</ele>
        <time>2016-05-15T15:25:04Z</time>
      </trkpt>
      <trkpt lat="44.4075" lon="0.95723">
        <ele>145.2</ele>
        <time>2016-05-15T15:25:07Z</time>
      </trkpt>
      <trkpt lat="44.40741" lon="0.95738">
        <ele>144.5</ele>
        <time>2016-05-15T15:25:09Z</time>
      </trkpt>
      <trkpt lat="44.40724" lon="0.95771">
        <ele>143.3</ele>
        <time>2016-05-15T15:25:13Z</time>
      </trkpt>
      <trkpt lat="44.40706" lon="0.95807">
        <ele>142.4</ele>
        <time>2016-05-15T15:25:17Z</time>
      </trkpt>
      <trkpt lat="44.4069" lon="0.95854">
        <ele>143</ele>
        <time>2016-05-15T15:25:22Z</time>
      </trkpt>
      <trkpt lat="44.40684" lon="0.95891">
        <ele>144.1</ele>
        <time>2016-05-15T15:25:26Z</time>
      </trkpt>
      <trkpt lat="44.40682" lon="0.95907">
        <ele>145</ele>
        <time>2016-05-15T15:25:28Z</time>
      </trkpt>
      <trkpt lat="44.4067" lon="0.95951">
        <ele>147.1</ele>
        <time>2016-05-15T15:25:34Z</time>
      </trkpt>
      <trkpt lat="44.40667" lon="0.95957">
        <ele>147.4</ele>
        <time>2016-05-15T15:25:35Z</time>
      </trkpt>
      <trkpt lat="44.40655" lon="0.95986">
        <ele>147.3</ele>
        <time>2016-05-15T15:25:40Z</time>
      </trkpt>
      <trkpt lat="44.40646" lon="0.96024">
        <ele>147.4</ele>
        <time>2016-05-15T15:25:45Z</time>
      </trkpt>
      <trkpt lat="44.40646" lon="0.96033">
        <ele>147.4</ele>
        <time>2016-05-15T15:25:46Z</time>
      </trkpt>
      <trkpt lat="44.40645" lon="0.96042">
        <ele>147.5</ele>
        <time>2016-05-15T15:25:47Z</time>
      </trkpt>
      <trkpt lat="44.40641" lon="0.96103">
        <ele>145.4</ele>
        <time>2016-05-15T15:25:54Z</time>
      </trkpt>
      <trkpt lat="44.40637" lon="0.96156">
        <ele>144.4</ele>
        <time>2016-05-15T15:26:01Z</time>
      </trkpt>
      <trkpt lat="44.40633" lon="0.96194">
        <ele>143.9</ele>
        <time>2016-05-15T15:26:07Z</time>
      </trkpt>
      <trkpt lat="44.40633" lon="0.962">
        <ele>143.8</ele>
        <time>2016-05-15T15:26:08Z</time>
      </trkpt>
      <trkpt lat="44.40629" lon="0.96241">
        <ele>144.2</ele>
        <time>2016-05-15T15:26:15Z</time>
      </trkpt>
      <trkpt lat="44.40629" lon="0.96246">
        <ele>144.3</ele>
        <time>2016-05-15T15:26:16Z</time>
      </trkpt>
      <trkpt lat="44.40626" lon="0.96295">
        <ele>145.2</ele>
        <time>2016-05-15T15:26:26Z</time>
      </trkpt>
      <trkpt lat="44.40626" lon="0.9631">
        <ele>145.3</ele>
        <time>2016-05-15T15:26:30Z</time>
      </trkpt>
      <trkpt lat="44.40624" lon="0.96331">
        <ele>145.4</ele>
        <time>2016-05-15T15:26:35Z</time>
      </trkpt>
      <trkpt lat="44.40622" lon="0.96353">
        <ele>145.5</ele>
        <time>2016-05-15T15:26:39Z</time>
      </trkpt>
      <trkpt lat="44.4062" lon="0.96369">
        <ele>145.6</ele>
        <time>2016-05-15T15:26:41Z</time>
      </trkpt>
      <trkpt lat="44.40619" lon="0.96377">
        <ele>145.6</ele>
        <time>2016-05-15T15:26:42Z</time>
      </trkpt>
      <trkpt lat="44.40614" lon="0.96408">
        <ele>144.9</ele>
        <time>2016-05-15T15:26:45Z</time>
      </trkpt>
      <trkpt lat="44.4061" lon="0.9643">
        <ele>144.4</ele>
        <time>2016-05-15T15:26:47Z</time>
      </trkpt>
      <trkpt lat="44.40606" lon="0.96451">
        <ele>143.9</ele>
        <time>2016-05-15T15:26:49Z</time>
      </trkpt>
      <trkpt lat="44.40602" lon="0.96469">
        <ele>143.7</ele>
        <time>2016-05-15T15:26:51Z</time>
      </trkpt>
      <trkpt lat="44.40598" lon="0.96483">
        <ele>143.6</ele>
        <time>2016-05-15T15:26:54Z</time>
      </trkpt>
      <trkpt lat="44.40595" lon="0.9649">
        <ele>143.5</ele>
        <time>2016-05-15T15:26:58Z</time>
      </trkpt>
      <trkpt lat="44.40595" lon="0.96491">
        <ele>143.5</ele>
        <time>2016-05-15T15:26:59Z</time>
      </trkpt>
      <trkpt lat="44.4059" lon="0.96491">
        <ele>143.2</ele>
        <time>2016-05-15T15:36:13Z</time>
      </trkpt>
      <trkpt lat="44.40583" lon="0.96494">
        <ele>142.9</ele>
        <time>2016-05-15T15:36:17Z</time>
      </trkpt>
      <trkpt lat="44.4058" lon="0.96493">
        <ele>142.7</ele>
        <time>2016-05-15T15:36:18Z</time>
      </trkpt>
      <trkpt lat="44.40573" lon="0.96493">
        <ele>142.4</ele>
        <time>2016-05-15T15:36:20Z</time>
      </trkpt>
      <trkpt lat="44.4056" lon="0.96491">
        <ele>141.7</ele>
        <time>2016-05-15T15:36:23Z</time>
      </trkpt>
      <trkpt lat="44.40544" lon="0.96488">
        <ele>140.8</ele>
        <time>2016-05-15T15:36:26Z</time>
      </trkpt>
      <trkpt lat="44.40526" lon="0.96485">
        <ele>139.5</ele>
        <time>2016-05-15T15:36:29Z</time>
      </trkpt>
      <trkpt lat="44.40513" lon="0.96483">
        <ele>138.5</ele>
        <time>2016-05-15T15:36:31Z</time>
      </trkpt>
      <trkpt lat="44.40491" lon="0.96481">
        <ele>136.9</ele>
        <time>2016-05-15T15:36:34Z</time>
      </trkpt>
      <trkpt lat="44.40483" lon="0.96481">
        <ele>136.3</ele>
        <time>2016-05-15T15:36:35Z</time>
      </trkpt>
      <trkpt lat="44.40475" lon="0.96481">
        <ele>135.8</ele>
        <time>2016-05-15T15:36:36Z</time>
      </trkpt>
      <trkpt lat="44.40459" lon="0.96481">
        <ele>134.6</ele>
        <time>2016-05-15T15:36:38Z</time>
      </trkpt>
      <trkpt lat="44.40443" lon="0.96484">
        <ele>133.5</ele>
        <time>2016-05-15T15:36:40Z</time>
      </trkpt>
      <trkpt lat="44.40434" lon="0.96486">
        <ele>133</ele>
        <time>2016-05-15T15:36:41Z</time>
      </trkpt>
      <trkpt lat="44.40425" lon="0.96489">
        <ele>132.5</ele>
        <time>2016-05-15T15:36:42Z</time>
      </trkpt>
      <trkpt lat="44.40407" lon="0.96495">
        <ele>131.4</ele>
        <time>2016-05-15T15:36:44Z</time>
      </trkpt>
      <trkpt lat="44.40378" lon="0.96504">
        <ele>129.8</ele>
        <time>2016-05-15T15:36:47Z</time>
      </trkpt>
      <trkpt lat="44.40346" lon="0.96514">
        <ele>127.4</ele>
        <time>2016-05-15T15:36:50Z</time>
      </trkpt>
      <trkpt lat="44.40324" lon="0.9652">
        <ele>125.6</ele>
        <time>2016-05-15T15:36:52Z</time>
      </trkpt>
      <trkpt lat="44.40313" lon="0.96523">
        <ele>124.7</ele>
        <time>2016-05-15T15:36:53Z</time>
      </trkpt>
      <trkpt lat="44.40301" lon="0.96526">
        <ele>123.7</ele>
        <time>2016-05-15T15:36:54Z</time>
      </trkpt>
      <trkpt lat="44.40268" lon="0.96535">
        <ele>120.4</ele>
        <time>2016-05-15T15:36:57Z</time>
      </trkpt>
      <trkpt lat="44.40256" lon="0.96535">
        <ele>119.2</ele>
        <time>2016-05-15T15:36:58Z</time>
      </trkpt>
      <trkpt lat="44.40244" lon="0.96534">
        <ele>117.9</ele>
        <time>2016-05-15T15:36:59Z</time>
      </trkpt>
      <trkpt lat="44.40233" lon="0.96533">
        <ele>116.8</ele>
        <time>2016-05-15T15:37:00Z</time>
      </trkpt>
      <trkpt lat="44.4021" lon="0.9653">
        <ele>114.5</ele>
        <time>2016-05-15T15:37:02Z</time>
      </trkpt>
      <trkpt lat="44.40186" lon="0.96524">
        <ele>113.7</ele>
        <time>2016-05-15T15:37:04Z</time>
      </trkpt>
      <trkpt lat="44.40174" lon="0.96521">
        <ele>113.4</ele>
        <time>2016-05-15T15:37:05Z</time>
      </trkpt>
      <trkpt lat="44.40151" lon="0.96516">
        <ele>112.6</ele>
        <time>2016-05-15T15:37:07Z</time>
      </trkpt>
      <trkpt lat="44.40129" lon="0.96511">
        <ele>111.8</ele>
        <time>2016-05-15T15:37:09Z</time>
      </trkpt>
      <trkpt lat="44.40107" lon="0.96507">
        <ele>111.5</ele>
        <time>2016-05-15T15:37:11Z</time>
      </trkpt>
      <trkpt lat="44.40097" lon="0.96504">
        <ele>111.4</ele>
        <time>2016-05-15T15:37:12Z</time>
      </trkpt>
      <trkpt lat="44.40087" lon="0.96502">
        <ele>111.3</ele>
        <time>2016-05-15T15:37:13Z</time>
      </trkpt>
      <trkpt lat="44.4004" lon="0.96493">
        <ele>111</ele>
        <time>2016-05-15T15:37:18Z</time>
      </trkpt>
      <trkpt lat="44.40031" lon="0.96491">
        <ele>110.7</ele>
        <time>2016-05-15T15:37:19Z</time>
      </trkpt>
      <trkpt lat="44.39999" lon="0.96484">
        <ele>110</ele>
        <time>2016-05-15T15:37:23Z</time>
      </trkpt>
      <trkpt lat="44.39949" lon="0.96473">
        <ele>109</ele>
        <time>2016-05-15T15:37:30Z</time>
      </trkpt>
      <trkpt lat="44.39912" lon="0.96465">
        <ele>109</ele>
        <time>2016-05-15T15:37:36Z</time>
      </trkpt>
      <trkpt lat="44.39906" lon="0.96464">
        <ele>109</ele>
        <time>2016-05-15T15:37:37Z</time>
      </trkpt>
      <trkpt lat="44.39879" lon="0.96457">
        <ele>109</ele>
        <time>2016-05-15T15:37:43Z</time>
      </trkpt>
      <trkpt lat="44.3987" lon="0.9646">
        <ele>109</ele>
        <time>2016-05-15T15:37:47Z</time>
      </trkpt>
      <trkpt lat="44.3987" lon="0.96474">
        <ele>109</ele>
        <time>2016-05-15T15:37:50Z</time>
      </trkpt>
      <trkpt lat="44.39871" lon="0.96495">
        <ele>109</ele>
        <time>2016-05-15T15:37:54Z</time>
      </trkpt>
      <trkpt lat="44.39872" lon="0.965">
        <ele>109</ele>
        <time>2016-05-15T15:37:55Z</time>
      </trkpt>
      <trkpt lat="44.39874" lon="0.9654">
        <ele>109</ele>
        <time>2016-05-15T15:38:02Z</time>
      </trkpt>
      <trkpt lat="44.39877" lon="0.96587">
        <ele>109.5</ele>
        <time>2016-05-15T15:38:09Z</time>
      </trkpt>
      <trkpt lat="44.3988" lon="0.96649">
        <ele>110.3</ele>
        <time>2016-05-15T15:38:18Z</time>
      </trkpt>
      <trkpt lat="44.39882" lon="0.96683">
        <ele>110.7</ele>
        <time>2016-05-15T15:38:23Z</time>
      </trkpt>
      <trkpt lat="44.39884" lon="0.96704">
        <ele>110.9</ele>
        <time>2016-05-15T15:38:26Z</time>
      </trkpt>
      <trkpt lat="44.39888" lon="0.96763">
        <ele>111.8</ele>
        <time>2016-05-15T15:38:35Z</time>
      </trkpt>
      <trkpt lat="44.39889" lon="0.96801">
        <ele>112.4</ele>
        <time>2016-05-15T15:38:41Z</time>
      </trkpt>
      <trkpt lat="44.39891" lon="0.96822">
        <ele>113</ele>
        <time>2016-05-15T15:38:44Z</time>
      </trkpt>
      <trkpt lat="44.39892" lon="0.9684">
        <ele>113.5</ele>
        <time>2016-05-15T15:38:47Z</time>
      </trkpt>
      <trkpt lat="44.39894" lon="0.96859">
        <ele>114</ele>
        <time>2016-05-15T15:38:50Z</time>
      </trkpt>
      <trkpt lat="44.39895" lon="0.96878">
        <ele>114.5</ele>
        <time>2016-05-15T15:38:53Z</time>
      </trkpt>
      <trkpt lat="44.39897" lon="0.96901">
        <ele>115.1</ele>
        <time>2016-05-15T15:38:57Z</time>
      </trkpt>
      <trkpt lat="44.39897" lon="0.96911">
        <ele>115.4</ele>
        <time>2016-05-15T15:38:59Z</time>
      </trkpt>
      <trkpt lat="44.39898" lon="0.96928">
        <ele>115.8</ele>
        <time>2016-05-15T15:39:02Z</time>
      </trkpt>
      <trkpt lat="44.39901" lon="0.96968">
        <ele>116.8</ele>
        <time>2016-05-15T15:39:09Z</time>
      </trkpt>
      <trkpt lat="44.39902" lon="0.96979">
        <ele>117.1</ele>
        <time>2016-05-15T15:39:11Z</time>
      </trkpt>
      <trkpt lat="44.39905" lon="0.97023">
        <ele>118.3</ele>
        <time>2016-05-15T15:39:19Z</time>
      </trkpt>
      <trkpt lat="44.39906" lon="0.97038">
        <ele>118.6</ele>
        <time>2016-05-15T15:39:22Z</time>
      </trkpt>
      <trkpt lat="44.39907" lon="0.97064">
        <ele>118.8</ele>
        <time>2016-05-15T15:39:27Z</time>
      </trkpt>
      <trkpt lat="44.3991" lon="0.9711">
        <ele>118.8</ele>
        <time>2016-05-15T15:39:34Z</time>
      </trkpt>
      <trkpt lat="44.39914" lon="0.97171">
        <ele>118.7</ele>
        <time>2016-05-15T15:39:42Z</time>
      </trkpt>
      <trkpt lat="44.39915" lon="0.97185">
        <ele>118.6</ele>
        <time>2016-05-15T15:39:44Z</time>
      </trkpt>
      <trkpt lat="44.39917" lon="0.97235">
        <ele>118.7</ele>
        <time>2016-05-15T15:39:51Z</time>
      </trkpt>
      <trkpt lat="44.39919" lon="0.97257">
        <ele>118.8</ele>
        <time>2016-05-15T15:39:54Z</time>
      </trkpt>
      <trkpt lat="44.39921" lon="0.97284">
        <ele>119</ele>
        <time>2016-05-15T15:39:58Z</time>
      </trkpt>
      <trkpt lat="44.39923" lon="0.9731">
        <ele>119.7</ele>
        <time>2016-05-15T15:40:02Z</time>
      </trkpt>
      <trkpt lat="44.39923" lon="0.9733">
        <ele>120.3</ele>
        <time>2016-05-15T15:40:05Z</time>
      </trkpt>
      <trkpt lat="44.39925" lon="0.97348">
        <ele>120.9</ele>
        <time>2016-05-15T15:40:08Z</time>
      </trkpt>
      <trkpt lat="44.39927" lon="0.97378">
        <ele>121.9</ele>
        <time>2016-05-15T15:40:13Z</time>
      </trkpt>
      <trkpt lat="44.39927" lon="0.97383">
        <ele>122</ele>
        <time>2016-05-15T15:40:14Z</time>
      </trkpt>
      <trkpt lat="44.39929" lon="0.97414">
        <ele>122.6</ele>
        <time>2016-05-15T15:40:20Z</time>
      </trkpt>
      <trkpt lat="44.3993" lon="0.97429">
        <ele>122.9</ele>
        <time>2016-05-15T15:40:23Z</time>
      </trkpt>
      <trkpt lat="44.39933" lon="0.97466">
        <ele>123.5</ele>
        <time>2016-05-15T15:40:30Z</time>
      </trkpt>
      <trkpt lat="44.39934" lon="0.97477">
        <ele>123.6</ele>
        <time>2016-05-15T15:40:32Z</time>
      </trkpt>
      <trkpt lat="44.39936" lon="0.97516">
        <ele>123.8</ele>
        <time>2016-05-15T15:40:39Z</time>
      </trkpt>
      <trkpt lat="44.39937" lon="0.97532">
        <ele>123.9</ele>
        <time>2016-05-15T15:40:42Z</time>
      </trkpt>
      <trkpt lat="44.39939" lon="0.97573">
        <ele>124.2</ele>
        <time>2016-05-15T15:40:49Z</time>
      </trkpt>
      <trkpt lat="44.39942" lon="0.97597">
        <ele>124.3</ele>
        <time>2016-05-15T15:40:53Z</time>
      </trkpt>
      <trkpt lat="44.39943" lon="0.97608">
        <ele>124.4</ele>
        <time>2016-05-15T15:40:55Z</time>
      </trkpt>
      <trkpt lat="44.39945" lon="0.97636">
        <ele>124.6</ele>
        <time>2016-05-15T15:41:00Z</time>
      </trkpt>
      <trkpt lat="44.39947" lon="0.97695">
        <ele>125.3</ele>
        <time>2016-05-15T15:41:11Z</time>
      </trkpt>
      <trkpt lat="44.39948" lon="0.97705">
        <ele>125.5</ele>
        <time>2016-05-15T15:41:13Z</time>
      </trkpt>
      <trkpt lat="44.3995" lon="0.97735">
        <ele>125.9</ele>
        <time>2016-05-15T15:41:20Z</time>
      </trkpt>
      <trkpt lat="44.39951" lon="0.97766">
        <ele>126.2</ele>
        <time>2016-05-15T15:41:26Z</time>
      </trkpt>
      <trkpt lat="44.39952" lon="0.97786">
        <ele>126.6</ele>
        <time>2016-05-15T15:41:30Z</time>
      </trkpt>
      <trkpt lat="44.39952" lon="0.97792">
        <ele>126.6</ele>
        <time>2016-05-15T15:41:31Z</time>
      </trkpt>
      <trkpt lat="44.39952" lon="0.97798">
        <ele>126.9</ele>
        <time>2016-05-15T15:41:32Z</time>
      </trkpt>
      <trkpt lat="44.39953" lon="0.97821">
        <ele>128</ele>
        <time>2016-05-15T15:41:37Z</time>
      </trkpt>
      <trkpt lat="44.39955" lon="0.97847">
        <ele>129.4</ele>
        <time>2016-05-15T15:41:43Z</time>
      </trkpt>
      <trkpt lat="44.39956" lon="0.97874">
        <ele>130.7</ele>
        <time>2016-05-15T15:41:49Z</time>
      </trkpt>
      <trkpt lat="44.39958" lon="0.97899">
        <ele>131.5</ele>
        <time>2016-05-15T15:41:55Z</time>
      </trkpt>
      <trkpt lat="44.3996" lon="0.97915">
        <ele>132.1</ele>
        <time>2016-05-15T15:41:59Z</time>
      </trkpt>
      <trkpt lat="44.3996" lon="0.9792">
        <ele>132.3</ele>
        <time>2016-05-15T15:42:00Z</time>
      </trkpt>
      <trkpt lat="44.39963" lon="0.97945">
        <ele>133.1</ele>
        <time>2016-05-15T15:42:04Z</time>
      </trkpt>
      <trkpt lat="44.39963" lon="0.97953">
        <ele>133.4</ele>
        <time>2016-05-15T15:42:05Z</time>
      </trkpt>
      <trkpt lat="44.39964" lon="0.97985">
        <ele>134.6</ele>
        <time>2016-05-15T15:42:10Z</time>
      </trkpt>
      <trkpt lat="44.39966" lon="0.98006">
        <ele>135.6</ele>
        <time>2016-05-15T15:42:14Z</time>
      </trkpt>
      <trkpt lat="44.39968" lon="0.98026">
        <ele>136.5</ele>
        <time>2016-05-15T15:42:18Z</time>
      </trkpt>
      <trkpt lat="44.39968" lon="0.98041">
        <ele>137.2</ele>
        <time>2016-05-15T15:42:21Z</time>
      </trkpt>
      <trkpt lat="44.39971" lon="0.98073">
        <ele>138.2</ele>
        <time>2016-05-15T15:42:28Z</time>
      </trkpt>
      <trkpt lat="44.39973" lon="0.98095">
        <ele>139</ele>
        <time>2016-05-15T15:42:33Z</time>
      </trkpt>
      <trkpt lat="44.39974" lon="0.98106">
        <ele>139.4</ele>
        <time>2016-05-15T15:42:36Z</time>
      </trkpt>
      <trkpt lat="44.39975" lon="0.98141">
        <ele>140.1</ele>
        <time>2016-05-15T15:42:44Z</time>
      </trkpt>
      <trkpt lat="44.39977" lon="0.98177">
        <ele>140.5</ele>
        <time>2016-05-15T15:42:50Z</time>
      </trkpt>
      <trkpt lat="44.39978" lon="0.98184">
        <ele>140.5</ele>
        <time>2016-05-15T15:42:51Z</time>
      </trkpt>
      <trkpt lat="44.3998" lon="0.98224">
        <ele>140.4</ele>
        <time>2016-05-15T15:42:56Z</time>
      </trkpt>
      <trkpt lat="44.39981" lon="0.98233">
        <ele>140.1</ele>
        <time>2016-05-15T15:42:57Z</time>
      </trkpt>
      <trkpt lat="44.39986" lon="0.98312">
        <ele>138.5</ele>
        <time>2016-05-15T15:43:06Z</time>
      </trkpt>
      <trkpt lat="44.39989" lon="0.98375">
        <ele>138.2</ele>
        <time>2016-05-15T15:43:14Z</time>
      </trkpt>
      <trkpt lat="44.39994" lon="0.98448">
        <ele>139.8</ele>
        <time>2016-05-15T15:43:24Z</time>
      </trkpt>
      <trkpt lat="44.39995" lon="0.9847">
        <ele>140</ele>
        <time>2016-05-15T15:43:27Z</time>
      </trkpt>
      <trkpt lat="44.39999" lon="0.98513">
        <ele>140.1</ele>
        <time>2016-05-15T15:43:33Z</time>
      </trkpt>
      <trkpt lat="44.40003" lon="0.98571">
        <ele>141</ele>
        <time>2016-05-15T15:43:41Z</time>
      </trkpt>
      <trkpt lat="44.40003" lon="0.98578">
        <ele>141.3</ele>
        <time>2016-05-15T15:43:42Z</time>
      </trkpt>
      <trkpt lat="44.40006" lon="0.98628">
        <ele>142.9</ele>
        <time>2016-05-15T15:43:50Z</time>
      </trkpt>
      <trkpt lat="44.40008" lon="0.9866">
        <ele>144.9</ele>
        <time>2016-05-15T15:43:56Z</time>
      </trkpt>
      <trkpt lat="44.40009" lon="0.98671">
        <ele>145.6</ele>
        <time>2016-05-15T15:43:58Z</time>
      </trkpt>
      <trkpt lat="44.40009" lon="0.98681">
        <ele>146.2</ele>
        <time>2016-05-15T15:44:00Z</time>
      </trkpt>
      <trkpt lat="44.40011" lon="0.98713">
        <ele>148.1</ele>
        <time>2016-05-15T15:44:07Z</time>
      </trkpt>
      <trkpt lat="44.40011" lon="0.98718">
        <ele>148.3</ele>
        <time>2016-05-15T15:44:08Z</time>
      </trkpt>
      <trkpt lat="44.40013" lon="0.98745">
        <ele>149.5</ele>
        <time>2016-05-15T15:44:14Z</time>
      </trkpt>
      <trkpt lat="44.40014" lon="0.9875">
        <ele>149.7</ele>
        <time>2016-05-15T15:44:15Z</time>
      </trkpt>
      <trkpt lat="44.40016" lon="0.9878">
        <ele>150.9</ele>
        <time>2016-05-15T15:44:21Z</time>
      </trkpt>
      <trkpt lat="44.40017" lon="0.98805">
        <ele>151.6</ele>
        <time>2016-05-15T15:44:26Z</time>
      </trkpt>
      <trkpt lat="44.40019" lon="0.98839">
        <ele>152.2</ele>
        <time>2016-05-15T15:44:33Z</time>
      </trkpt>
      <trkpt lat="44.40019" lon="0.98848">
        <ele>152.4</ele>
        <time>2016-05-15T15:44:35Z</time>
      </trkpt>
      <trkpt lat="44.40021" lon="0.98884">
        <ele>152.5</ele>
        <time>2016-05-15T15:44:42Z</time>
      </trkpt>
      <trkpt lat="44.40022" lon="0.98903">
        <ele>151.9</ele>
        <time>2016-05-15T15:44:46Z</time>
      </trkpt>
      <trkpt lat="44.40026" lon="0.98943">
        <ele>150.6</ele>
        <time>2016-05-15T15:44:54Z</time>
      </trkpt>
      <trkpt lat="44.40026" lon="0.98948">
        <ele>150.5</ele>
        <time>2016-05-15T15:44:55Z</time>
      </trkpt>
      <trkpt lat="44.40028" lon="0.98979">
        <ele>149.7</ele>
        <time>2016-05-15T15:45:01Z</time>
      </trkpt>
      <trkpt lat="44.40029" lon="0.98998">
        <ele>149.3</ele>
        <time>2016-05-15T15:45:05Z</time>
      </trkpt>
      <trkpt lat="44.4003" lon="0.99014">
        <ele>148.9</ele>
        <time>2016-05-15T15:45:09Z</time>
      </trkpt>
      <trkpt lat="44.40033" lon="0.99047">
        <ele>148.5</ele>
        <time>2016-05-15T15:45:17Z</time>
      </trkpt>
      <trkpt lat="44.40035" lon="0.99067">
        <ele>149.1</ele>
        <time>2016-05-15T15:45:22Z</time>
      </trkpt>
      <trkpt lat="44.40038" lon="0.99086">
        <ele>149.7</ele>
        <time>2016-05-15T15:45:27Z</time>
      </trkpt>
      <trkpt lat="44.40042" lon="0.99105">
        <ele>150.6</ele>
        <time>2016-05-15T15:45:32Z</time>
      </trkpt>
      <trkpt lat="44.40047" lon="0.9912">
        <ele>151.6</ele>
        <time>2016-05-15T15:45:36Z</time>
      </trkpt>
      <trkpt lat="44.40058" lon="0.99143">
        <ele>153.5</ele>
        <time>2016-05-15T15:45:43Z</time>
      </trkpt>
      <trkpt lat="44.4006" lon="0.99146">
        <ele>153.8</ele>
        <time>2016-05-15T15:45:44Z</time>
      </trkpt>
      <trkpt lat="44.40071" lon="0.99162">
        <ele>155.6</ele>
        <time>2016-05-15T15:45:50Z</time>
      </trkpt>
      <trkpt lat="44.40076" lon="0.99166">
        <ele>156.3</ele>
        <time>2016-05-15T15:45:52Z</time>
      </trkpt>
      <trkpt lat="44.40096" lon="0.99183">
        <ele>159.4</ele>
        <time>2016-05-15T15:46:01Z</time>
      </trkpt>
      <trkpt lat="44.40104" lon="0.99188">
        <ele>160.5</ele>
        <time>2016-05-15T15:46:04Z</time>
      </trkpt>
      <trkpt lat="44.40116" lon="0.99197">
        <ele>162.5</ele>
        <time>2016-05-15T15:46:09Z</time>
      </trkpt>
      <trkpt lat="44.40129" lon="0.99207">
        <ele>163.8</ele>
        <time>2016-05-15T15:46:14Z</time>
      </trkpt>
      <trkpt lat="44.40145" lon="0.99219">
        <ele>164.1</ele>
        <time>2016-05-15T15:46:20Z</time>
      </trkpt>
      <trkpt lat="44.40162" lon="0.9923">
        <ele>164.3</ele>
        <time>2016-05-15T15:46:27Z</time>
      </trkpt>
      <trkpt lat="44.40165" lon="0.99232">
        <ele>164.4</ele>
        <time>2016-05-15T15:46:28Z</time>
      </trkpt>
      <trkpt lat="44.40181" lon="0.99242">
        <ele>164.5</ele>
        <time>2016-05-15T15:46:35Z</time>
      </trkpt>
      <trkpt lat="44.40192" lon="0.99253">
        <ele>165.1</ele>
        <time>2016-05-15T15:46:40Z</time>
      </trkpt>
      <trkpt lat="44.40194" lon="0.99256">
        <ele>165.2</ele>
        <time>2016-05-15T15:46:41Z</time>
      </trkpt>
      <trkpt lat="44.40207" lon="0.99273">
        <ele>166.2</ele>
        <time>2016-05-15T15:46:48Z</time>
      </trkpt>
      <trkpt lat="44.40209" lon="0.99276">
        <ele>166.5</ele>
        <time>2016-05-15T15:46:49Z</time>
      </trkpt>
      <trkpt lat="44.4022" lon="0.99303">
        <ele>168.4</ele>
        <time>2016-05-15T15:46:57Z</time>
      </trkpt>
      <trkpt lat="44.40221" lon="0.99307">
        <ele>168.6</ele>
        <time>2016-05-15T15:46:58Z</time>
      </trkpt>
      <trkpt lat="44.40225" lon="0.99327">
        <ele>170.2</ele>
        <time>2016-05-15T15:47:04Z</time>
      </trkpt>
      <trkpt lat="44.40225" lon="0.99331">
        <ele>170.5</ele>
        <time>2016-05-15T15:47:05Z</time>
      </trkpt>
      <trkpt lat="44.40225" lon="0.99351">
        <ele>172.3</ele>
        <time>2016-05-15T15:47:12Z</time>
      </trkpt>
      <trkpt lat="44.40224" lon="0.99352">
        <ele>172.5</ele>
        <time>2016-05-15T15:47:13Z</time>
      </trkpt>
      <trkpt lat="44.40223" lon="0.99363">
        <ele>173.7</ele>
        <time>2016-05-15T15:48:10Z</time>
      </trkpt>
      <trkpt lat="44.40221" lon="0.99371">
        <ele>174.7</ele>
        <time>2016-05-15T15:48:12Z</time>
      </trkpt>
      <trkpt lat="44.40217" lon="0.99386">
        <ele>176.2</ele>
        <time>2016-05-15T15:48:16Z</time>
      </trkpt>
      <trkpt lat="44.40213" lon="0.994">
        <ele>177.7</ele>
        <time>2016-05-15T15:48:20Z</time>
      </trkpt>
      <trkpt lat="44.40206" lon="0.99418">
        <ele>180.1</ele>
        <time>2016-05-15T15:48:25Z</time>
      </trkpt>
      <trkpt lat="44.40201" lon="0.99427">
        <ele>181.9</ele>
        <time>2016-05-15T15:48:28Z</time>
      </trkpt>
      <trkpt lat="44.40195" lon="0.99439">
        <ele>184.2</ele>
        <time>2016-05-15T15:48:32Z</time>
      </trkpt>
      <trkpt lat="44.40188" lon="0.99454">
        <ele>187.5</ele>
        <time>2016-05-15T15:48:37Z</time>
      </trkpt>
      <trkpt lat="44.40183" lon="0.99463">
        <ele>189</ele>
        <time>2016-05-15T15:48:40Z</time>
      </trkpt>
      <trkpt lat="44.40175" lon="0.9948">
        <ele>190.7</ele>
        <time>2016-05-15T15:48:46Z</time>
      </trkpt>
      <trkpt lat="44.40166" lon="0.99493">
        <ele>192.5</ele>
        <time>2016-05-15T15:48:51Z</time>
      </trkpt>
      <trkpt lat="44.40162" lon="0.995">
        <ele>193.3</ele>
        <time>2016-05-15T15:48:54Z</time>
      </trkpt>
      <trkpt lat="44.40159" lon="0.99507">
        <ele>193.9</ele>
        <time>2016-05-15T15:48:57Z</time>
      </trkpt>
      <trkpt lat="44.40158" lon="0.99507">
        <ele>194.4</ele>
        <time>2016-05-15T15:48:58Z</time>
      </trkpt>
      <trkpt lat="44.40156" lon="0.9951">
        <ele>194.8</ele>
        <time>2016-05-15T15:49:03Z</time>
      </trkpt>
      <trkpt lat="44.40155" lon="0.99508">
        <ele>195.2</ele>
        <time>2016-05-15T15:52:11Z</time>
      </trkpt>
      <trkpt lat="44.40157" lon="0.99502">
        <ele>195</ele>
        <time>2016-05-15T15:52:13Z</time>
      </trkpt>
      <trkpt lat="44.40156" lon="0.99481">
        <ele>196</ele>
        <time>2016-05-15T15:52:19Z</time>
      </trkpt>
      <trkpt lat="44.40161" lon="0.99457">
        <ele>195.5</ele>
        <time>2016-05-15T15:52:24Z</time>
      </trkpt>
      <trkpt lat="44.40164" lon="0.99448">
        <ele>193.8</ele>
        <time>2016-05-15T15:52:26Z</time>
      </trkpt>
      <trkpt lat="44.40166" lon="0.99435">
        <ele>191.5</ele>
        <time>2016-05-15T15:52:29Z</time>
      </trkpt>
      <trkpt lat="44.40169" lon="0.99421">
        <ele>189.5</ele>
        <time>2016-05-15T15:52:32Z</time>
      </trkpt>
      <trkpt lat="44.4017" lon="0.99415">
        <ele>188.5</ele>
        <time>2016-05-15T15:52:34Z</time>
      </trkpt>
      <trkpt lat="44.40171" lon="0.99407">
        <ele>187.4</ele>
        <time>2016-05-15T15:52:37Z</time>
      </trkpt>
      <trkpt lat="44.40172" lon="0.994">
        <ele>186.6</ele>
        <time>2016-05-15T15:52:39Z</time>
      </trkpt>
      <trkpt lat="44.40172" lon="0.99393">
        <ele>185.8</ele>
        <time>2016-05-15T15:52:41Z</time>
      </trkpt>
      <trkpt lat="44.4017" lon="0.99376">
        <ele>184.4</ele>
        <time>2016-05-15T15:52:45Z</time>
      </trkpt>
      <trkpt lat="44.40165" lon="0.99356">
        <ele>181.9</ele>
        <time>2016-05-15T15:52:49Z</time>
      </trkpt>
      <trkpt lat="44.40162" lon="0.99349">
        <ele>181</ele>
        <time>2016-05-15T15:52:51Z</time>
      </trkpt>
      <trkpt lat="44.40151" lon="0.99338">
        <ele>180.3</ele>
        <time>2016-05-15T15:52:56Z</time>
      </trkpt>
      <trkpt lat="44.40145" lon="0.99332">
        <ele>179.7</ele>
        <time>2016-05-15T15:52:59Z</time>
      </trkpt>
      <trkpt lat="44.40137" lon="0.99324">
        <ele>178.8</ele>
        <time>2016-05-15T15:53:03Z</time>
      </trkpt>
      <trkpt lat="44.40118" lon="0.99306">
        <ele>174.8</ele>
        <time>2016-05-15T15:53:11Z</time>
      </trkpt>
      <trkpt lat="44.40103" lon="0.99298">
        <ele>171.2</ele>
        <time>2016-05-15T15:53:16Z</time>
      </trkpt>
      <trkpt lat="44.40097" lon="0.99297">
        <ele>170.2</ele>
        <time>2016-05-15T15:53:18Z</time>
      </trkpt>
      <trkpt lat="44.40077" lon="0.99297">
        <ele>168.1</ele>
        <time>2016-05-15T15:53:24Z</time>
      </trkpt>
      <trkpt lat="44.40071" lon="0.99298">
        <ele>167.8</ele>
        <time>2016-05-15T15:53:26Z</time>
      </trkpt>
      <trkpt lat="44.40056" lon="0.99305">
        <ele>167.9</ele>
        <time>2016-05-15T15:53:31Z</time>
      </trkpt>
      <trkpt lat="44.40035" lon="0.99321">
        <ele>169.2</ele>
        <time>2016-05-15T15:53:39Z</time>
      </trkpt>
      <trkpt lat="44.40015" lon="0.99339">
        <ele>169.8</ele>
        <time>2016-05-15T15:53:47Z</time>
      </trkpt>
      <trkpt lat="44.40013" lon="0.99341">
        <ele>169.9</ele>
        <time>2016-05-15T15:53:48Z</time>
      </trkpt>
      <trkpt lat="44.40002" lon="0.99353">
        <ele>170.3</ele>
        <time>2016-05-15T15:53:52Z</time>
      </trkpt>
      <trkpt lat="44.39992" lon="0.99367">
        <ele>170.9</ele>
        <time>2016-05-15T15:53:56Z</time>
      </trkpt>
      <trkpt lat="44.39987" lon="0.99373">
        <ele>171.2</ele>
        <time>2016-05-15T15:53:58Z</time>
      </trkpt>
      <trkpt lat="44.39975" lon="0.99394">
        <ele>172.9</ele>
        <time>2016-05-15T15:54:04Z</time>
      </trkpt>
      <trkpt lat="44.39971" lon="0.99402">
        <ele>173.5</ele>
        <time>2016-05-15T15:54:06Z</time>
      </trkpt>
      <trkpt lat="44.3996" lon="0.99422">
        <ele>175.1</ele>
        <time>2016-05-15T15:54:12Z</time>
      </trkpt>
      <trkpt lat="44.39951" lon="0.99436">
        <ele>175.5</ele>
        <time>2016-05-15T15:54:16Z</time>
      </trkpt>
      <trkpt lat="44.39941" lon="0.99451">
        <ele>175.5</ele>
        <time>2016-05-15T15:54:21Z</time>
      </trkpt>
      <trkpt lat="44.39936" lon="0.9946">
        <ele>175.4</ele>
        <time>2016-05-15T15:54:24Z</time>
      </trkpt>
      <trkpt lat="44.39928" lon="0.99473">
        <ele>175.4</ele>
        <time>2016-05-15T15:54:28Z</time>
      </trkpt>
      <trkpt lat="44.39921" lon="0.99487">
        <ele>175.5</ele>
        <time>2016-05-15T15:54:32Z</time>
      </trkpt>
      <trkpt lat="44.39916" lon="0.99499">
        <ele>175.4</ele>
        <time>2016-05-15T15:54:35Z</time>
      </trkpt>
      <trkpt lat="44.39901" lon="0.99524">
        <ele>174.1</ele>
        <time>2016-05-15T15:54:42Z</time>
      </trkpt>
      <trkpt lat="44.39897" lon="0.99531">
        <ele>173.6</ele>
        <time>2016-05-15T15:54:44Z</time>
      </trkpt>
      <trkpt lat="44.39888" lon="0.9955">
        <ele>173.2</ele>
        <time>2016-05-15T15:54:49Z</time>
      </trkpt>
      <trkpt lat="44.39884" lon="0.99562">
        <ele>173.3</ele>
        <time>2016-05-15T15:54:52Z</time>
      </trkpt>
      <trkpt lat="44.39879" lon="0.99583">
        <ele>174.2</ele>
        <time>2016-05-15T15:54:57Z</time>
      </trkpt>
      <trkpt lat="44.39875" lon="0.99604">
        <ele>175.9</ele>
        <time>2016-05-15T15:55:02Z</time>
      </trkpt>
      <trkpt lat="44.39874" lon="0.99608">
        <ele>176.3</ele>
        <time>2016-05-15T15:55:03Z</time>
      </trkpt>
      <trkpt lat="44.39874" lon="0.99639">
        <ele>178.3</ele>
        <time>2016-05-15T15:55:10Z</time>
      </trkpt>
      <trkpt lat="44.39875" lon="0.99647">
        <ele>178.6</ele>
        <time>2016-05-15T15:55:12Z</time>
      </trkpt>
      <trkpt lat="44.39881" lon="0.99665">
        <ele>180.7</ele>
        <time>2016-05-15T15:55:17Z</time>
      </trkpt>
      <trkpt lat="44.39884" lon="0.99672">
        <ele>181.8</ele>
        <time>2016-05-15T15:55:19Z</time>
      </trkpt>
      <trkpt lat="44.39894" lon="0.99686">
        <ele>185.6</ele>
        <time>2016-05-15T15:55:24Z</time>
      </trkpt>
      <trkpt lat="44.39908" lon="0.99701">
        <ele>190.3</ele>
        <time>2016-05-15T15:55:30Z</time>
      </trkpt>
      <trkpt lat="44.39917" lon="0.99711">
        <ele>193.2</ele>
        <time>2016-05-15T15:55:34Z</time>
      </trkpt>
      <trkpt lat="44.39937" lon="0.99731">
        <ele>195.7</ele>
        <time>2016-05-15T15:55:42Z</time>
      </trkpt>
      <trkpt lat="44.39939" lon="0.99733">
        <ele>196.2</ele>
        <time>2016-05-15T15:55:43Z</time>
      </trkpt>
      <trkpt lat="44.39955" lon="0.99741">
        <ele>199.9</ele>
        <time>2016-05-15T15:55:50Z</time>
      </trkpt>
      <trkpt lat="44.39972" lon="0.99739">
        <ele>202.5</ele>
        <time>2016-05-15T15:55:58Z</time>
      </trkpt>
      <trkpt lat="44.39988" lon="0.99725">
        <ele>206.5</ele>
        <time>2016-05-15T15:56:06Z</time>
      </trkpt>
      <trkpt lat="44.39992" lon="0.9972">
        <ele>207.7</ele>
        <time>2016-05-15T15:56:08Z</time>
      </trkpt>
      <trkpt lat="44.40005" lon="0.99704">
        <ele>210.9</ele>
        <time>2016-05-15T15:56:16Z</time>
      </trkpt>
      <trkpt lat="44.4001" lon="0.99697">
        <ele>211.3</ele>
        <time>2016-05-15T15:56:19Z</time>
      </trkpt>
      <trkpt lat="44.4002" lon="0.99684">
        <ele>212.2</ele>
        <time>2016-05-15T15:56:25Z</time>
      </trkpt>
      <trkpt lat="44.40026" lon="0.99674">
        <ele>212.9</ele>
        <time>2016-05-15T15:56:29Z</time>
      </trkpt>
      <trkpt lat="44.40032" lon="0.99663">
        <ele>213.7</ele>
        <time>2016-05-15T15:56:34Z</time>
      </trkpt>
      <trkpt lat="44.40041" lon="0.99648">
        <ele>214.8</ele>
        <time>2016-05-15T15:56:41Z</time>
      </trkpt>
      <trkpt lat="44.40041" lon="0.99646">
        <ele>215</ele>
        <time>2016-05-15T15:56:42Z</time>
      </trkpt>
      <trkpt lat="44.40041" lon="0.99633">
        <ele>215.6</ele>
        <time>2016-05-15T15:56:48Z</time>
      </trkpt>
      <trkpt lat="44.40037" lon="0.99628">
        <ele>215.6</ele>
        <time>2016-05-15T15:56:54Z</time>
      </trkpt>
      <trkpt lat="44.40032" lon="0.99627">
        <ele>215.3</ele>
        <time>2016-05-15T15:58:15Z</time>
      </trkpt>
      <trkpt lat="44.40022" lon="0.9962">
        <ele>214.6</ele>
        <time>2016-05-15T15:58:20Z</time>
      </trkpt>
      <trkpt lat="44.40019" lon="0.99617">
        <ele>214.2</ele>
        <time>2016-05-15T15:58:22Z</time>
      </trkpt>
      <trkpt lat="44.40011" lon="0.99612">
        <ele>213.3</ele>
        <time>2016-05-15T15:58:26Z</time>
      </trkpt>
      <trkpt lat="44.40006" lon="0.99609">
        <ele>212.7</ele>
        <time>2016-05-15T15:58:29Z</time>
      </trkpt>
      <trkpt lat="44.4" lon="0.99601">
        <ele>211.4</ele>
        <time>2016-05-15T15:58:35Z</time>
      </trkpt>
      <trkpt lat="44.4" lon="0.99598">
        <ele>211.2</ele>
        <time>2016-05-15T15:58:36Z</time>
      </trkpt>
      <trkpt lat="44.40001" lon="0.99585">
        <ele>210.3</ele>
        <time>2016-05-15T15:58:40Z</time>
      </trkpt>
      <trkpt lat="44.40003" lon="0.99579">
        <ele>210.1</ele>
        <time>2016-05-15T15:58:43Z</time>
      </trkpt>
      <trkpt lat="44.40001" lon="0.99577">
        <ele>209.5</ele>
        <time>2016-05-15T15:58:45Z</time>
      </trkpt>
      <trkpt lat="44.39994" lon="0.99572">
        <ele>208.1</ele>
        <time>2016-05-15T15:58:49Z</time>
      </trkpt>
      <trkpt lat="44.39992" lon="0.9957">
        <ele>207.7</ele>
        <time>2016-05-15T15:58:50Z</time>
      </trkpt>
      <trkpt lat="44.39985" lon="0.99569">
        <ele>206.5</ele>
        <time>2016-05-15T15:58:53Z</time>
      </trkpt>
      <trkpt lat="44.39984" lon="0.9957">
        <ele>206.3</ele>
        <time>2016-05-15T15:58:54Z</time>
      </trkpt>
      <trkpt lat="44.39981" lon="0.99574">
        <ele>206.4</ele>
        <time>2016-05-15T15:58:57Z</time>
      </trkpt>
      <trkpt lat="44.39979" lon="0.99577">
        <ele>206.5</ele>
        <time>2016-05-15T15:58:59Z</time>
      </trkpt>
      <trkpt lat="44.39976" lon="0.99582">
        <ele>206.7</ele>
        <time>2016-05-15T15:59:05Z</time>
      </trkpt>
      <trkpt lat="44.39973" lon="0.99583">
        <ele>206.4</ele>
        <time>2016-05-15T15:59:08Z</time>
      </trkpt>
      <trkpt lat="44.39971" lon="0.99584">
        <ele>206.3</ele>
        <time>2016-05-15T15:59:10Z</time>
      </trkpt>
      <trkpt lat="44.3997" lon="0.99588">
        <ele>206.7</ele>
        <time>2016-05-15T15:59:12Z</time>
      </trkpt>
      <trkpt lat="44.39968" lon="0.99594">
        <ele>207.2</ele>
        <time>2016-05-15T15:59:14Z</time>
      </trkpt>
      <trkpt lat="44.39967" lon="0.99596">
        <ele>207.4</ele>
        <time>2016-05-15T15:59:15Z</time>
      </trkpt>
      <trkpt lat="44.39954" lon="0.99615">
        <ele>208</ele>
        <time>2016-05-15T15:59:22Z</time>
      </trkpt>
      <trkpt lat="44.39952" lon="0.99618">
        <ele>207.6</ele>
        <time>2016-05-15T15:59:24Z</time>
      </trkpt>
      <trkpt lat="44.39951" lon="0.99617">
        <ele>206.9</ele>
        <time>2016-05-15T15:59:26Z</time>
      </trkpt>
      <trkpt lat="44.39955" lon="0.99611">
        <ele>207.6</ele>
        <time>2016-05-15T15:59:30Z</time>
      </trkpt>
      <trkpt lat="44.39958" lon="0.99606">
        <ele>208</ele>
        <time>2016-05-15T15:59:32Z</time>
      </trkpt>
      <trkpt lat="44.39966" lon="0.99593">
        <ele>207</ele>
        <time>2016-05-15T15:59:36Z</time>
      </trkpt>
      <trkpt lat="44.39973" lon="0.99586">
        <ele>206.7</ele>
        <time>2016-05-15T15:59:40Z</time>
      </trkpt>
      <trkpt lat="44.39974" lon="0.99586">
        <ele>206.8</ele>
        <time>2016-05-15T15:59:41Z</time>
      </trkpt>
      <trkpt lat="44.39977" lon="0.99588">
        <ele>207.6</ele>
        <time>2016-05-15T15:59:45Z</time>
      </trkpt>
      <trkpt lat="44.39979" lon="0.9959">
        <ele>208</ele>
        <time>2016-05-15T15:59:47Z</time>
      </trkpt>
      <trkpt lat="44.39981" lon="0.99591">
        <ele>208.4</ele>
        <time>2016-05-15T15:59:52Z</time>
      </trkpt>
      <trkpt lat="44.39984" lon="0.99587">
        <ele>208.3</ele>
        <time>2016-05-15T16:00:26Z</time>
      </trkpt>
      <trkpt lat="44.39983" lon="0.99585">
        <ele>207.9</ele>
        <time>2016-05-15T16:00:28Z</time>
      </trkpt>
      <trkpt lat="44.39981" lon="0.99586">
        <ele>207.8</ele>
        <time>2016-05-15T16:00:31Z</time>
      </trkpt>
      <trkpt lat="44.39983" lon="0.99589">
        <ele>208.4</ele>
        <time>2016-05-15T16:00:34Z</time>
      </trkpt>
      <trkpt lat="44.39987" lon="0.9959">
        <ele>209</ele>
        <time>2016-05-15T16:00:36Z</time>
      </trkpt>
      <trkpt lat="44.39992" lon="0.99591">
        <ele>209.7</ele>
        <time>2016-05-15T16:00:38Z</time>
      </trkpt>
      <trkpt lat="44.39995" lon="0.99593">
        <ele>210.2</ele>
        <time>2016-05-15T16:00:39Z</time>
      </trkpt>
      <trkpt lat="44.39999" lon="0.99598">
        <ele>211.1</ele>
        <time>2016-05-15T16:00:41Z</time>
      </trkpt>
      <trkpt lat="44.40005" lon="0.99615">
        <ele>213</ele>
        <time>2016-05-15T16:00:46Z</time>
      </trkpt>
      <trkpt lat="44.40007" lon="0.99618">
        <ele>213.5</ele>
        <time>2016-05-15T16:00:48Z</time>
      </trkpt>
      <trkpt lat="44.40013" lon="0.99616">
        <ele>213.7</ele>
        <time>2016-05-15T16:00:50Z</time>
      </trkpt>
      <trkpt lat="44.40016" lon="0.9962">
        <ele>214.2</ele>
        <time>2016-05-15T16:00:52Z</time>
      </trkpt>
      <trkpt lat="44.4002" lon="0.99624">
        <ele>214.7</ele>
        <time>2016-05-15T16:00:54Z</time>
      </trkpt>
      <trkpt lat="44.40023" lon="0.99627">
        <ele>214.8</ele>
        <time>2016-05-15T16:00:55Z</time>
      </trkpt>
      <trkpt lat="44.4004" lon="0.99633">
        <ele>215.5</ele>
        <time>2016-05-15T16:01:00Z</time>
      </trkpt>
      <trkpt lat="44.40046" lon="0.99633">
        <ele>214.5</ele>
        <time>2016-05-15T16:01:04Z</time>
      </trkpt>
      <trkpt lat="44.40046" lon="0.99633">
        <ele>214.5</ele>
        <time>2016-05-15T16:01:05Z</time>
      </trkpt>
      <trkpt lat="44.40041" lon="0.99622">
        <ele>215.9</ele>
        <time>2016-05-15T16:10:54Z</time>
      </trkpt>
      <trkpt lat="44.40041" lon="0.99619">
        <ele>215.8</ele>
        <time>2016-05-15T16:10:57Z</time>
      </trkpt>
      <trkpt lat="44.40042" lon="0.9961">
        <ele>215.8</ele>
        <time>2016-05-15T16:11:01Z</time>
      </trkpt>
      <trkpt lat="44.40042" lon="0.99602">
        <ele>215.5</ele>
        <time>2016-05-15T16:11:03Z</time>
      </trkpt>
      <trkpt lat="44.40043" lon="0.99597">
        <ele>215.3</ele>
        <time>2016-05-15T16:11:04Z</time>
      </trkpt>
      <trkpt lat="44.40045" lon="0.99585">
        <ele>214.8</ele>
        <time>2016-05-15T16:11:06Z</time>
      </trkpt>
      <trkpt lat="44.40049" lon="0.99571">
        <ele>213.9</ele>
        <time>2016-05-15T16:11:08Z</time>
      </trkpt>
      <trkpt lat="44.40057" lon="0.99556">
        <ele>212.6</ele>
        <time>2016-05-15T16:11:10Z</time>
      </trkpt>
      <trkpt lat="44.40062" lon="0.99547">
        <ele>212</ele>
        <time>2016-05-15T16:11:11Z</time>
      </trkpt>
      <trkpt lat="44.40068" lon="0.99537">
        <ele>211</ele>
        <time>2016-05-15T16:11:12Z</time>
      </trkpt>
      <trkpt lat="44.40079" lon="0.99518">
        <ele>208.6</ele>
        <time>2016-05-15T16:11:14Z</time>
      </trkpt>
      <trkpt lat="44.40085" lon="0.99508">
        <ele>207.6</ele>
        <time>2016-05-15T16:11:15Z</time>
      </trkpt>
      <trkpt lat="44.40093" lon="0.99499">
        <ele>206.8</ele>
        <time>2016-05-15T16:11:16Z</time>
      </trkpt>
      <trkpt lat="44.40109" lon="0.9948">
        <ele>205.8</ele>
        <time>2016-05-15T16:11:18Z</time>
      </trkpt>
      <trkpt lat="44.40123" lon="0.99461">
        <ele>205.9</ele>
        <time>2016-05-15T16:11:20Z</time>
      </trkpt>
      <trkpt lat="44.4013" lon="0.99451">
        <ele>203.5</ele>
        <time>2016-05-15T16:11:21Z</time>
      </trkpt>
      <trkpt lat="44.40142" lon="0.99431">
        <ele>197.4</ele>
        <time>2016-05-15T16:11:23Z</time>
      </trkpt>
      <trkpt lat="44.40147" lon="0.9942">
        <ele>194.7</ele>
        <time>2016-05-15T16:11:24Z</time>
      </trkpt>
      <trkpt lat="44.40151" lon="0.99409">
        <ele>192.3</ele>
        <time>2016-05-15T16:11:25Z</time>
      </trkpt>
      <trkpt lat="44.40153" lon="0.99398">
        <ele>190.4</ele>
        <time>2016-05-15T16:11:26Z</time>
      </trkpt>
      <trkpt lat="44.40155" lon="0.99388">
        <ele>188.9</ele>
        <time>2016-05-15T16:11:27Z</time>
      </trkpt>
      <trkpt lat="44.40156" lon="0.9938">
        <ele>187.7</ele>
        <time>2016-05-15T16:11:28Z</time>
      </trkpt>
      <trkpt lat="44.40156" lon="0.99372">
        <ele>186.6</ele>
        <time>2016-05-15T16:11:29Z</time>
      </trkpt>
      <trkpt lat="44.40155" lon="0.99366">
        <ele>185.5</ele>
        <time>2016-05-15T16:11:30Z</time>
      </trkpt>
      <trkpt lat="44.40153" lon="0.99357">
        <ele>183.9</ele>
        <time>2016-05-15T16:11:32Z</time>
      </trkpt>
      <trkpt lat="44.40152" lon="0.99354">
        <ele>183.4</ele>
        <time>2016-05-15T16:11:33Z</time>
      </trkpt>
      <trkpt lat="44.40153" lon="0.99351">
        <ele>182.9</ele>
        <time>2016-05-15T16:11:34Z</time>
      </trkpt>
      <trkpt lat="44.40154" lon="0.99348">
        <ele>181.9</ele>
        <time>2016-05-15T16:11:36Z</time>
      </trkpt>
      <trkpt lat="44.40156" lon="0.99346">
        <ele>181.4</ele>
        <time>2016-05-15T16:11:37Z</time>
      </trkpt>
      <trkpt lat="44.40158" lon="0.99346">
        <ele>181.2</ele>
        <time>2016-05-15T16:11:38Z</time>
      </trkpt>
      <trkpt lat="44.40159" lon="0.99348">
        <ele>181.3</ele>
        <time>2016-05-15T16:11:39Z</time>
      </trkpt>
      <trkpt lat="44.4016" lon="0.99351">
        <ele>181.6</ele>
        <time>2016-05-15T16:11:40Z</time>
      </trkpt>
      <trkpt lat="44.40169" lon="0.99371">
        <ele>183.8</ele>
        <time>2016-05-15T16:11:45Z</time>
      </trkpt>
      <trkpt lat="44.40171" lon="0.99376">
        <ele>184.3</ele>
        <time>2016-05-15T16:11:46Z</time>
      </trkpt>
      <trkpt lat="44.40174" lon="0.99388">
        <ele>185</ele>
        <time>2016-05-15T16:11:48Z</time>
      </trkpt>
      <trkpt lat="44.40174" lon="0.99402">
        <ele>186.4</ele>
        <time>2016-05-15T16:11:50Z</time>
      </trkpt>
      <trkpt lat="44.40171" lon="0.99425">
        <ele>189.5</ele>
        <time>2016-05-15T16:11:53Z</time>
      </trkpt>
      <trkpt lat="44.40167" lon="0.99442">
        <ele>192.1</ele>
        <time>2016-05-15T16:11:55Z</time>
      </trkpt>
      <trkpt lat="44.40159" lon="0.99493">
        <ele>194.5</ele>
        <time>2016-05-15T16:12:01Z</time>
      </trkpt>
      <trkpt lat="44.40159" lon="0.99514">
        <ele>193.7</ele>
        <time>2016-05-15T16:12:04Z</time>
      </trkpt>
      <trkpt lat="44.40156" lon="0.99518">
        <ele>194.3</ele>
        <time>2016-05-15T16:12:05Z</time>
      </trkpt>
      <trkpt lat="44.40152" lon="0.99525">
        <ele>195.3</ele>
        <time>2016-05-15T16:12:07Z</time>
      </trkpt>
      <trkpt lat="44.4015" lon="0.99528">
        <ele>195.7</ele>
        <time>2016-05-15T16:12:08Z</time>
      </trkpt>
      <trkpt lat="44.40139" lon="0.99551">
        <ele>197.5</ele>
        <time>2016-05-15T16:12:14Z</time>
      </trkpt>
      <trkpt lat="44.40131" lon="0.99583">
        <ele>196</ele>
        <time>2016-05-15T16:12:20Z</time>
      </trkpt>
      <trkpt lat="44.4013" lon="0.99589">
        <ele>195.5</ele>
        <time>2016-05-15T16:12:21Z</time>
      </trkpt>
      <trkpt lat="44.40128" lon="0.99603">
        <ele>194.2</ele>
        <time>2016-05-15T16:12:23Z</time>
      </trkpt>
      <trkpt lat="44.40127" lon="0.99625">
        <ele>191.6</ele>
        <time>2016-05-15T16:12:26Z</time>
      </trkpt>
      <trkpt lat="44.40127" lon="0.99632">
        <ele>190.8</ele>
        <time>2016-05-15T16:12:27Z</time>
      </trkpt>
      <trkpt lat="44.40129" lon="0.99653">
        <ele>188.5</ele>
        <time>2016-05-15T16:12:30Z</time>
      </trkpt>
      <trkpt lat="44.4013" lon="0.99672">
        <ele>186.4</ele>
        <time>2016-05-15T16:12:33Z</time>
      </trkpt>
      <trkpt lat="44.4013" lon="0.99685">
        <ele>185.3</ele>
        <time>2016-05-15T16:12:35Z</time>
      </trkpt>
      <trkpt lat="44.40127" lon="0.99697">
        <ele>184.8</ele>
        <time>2016-05-15T16:12:37Z</time>
      </trkpt>
      <trkpt lat="44.40124" lon="0.99703">
        <ele>185</ele>
        <time>2016-05-15T16:12:38Z</time>
      </trkpt>
      <trkpt lat="44.40121" lon="0.99708">
        <ele>185.5</ele>
        <time>2016-05-15T16:12:39Z</time>
      </trkpt>
      <trkpt lat="44.40118" lon="0.99715">
        <ele>185.4</ele>
        <time>2016-05-15T16:12:40Z</time>
      </trkpt>
      <trkpt lat="44.40117" lon="0.99722">
        <ele>185</ele>
        <time>2016-05-15T16:12:41Z</time>
      </trkpt>
      <trkpt lat="44.40114" lon="0.99741">
        <ele>183.3</ele>
        <time>2016-05-15T16:12:44Z</time>
      </trkpt>
      <trkpt lat="44.40112" lon="0.99746">
        <ele>183.2</ele>
        <time>2016-05-15T16:12:45Z</time>
      </trkpt>
      <trkpt lat="44.40109" lon="0.9975">
        <ele>183.4</ele>
        <time>2016-05-15T16:12:46Z</time>
      </trkpt>
      <trkpt lat="44.40102" lon="0.99759">
        <ele>184.5</ele>
        <time>2016-05-15T16:12:49Z</time>
      </trkpt>
      <trkpt lat="44.40096" lon="0.99765">
        <ele>185.2</ele>
        <time>2016-05-15T16:12:51Z</time>
      </trkpt>
      <trkpt lat="44.40077" lon="0.99794">
        <ele>186.4</ele>
        <time>2016-05-15T16:12:58Z</time>
      </trkpt>
      <trkpt lat="44.40065" lon="0.99813">
        <ele>186</ele>
        <time>2016-05-15T16:13:02Z</time>
      </trkpt>
      <trkpt lat="44.40058" lon="0.99824">
        <ele>185.3</ele>
        <time>2016-05-15T16:13:04Z</time>
      </trkpt>
      <trkpt lat="44.40042" lon="0.9985">
        <ele>182.3</ele>
        <time>2016-05-15T16:13:08Z</time>
      </trkpt>
      <trkpt lat="44.40037" lon="0.99858">
        <ele>180.1</ele>
        <time>2016-05-15T16:13:09Z</time>
      </trkpt>
      <trkpt lat="44.4003" lon="0.99874">
        <ele>175.5</ele>
        <time>2016-05-15T16:13:11Z</time>
      </trkpt>
      <trkpt lat="44.40025" lon="0.99891">
        <ele>172.9</ele>
        <time>2016-05-15T16:13:13Z</time>
      </trkpt>
      <trkpt lat="44.40023" lon="0.99899">
        <ele>171.6</ele>
        <time>2016-05-15T16:13:14Z</time>
      </trkpt>
      <trkpt lat="44.40019" lon="0.99925">
        <ele>167.9</ele>
        <time>2016-05-15T16:13:17Z</time>
      </trkpt>
      <trkpt lat="44.40017" lon="0.99944">
        <ele>165.1</ele>
        <time>2016-05-15T16:13:19Z</time>
      </trkpt>
      <trkpt lat="44.40015" lon="0.99955">
        <ele>163.6</ele>
        <time>2016-05-15T16:13:20Z</time>
      </trkpt>
      <trkpt lat="44.40009" lon="0.99976">
        <ele>161.3</ele>
        <time>2016-05-15T16:13:22Z</time>
      </trkpt>
      <trkpt lat="44.40004" lon="0.99985">
        <ele>160.2</ele>
        <time>2016-05-15T16:13:23Z</time>
      </trkpt>
      <trkpt lat="44.4" lon="0.99995">
        <ele>159.1</ele>
        <time>2016-05-15T16:13:24Z</time>
      </trkpt>
      <trkpt lat="44.39988" lon="1.00012">
        <ele>157.1</ele>
        <time>2016-05-15T16:13:26Z</time>
      </trkpt>
      <trkpt lat="44.39976" lon="1.00025">
        <ele>155.3</ele>
        <time>2016-05-15T16:13:28Z</time>
      </trkpt>
      <trkpt lat="44.39963" lon="1.00037">
        <ele>153.6</ele>
        <time>2016-05-15T16:13:30Z</time>
      </trkpt>
      <trkpt lat="44.39956" lon="1.00043">
        <ele>152.6</ele>
        <time>2016-05-15T16:13:31Z</time>
      </trkpt>
      <trkpt lat="44.39949" lon="1.00047">
        <ele>151</ele>
        <time>2016-05-15T16:13:32Z</time>
      </trkpt>
      <trkpt lat="44.3994" lon="1.00049">
        <ele>149.5</ele>
        <time>2016-05-15T16:13:33Z</time>
      </trkpt>
      <trkpt lat="44.39931" lon="1.00048">
        <ele>148</ele>
        <time>2016-05-15T16:13:34Z</time>
      </trkpt>
      <trkpt lat="44.39921" lon="1.00043">
        <ele>146.7</ele>
        <time>2016-05-15T16:13:35Z</time>
      </trkpt>
      <trkpt lat="44.39912" lon="1.00035">
        <ele>145.6</ele>
        <time>2016-05-15T16:13:36Z</time>
      </trkpt>
      <trkpt lat="44.39897" lon="1.00018">
        <ele>143.7</ele>
        <time>2016-05-15T16:13:38Z</time>
      </trkpt>
      <trkpt lat="44.39889" lon="1.00008">
        <ele>142.7</ele>
        <time>2016-05-15T16:13:39Z</time>
      </trkpt>
      <trkpt lat="44.39874" lon="0.99989">
        <ele>140.8</ele>
        <time>2016-05-15T16:13:41Z</time>
      </trkpt>
      <trkpt lat="44.3986" lon="0.99971">
        <ele>139.9</ele>
        <time>2016-05-15T16:13:43Z</time>
      </trkpt>
      <trkpt lat="44.39854" lon="0.99963">
        <ele>139.3</ele>
        <time>2016-05-15T16:13:44Z</time>
      </trkpt>
      <trkpt lat="44.39847" lon="0.99956">
        <ele>138.8</ele>
        <time>2016-05-15T16:13:45Z</time>
      </trkpt>
      <trkpt lat="44.39839" lon="0.99949">
        <ele>138.5</ele>
        <time>2016-05-15T16:13:46Z</time>
      </trkpt>
      <trkpt lat="44.39816" lon="0.99928">
        <ele>137.1</ele>
        <time>2016-05-15T16:13:49Z</time>
      </trkpt>
      <trkpt lat="44.39808" lon="0.99921">
        <ele>136.5</ele>
        <time>2016-05-15T16:13:50Z</time>
      </trkpt>
      <trkpt lat="44.398" lon="0.99914">
        <ele>135.7</ele>
        <time>2016-05-15T16:13:51Z</time>
      </trkpt>
      <trkpt lat="44.39782" lon="0.99901">
        <ele>134.8</ele>
        <time>2016-05-15T16:13:53Z</time>
      </trkpt>
      <trkpt lat="44.39764" lon="0.99887">
        <ele>134</ele>
        <time>2016-05-15T16:13:55Z</time>
      </trkpt>
      <trkpt lat="44.39756" lon="0.9988">
        <ele>133.4</ele>
        <time>2016-05-15T16:13:56Z</time>
      </trkpt>
      <trkpt lat="44.39747" lon="0.99874">
        <ele>132.7</ele>
        <time>2016-05-15T16:13:57Z</time>
      </trkpt>
      <trkpt lat="44.39732" lon="0.99863">
        <ele>131.4</ele>
        <time>2016-05-15T16:13:59Z</time>
      </trkpt>
      <trkpt lat="44.39718" lon="0.99853">
        <ele>129.9</ele>
        <time>2016-05-15T16:14:01Z</time>
      </trkpt>
      <trkpt lat="44.39713" lon="0.99849">
        <ele>129.2</ele>
        <time>2016-05-15T16:14:02Z</time>
      </trkpt>
      <trkpt lat="44.397" lon="0.99839">
        <ele>128.3</ele>
        <time>2016-05-15T16:14:05Z</time>
      </trkpt>
      <trkpt lat="44.39687" lon="0.99828">
        <ele>127.7</ele>
        <time>2016-05-15T16:14:09Z</time>
      </trkpt>
      <trkpt lat="44.3968" lon="0.99828">
        <ele>127.4</ele>
        <time>2016-05-15T16:14:11Z</time>
      </trkpt>
      <trkpt lat="44.39668" lon="0.9984">
        <ele>127.1</ele>
        <time>2016-05-15T16:14:14Z</time>
      </trkpt>
      <trkpt lat="44.39664" lon="0.99847">
        <ele>127.1</ele>
        <time>2016-05-15T16:14:15Z</time>
      </trkpt>
      <trkpt lat="44.39656" lon="0.99863">
        <ele>127</ele>
        <time>2016-05-15T16:14:17Z</time>
      </trkpt>
      <trkpt lat="44.39653" lon="0.99872">
        <ele>127</ele>
        <time>2016-05-15T16:14:18Z</time>
      </trkpt>
      <trkpt lat="44.39642" lon="0.99898">
        <ele>126.9</ele>
        <time>2016-05-15T16:14:21Z</time>
      </trkpt>
      <trkpt lat="44.39638" lon="0.99906">
        <ele>126.9</ele>
        <time>2016-05-15T16:14:22Z</time>
      </trkpt>
      <trkpt lat="44.39627" lon="0.99918">
        <ele>126.6</ele>
        <time>2016-05-15T16:14:24Z</time>
      </trkpt>
      <trkpt lat="44.39616" lon="0.99928">
        <ele>126.5</ele>
        <time>2016-05-15T16:14:26Z</time>
      </trkpt>
      <trkpt lat="44.39594" lon="0.99945">
        <ele>126.1</ele>
        <time>2016-05-15T16:14:30Z</time>
      </trkpt>
      <trkpt lat="44.39553" lon="0.99971">
        <ele>125.6</ele>
        <time>2016-05-15T16:14:37Z</time>
      </trkpt>
      <trkpt lat="44.39505" lon="0.99994">
        <ele>125.7</ele>
        <time>2016-05-15T16:14:45Z</time>
      </trkpt>
      <trkpt lat="44.39467" lon="1.00013">
        <ele>125.4</ele>
        <time>2016-05-15T16:14:52Z</time>
      </trkpt>
      <trkpt lat="44.39451" lon="1.00024">
        <ele>125.3</ele>
        <time>2016-05-15T16:14:55Z</time>
      </trkpt>
      <trkpt lat="44.39438" lon="1.00037">
        <ele>125.3</ele>
        <time>2016-05-15T16:14:58Z</time>
      </trkpt>
      <trkpt lat="44.39434" lon="1.00042">
        <ele>125.3</ele>
        <time>2016-05-15T16:14:59Z</time>
      </trkpt>
      <trkpt lat="44.39407" lon="1.00081">
        <ele>125.8</ele>
        <time>2016-05-15T16:15:06Z</time>
      </trkpt>
      <trkpt lat="44.39385" lon="1.00116">
        <ele>126</ele>
        <time>2016-05-15T16:15:12Z</time>
      </trkpt>
      <trkpt lat="44.39381" lon="1.00121">
        <ele>126</ele>
        <time>2016-05-15T16:15:13Z</time>
      </trkpt>
      <trkpt lat="44.39378" lon="1.00126">
        <ele>126</ele>
        <time>2016-05-15T16:15:14Z</time>
      </trkpt>
      <trkpt lat="44.39359" lon="1.00154">
        <ele>126.1</ele>
        <time>2016-05-15T16:15:19Z</time>
      </trkpt>
      <trkpt lat="44.39331" lon="1.00198">
        <ele>126.5</ele>
        <time>2016-05-15T16:15:27Z</time>
      </trkpt>
      <trkpt lat="44.39306" lon="1.00236">
        <ele>127.4</ele>
        <time>2016-05-15T16:15:34Z</time>
      </trkpt>
      <trkpt lat="44.39297" lon="1.00254">
        <ele>127.9</ele>
        <time>2016-05-15T16:15:37Z</time>
      </trkpt>
      <trkpt lat="44.39295" lon="1.0026">
        <ele>128.2</ele>
        <time>2016-05-15T16:15:38Z</time>
      </trkpt>
      <trkpt lat="44.39292" lon="1.00274">
        <ele>128.6</ele>
        <time>2016-05-15T16:15:40Z</time>
      </trkpt>
      <trkpt lat="44.3929" lon="1.00289">
        <ele>128.9</ele>
        <time>2016-05-15T16:15:42Z</time>
      </trkpt>
      <trkpt lat="44.3929" lon="1.00317">
        <ele>129</ele>
        <time>2016-05-15T16:15:46Z</time>
      </trkpt>
      <trkpt lat="44.3929" lon="1.00323">
        <ele>129</ele>
        <time>2016-05-15T16:15:47Z</time>
      </trkpt>
      <trkpt lat="44.39292" lon="1.00347">
        <ele>129</ele>
        <time>2016-05-15T16:15:51Z</time>
      </trkpt>
      <trkpt lat="44.39293" lon="1.00353">
        <ele>129</ele>
        <time>2016-05-15T16:15:52Z</time>
      </trkpt>
      <trkpt lat="44.39293" lon="1.00387">
        <ele>129.4</ele>
        <time>2016-05-15T16:15:58Z</time>
      </trkpt>
      <trkpt lat="44.39293" lon="1.00392">
        <ele>129.6</ele>
        <time>2016-05-15T16:15:59Z</time>
      </trkpt>
      <trkpt lat="44.3929" lon="1.00422">
        <ele>130.7</ele>
        <time>2016-05-15T16:16:05Z</time>
      </trkpt>
      <trkpt lat="44.39289" lon="1.00427">
        <ele>130.8</ele>
        <time>2016-05-15T16:16:06Z</time>
      </trkpt>
      <trkpt lat="44.39278" lon="1.00451">
        <ele>131.6</ele>
        <time>2016-05-15T16:16:12Z</time>
      </trkpt>
      <trkpt lat="44.39274" lon="1.00458">
        <ele>131.8</ele>
        <time>2016-05-15T16:16:14Z</time>
      </trkpt>
      <trkpt lat="44.39259" lon="1.00477">
        <ele>132.5</ele>
        <time>2016-05-15T16:16:20Z</time>
      </trkpt>
      <trkpt lat="44.39254" lon="1.00483">
        <ele>132.7</ele>
        <time>2016-05-15T16:16:22Z</time>
      </trkpt>
      <trkpt lat="44.39248" lon="1.00491">
        <ele>133</ele>
        <time>2016-05-15T16:16:25Z</time>
      </trkpt>
      <trkpt lat="44.39236" lon="1.00504">
        <ele>133.5</ele>
        <time>2016-05-15T16:16:30Z</time>
      </trkpt>
      <trkpt lat="44.3923" lon="1.00511">
        <ele>133.8</ele>
        <time>2016-05-15T16:16:33Z</time>
      </trkpt>
      <trkpt lat="44.3922" lon="1.00524">
        <ele>134.3</ele>
        <time>2016-05-15T16:16:38Z</time>
      </trkpt>
      <trkpt lat="44.39209" lon="1.00537">
        <ele>134.8</ele>
        <time>2016-05-15T16:16:43Z</time>
      </trkpt>
      <trkpt lat="44.39206" lon="1.00539">
        <ele>134.8</ele>
        <time>2016-05-15T16:16:44Z</time>
      </trkpt>
      <trkpt lat="44.39195" lon="1.00553">
        <ele>134.9</ele>
        <time>2016-05-15T16:16:50Z</time>
      </trkpt>
      <trkpt lat="44.39192" lon="1.00556">
        <ele>134.9</ele>
        <time>2016-05-15T16:16:51Z</time>
      </trkpt>
      <trkpt lat="44.39177" lon="1.00573">
        <ele>135</ele>
        <time>2016-05-15T16:16:57Z</time>
      </trkpt>
      <trkpt lat="44.39164" lon="1.00589">
        <ele>135.1</ele>
        <time>2016-05-15T16:17:03Z</time>
      </trkpt>
      <trkpt lat="44.39157" lon="1.00597">
        <ele>135.2</ele>
        <time>2016-05-15T16:17:06Z</time>
      </trkpt>
      <trkpt lat="44.39146" lon="1.00611">
        <ele>135.3</ele>
        <time>2016-05-15T16:17:11Z</time>
      </trkpt>
      <trkpt lat="44.39143" lon="1.00614">
        <ele>135.3</ele>
        <time>2016-05-15T16:17:13Z</time>
      </trkpt>
      <trkpt lat="44.39131" lon="1.00629">
        <ele>135.5</ele>
        <time>2016-05-15T16:17:19Z</time>
      </trkpt>
      <trkpt lat="44.39122" lon="1.0064">
        <ele>135.8</ele>
        <time>2016-05-15T16:17:25Z</time>
      </trkpt>
      <trkpt lat="44.39121" lon="1.00642">
        <ele>135.8</ele>
        <time>2016-05-15T16:17:26Z</time>
      </trkpt>
      <trkpt lat="44.39115" lon="1.0065">
        <ele>136</ele>
        <time>2016-05-15T16:17:32Z</time>
      </trkpt>
      <trkpt lat="44.39114" lon="1.00651">
        <ele>135.9</ele>
        <time>2016-05-15T16:17:33Z</time>
      </trkpt>
      <trkpt lat="44.39109" lon="1.00655">
        <ele>135.9</ele>
        <time>2016-05-15T16:17:38Z</time>
      </trkpt>
      <trkpt lat="44.39108" lon="1.00657">
        <ele>135.9</ele>
        <time>2016-05-15T16:19:42Z</time>
      </trkpt>
      <trkpt lat="44.39103" lon="1.00663">
        <ele>135.9</ele>
        <time>2016-05-15T16:19:45Z</time>
      </trkpt>
      <trkpt lat="44.3909" lon="1.00678">
        <ele>135.6</ele>
        <time>2016-05-15T16:19:50Z</time>
      </trkpt>
      <trkpt lat="44.3908" lon="1.00691">
        <ele>135.2</ele>
        <time>2016-05-15T16:19:53Z</time>
      </trkpt>
      <trkpt lat="44.39072" lon="1.00701">
        <ele>134.7</ele>
        <time>2016-05-15T16:19:55Z</time>
      </trkpt>
      <trkpt lat="44.39054" lon="1.00723">
        <ele>133.7</ele>
        <time>2016-05-15T16:19:59Z</time>
      </trkpt>
      <trkpt lat="44.39048" lon="1.00729">
        <ele>133.4</ele>
        <time>2016-05-15T16:20:00Z</time>
      </trkpt>
      <trkpt lat="44.39038" lon="1.00743">
        <ele>133.1</ele>
        <time>2016-05-15T16:20:02Z</time>
      </trkpt>
      <trkpt lat="44.3902" lon="1.00764">
        <ele>133.2</ele>
        <time>2016-05-15T16:20:05Z</time>
      </trkpt>
      <trkpt lat="44.38988" lon="1.00802">
        <ele>132.9</ele>
        <time>2016-05-15T16:20:10Z</time>
      </trkpt>
      <trkpt lat="44.38977" lon="1.00819">
        <ele>132.9</ele>
        <time>2016-05-15T16:20:12Z</time>
      </trkpt>
      <trkpt lat="44.38948" lon="1.00867">
        <ele>133.5</ele>
        <time>2016-05-15T16:20:18Z</time>
      </trkpt>
      <trkpt lat="44.38922" lon="1.00922">
        <ele>134.6</ele>
        <time>2016-05-15T16:20:25Z</time>
      </trkpt>
      <trkpt lat="44.38912" lon="1.00942">
        <ele>134.7</ele>
        <time>2016-05-15T16:20:28Z</time>
      </trkpt>
      <trkpt lat="44.38901" lon="1.00966">
        <ele>134.8</ele>
        <time>2016-05-15T16:20:32Z</time>
      </trkpt>
      <trkpt lat="44.38879" lon="1.01014">
        <ele>135.2</ele>
        <time>2016-05-15T16:20:40Z</time>
      </trkpt>
      <trkpt lat="44.38876" lon="1.01019">
        <ele>135.3</ele>
        <time>2016-05-15T16:20:41Z</time>
      </trkpt>
      <trkpt lat="44.38865" lon="1.01042">
        <ele>135.6</ele>
        <time>2016-05-15T16:20:45Z</time>
      </trkpt>
      <trkpt lat="44.38857" lon="1.01056">
        <ele>136.1</ele>
        <time>2016-05-15T16:20:48Z</time>
      </trkpt>
      <trkpt lat="44.38837" lon="1.0109">
        <ele>136.8</ele>
        <time>2016-05-15T16:20:56Z</time>
      </trkpt>
      <trkpt lat="44.38835" lon="1.01094">
        <ele>136.8</ele>
        <time>2016-05-15T16:20:57Z</time>
      </trkpt>
      <trkpt lat="44.3883" lon="1.01101">
        <ele>136.8</ele>
        <time>2016-05-15T16:20:59Z</time>
      </trkpt>
      <trkpt lat="44.38825" lon="1.01107">
        <ele>136.7</ele>
        <time>2016-05-15T16:21:01Z</time>
      </trkpt>
      <trkpt lat="44.38823" lon="1.0111">
        <ele>136.7</ele>
        <time>2016-05-15T16:21:02Z</time>
      </trkpt>
      <trkpt lat="44.3882" lon="1.01114">
        <ele>136.6</ele>
        <time>2016-05-15T16:21:03Z</time>
      </trkpt>
      <trkpt lat="44.38818" lon="1.01117">
        <ele>136.6</ele>
        <time>2016-05-15T16:21:04Z</time>
      </trkpt>
      <trkpt lat="44.38798" lon="1.01139">
        <ele>135.8</ele>
        <time>2016-05-15T16:21:09Z</time>
      </trkpt>
      <trkpt lat="44.38778" lon="1.0116">
        <ele>135.5</ele>
        <time>2016-05-15T16:21:13Z</time>
      </trkpt>
      <trkpt lat="44.38768" lon="1.01172">
        <ele>135.4</ele>
        <time>2016-05-15T16:21:15Z</time>
      </trkpt>
      <trkpt lat="44.38751" lon="1.0119">
        <ele>135.2</ele>
        <time>2016-05-15T16:21:18Z</time>
      </trkpt>
      <trkpt lat="44.38733" lon="1.01209">
        <ele>134.9</ele>
        <time>2016-05-15T16:21:21Z</time>
      </trkpt>
      <trkpt lat="44.38727" lon="1.01216">
        <ele>134.9</ele>
        <time>2016-05-15T16:21:22Z</time>
      </trkpt>
      <trkpt lat="44.38682" lon="1.0126">
        <ele>135.3</ele>
        <time>2016-05-15T16:21:29Z</time>
      </trkpt>
      <trkpt lat="44.38645" lon="1.013">
        <ele>135</ele>
        <time>2016-05-15T16:21:36Z</time>
      </trkpt>
      <trkpt lat="44.3863" lon="1.01318">
        <ele>135.1</ele>
        <time>2016-05-15T16:21:39Z</time>
      </trkpt>
      <trkpt lat="44.38605" lon="1.01347">
        <ele>136.1</ele>
        <time>2016-05-15T16:21:44Z</time>
      </trkpt>
      <trkpt lat="44.38562" lon="1.01399">
        <ele>137.1</ele>
        <time>2016-05-15T16:21:53Z</time>
      </trkpt>
      <trkpt lat="44.38519" lon="1.01452">
        <ele>137</ele>
        <time>2016-05-15T16:22:02Z</time>
      </trkpt>
      <trkpt lat="44.38508" lon="1.01473">
        <ele>137</ele>
        <time>2016-05-15T16:22:05Z</time>
      </trkpt>
      <trkpt lat="44.38501" lon="1.01489">
        <ele>137</ele>
        <time>2016-05-15T16:22:07Z</time>
      </trkpt>
      <trkpt lat="44.38476" lon="1.0155">
        <ele>136.6</ele>
        <time>2016-05-15T16:22:15Z</time>
      </trkpt>
      <trkpt lat="44.38456" lon="1.01591">
        <ele>137.2</ele>
        <time>2016-05-15T16:22:21Z</time>
      </trkpt>
      <trkpt lat="44.38452" lon="1.01598">
        <ele>137.3</ele>
        <time>2016-05-15T16:22:22Z</time>
      </trkpt>
      <trkpt lat="44.38426" lon="1.01631">
        <ele>137.3</ele>
        <time>2016-05-15T16:22:28Z</time>
      </trkpt>
      <trkpt lat="44.38385" lon="1.01668">
        <ele>136.8</ele>
        <time>2016-05-15T16:22:36Z</time>
      </trkpt>
      <trkpt lat="44.38346" lon="1.01704">
        <ele>137</ele>
        <time>2016-05-15T16:22:43Z</time>
      </trkpt>
      <trkpt lat="44.38307" lon="1.01744">
        <ele>137.4</ele>
        <time>2016-05-15T16:22:50Z</time>
      </trkpt>
      <trkpt lat="44.38303" lon="1.01751">
        <ele>137.5</ele>
        <time>2016-05-15T16:22:51Z</time>
      </trkpt>
      <trkpt lat="44.38285" lon="1.01791">
        <ele>138.2</ele>
        <time>2016-05-15T16:22:56Z</time>
      </trkpt>
      <trkpt lat="44.38257" lon="1.0186">
        <ele>139.3</ele>
        <time>2016-05-15T16:23:05Z</time>
      </trkpt>
      <trkpt lat="44.38228" lon="1.01932">
        <ele>139.9</ele>
        <time>2016-05-15T16:23:15Z</time>
      </trkpt>
      <trkpt lat="44.38208" lon="1.01981">
        <ele>139.7</ele>
        <time>2016-05-15T16:23:22Z</time>
      </trkpt>
      <trkpt lat="44.38195" lon="1.02021">
        <ele>139.4</ele>
        <time>2016-05-15T16:23:28Z</time>
      </trkpt>
      <trkpt lat="44.38188" lon="1.02045">
        <ele>139.3</ele>
        <time>2016-05-15T16:23:32Z</time>
      </trkpt>
      <trkpt lat="44.38186" lon="1.02051">
        <ele>139.3</ele>
        <time>2016-05-15T16:23:33Z</time>
      </trkpt>
      <trkpt lat="44.3817" lon="1.02092">
        <ele>139.5</ele>
        <time>2016-05-15T16:23:40Z</time>
      </trkpt>
      <trkpt lat="44.3816" lon="1.02119">
        <ele>139.4</ele>
        <time>2016-05-15T16:23:45Z</time>
      </trkpt>
      <trkpt lat="44.38152" lon="1.02134">
        <ele>139.5</ele>
        <time>2016-05-15T16:23:48Z</time>
      </trkpt>
      <trkpt lat="44.38148" lon="1.02145">
        <ele>139.6</ele>
        <time>2016-05-15T16:23:50Z</time>
      </trkpt>
      <trkpt lat="44.38143" lon="1.02162">
        <ele>139.9</ele>
        <time>2016-05-15T16:23:53Z</time>
      </trkpt>
      <trkpt lat="44.38135" lon="1.02184">
        <ele>140.4</ele>
        <time>2016-05-15T16:23:57Z</time>
      </trkpt>
      <trkpt lat="44.38133" lon="1.0219">
        <ele>140.5</ele>
        <time>2016-05-15T16:23:58Z</time>
      </trkpt>
      <trkpt lat="44.38123" lon="1.0221">
        <ele>141.1</ele>
        <time>2016-05-15T16:24:02Z</time>
      </trkpt>
      <trkpt lat="44.38122" lon="1.02217">
        <ele>141.2</ele>
        <time>2016-05-15T16:24:03Z</time>
      </trkpt>
      <trkpt lat="44.38121" lon="1.02229">
        <ele>141.3</ele>
        <time>2016-05-15T16:24:05Z</time>
      </trkpt>
      <trkpt lat="44.38115" lon="1.02246">
        <ele>141.6</ele>
        <time>2016-05-15T16:24:08Z</time>
      </trkpt>
      <trkpt lat="44.38113" lon="1.02251">
        <ele>141.7</ele>
        <time>2016-05-15T16:24:09Z</time>
      </trkpt>
      <trkpt lat="44.38112" lon="1.02257">
        <ele>141.8</ele>
        <time>2016-05-15T16:24:10Z</time>
      </trkpt>
      <trkpt lat="44.38106" lon="1.02277">
        <ele>142.1</ele>
        <time>2016-05-15T16:24:14Z</time>
      </trkpt>
      <trkpt lat="44.38105" lon="1.02282">
        <ele>142.2</ele>
        <time>2016-05-15T16:24:15Z</time>
      </trkpt>
      <trkpt lat="44.381" lon="1.02292">
        <ele>142.3</ele>
        <time>2016-05-15T16:24:17Z</time>
      </trkpt>
      <trkpt lat="44.38096" lon="1.02302">
        <ele>142.3</ele>
        <time>2016-05-15T16:24:19Z</time>
      </trkpt>
      <trkpt lat="44.38091" lon="1.02311">
        <ele>142.3</ele>
        <time>2016-05-15T16:24:21Z</time>
      </trkpt>
      <trkpt lat="44.38076" lon="1.02348">
        <ele>142.2</ele>
        <time>2016-05-15T16:24:28Z</time>
      </trkpt>
      <trkpt lat="44.38071" lon="1.02357">
        <ele>142.1</ele>
        <time>2016-05-15T16:24:30Z</time>
      </trkpt>
      <trkpt lat="44.38066" lon="1.02367">
        <ele>142.1</ele>
        <time>2016-05-15T16:24:32Z</time>
      </trkpt>
      <trkpt lat="44.38064" lon="1.02372">
        <ele>142</ele>
        <time>2016-05-15T16:24:33Z</time>
      </trkpt>
      <trkpt lat="44.38045" lon="1.02415">
        <ele>141.5</ele>
        <time>2016-05-15T16:24:41Z</time>
      </trkpt>
      <trkpt lat="44.38031" lon="1.02449">
        <ele>141.3</ele>
        <time>2016-05-15T16:24:47Z</time>
      </trkpt>
      <trkpt lat="44.38029" lon="1.02455">
        <ele>141.2</ele>
        <time>2016-05-15T16:24:48Z</time>
      </trkpt>
      <trkpt lat="44.38026" lon="1.02459">
        <ele>141.2</ele>
        <time>2016-05-15T16:24:49Z</time>
      </trkpt>
      <trkpt lat="44.3802" lon="1.02474">
        <ele>141.6</ele>
        <time>2016-05-15T16:24:52Z</time>
      </trkpt>
      <trkpt lat="44.38018" lon="1.0248">
        <ele>141.7</ele>
        <time>2016-05-15T16:24:53Z</time>
      </trkpt>
      <trkpt lat="44.38016" lon="1.02484">
        <ele>141.8</ele>
        <time>2016-05-15T16:24:54Z</time>
      </trkpt>
      <trkpt lat="44.38012" lon="1.02493">
        <ele>142</ele>
        <time>2016-05-15T16:24:56Z</time>
      </trkpt>
      <trkpt lat="44.3801" lon="1.02498">
        <ele>142.2</ele>
        <time>2016-05-15T16:24:57Z</time>
      </trkpt>
      <trkpt lat="44.37996" lon="1.02543">
        <ele>143</ele>
        <time>2016-05-15T16:25:05Z</time>
      </trkpt>
      <trkpt lat="44.37994" lon="1.02549">
        <ele>143</ele>
        <time>2016-05-15T16:25:06Z</time>
      </trkpt>
      <trkpt lat="44.37992" lon="1.02554">
        <ele>143</ele>
        <time>2016-05-15T16:25:07Z</time>
      </trkpt>
      <trkpt lat="44.37988" lon="1.02565">
        <ele>143</ele>
        <time>2016-05-15T16:25:09Z</time>
      </trkpt>
      <trkpt lat="44.37984" lon="1.02577">
        <ele>143</ele>
        <time>2016-05-15T16:25:11Z</time>
      </trkpt>
      <trkpt lat="44.37983" lon="1.02583">
        <ele>143</ele>
        <time>2016-05-15T16:25:12Z</time>
      </trkpt>
      <trkpt lat="44.37976" lon="1.02607">
        <ele>143</ele>
        <time>2016-05-15T16:25:16Z</time>
      </trkpt>
      <trkpt lat="44.37974" lon="1.02612">
        <ele>143</ele>
        <time>2016-05-15T16:25:17Z</time>
      </trkpt>
      <trkpt lat="44.37963" lon="1.02651">
        <ele>143</ele>
        <time>2016-05-15T16:25:23Z</time>
      </trkpt>
      <trkpt lat="44.37949" lon="1.02702">
        <ele>143.5</ele>
        <time>2016-05-15T16:25:31Z</time>
      </trkpt>
      <trkpt lat="44.37943" lon="1.02721">
        <ele>143.7</ele>
        <time>2016-05-15T16:25:34Z</time>
      </trkpt>
      <trkpt lat="44.3793" lon="1.02766">
        <ele>144.1</ele>
        <time>2016-05-15T16:25:41Z</time>
      </trkpt>
      <trkpt lat="44.37919" lon="1.02805">
        <ele>144.5</ele>
        <time>2016-05-15T16:25:47Z</time>
      </trkpt>
      <trkpt lat="44.37912" lon="1.0283">
        <ele>144.9</ele>
        <time>2016-05-15T16:25:51Z</time>
      </trkpt>
      <trkpt lat="44.37905" lon="1.02855">
        <ele>145.2</ele>
        <time>2016-05-15T16:25:55Z</time>
      </trkpt>
      <trkpt lat="44.37897" lon="1.02886">
        <ele>145.6</ele>
        <time>2016-05-15T16:26:00Z</time>
      </trkpt>
      <trkpt lat="44.37896" lon="1.02892">
        <ele>145.6</ele>
        <time>2016-05-15T16:26:01Z</time>
      </trkpt>
      <trkpt lat="44.37889" lon="1.0293">
        <ele>146.2</ele>
        <time>2016-05-15T16:26:07Z</time>
      </trkpt>
      <trkpt lat="44.3788" lon="1.02996">
        <ele>146.8</ele>
        <time>2016-05-15T16:26:17Z</time>
      </trkpt>
      <trkpt lat="44.37872" lon="1.03048">
        <ele>147.1</ele>
        <time>2016-05-15T16:26:25Z</time>
      </trkpt>
      <trkpt lat="44.37861" lon="1.03123">
        <ele>146.7</ele>
        <time>2016-05-15T16:26:36Z</time>
      </trkpt>
      <trkpt lat="44.37855" lon="1.03163">
        <ele>146.8</ele>
        <time>2016-05-15T16:26:42Z</time>
      </trkpt>
      <trkpt lat="44.37851" lon="1.03189">
        <ele>146.9</ele>
        <time>2016-05-15T16:26:46Z</time>
      </trkpt>
      <trkpt lat="44.37845" lon="1.03236">
        <ele>147.1</ele>
        <time>2016-05-15T16:26:53Z</time>
      </trkpt>
      <trkpt lat="44.37836" lon="1.03292">
        <ele>147.4</ele>
        <time>2016-05-15T16:27:02Z</time>
      </trkpt>
      <trkpt lat="44.37829" lon="1.03341">
        <ele>148.5</ele>
        <time>2016-05-15T16:27:10Z</time>
      </trkpt>
      <trkpt lat="44.37827" lon="1.03353">
        <ele>148.8</ele>
        <time>2016-05-15T16:27:12Z</time>
      </trkpt>
      <trkpt lat="44.37819" lon="1.03407">
        <ele>149.6</ele>
        <time>2016-05-15T16:27:21Z</time>
      </trkpt>
      <trkpt lat="44.37811" lon="1.03466">
        <ele>149.9</ele>
        <time>2016-05-15T16:27:31Z</time>
      </trkpt>
      <trkpt lat="44.37804" lon="1.03511">
        <ele>149.5</ele>
        <time>2016-05-15T16:27:39Z</time>
      </trkpt>
      <trkpt lat="44.37803" lon="1.03517">
        <ele>149.4</ele>
        <time>2016-05-15T16:27:40Z</time>
      </trkpt>
      <trkpt lat="44.37795" lon="1.03563">
        <ele>149.1</ele>
        <time>2016-05-15T16:27:48Z</time>
      </trkpt>
      <trkpt lat="44.37788" lon="1.03613">
        <ele>149</ele>
        <time>2016-05-15T16:27:57Z</time>
      </trkpt>
      <trkpt lat="44.37783" lon="1.03648">
        <ele>149.3</ele>
        <time>2016-05-15T16:28:04Z</time>
      </trkpt>
      <trkpt lat="44.37779" lon="1.03677">
        <ele>149.6</ele>
        <time>2016-05-15T16:28:10Z</time>
      </trkpt>
      <trkpt lat="44.37775" lon="1.037">
        <ele>149.9</ele>
        <time>2016-05-15T16:28:15Z</time>
      </trkpt>
      <trkpt lat="44.37773" lon="1.03716">
        <ele>150.1</ele>
        <time>2016-05-15T16:28:18Z</time>
      </trkpt>
      <trkpt lat="44.37765" lon="1.03763">
        <ele>150.4</ele>
        <time>2016-05-15T16:28:27Z</time>
      </trkpt>
      <trkpt lat="44.37758" lon="1.0381">
        <ele>150.8</ele>
        <time>2016-05-15T16:28:36Z</time>
      </trkpt>
      <trkpt lat="44.37755" lon="1.03832">
        <ele>151</ele>
        <time>2016-05-15T16:28:40Z</time>
      </trkpt>
      <trkpt lat="44.37752" lon="1.03853">
        <ele>151.3</ele>
        <time>2016-05-15T16:28:44Z</time>
      </trkpt>
      <trkpt lat="44.37745" lon="1.03899">
        <ele>151.8</ele>
        <time>2016-05-15T16:28:53Z</time>
      </trkpt>
      <trkpt lat="44.37741" lon="1.03921">
        <ele>152.2</ele>
        <time>2016-05-15T16:28:58Z</time>
      </trkpt>
      <trkpt lat="44.3774" lon="1.03928">
        <ele>152.3</ele>
        <time>2016-05-15T16:29:00Z</time>
      </trkpt>
      <trkpt lat="44.37737" lon="1.03957">
        <ele>152.7</ele>
        <time>2016-05-15T16:29:07Z</time>
      </trkpt>
      <trkpt lat="44.37735" lon="1.03983">
        <ele>152.5</ele>
        <time>2016-05-15T16:29:13Z</time>
      </trkpt>
      <trkpt lat="44.37735" lon="1.03986">
        <ele>152.5</ele>
        <time>2016-05-15T16:29:14Z</time>
      </trkpt>
      <trkpt lat="44.37735" lon="1.03995">
        <ele>152.5</ele>
        <time>2016-05-15T16:29:17Z</time>
      </trkpt>
      <trkpt lat="44.37735" lon="1.03999">
        <ele>152.5</ele>
        <time>2016-05-15T16:29:19Z</time>
      </trkpt>
      <trkpt lat="44.37732" lon="1.04012">
        <ele>152.3</ele>
        <time>2016-05-15T16:29:23Z</time>
      </trkpt>
      <trkpt lat="44.37731" lon="1.04016">
        <ele>152.2</ele>
        <time>2016-05-15T16:29:24Z</time>
      </trkpt>
      <trkpt lat="44.37729" lon="1.04032">
        <ele>152.1</ele>
        <time>2016-05-15T16:29:30Z</time>
      </trkpt>
      <trkpt lat="44.3773" lon="1.04043">
        <ele>152.1</ele>
        <time>2016-05-15T16:29:36Z</time>
      </trkpt>
      <trkpt lat="44.37728" lon="1.04048">
        <ele>152.1</ele>
        <time>2016-05-15T16:32:40Z</time>
      </trkpt>
      <trkpt lat="44.37728" lon="1.04049">
        <ele>152.1</ele>
        <time>2016-05-15T16:32:41Z</time>
      </trkpt>
      <trkpt lat="44.37726" lon="1.04062">
        <ele>152.3</ele>
        <time>2016-05-15T16:32:45Z</time>
      </trkpt>
      <trkpt lat="44.37724" lon="1.04087">
        <ele>152.8</ele>
        <time>2016-05-15T16:32:51Z</time>
      </trkpt>
      <trkpt lat="44.37718" lon="1.04119">
        <ele>153.3</ele>
        <time>2016-05-15T16:32:57Z</time>
      </trkpt>
      <trkpt lat="44.3771" lon="1.04166">
        <ele>153.1</ele>
        <time>2016-05-15T16:33:05Z</time>
      </trkpt>
      <trkpt lat="44.3771" lon="1.04172">
        <ele>153.1</ele>
        <time>2016-05-15T16:33:06Z</time>
      </trkpt>
      <trkpt lat="44.37706" lon="1.04226">
        <ele>153.4</ele>
        <time>2016-05-15T16:33:15Z</time>
      </trkpt>
      <trkpt lat="44.37706" lon="1.04239">
        <ele>153.7</ele>
        <time>2016-05-15T16:33:17Z</time>
      </trkpt>
      <trkpt lat="44.37709" lon="1.0428">
        <ele>154.8</ele>
        <time>2016-05-15T16:33:24Z</time>
      </trkpt>
      <trkpt lat="44.3771" lon="1.04298">
        <ele>155.2</ele>
        <time>2016-05-15T16:33:27Z</time>
      </trkpt>
      <trkpt lat="44.3771" lon="1.0431">
        <ele>155.4</ele>
        <time>2016-05-15T16:33:29Z</time>
      </trkpt>
      <trkpt lat="44.37712" lon="1.04328">
        <ele>155.8</ele>
        <time>2016-05-15T16:33:32Z</time>
      </trkpt>
      <trkpt lat="44.37713" lon="1.04333">
        <ele>156</ele>
        <time>2016-05-15T16:33:33Z</time>
      </trkpt>
      <trkpt lat="44.37714" lon="1.04371">
        <ele>156.6</ele>
        <time>2016-05-15T16:33:40Z</time>
      </trkpt>
      <trkpt lat="44.37716" lon="1.04407">
        <ele>157.3</ele>
        <time>2016-05-15T16:33:47Z</time>
      </trkpt>
      <trkpt lat="44.37716" lon="1.04412">
        <ele>157.3</ele>
        <time>2016-05-15T16:33:48Z</time>
      </trkpt>
      <trkpt lat="44.37721" lon="1.04463">
        <ele>158.5</ele>
        <time>2016-05-15T16:33:58Z</time>
      </trkpt>
      <trkpt lat="44.37722" lon="1.04499">
        <ele>158.6</ele>
        <time>2016-05-15T16:34:05Z</time>
      </trkpt>
      <trkpt lat="44.37726" lon="1.04553">
        <ele>159.1</ele>
        <time>2016-05-15T16:34:15Z</time>
      </trkpt>
      <trkpt lat="44.37729" lon="1.04607">
        <ele>160.2</ele>
        <time>2016-05-15T16:34:24Z</time>
      </trkpt>
      <trkpt lat="44.37733" lon="1.04661">
        <ele>160.9</ele>
        <time>2016-05-15T16:34:33Z</time>
      </trkpt>
      <trkpt lat="44.37734" lon="1.04674">
        <ele>160.9</ele>
        <time>2016-05-15T16:34:35Z</time>
      </trkpt>
      <trkpt lat="44.37736" lon="1.04723">
        <ele>161</ele>
        <time>2016-05-15T16:34:43Z</time>
      </trkpt>
      <trkpt lat="44.37737" lon="1.04746">
        <ele>160.9</ele>
        <time>2016-05-15T16:34:47Z</time>
      </trkpt>
      <trkpt lat="44.37739" lon="1.04772">
        <ele>160.9</ele>
        <time>2016-05-15T16:34:52Z</time>
      </trkpt>
      <trkpt lat="44.3774" lon="1.04788">
        <ele>160.9</ele>
        <time>2016-05-15T16:34:55Z</time>
      </trkpt>
      <trkpt lat="44.37741" lon="1.04802">
        <ele>161</ele>
        <time>2016-05-15T16:34:58Z</time>
      </trkpt>
      <trkpt lat="44.37741" lon="1.04806">
        <ele>161.1</ele>
        <time>2016-05-15T16:34:59Z</time>
      </trkpt>
      <trkpt lat="44.37741" lon="1.0481">
        <ele>161.1</ele>
        <time>2016-05-15T16:35:00Z</time>
      </trkpt>
      <trkpt lat="44.37741" lon="1.04814">
        <ele>161.2</ele>
        <time>2016-05-15T16:35:01Z</time>
      </trkpt>
      <trkpt lat="44.37741" lon="1.04818">
        <ele>161.2</ele>
        <time>2016-05-15T16:35:02Z</time>
      </trkpt>
      <trkpt lat="44.37742" lon="1.04847">
        <ele>161.6</ele>
        <time>2016-05-15T16:35:08Z</time>
      </trkpt>
      <trkpt lat="44.37743" lon="1.04852">
        <ele>161.7</ele>
        <time>2016-05-15T16:35:09Z</time>
      </trkpt>
      <trkpt lat="44.37744" lon="1.0489">
        <ele>162.3</ele>
        <time>2016-05-15T16:35:17Z</time>
      </trkpt>
      <trkpt lat="44.37746" lon="1.04934">
        <ele>163.5</ele>
        <time>2016-05-15T16:35:27Z</time>
      </trkpt>
      <trkpt lat="44.37746" lon="1.04947">
        <ele>163.8</ele>
        <time>2016-05-15T16:35:30Z</time>
      </trkpt>
      <trkpt lat="44.37746" lon="1.04987">
        <ele>163.9</ele>
        <time>2016-05-15T16:35:38Z</time>
      </trkpt>
      <trkpt lat="44.37745" lon="1.0503">
        <ele>163.5</ele>
        <time>2016-05-15T16:35:47Z</time>
      </trkpt>
      <trkpt lat="44.37746" lon="1.05082">
        <ele>163.7</ele>
        <time>2016-05-15T16:35:56Z</time>
      </trkpt>
      <trkpt lat="44.37745" lon="1.05138">
        <ele>164.1</ele>
        <time>2016-05-15T16:36:05Z</time>
      </trkpt>
      <trkpt lat="44.3775" lon="1.052">
        <ele>165</ele>
        <time>2016-05-15T16:36:14Z</time>
      </trkpt>
      <trkpt lat="44.37755" lon="1.05242">
        <ele>165.3</ele>
        <time>2016-05-15T16:36:20Z</time>
      </trkpt>
      <trkpt lat="44.37758" lon="1.05265">
        <ele>165.4</ele>
        <time>2016-05-15T16:36:23Z</time>
      </trkpt>
      <trkpt lat="44.37768" lon="1.05344">
        <ele>165.6</ele>
        <time>2016-05-15T16:36:34Z</time>
      </trkpt>
      <trkpt lat="44.37769" lon="1.05351">
        <ele>165.5</ele>
        <time>2016-05-15T16:36:35Z</time>
      </trkpt>
      <trkpt lat="44.37774" lon="1.05403">
        <ele>165.2</ele>
        <time>2016-05-15T16:36:43Z</time>
      </trkpt>
      <trkpt lat="44.37778" lon="1.05443">
        <ele>164.6</ele>
        <time>2016-05-15T16:36:49Z</time>
      </trkpt>
      <trkpt lat="44.37779" lon="1.05456">
        <ele>164.5</ele>
        <time>2016-05-15T16:36:51Z</time>
      </trkpt>
      <trkpt lat="44.37782" lon="1.05475">
        <ele>164.4</ele>
        <time>2016-05-15T16:36:54Z</time>
      </trkpt>
      <trkpt lat="44.3779" lon="1.0551">
        <ele>164.3</ele>
        <time>2016-05-15T16:37:00Z</time>
      </trkpt>
      <trkpt lat="44.378" lon="1.05551">
        <ele>165.3</ele>
        <time>2016-05-15T16:37:07Z</time>
      </trkpt>
      <trkpt lat="44.37816" lon="1.05622">
        <ele>166.7</ele>
        <time>2016-05-15T16:37:19Z</time>
      </trkpt>
      <trkpt lat="44.37817" lon="1.05628">
        <ele>166.8</ele>
        <time>2016-05-15T16:37:20Z</time>
      </trkpt>
      <trkpt lat="44.37827" lon="1.05676">
        <ele>167.6</ele>
        <time>2016-05-15T16:37:28Z</time>
      </trkpt>
      <trkpt lat="44.37832" lon="1.05711">
        <ele>168</ele>
        <time>2016-05-15T16:37:34Z</time>
      </trkpt>
      <trkpt lat="44.37833" lon="1.05726">
        <ele>168.2</ele>
        <time>2016-05-15T16:37:37Z</time>
      </trkpt>
      <trkpt lat="44.37831" lon="1.05771">
        <ele>168.5</ele>
        <time>2016-05-15T16:37:45Z</time>
      </trkpt>
      <trkpt lat="44.37827" lon="1.05829">
        <ele>168.7</ele>
        <time>2016-05-15T16:37:55Z</time>
      </trkpt>
      <trkpt lat="44.37825" lon="1.05857">
        <ele>168.7</ele>
        <time>2016-05-15T16:38:00Z</time>
      </trkpt>
      <trkpt lat="44.37822" lon="1.05892">
        <ele>168.9</ele>
        <time>2016-05-15T16:38:06Z</time>
      </trkpt>
      <trkpt lat="44.37818" lon="1.05939">
        <ele>169.2</ele>
        <time>2016-05-15T16:38:14Z</time>
      </trkpt>
      <trkpt lat="44.37817" lon="1.05957">
        <ele>169.4</ele>
        <time>2016-05-15T16:38:17Z</time>
      </trkpt>
      <trkpt lat="44.37816" lon="1.05994">
        <ele>169.5</ele>
        <time>2016-05-15T16:38:23Z</time>
      </trkpt>
      <trkpt lat="44.37814" lon="1.06036">
        <ele>169.7</ele>
        <time>2016-05-15T16:38:30Z</time>
      </trkpt>
      <trkpt lat="44.3781" lon="1.06079">
        <ele>169.6</ele>
        <time>2016-05-15T16:38:37Z</time>
      </trkpt>
      <trkpt lat="44.37809" lon="1.06085">
        <ele>169.5</ele>
        <time>2016-05-15T16:38:38Z</time>
      </trkpt>
      <trkpt lat="44.37807" lon="1.06127">
        <ele>169.6</ele>
        <time>2016-05-15T16:38:45Z</time>
      </trkpt>
      <trkpt lat="44.37806" lon="1.06133">
        <ele>169.6</ele>
        <time>2016-05-15T16:38:46Z</time>
      </trkpt>
      <trkpt lat="44.37805" lon="1.06168">
        <ele>169.6</ele>
        <time>2016-05-15T16:38:52Z</time>
      </trkpt>
      <trkpt lat="44.37806" lon="1.06174">
        <ele>169.6</ele>
        <time>2016-05-15T16:38:53Z</time>
      </trkpt>
      <trkpt lat="44.37803" lon="1.06221">
        <ele>169.2</ele>
        <time>2016-05-15T16:39:01Z</time>
      </trkpt>
      <trkpt lat="44.37805" lon="1.0628">
        <ele>168.6</ele>
        <time>2016-05-15T16:39:10Z</time>
      </trkpt>
      <trkpt lat="44.37819" lon="1.06319">
        <ele>169.9</ele>
        <time>2016-05-15T16:39:17Z</time>
      </trkpt>
      <trkpt lat="44.37838" lon="1.0636">
        <ele>171.5</ele>
        <time>2016-05-15T16:39:25Z</time>
      </trkpt>
      <trkpt lat="44.37857" lon="1.06399">
        <ele>172</ele>
        <time>2016-05-15T16:39:33Z</time>
      </trkpt>
      <trkpt lat="44.37871" lon="1.06443">
        <ele>171.4</ele>
        <time>2016-05-15T16:39:40Z</time>
      </trkpt>
      <trkpt lat="44.37877" lon="1.0647">
        <ele>171</ele>
        <time>2016-05-15T16:39:44Z</time>
      </trkpt>
      <trkpt lat="44.37884" lon="1.06503">
        <ele>171</ele>
        <time>2016-05-15T16:39:49Z</time>
      </trkpt>
      <trkpt lat="44.37898" lon="1.06553">
        <ele>171.1</ele>
        <time>2016-05-15T16:39:57Z</time>
      </trkpt>
      <trkpt lat="44.37914" lon="1.06593">
        <ele>171.6</ele>
        <time>2016-05-15T16:40:04Z</time>
      </trkpt>
      <trkpt lat="44.37916" lon="1.06598">
        <ele>171.6</ele>
        <time>2016-05-15T16:40:05Z</time>
      </trkpt>
      <trkpt lat="44.37928" lon="1.06629">
        <ele>171.9</ele>
        <time>2016-05-15T16:40:11Z</time>
      </trkpt>
      <trkpt lat="44.37939" lon="1.06661">
        <ele>172.4</ele>
        <time>2016-05-15T16:40:18Z</time>
      </trkpt>
      <trkpt lat="44.37947" lon="1.06686">
        <ele>172.7</ele>
        <time>2016-05-15T16:40:24Z</time>
      </trkpt>
      <trkpt lat="44.37949" lon="1.06695">
        <ele>172.8</ele>
        <time>2016-05-15T16:40:26Z</time>
      </trkpt>
      <trkpt lat="44.37953" lon="1.06726">
        <ele>173.3</ele>
        <time>2016-05-15T16:40:33Z</time>
      </trkpt>
      <trkpt lat="44.37955" lon="1.06762">
        <ele>174.2</ele>
        <time>2016-05-15T16:40:40Z</time>
      </trkpt>
      <trkpt lat="44.37956" lon="1.06779">
        <ele>174.6</ele>
        <time>2016-05-15T16:40:43Z</time>
      </trkpt>
      <trkpt lat="44.37959" lon="1.06815">
        <ele>174.8</ele>
        <time>2016-05-15T16:40:50Z</time>
      </trkpt>
      <trkpt lat="44.37961" lon="1.06836">
        <ele>174.8</ele>
        <time>2016-05-15T16:40:54Z</time>
      </trkpt>
      <trkpt lat="44.37963" lon="1.06862">
        <ele>174.8</ele>
        <time>2016-05-15T16:40:59Z</time>
      </trkpt>
      <trkpt lat="44.37963" lon="1.06868">
        <ele>174.8</ele>
        <time>2016-05-15T16:41:02Z</time>
      </trkpt>
      <trkpt lat="44.37966" lon="1.06875">
        <ele>175</ele>
        <time>2016-05-15T16:41:59Z</time>
      </trkpt>
      <trkpt lat="44.37966" lon="1.06879">
        <ele>175.1</ele>
        <time>2016-05-15T16:42:00Z</time>
      </trkpt>
      <trkpt lat="44.37967" lon="1.06906">
        <ele>175.3</ele>
        <time>2016-05-15T16:42:05Z</time>
      </trkpt>
      <trkpt lat="44.37967" lon="1.06919">
        <ele>175.3</ele>
        <time>2016-05-15T16:42:07Z</time>
      </trkpt>
      <trkpt lat="44.37969" lon="1.06938">
        <ele>175.5</ele>
        <time>2016-05-15T16:42:10Z</time>
      </trkpt>
      <trkpt lat="44.37973" lon="1.06978">
        <ele>176.4</ele>
        <time>2016-05-15T16:42:16Z</time>
      </trkpt>
      <trkpt lat="44.37981" lon="1.07029">
        <ele>178.5</ele>
        <time>2016-05-15T16:42:24Z</time>
      </trkpt>
      <trkpt lat="44.37984" lon="1.07042">
        <ele>179</ele>
        <time>2016-05-15T16:42:26Z</time>
      </trkpt>
      <trkpt lat="44.37987" lon="1.0707">
        <ele>178.9</ele>
        <time>2016-05-15T16:42:30Z</time>
      </trkpt>
      <trkpt lat="44.37988" lon="1.07085">
        <ele>178.7</ele>
        <time>2016-05-15T16:42:32Z</time>
      </trkpt>
      <trkpt lat="44.3799" lon="1.07115">
        <ele>178.3</ele>
        <time>2016-05-15T16:42:36Z</time>
      </trkpt>
      <trkpt lat="44.3799" lon="1.07122">
        <ele>178.1</ele>
        <time>2016-05-15T16:42:37Z</time>
      </trkpt>
      <trkpt lat="44.37985" lon="1.07185">
        <ele>177.6</ele>
        <time>2016-05-15T16:42:45Z</time>
      </trkpt>
      <trkpt lat="44.37987" lon="1.07239">
        <ele>177.8</ele>
        <time>2016-05-15T16:42:52Z</time>
      </trkpt>
      <trkpt lat="44.37993" lon="1.07302">
        <ele>178.4</ele>
        <time>2016-05-15T16:43:00Z</time>
      </trkpt>
      <trkpt lat="44.37989" lon="1.07359">
        <ele>178.7</ele>
        <time>2016-05-15T16:43:07Z</time>
      </trkpt>
      <trkpt lat="44.37985" lon="1.0739">
        <ele>178.9</ele>
        <time>2016-05-15T16:43:11Z</time>
      </trkpt>
      <trkpt lat="44.37981" lon="1.07423">
        <ele>179.4</ele>
        <time>2016-05-15T16:43:15Z</time>
      </trkpt>
      <trkpt lat="44.37976" lon="1.07488">
        <ele>179.9</ele>
        <time>2016-05-15T16:43:23Z</time>
      </trkpt>
      <trkpt lat="44.37977" lon="1.07496">
        <ele>179.9</ele>
        <time>2016-05-15T16:43:24Z</time>
      </trkpt>
      <trkpt lat="44.37987" lon="1.07553">
        <ele>180.1</ele>
        <time>2016-05-15T16:43:31Z</time>
      </trkpt>
      <trkpt lat="44.38003" lon="1.07608">
        <ele>179.5</ele>
        <time>2016-05-15T16:43:38Z</time>
      </trkpt>
      <trkpt lat="44.38019" lon="1.07659">
        <ele>179.5</ele>
        <time>2016-05-15T16:43:45Z</time>
      </trkpt>
      <trkpt lat="44.38024" lon="1.07672">
        <ele>179.5</ele>
        <time>2016-05-15T16:43:47Z</time>
      </trkpt>
      <trkpt lat="44.3804" lon="1.07718">
        <ele>179</ele>
        <time>2016-05-15T16:43:54Z</time>
      </trkpt>
      <trkpt lat="44.38059" lon="1.0777">
        <ele>180.5</ele>
        <time>2016-05-15T16:44:03Z</time>
      </trkpt>
      <trkpt lat="44.38061" lon="1.07776">
        <ele>180.6</ele>
        <time>2016-05-15T16:44:04Z</time>
      </trkpt>
      <trkpt lat="44.38069" lon="1.07799">
        <ele>181</ele>
        <time>2016-05-15T16:44:08Z</time>
      </trkpt>
      <trkpt lat="44.38071" lon="1.07812">
        <ele>181.2</ele>
        <time>2016-05-15T16:44:10Z</time>
      </trkpt>
      <trkpt lat="44.38073" lon="1.07824">
        <ele>181.4</ele>
        <time>2016-05-15T16:44:12Z</time>
      </trkpt>
      <trkpt lat="44.38075" lon="1.0785">
        <ele>181.5</ele>
        <time>2016-05-15T16:44:16Z</time>
      </trkpt>
      <trkpt lat="44.38077" lon="1.07904">
        <ele>182</ele>
        <time>2016-05-15T16:44:24Z</time>
      </trkpt>
      <trkpt lat="44.38077" lon="1.07925">
        <ele>182.3</ele>
        <time>2016-05-15T16:44:27Z</time>
      </trkpt>
      <trkpt lat="44.38081" lon="1.07976">
        <ele>182.8</ele>
        <time>2016-05-15T16:44:35Z</time>
      </trkpt>
      <trkpt lat="44.38086" lon="1.08001">
        <ele>182.9</ele>
        <time>2016-05-15T16:44:39Z</time>
      </trkpt>
      <trkpt lat="44.38092" lon="1.0802">
        <ele>183</ele>
        <time>2016-05-15T16:44:42Z</time>
      </trkpt>
      <trkpt lat="44.38099" lon="1.08039">
        <ele>183.1</ele>
        <time>2016-05-15T16:44:45Z</time>
      </trkpt>
      <trkpt lat="44.38112" lon="1.0807">
        <ele>183.6</ele>
        <time>2016-05-15T16:44:50Z</time>
      </trkpt>
      <trkpt lat="44.3812" lon="1.08096">
        <ele>183.9</ele>
        <time>2016-05-15T16:44:54Z</time>
      </trkpt>
      <trkpt lat="44.38122" lon="1.08102">
        <ele>183.9</ele>
        <time>2016-05-15T16:44:55Z</time>
      </trkpt>
      <trkpt lat="44.38124" lon="1.08114">
        <ele>184</ele>
        <time>2016-05-15T16:44:57Z</time>
      </trkpt>
      <trkpt lat="44.38128" lon="1.08139">
        <ele>184.1</ele>
        <time>2016-05-15T16:45:01Z</time>
      </trkpt>
      <trkpt lat="44.38132" lon="1.08161">
        <ele>184.2</ele>
        <time>2016-05-15T16:45:05Z</time>
      </trkpt>
      <trkpt lat="44.38137" lon="1.08189">
        <ele>184.3</ele>
        <time>2016-05-15T16:45:12Z</time>
      </trkpt>
      <trkpt lat="44.38143" lon="1.08221">
        <ele>184.9</ele>
        <time>2016-05-15T16:45:21Z</time>
      </trkpt>
      <trkpt lat="44.38145" lon="1.08247">
        <ele>185.4</ele>
        <time>2016-05-15T16:45:28Z</time>
      </trkpt>
      <trkpt lat="44.38134" lon="1.08252">
        <ele>184.2</ele>
        <time>2016-05-15T16:45:31Z</time>
      </trkpt>
      <trkpt lat="44.3813" lon="1.08252">
        <ele>183.6</ele>
        <time>2016-05-15T16:45:32Z</time>
      </trkpt>
      <trkpt lat="44.38117" lon="1.08253">
        <ele>183.2</ele>
        <time>2016-05-15T16:45:35Z</time>
      </trkpt>
      <trkpt lat="44.381" lon="1.08255">
        <ele>183.6</ele>
        <time>2016-05-15T16:45:39Z</time>
      </trkpt>
      <trkpt lat="44.38095" lon="1.08255">
        <ele>183.7</ele>
        <time>2016-05-15T16:45:40Z</time>
      </trkpt>
      <trkpt lat="44.38071" lon="1.08258">
        <ele>184.2</ele>
        <time>2016-05-15T16:45:46Z</time>
      </trkpt>
      <trkpt lat="44.38061" lon="1.08258">
        <ele>184.4</ele>
        <time>2016-05-15T16:45:49Z</time>
      </trkpt>
      <trkpt lat="44.38052" lon="1.08258">
        <ele>184.6</ele>
        <time>2016-05-15T16:45:52Z</time>
      </trkpt>
      <trkpt lat="44.38033" lon="1.08254">
        <ele>185.6</ele>
        <time>2016-05-15T16:45:59Z</time>
      </trkpt>
      <trkpt lat="44.38024" lon="1.08245">
        <ele>186.3</ele>
        <time>2016-05-15T16:46:05Z</time>
      </trkpt>
      <trkpt lat="44.38022" lon="1.08244">
        <ele>186.4</ele>
        <time>2016-05-15T16:46:10Z</time>
      </trkpt>
      <trkpt lat="44.38012" lon="1.08237">
        <ele>187.3</ele>
        <time>2016-05-15T16:52:53Z</time>
      </trkpt>
      <trkpt lat="44.38007" lon="1.08233">
        <ele>187.6</ele>
        <time>2016-05-15T16:52:55Z</time>
      </trkpt>
      <trkpt lat="44.37992" lon="1.08215">
        <ele>188.6</ele>
        <time>2016-05-15T16:53:00Z</time>
      </trkpt>
      <trkpt lat="44.37978" lon="1.08199">
        <ele>189.3</ele>
        <time>2016-05-15T16:53:04Z</time>
      </trkpt>
      <trkpt lat="44.37975" lon="1.08195">
        <ele>189.4</ele>
        <time>2016-05-15T16:53:05Z</time>
      </trkpt>
      <trkpt lat="44.37972" lon="1.08192">
        <ele>189.5</ele>
        <time>2016-05-15T16:53:06Z</time>
      </trkpt>
      <trkpt lat="44.37948" lon="1.08165">
        <ele>190.1</ele>
        <time>2016-05-15T16:53:14Z</time>
      </trkpt>
      <trkpt lat="44.37945" lon="1.08162">
        <ele>190.3</ele>
        <time>2016-05-15T16:53:15Z</time>
      </trkpt>
      <trkpt lat="44.3793" lon="1.08145">
        <ele>190.9</ele>
        <time>2016-05-15T16:53:21Z</time>
      </trkpt>
      <trkpt lat="44.3792" lon="1.08133">
        <ele>191.2</ele>
        <time>2016-05-15T16:53:25Z</time>
      </trkpt>
      <trkpt lat="44.37913" lon="1.08124">
        <ele>191.5</ele>
        <time>2016-05-15T16:53:28Z</time>
      </trkpt>
      <trkpt lat="44.37894" lon="1.08098">
        <ele>194.8</ele>
        <time>2016-05-15T16:53:36Z</time>
      </trkpt>
      <trkpt lat="44.3789" lon="1.0809">
        <ele>195.6</ele>
        <time>2016-05-15T16:53:38Z</time>
      </trkpt>
      <trkpt lat="44.37884" lon="1.08069">
        <ele>197.4</ele>
        <time>2016-05-15T16:53:43Z</time>
      </trkpt>
      <trkpt lat="44.37882" lon="1.08061">
        <ele>198</ele>
        <time>2016-05-15T16:53:45Z</time>
      </trkpt>
      <trkpt lat="44.37879" lon="1.0803">
        <ele>200.5</ele>
        <time>2016-05-15T16:53:52Z</time>
      </trkpt>
      <trkpt lat="44.37879" lon="1.08017">
        <ele>202</ele>
        <time>2016-05-15T16:53:55Z</time>
      </trkpt>
      <trkpt lat="44.37878" lon="1.07988">
        <ele>205.2</ele>
        <time>2016-05-15T16:54:01Z</time>
      </trkpt>
      <trkpt lat="44.37877" lon="1.07979">
        <ele>206.2</ele>
        <time>2016-05-15T16:54:03Z</time>
      </trkpt>
      <trkpt lat="44.37878" lon="1.07962">
        <ele>207.8</ele>
        <time>2016-05-15T16:54:07Z</time>
      </trkpt>
      <trkpt lat="44.37877" lon="1.07944">
        <ele>207.9</ele>
        <time>2016-05-15T16:54:11Z</time>
      </trkpt>
      <trkpt lat="44.37875" lon="1.07922">
        <ele>207.7</ele>
        <time>2016-05-15T16:54:16Z</time>
      </trkpt>
      <trkpt lat="44.37872" lon="1.07908">
        <ele>208.1</ele>
        <time>2016-05-15T16:54:19Z</time>
      </trkpt>
      <trkpt lat="44.37867" lon="1.07885">
        <ele>209.1</ele>
        <time>2016-05-15T16:54:25Z</time>
      </trkpt>
      <trkpt lat="44.37865" lon="1.07878">
        <ele>209.7</ele>
        <time>2016-05-15T16:54:27Z</time>
      </trkpt>
      <trkpt lat="44.3786" lon="1.07865">
        <ele>210.5</ele>
        <time>2016-05-15T16:54:31Z</time>
      </trkpt>
      <trkpt lat="44.37856" lon="1.07853">
        <ele>211.1</ele>
        <time>2016-05-15T16:54:35Z</time>
      </trkpt>
      <trkpt lat="44.37854" lon="1.0785">
        <ele>211.2</ele>
        <time>2016-05-15T16:54:36Z</time>
      </trkpt>
      <trkpt lat="44.37849" lon="1.07839">
        <ele>212.3</ele>
        <time>2016-05-15T16:54:40Z</time>
      </trkpt>
      <trkpt lat="44.37844" lon="1.0783">
        <ele>213.3</ele>
        <time>2016-05-15T16:54:43Z</time>
      </trkpt>
      <trkpt lat="44.37838" lon="1.07822">
        <ele>214.4</ele>
        <time>2016-05-15T16:54:46Z</time>
      </trkpt>
      <trkpt lat="44.37831" lon="1.07807">
        <ele>215.6</ele>
        <time>2016-05-15T16:54:51Z</time>
      </trkpt>
      <trkpt lat="44.37826" lon="1.07801">
        <ele>216.6</ele>
        <time>2016-05-15T16:54:53Z</time>
      </trkpt>
      <trkpt lat="44.3782" lon="1.07788">
        <ele>217.3</ele>
        <time>2016-05-15T16:54:57Z</time>
      </trkpt>
      <trkpt lat="44.37819" lon="1.07785">
        <ele>217.3</ele>
        <time>2016-05-15T16:54:58Z</time>
      </trkpt>
      <trkpt lat="44.37813" lon="1.07772">
        <ele>217.1</ele>
        <time>2016-05-15T16:55:02Z</time>
      </trkpt>
      <trkpt lat="44.37808" lon="1.07764">
        <ele>217.3</ele>
        <time>2016-05-15T16:55:05Z</time>
      </trkpt>
      <trkpt lat="44.378" lon="1.07746">
        <ele>216.8</ele>
        <time>2016-05-15T16:55:11Z</time>
      </trkpt>
      <trkpt lat="44.37787" lon="1.07725">
        <ele>216.7</ele>
        <time>2016-05-15T16:55:18Z</time>
      </trkpt>
      <trkpt lat="44.37784" lon="1.07719">
        <ele>216.3</ele>
        <time>2016-05-15T16:55:20Z</time>
      </trkpt>
      <trkpt lat="44.37777" lon="1.07705">
        <ele>215.5</ele>
        <time>2016-05-15T16:55:25Z</time>
      </trkpt>
      <trkpt lat="44.37771" lon="1.07693">
        <ele>214.4</ele>
        <time>2016-05-15T16:55:29Z</time>
      </trkpt>
      <trkpt lat="44.37766" lon="1.07683">
        <ele>213</ele>
        <time>2016-05-15T16:55:32Z</time>
      </trkpt>
      <trkpt lat="44.37757" lon="1.07669">
        <ele>211.6</ele>
        <time>2016-05-15T16:55:37Z</time>
      </trkpt>
      <trkpt lat="44.3775" lon="1.07661">
        <ele>211</ele>
        <time>2016-05-15T16:55:40Z</time>
      </trkpt>
      <trkpt lat="44.37734" lon="1.07648">
        <ele>210.3</ele>
        <time>2016-05-15T16:55:47Z</time>
      </trkpt>
      <trkpt lat="44.37732" lon="1.07646">
        <ele>210.3</ele>
        <time>2016-05-15T16:55:48Z</time>
      </trkpt>
      <trkpt lat="44.37723" lon="1.07641">
        <ele>210.2</ele>
        <time>2016-05-15T16:55:52Z</time>
      </trkpt>
      <trkpt lat="44.37717" lon="1.07638">
        <ele>210.4</ele>
        <time>2016-05-15T16:55:55Z</time>
      </trkpt>
      <trkpt lat="44.37711" lon="1.07635">
        <ele>210.4</ele>
        <time>2016-05-15T16:55:58Z</time>
      </trkpt>
      <trkpt lat="44.37703" lon="1.07633">
        <ele>210.7</ele>
        <time>2016-05-15T16:56:02Z</time>
      </trkpt>
      <trkpt lat="44.37699" lon="1.07632">
        <ele>210.9</ele>
        <time>2016-05-15T16:56:04Z</time>
      </trkpt>
      <trkpt lat="44.37695" lon="1.07633">
        <ele>211.8</ele>
        <time>2016-05-15T16:56:07Z</time>
      </trkpt>
      <trkpt lat="44.37692" lon="1.07631">
        <ele>211.7</ele>
        <time>2016-05-15T16:56:10Z</time>
      </trkpt>
      <trkpt lat="44.37691" lon="1.07631">
        <ele>211.7</ele>
        <time>2016-05-15T16:56:12Z</time>
      </trkpt>
      <trkpt lat="44.37681" lon="1.0763">
        <ele>212.5</ele>
        <time>2016-05-15T16:57:01Z</time>
      </trkpt>
      <trkpt lat="44.37672" lon="1.07628">
        <ele>213</ele>
        <time>2016-05-15T16:57:05Z</time>
      </trkpt>
      <trkpt lat="44.37669" lon="1.07628">
        <ele>213.4</ele>
        <time>2016-05-15T16:57:07Z</time>
      </trkpt>
      <trkpt lat="44.37656" lon="1.07627">
        <ele>214.9</ele>
        <time>2016-05-15T16:57:12Z</time>
      </trkpt>
      <trkpt lat="44.37654" lon="1.07627">
        <ele>215.1</ele>
        <time>2016-05-15T16:57:13Z</time>
      </trkpt>
      <trkpt lat="44.37648" lon="1.07627">
        <ele>215.7</ele>
        <time>2016-05-15T16:57:15Z</time>
      </trkpt>
      <trkpt lat="44.37637" lon="1.07625">
        <ele>216.6</ele>
        <time>2016-05-15T16:57:19Z</time>
      </trkpt>
      <trkpt lat="44.3762" lon="1.07623">
        <ele>218.9</ele>
        <time>2016-05-15T16:57:26Z</time>
      </trkpt>
      <trkpt lat="44.37618" lon="1.07622">
        <ele>219.2</ele>
        <time>2016-05-15T16:57:27Z</time>
      </trkpt>
      <trkpt lat="44.37604" lon="1.0762">
        <ele>221.6</ele>
        <time>2016-05-15T16:57:33Z</time>
      </trkpt>
      <trkpt lat="44.37601" lon="1.0762">
        <ele>222.1</ele>
        <time>2016-05-15T16:57:34Z</time>
      </trkpt>
      <trkpt lat="44.37584" lon="1.07618">
        <ele>225</ele>
        <time>2016-05-15T16:57:40Z</time>
      </trkpt>
      <trkpt lat="44.37579" lon="1.07617">
        <ele>225.9</ele>
        <time>2016-05-15T16:57:42Z</time>
      </trkpt>
      <trkpt lat="44.37564" lon="1.07616">
        <ele>228.4</ele>
        <time>2016-05-15T16:57:48Z</time>
      </trkpt>
      <trkpt lat="44.37562" lon="1.07615">
        <ele>228.8</ele>
        <time>2016-05-15T16:57:49Z</time>
      </trkpt>
      <trkpt lat="44.37545" lon="1.07612">
        <ele>231.8</ele>
        <time>2016-05-15T16:57:56Z</time>
      </trkpt>
      <trkpt lat="44.37543" lon="1.07612">
        <ele>232.1</ele>
        <time>2016-05-15T16:57:57Z</time>
      </trkpt>
      <trkpt lat="44.37529" lon="1.07611">
        <ele>236</ele>
        <time>2016-05-15T16:58:04Z</time>
      </trkpt>
      <trkpt lat="44.37526" lon="1.0761">
        <ele>237.1</ele>
        <time>2016-05-15T16:58:06Z</time>
      </trkpt>
      <trkpt lat="44.37518" lon="1.07611">
        <ele>239.1</ele>
        <time>2016-05-15T16:58:10Z</time>
      </trkpt>
      <trkpt lat="44.37512" lon="1.0761">
        <ele>240.9</ele>
        <time>2016-05-15T16:58:13Z</time>
      </trkpt>
      <trkpt lat="44.37508" lon="1.07608">
        <ele>242.2</ele>
        <time>2016-05-15T16:58:17Z</time>
      </trkpt>
      <trkpt lat="44.375" lon="1.07608">
        <ele>244.5</ele>
        <time>2016-05-15T16:58:22Z</time>
      </trkpt>
      <trkpt lat="44.37497" lon="1.07606">
        <ele>245.5</ele>
        <time>2016-05-15T16:58:24Z</time>
      </trkpt>
      <trkpt lat="44.37492" lon="1.07606">
        <ele>246.8</ele>
        <time>2016-05-15T16:58:26Z</time>
      </trkpt>
      <trkpt lat="44.37491" lon="1.07605">
        <ele>247.3</ele>
        <time>2016-05-15T16:58:27Z</time>
      </trkpt>
      <trkpt lat="44.37487" lon="1.07601">
        <ele>248.6</ele>
        <time>2016-05-15T16:58:30Z</time>
      </trkpt>
      <trkpt lat="44.37483" lon="1.07594">
        <ele>250.3</ele>
        <time>2016-05-15T16:58:34Z</time>
      </trkpt>
      <trkpt lat="44.37482" lon="1.07589">
        <ele>251</ele>
        <time>2016-05-15T16:58:36Z</time>
      </trkpt>
      <trkpt lat="44.37481" lon="1.07575">
        <ele>252.2</ele>
        <time>2016-05-15T16:58:40Z</time>
      </trkpt>
      <trkpt lat="44.37482" lon="1.07565">
        <ele>252.6</ele>
        <time>2016-05-15T16:58:43Z</time>
      </trkpt>
      <trkpt lat="44.37485" lon="1.07558">
        <ele>252.4</ele>
        <time>2016-05-15T16:58:46Z</time>
      </trkpt>
      <trkpt lat="44.3749" lon="1.07546">
        <ele>252.1</ele>
        <time>2016-05-15T16:58:51Z</time>
      </trkpt>
      <trkpt lat="44.37491" lon="1.07543">
        <ele>252.1</ele>
        <time>2016-05-15T16:58:53Z</time>
      </trkpt>
      <trkpt lat="44.37497" lon="1.07534">
        <ele>251.5</ele>
        <time>2016-05-15T16:58:58Z</time>
      </trkpt>
      <trkpt lat="44.37504" lon="1.07524">
        <ele>250.8</ele>
        <time>2016-05-15T16:59:04Z</time>
      </trkpt>
      <trkpt lat="44.37511" lon="1.07513">
        <ele>250.5</ele>
        <time>2016-05-15T16:59:10Z</time>
      </trkpt>
      <trkpt lat="44.37515" lon="1.0751">
        <ele>250.1</ele>
        <time>2016-05-15T16:59:13Z</time>
      </trkpt>
      <trkpt lat="44.37519" lon="1.07505">
        <ele>249.9</ele>
        <time>2016-05-15T16:59:16Z</time>
      </trkpt>
      <trkpt lat="44.37526" lon="1.07495">
        <ele>249.7</ele>
        <time>2016-05-15T16:59:22Z</time>
      </trkpt>
      <trkpt lat="44.3753" lon="1.07492">
        <ele>249.4</ele>
        <time>2016-05-15T16:59:24Z</time>
      </trkpt>
      <trkpt lat="44.37538" lon="1.07484">
        <ele>249</ele>
        <time>2016-05-15T16:59:29Z</time>
      </trkpt>
      <trkpt lat="44.37542" lon="1.07481">
        <ele>248.7</ele>
        <time>2016-05-15T16:59:31Z</time>
      </trkpt>
      <trkpt lat="44.37552" lon="1.07471">
        <ele>248.4</ele>
        <time>2016-05-15T16:59:38Z</time>
      </trkpt>
      <trkpt lat="44.37558" lon="1.07466">
        <ele>248.4</ele>
        <time>2016-05-15T16:59:41Z</time>
      </trkpt>
      <trkpt lat="44.37565" lon="1.07458">
        <ele>248.4</ele>
        <time>2016-05-15T16:59:46Z</time>
      </trkpt>
      <trkpt lat="44.37577" lon="1.07446">
        <ele>247.6</ele>
        <time>2016-05-15T16:59:53Z</time>
      </trkpt>
      <trkpt lat="44.37579" lon="1.07444">
        <ele>247.5</ele>
        <time>2016-05-15T16:59:54Z</time>
      </trkpt>
      <trkpt lat="44.37584" lon="1.07439">
        <ele>247.2</ele>
        <time>2016-05-15T16:59:57Z</time>
      </trkpt>
      <trkpt lat="44.37586" lon="1.07438">
        <ele>247.1</ele>
        <time>2016-05-15T16:59:58Z</time>
      </trkpt>
      <trkpt lat="44.37588" lon="1.07437">
        <ele>246.8</ele>
        <time>2016-05-15T17:00:00Z</time>
      </trkpt>
      <trkpt lat="44.37591" lon="1.07434">
        <ele>246.7</ele>
        <time>2016-05-15T17:00:02Z</time>
      </trkpt>
      <trkpt lat="44.37592" lon="1.07429">
        <ele>247</ele>
        <time>2016-05-15T17:00:05Z</time>
      </trkpt>
      <trkpt lat="44.37595" lon="1.0743">
        <ele>246.4</ele>
        <time>2016-05-15T17:00:09Z</time>
      </trkpt>
      <trkpt lat="44.37601" lon="1.07424">
        <ele>246</ele>
        <time>2016-05-15T17:00:33Z</time>
      </trkpt>
      <trkpt lat="44.37603" lon="1.07422">
        <ele>245.8</ele>
        <time>2016-05-15T17:00:34Z</time>
      </trkpt>
      <trkpt lat="44.37617" lon="1.07411">
        <ele>244.8</ele>
        <time>2016-05-15T17:00:41Z</time>
      </trkpt>
      <trkpt lat="44.37619" lon="1.07409">
        <ele>244.7</ele>
        <time>2016-05-15T17:00:42Z</time>
      </trkpt>
      <trkpt lat="44.37631" lon="1.074">
        <ele>243.6</ele>
        <time>2016-05-15T17:00:48Z</time>
      </trkpt>
      <trkpt lat="44.37638" lon="1.07395">
        <ele>243</ele>
        <time>2016-05-15T17:00:51Z</time>
      </trkpt>
      <trkpt lat="44.37649" lon="1.07386">
        <ele>242</ele>
        <time>2016-05-15T17:00:57Z</time>
      </trkpt>
      <trkpt lat="44.37655" lon="1.07379">
        <ele>241.9</ele>
        <time>2016-05-15T17:01:01Z</time>
      </trkpt>
      <trkpt lat="44.3766" lon="1.07372">
        <ele>241.6</ele>
        <time>2016-05-15T17:01:04Z</time>
      </trkpt>
      <trkpt lat="44.37663" lon="1.07362">
        <ele>241.3</ele>
        <time>2016-05-15T17:01:08Z</time>
      </trkpt>
      <trkpt lat="44.37669" lon="1.07347">
        <ele>240.5</ele>
        <time>2016-05-15T17:01:14Z</time>
      </trkpt>
      <trkpt lat="44.37669" lon="1.07344">
        <ele>240.5</ele>
        <time>2016-05-15T17:01:15Z</time>
      </trkpt>
      <trkpt lat="44.37669" lon="1.07325">
        <ele>240.7</ele>
        <time>2016-05-15T17:01:21Z</time>
      </trkpt>
      <trkpt lat="44.37669" lon="1.07318">
        <ele>240.8</ele>
        <time>2016-05-15T17:01:23Z</time>
      </trkpt>
      <trkpt lat="44.37667" lon="1.07303">
        <ele>241.4</ele>
        <time>2016-05-15T17:01:28Z</time>
      </trkpt>
      <trkpt lat="44.37665" lon="1.07293">
        <ele>241.9</ele>
        <time>2016-05-15T17:01:31Z</time>
      </trkpt>
      <trkpt lat="44.37661" lon="1.07283">
        <ele>242.2</ele>
        <time>2016-05-15T17:01:34Z</time>
      </trkpt>
      <trkpt lat="44.37657" lon="1.07265">
        <ele>242.2</ele>
        <time>2016-05-15T17:01:40Z</time>
      </trkpt>
      <trkpt lat="44.37652" lon="1.07245">
        <ele>242.2</ele>
        <time>2016-05-15T17:01:46Z</time>
      </trkpt>
      <trkpt lat="44.37648" lon="1.07236">
        <ele>242.5</ele>
        <time>2016-05-15T17:01:49Z</time>
      </trkpt>
      <trkpt lat="44.37647" lon="1.07233">
        <ele>242.6</ele>
        <time>2016-05-15T17:01:50Z</time>
      </trkpt>
      <trkpt lat="44.37639" lon="1.07218">
        <ele>243.2</ele>
        <time>2016-05-15T17:01:56Z</time>
      </trkpt>
      <trkpt lat="44.37635" lon="1.07211">
        <ele>243.5</ele>
        <time>2016-05-15T17:01:59Z</time>
      </trkpt>
      <trkpt lat="44.37627" lon="1.07203">
        <ele>244.3</ele>
        <time>2016-05-15T17:02:03Z</time>
      </trkpt>
      <trkpt lat="44.37616" lon="1.07195">
        <ele>244.2</ele>
        <time>2016-05-15T17:02:08Z</time>
      </trkpt>
      <trkpt lat="44.3761" lon="1.07192">
        <ele>243.9</ele>
        <time>2016-05-15T17:02:11Z</time>
      </trkpt>
      <trkpt lat="44.37598" lon="1.07189">
        <ele>243.7</ele>
        <time>2016-05-15T17:02:18Z</time>
      </trkpt>
      <trkpt lat="44.37597" lon="1.0719">
        <ele>243.8</ele>
        <time>2016-05-15T17:02:19Z</time>
      </trkpt>
      <trkpt lat="44.37592" lon="1.0719">
        <ele>243.8</ele>
        <time>2016-05-15T17:02:23Z</time>
      </trkpt>
      <trkpt lat="44.37582" lon="1.07187">
        <ele>243.4</ele>
        <time>2016-05-15T17:02:30Z</time>
      </trkpt>
      <trkpt lat="44.37575" lon="1.07187">
        <ele>243.3</ele>
        <time>2016-05-15T17:02:34Z</time>
      </trkpt>
      <trkpt lat="44.37566" lon="1.07185">
        <ele>243.1</ele>
        <time>2016-05-15T17:02:39Z</time>
      </trkpt>
      <trkpt lat="44.37558" lon="1.07184">
        <ele>242.8</ele>
        <time>2016-05-15T17:02:43Z</time>
      </trkpt>
      <trkpt lat="44.37553" lon="1.07184">
        <ele>242.8</ele>
        <time>2016-05-15T17:02:46Z</time>
      </trkpt>
      <trkpt lat="44.37539" lon="1.07182">
        <ele>242.5</ele>
        <time>2016-05-15T17:02:54Z</time>
      </trkpt>
      <trkpt lat="44.37537" lon="1.07182">
        <ele>242.4</ele>
        <time>2016-05-15T17:02:55Z</time>
      </trkpt>
      <trkpt lat="44.37524" lon="1.07182">
        <ele>242.9</ele>
        <time>2016-05-15T17:03:01Z</time>
      </trkpt>
      <trkpt lat="44.37522" lon="1.07182">
        <ele>243.1</ele>
        <time>2016-05-15T17:03:02Z</time>
      </trkpt>
      <trkpt lat="44.37506" lon="1.07187">
        <ele>244.7</ele>
        <time>2016-05-15T17:03:09Z</time>
      </trkpt>
      <trkpt lat="44.37499" lon="1.07191">
        <ele>245.8</ele>
        <time>2016-05-15T17:03:12Z</time>
      </trkpt>
      <trkpt lat="44.37489" lon="1.07196">
        <ele>247.3</ele>
        <time>2016-05-15T17:03:17Z</time>
      </trkpt>
      <trkpt lat="44.37483" lon="1.072">
        <ele>248.5</ele>
        <time>2016-05-15T17:03:20Z</time>
      </trkpt>
      <trkpt lat="44.37476" lon="1.07207">
        <ele>250</ele>
        <time>2016-05-15T17:03:24Z</time>
      </trkpt>
      <trkpt lat="44.37474" lon="1.0721">
        <ele>250.6</ele>
        <time>2016-05-15T17:03:28Z</time>
      </trkpt>
      <trkpt lat="44.37476" lon="1.07209">
        <ele>250.5</ele>
        <time>2016-05-15T17:03:29Z</time>
      </trkpt>
      <trkpt lat="44.37478" lon="1.07202">
        <ele>249</ele>
        <time>2016-05-15T17:03:33Z</time>
      </trkpt>
      <trkpt lat="44.37476" lon="1.07204">
        <ele>249.4</ele>
        <time>2016-05-15T17:03:35Z</time>
      </trkpt>
      <trkpt lat="44.37476" lon="1.07204">
        <ele>249.4</ele>
        <time>2016-05-15T17:03:37Z</time>
      </trkpt>
      <trkpt lat="44.37476" lon="1.07205">
        <ele>249.6</ele>
        <time>2016-05-15T17:03:41Z</time>
      </trkpt>
      <trkpt lat="44.37472" lon="1.07208">
        <ele>250.5</ele>
        <time>2016-05-15T17:04:19Z</time>
      </trkpt>
      <trkpt lat="44.37466" lon="1.07213">
        <ele>251.2</ele>
        <time>2016-05-15T17:04:22Z</time>
      </trkpt>
      <trkpt lat="44.3745" lon="1.07224">
        <ele>252.9</ele>
        <time>2016-05-15T17:04:30Z</time>
      </trkpt>
      <trkpt lat="44.37434" lon="1.07234">
        <ele>254.3</ele>
        <time>2016-05-15T17:04:37Z</time>
      </trkpt>
      <trkpt lat="44.37421" lon="1.07242">
        <ele>255.4</ele>
        <time>2016-05-15T17:04:43Z</time>
      </trkpt>
      <trkpt lat="44.37419" lon="1.07243">
        <ele>255.6</ele>
        <time>2016-05-15T17:04:44Z</time>
      </trkpt>
      <trkpt lat="44.37398" lon="1.07254">
        <ele>257.3</ele>
        <time>2016-05-15T17:04:53Z</time>
      </trkpt>
      <trkpt lat="44.37396" lon="1.07255">
        <ele>257.4</ele>
        <time>2016-05-15T17:04:54Z</time>
      </trkpt>
      <trkpt lat="44.37379" lon="1.07263">
        <ele>258.9</ele>
        <time>2016-05-15T17:05:02Z</time>
      </trkpt>
      <trkpt lat="44.37369" lon="1.0727">
        <ele>259.5</ele>
        <time>2016-05-15T17:05:07Z</time>
      </trkpt>
      <trkpt lat="44.37362" lon="1.07273">
        <ele>259.6</ele>
        <time>2016-05-15T17:05:10Z</time>
      </trkpt>
      <trkpt lat="44.37353" lon="1.07278">
        <ele>259.9</ele>
        <time>2016-05-15T17:05:14Z</time>
      </trkpt>
      <trkpt lat="44.37345" lon="1.07283">
        <ele>260.2</ele>
        <time>2016-05-15T17:05:18Z</time>
      </trkpt>
      <trkpt lat="44.37341" lon="1.07285">
        <ele>260.3</ele>
        <time>2016-05-15T17:05:20Z</time>
      </trkpt>
      <trkpt lat="44.37329" lon="1.0729">
        <ele>260.4</ele>
        <time>2016-05-15T17:05:26Z</time>
      </trkpt>
      <trkpt lat="44.37322" lon="1.07291">
        <ele>260.4</ele>
        <time>2016-05-15T17:05:29Z</time>
      </trkpt>
      <trkpt lat="44.37314" lon="1.07294">
        <ele>260.2</ele>
        <time>2016-05-15T17:05:34Z</time>
      </trkpt>
      <trkpt lat="44.37294" lon="1.07298">
        <ele>259.5</ele>
        <time>2016-05-15T17:05:43Z</time>
      </trkpt>
      <trkpt lat="44.37268" lon="1.07304">
        <ele>259.8</ele>
        <time>2016-05-15T17:05:53Z</time>
      </trkpt>
      <trkpt lat="44.37246" lon="1.0731">
        <ele>260.1</ele>
        <time>2016-05-15T17:06:00Z</time>
      </trkpt>
      <trkpt lat="44.3723" lon="1.07313">
        <ele>260.3</ele>
        <time>2016-05-15T17:06:05Z</time>
      </trkpt>
      <trkpt lat="44.37217" lon="1.07312">
        <ele>260.2</ele>
        <time>2016-05-15T17:06:09Z</time>
      </trkpt>
      <trkpt lat="44.37189" lon="1.07315">
        <ele>260.7</ele>
        <time>2016-05-15T17:06:16Z</time>
      </trkpt>
      <trkpt lat="44.37169" lon="1.0732">
        <ele>261.2</ele>
        <time>2016-05-15T17:06:21Z</time>
      </trkpt>
      <trkpt lat="44.37157" lon="1.07323">
        <ele>261.4</ele>
        <time>2016-05-15T17:06:24Z</time>
      </trkpt>
      <trkpt lat="44.37128" lon="1.07333">
        <ele>262</ele>
        <time>2016-05-15T17:06:31Z</time>
      </trkpt>
      <trkpt lat="44.37079" lon="1.0735">
        <ele>263.7</ele>
        <time>2016-05-15T17:06:42Z</time>
      </trkpt>
      <trkpt lat="44.37047" lon="1.0736">
        <ele>264.7</ele>
        <time>2016-05-15T17:06:50Z</time>
      </trkpt>
      <trkpt lat="44.37037" lon="1.07364">
        <ele>264.8</ele>
        <time>2016-05-15T17:06:53Z</time>
      </trkpt>
      <trkpt lat="44.37011" lon="1.07371">
        <ele>264.6</ele>
        <time>2016-05-15T17:07:01Z</time>
      </trkpt>
      <trkpt lat="44.37004" lon="1.07373">
        <ele>264.5</ele>
        <time>2016-05-15T17:07:04Z</time>
      </trkpt>
      <trkpt lat="44.37" lon="1.07374">
        <ele>264.5</ele>
        <time>2016-05-15T17:07:07Z</time>
      </trkpt>
      <trkpt lat="44.36994" lon="1.07375">
        <ele>264.4</ele>
        <time>2016-05-15T17:07:14Z</time>
      </trkpt>
      <trkpt lat="44.36989" lon="1.07378">
        <ele>264.4</ele>
        <time>2016-05-15T17:08:06Z</time>
      </trkpt>
      <trkpt lat="44.36986" lon="1.07379">
        <ele>264.3</ele>
        <time>2016-05-15T17:08:08Z</time>
      </trkpt>
      <trkpt lat="44.36968" lon="1.07382">
        <ele>264.1</ele>
        <time>2016-05-15T17:08:15Z</time>
      </trkpt>
      <trkpt lat="44.36942" lon="1.07382">
        <ele>263.2</ele>
        <time>2016-05-15T17:08:21Z</time>
      </trkpt>
      <trkpt lat="44.36931" lon="1.07383">
        <ele>262.6</ele>
        <time>2016-05-15T17:08:23Z</time>
      </trkpt>
      <trkpt lat="44.36911" lon="1.07384">
        <ele>261.6</ele>
        <time>2016-05-15T17:08:26Z</time>
      </trkpt>
      <trkpt lat="44.36898" lon="1.07384">
        <ele>260.9</ele>
        <time>2016-05-15T17:08:28Z</time>
      </trkpt>
      <trkpt lat="44.36868" lon="1.07386">
        <ele>259.6</ele>
        <time>2016-05-15T17:08:32Z</time>
      </trkpt>
      <trkpt lat="44.3686" lon="1.07386">
        <ele>259.6</ele>
        <time>2016-05-15T17:08:33Z</time>
      </trkpt>
      <trkpt lat="44.36851" lon="1.07386">
        <ele>259.6</ele>
        <time>2016-05-15T17:08:34Z</time>
      </trkpt>
      <trkpt lat="44.36818" lon="1.07391">
        <ele>259.4</ele>
        <time>2016-05-15T17:08:38Z</time>
      </trkpt>
      <trkpt lat="44.36809" lon="1.07395">
        <ele>259.3</ele>
        <time>2016-05-15T17:08:39Z</time>
      </trkpt>
      <trkpt lat="44.36801" lon="1.074">
        <ele>259.1</ele>
        <time>2016-05-15T17:08:40Z</time>
      </trkpt>
      <trkpt lat="44.36776" lon="1.07422">
        <ele>257.8</ele>
        <time>2016-05-15T17:08:43Z</time>
      </trkpt>
      <trkpt lat="44.3675" lon="1.07446">
        <ele>256</ele>
        <time>2016-05-15T17:08:46Z</time>
      </trkpt>
      <trkpt lat="44.36742" lon="1.07454">
        <ele>255.4</ele>
        <time>2016-05-15T17:08:47Z</time>
      </trkpt>
      <trkpt lat="44.36725" lon="1.07472">
        <ele>253.8</ele>
        <time>2016-05-15T17:08:49Z</time>
      </trkpt>
      <trkpt lat="44.36715" lon="1.0748">
        <ele>253</ele>
        <time>2016-05-15T17:08:50Z</time>
      </trkpt>
      <trkpt lat="44.36685" lon="1.07498">
        <ele>249.9</ele>
        <time>2016-05-15T17:08:53Z</time>
      </trkpt>
      <trkpt lat="44.36675" lon="1.07499">
        <ele>249.1</ele>
        <time>2016-05-15T17:08:54Z</time>
      </trkpt>
      <trkpt lat="44.36654" lon="1.07494">
        <ele>247.8</ele>
        <time>2016-05-15T17:08:56Z</time>
      </trkpt>
      <trkpt lat="44.36644" lon="1.07488">
        <ele>247.1</ele>
        <time>2016-05-15T17:08:57Z</time>
      </trkpt>
      <trkpt lat="44.36634" lon="1.07483">
        <ele>246.5</ele>
        <time>2016-05-15T17:08:58Z</time>
      </trkpt>
      <trkpt lat="44.36625" lon="1.07476">
        <ele>245.8</ele>
        <time>2016-05-15T17:08:59Z</time>
      </trkpt>
      <trkpt lat="44.36597" lon="1.07459">
        <ele>244.6</ele>
        <time>2016-05-15T17:09:02Z</time>
      </trkpt>
      <trkpt lat="44.36579" lon="1.07448">
        <ele>244</ele>
        <time>2016-05-15T17:09:04Z</time>
      </trkpt>
      <trkpt lat="44.36553" lon="1.07432">
        <ele>242.9</ele>
        <time>2016-05-15T17:09:07Z</time>
      </trkpt>
      <trkpt lat="44.36539" lon="1.07419">
        <ele>242.3</ele>
        <time>2016-05-15T17:09:09Z</time>
      </trkpt>
      <trkpt lat="44.36527" lon="1.07401">
        <ele>241.8</ele>
        <time>2016-05-15T17:09:12Z</time>
      </trkpt>
      <trkpt lat="44.36524" lon="1.07398">
        <ele>241.6</ele>
        <time>2016-05-15T17:09:13Z</time>
      </trkpt>
      <trkpt lat="44.36518" lon="1.07397">
        <ele>241.3</ele>
        <time>2016-05-15T17:09:15Z</time>
      </trkpt>
      <trkpt lat="44.36513" lon="1.07405">
        <ele>240.9</ele>
        <time>2016-05-15T17:09:17Z</time>
      </trkpt>
      <trkpt lat="44.36513" lon="1.07411">
        <ele>240.9</ele>
        <time>2016-05-15T17:09:18Z</time>
      </trkpt>
      <trkpt lat="44.36513" lon="1.07424">
        <ele>240.7</ele>
        <time>2016-05-15T17:09:20Z</time>
      </trkpt>
      <trkpt lat="44.36514" lon="1.07432">
        <ele>240.6</ele>
        <time>2016-05-15T17:09:21Z</time>
      </trkpt>
      <trkpt lat="44.36514" lon="1.07441">
        <ele>240.5</ele>
        <time>2016-05-15T17:09:22Z</time>
      </trkpt>
      <trkpt lat="44.36516" lon="1.07487">
        <ele>239.9</ele>
        <time>2016-05-15T17:09:27Z</time>
      </trkpt>
      <trkpt lat="44.36516" lon="1.07496">
        <ele>239.7</ele>
        <time>2016-05-15T17:09:28Z</time>
      </trkpt>
      <trkpt lat="44.36518" lon="1.07555">
        <ele>238.9</ele>
        <time>2016-05-15T17:09:34Z</time>
      </trkpt>
      <trkpt lat="44.36519" lon="1.07565">
        <ele>238.9</ele>
        <time>2016-05-15T17:09:35Z</time>
      </trkpt>
      <trkpt lat="44.36521" lon="1.07623">
        <ele>239</ele>
        <time>2016-05-15T17:09:41Z</time>
      </trkpt>
      <trkpt lat="44.3652" lon="1.0764">
        <ele>239.1</ele>
        <time>2016-05-15T17:09:43Z</time>
      </trkpt>
      <trkpt lat="44.36521" lon="1.07671">
        <ele>239.3</ele>
        <time>2016-05-15T17:09:47Z</time>
      </trkpt>
      <trkpt lat="44.36519" lon="1.07731">
        <ele>239.4</ele>
        <time>2016-05-15T17:09:55Z</time>
      </trkpt>
      <trkpt lat="44.36513" lon="1.07755">
        <ele>239.1</ele>
        <time>2016-05-15T17:09:58Z</time>
      </trkpt>
      <trkpt lat="44.3651" lon="1.07763">
        <ele>239</ele>
        <time>2016-05-15T17:09:59Z</time>
      </trkpt>
      <trkpt lat="44.36507" lon="1.07771">
        <ele>238.8</ele>
        <time>2016-05-15T17:10:00Z</time>
      </trkpt>
      <trkpt lat="44.36489" lon="1.078">
        <ele>238.3</ele>
        <time>2016-05-15T17:10:04Z</time>
      </trkpt>
      <trkpt lat="44.36484" lon="1.07808">
        <ele>238.2</ele>
        <time>2016-05-15T17:10:05Z</time>
      </trkpt>
      <trkpt lat="44.36453" lon="1.07853">
        <ele>237.8</ele>
        <time>2016-05-15T17:10:11Z</time>
      </trkpt>
      <trkpt lat="44.36435" lon="1.07876">
        <ele>238.3</ele>
        <time>2016-05-15T17:10:14Z</time>
      </trkpt>
      <trkpt lat="44.36404" lon="1.07914">
        <ele>239.1</ele>
        <time>2016-05-15T17:10:20Z</time>
      </trkpt>
      <trkpt lat="44.36391" lon="1.07931">
        <ele>239.5</ele>
        <time>2016-05-15T17:10:23Z</time>
      </trkpt>
      <trkpt lat="44.36379" lon="1.07945">
        <ele>239.8</ele>
        <time>2016-05-15T17:10:26Z</time>
      </trkpt>
      <trkpt lat="44.36373" lon="1.07956">
        <ele>240.1</ele>
        <time>2016-05-15T17:10:28Z</time>
      </trkpt>
      <trkpt lat="44.36366" lon="1.07974">
        <ele>240.5</ele>
        <time>2016-05-15T17:10:31Z</time>
      </trkpt>
      <trkpt lat="44.36363" lon="1.07988">
        <ele>240.8</ele>
        <time>2016-05-15T17:10:33Z</time>
      </trkpt>
      <trkpt lat="44.36358" lon="1.08017">
        <ele>241.3</ele>
        <time>2016-05-15T17:10:37Z</time>
      </trkpt>
      <trkpt lat="44.36347" lon="1.0807">
        <ele>242.2</ele>
        <time>2016-05-15T17:10:45Z</time>
      </trkpt>
      <trkpt lat="44.36345" lon="1.08076">
        <ele>242.3</ele>
        <time>2016-05-15T17:10:46Z</time>
      </trkpt>
      <trkpt lat="44.36327" lon="1.08112">
        <ele>243.1</ele>
        <time>2016-05-15T17:10:53Z</time>
      </trkpt>
      <trkpt lat="44.36309" lon="1.08149">
        <ele>243.6</ele>
        <time>2016-05-15T17:11:00Z</time>
      </trkpt>
      <trkpt lat="44.36301" lon="1.08165">
        <ele>243.8</ele>
        <time>2016-05-15T17:11:03Z</time>
      </trkpt>
      <trkpt lat="44.36283" lon="1.082">
        <ele>244.2</ele>
        <time>2016-05-15T17:11:11Z</time>
      </trkpt>
      <trkpt lat="44.36281" lon="1.08204">
        <ele>244.3</ele>
        <time>2016-05-15T17:11:12Z</time>
      </trkpt>
      <trkpt lat="44.36271" lon="1.08234">
        <ele>245</ele>
        <time>2016-05-15T17:11:18Z</time>
      </trkpt>
      <trkpt lat="44.36257" lon="1.08274">
        <ele>246.1</ele>
        <time>2016-05-15T17:11:25Z</time>
      </trkpt>
      <trkpt lat="44.36242" lon="1.08318">
        <ele>246.7</ele>
        <time>2016-05-15T17:11:33Z</time>
      </trkpt>
      <trkpt lat="44.36224" lon="1.08358">
        <ele>247</ele>
        <time>2016-05-15T17:11:41Z</time>
      </trkpt>
      <trkpt lat="44.36208" lon="1.08388">
        <ele>247.4</ele>
        <time>2016-05-15T17:11:48Z</time>
      </trkpt>
      <trkpt lat="44.36202" lon="1.08396">
        <ele>247.8</ele>
        <time>2016-05-15T17:11:50Z</time>
      </trkpt>
      <trkpt lat="44.36189" lon="1.08415">
        <ele>249</ele>
        <time>2016-05-15T17:11:55Z</time>
      </trkpt>
      <trkpt lat="44.36177" lon="1.08428">
        <ele>250</ele>
        <time>2016-05-15T17:11:59Z</time>
      </trkpt>
      <trkpt lat="44.36158" lon="1.08446">
        <ele>251.7</ele>
        <time>2016-05-15T17:12:05Z</time>
      </trkpt>
      <trkpt lat="44.36143" lon="1.08457">
        <ele>252.9</ele>
        <time>2016-05-15T17:12:09Z</time>
      </trkpt>
      <trkpt lat="44.3613" lon="1.08468">
        <ele>253.6</ele>
        <time>2016-05-15T17:12:13Z</time>
      </trkpt>
      <trkpt lat="44.36126" lon="1.0847">
        <ele>253.8</ele>
        <time>2016-05-15T17:12:14Z</time>
      </trkpt>
      <trkpt lat="44.36119" lon="1.08473">
        <ele>254.1</ele>
        <time>2016-05-15T17:12:16Z</time>
      </trkpt>
      <trkpt lat="44.36094" lon="1.08493">
        <ele>255.7</ele>
        <time>2016-05-15T17:12:23Z</time>
      </trkpt>
      <trkpt lat="44.36074" lon="1.08519">
        <ele>257.5</ele>
        <time>2016-05-15T17:12:30Z</time>
      </trkpt>
      <trkpt lat="44.36071" lon="1.08524">
        <ele>257.8</ele>
        <time>2016-05-15T17:12:31Z</time>
      </trkpt>
      <trkpt lat="44.36051" lon="1.08561">
        <ele>259.5</ele>
        <time>2016-05-15T17:12:39Z</time>
      </trkpt>
      <trkpt lat="44.36043" lon="1.08573">
        <ele>259.7</ele>
        <time>2016-05-15T17:12:42Z</time>
      </trkpt>
      <trkpt lat="44.3603" lon="1.08597">
        <ele>259.7</ele>
        <time>2016-05-15T17:12:48Z</time>
      </trkpt>
      <trkpt lat="44.36028" lon="1.08602">
        <ele>259.7</ele>
        <time>2016-05-15T17:12:49Z</time>
      </trkpt>
      <trkpt lat="44.36013" lon="1.08629">
        <ele>260</ele>
        <time>2016-05-15T17:12:56Z</time>
      </trkpt>
      <trkpt lat="44.36008" lon="1.08637">
        <ele>260.1</ele>
        <time>2016-05-15T17:12:58Z</time>
      </trkpt>
      <trkpt lat="44.35995" lon="1.08661">
        <ele>260.2</ele>
        <time>2016-05-15T17:13:04Z</time>
      </trkpt>
      <trkpt lat="44.35979" lon="1.08691">
        <ele>259.9</ele>
        <time>2016-05-15T17:13:12Z</time>
      </trkpt>
      <trkpt lat="44.35973" lon="1.08702">
        <ele>259.8</ele>
        <time>2016-05-15T17:13:15Z</time>
      </trkpt>
      <trkpt lat="44.35963" lon="1.0872">
        <ele>259.9</ele>
        <time>2016-05-15T17:13:20Z</time>
      </trkpt>
      <trkpt lat="44.35955" lon="1.08734">
        <ele>260.1</ele>
        <time>2016-05-15T17:13:24Z</time>
      </trkpt>
      <trkpt lat="44.35947" lon="1.08748">
        <ele>260.4</ele>
        <time>2016-05-15T17:13:28Z</time>
      </trkpt>
      <trkpt lat="44.35943" lon="1.08755">
        <ele>260.4</ele>
        <time>2016-05-15T17:13:31Z</time>
      </trkpt>
      <trkpt lat="44.35937" lon="1.08765">
        <ele>260.5</ele>
        <time>2016-05-15T17:13:36Z</time>
      </trkpt>
      <trkpt lat="44.35935" lon="1.08772">
        <ele>260.5</ele>
        <time>2016-05-15T17:13:38Z</time>
      </trkpt>
      <trkpt lat="44.35929" lon="1.08781">
        <ele>260.5</ele>
        <time>2016-05-15T17:13:41Z</time>
      </trkpt>
      <trkpt lat="44.35918" lon="1.08801">
        <ele>260.7</ele>
        <time>2016-05-15T17:13:47Z</time>
      </trkpt>
      <trkpt lat="44.35917" lon="1.08805">
        <ele>260.8</ele>
        <time>2016-05-15T17:13:48Z</time>
      </trkpt>
      <trkpt lat="44.35904" lon="1.08832">
        <ele>261.5</ele>
        <time>2016-05-15T17:13:56Z</time>
      </trkpt>
      <trkpt lat="44.35903" lon="1.08836">
        <ele>261.5</ele>
        <time>2016-05-15T17:13:57Z</time>
      </trkpt>
      <trkpt lat="44.35898" lon="1.08846">
        <ele>261.7</ele>
        <time>2016-05-15T17:14:01Z</time>
      </trkpt>
      <trkpt lat="44.35895" lon="1.08852">
        <ele>261.8</ele>
        <time>2016-05-15T17:14:03Z</time>
      </trkpt>
      <trkpt lat="44.35886" lon="1.08877">
        <ele>262.2</ele>
        <time>2016-05-15T17:14:10Z</time>
      </trkpt>
      <trkpt lat="44.35881" lon="1.08891">
        <ele>262.8</ele>
        <time>2016-05-15T17:14:14Z</time>
      </trkpt>
      <trkpt lat="44.35873" lon="1.08911">
        <ele>263.7</ele>
        <time>2016-05-15T17:14:20Z</time>
      </trkpt>
      <trkpt lat="44.35872" lon="1.08918">
        <ele>264.1</ele>
        <time>2016-05-15T17:14:22Z</time>
      </trkpt>
      <trkpt lat="44.35864" lon="1.0894">
        <ele>265.1</ele>
        <time>2016-05-15T17:14:28Z</time>
      </trkpt>
      <trkpt lat="44.35862" lon="1.08944">
        <ele>265.2</ele>
        <time>2016-05-15T17:14:29Z</time>
      </trkpt>
      <trkpt lat="44.35857" lon="1.08959">
        <ele>265.8</ele>
        <time>2016-05-15T17:14:34Z</time>
      </trkpt>
      <trkpt lat="44.35854" lon="1.08962">
        <ele>265.8</ele>
        <time>2016-05-15T17:14:36Z</time>
      </trkpt>
      <trkpt lat="44.35849" lon="1.0897">
        <ele>265.9</ele>
        <time>2016-05-15T17:14:39Z</time>
      </trkpt>
      <trkpt lat="44.35836" lon="1.08989">
        <ele>265.9</ele>
        <time>2016-05-15T17:14:46Z</time>
      </trkpt>
      <trkpt lat="44.35818" lon="1.09008">
        <ele>265.7</ele>
        <time>2016-05-15T17:14:53Z</time>
      </trkpt>
      <trkpt lat="44.35805" lon="1.09026">
        <ele>265.4</ele>
        <time>2016-05-15T17:15:00Z</time>
      </trkpt>
      <trkpt lat="44.35796" lon="1.09032">
        <ele>265.1</ele>
        <time>2016-05-15T17:15:04Z</time>
      </trkpt>
      <trkpt lat="44.35794" lon="1.09034">
        <ele>265.1</ele>
        <time>2016-05-15T17:15:05Z</time>
      </trkpt>
      <trkpt lat="44.35782" lon="1.09046">
        <ele>265.2</ele>
        <time>2016-05-15T17:15:12Z</time>
      </trkpt>
      <trkpt lat="44.3577" lon="1.0906">
        <ele>265.6</ele>
        <time>2016-05-15T17:15:20Z</time>
      </trkpt>
      <trkpt lat="44.35767" lon="1.09063">
        <ele>265.7</ele>
        <time>2016-05-15T17:15:21Z</time>
      </trkpt>
      <trkpt lat="44.35765" lon="1.09066">
        <ele>265.8</ele>
        <time>2016-05-15T17:15:25Z</time>
      </trkpt>
      <trkpt lat="44.35762" lon="1.09068">
        <ele>265.9</ele>
        <time>2016-05-15T17:15:26Z</time>
      </trkpt>
      <trkpt lat="44.35759" lon="1.09071">
        <ele>266</ele>
        <time>2016-05-15T17:15:30Z</time>
      </trkpt>
      <trkpt lat="44.35757" lon="1.09074">
        <ele>266</ele>
        <time>2016-05-15T17:15:32Z</time>
      </trkpt>
      <trkpt lat="44.35754" lon="1.09077">
        <ele>266.1</ele>
        <time>2016-05-15T17:15:46Z</time>
      </trkpt>
      <trkpt lat="44.35752" lon="1.09079">
        <ele>266.2</ele>
        <time>2016-05-15T17:15:47Z</time>
      </trkpt>
      <trkpt lat="44.35733" lon="1.09102">
        <ele>266.6</ele>
        <time>2016-05-15T17:15:54Z</time>
      </trkpt>
      <trkpt lat="44.35717" lon="1.09127">
        <ele>267</ele>
        <time>2016-05-15T17:16:00Z</time>
      </trkpt>
      <trkpt lat="44.35708" lon="1.09149">
        <ele>267</ele>
        <time>2016-05-15T17:16:04Z</time>
      </trkpt>
      <trkpt lat="44.35704" lon="1.09168">
        <ele>266.9</ele>
        <time>2016-05-15T17:16:07Z</time>
      </trkpt>
      <trkpt lat="44.35698" lon="1.09206">
        <ele>266.7</ele>
        <time>2016-05-15T17:16:12Z</time>
      </trkpt>
      <trkpt lat="44.35695" lon="1.09223">
        <ele>266.3</ele>
        <time>2016-05-15T17:16:14Z</time>
      </trkpt>
      <trkpt lat="44.35686" lon="1.0926">
        <ele>265.3</ele>
        <time>2016-05-15T17:16:18Z</time>
      </trkpt>
      <trkpt lat="44.35682" lon="1.09269">
        <ele>265.1</ele>
        <time>2016-05-15T17:16:19Z</time>
      </trkpt>
      <trkpt lat="44.35671" lon="1.09285">
        <ele>265</ele>
        <time>2016-05-15T17:16:21Z</time>
      </trkpt>
      <trkpt lat="44.3565" lon="1.09306">
        <ele>264.6</ele>
        <time>2016-05-15T17:16:24Z</time>
      </trkpt>
      <trkpt lat="44.35643" lon="1.09313">
        <ele>264.5</ele>
        <time>2016-05-15T17:16:25Z</time>
      </trkpt>
      <trkpt lat="44.35635" lon="1.09319">
        <ele>264.4</ele>
        <time>2016-05-15T17:16:26Z</time>
      </trkpt>
      <trkpt lat="44.35619" lon="1.09332">
        <ele>264</ele>
        <time>2016-05-15T17:16:28Z</time>
      </trkpt>
      <trkpt lat="44.35588" lon="1.09361">
        <ele>263.2</ele>
        <time>2016-05-15T17:16:32Z</time>
      </trkpt>
      <trkpt lat="44.35575" lon="1.09377">
        <ele>263.1</ele>
        <time>2016-05-15T17:16:34Z</time>
      </trkpt>
      <trkpt lat="44.35566" lon="1.09397">
        <ele>262.5</ele>
        <time>2016-05-15T17:16:36Z</time>
      </trkpt>
      <trkpt lat="44.35562" lon="1.09419">
        <ele>261.8</ele>
        <time>2016-05-15T17:16:38Z</time>
      </trkpt>
      <trkpt lat="44.35561" lon="1.0943">
        <ele>261.4</ele>
        <time>2016-05-15T17:16:39Z</time>
      </trkpt>
      <trkpt lat="44.35563" lon="1.09464">
        <ele>259.9</ele>
        <time>2016-05-15T17:16:42Z</time>
      </trkpt>
      <trkpt lat="44.35563" lon="1.09476">
        <ele>259.3</ele>
        <time>2016-05-15T17:16:43Z</time>
      </trkpt>
      <trkpt lat="44.35562" lon="1.09488">
        <ele>258.7</ele>
        <time>2016-05-15T17:16:44Z</time>
      </trkpt>
      <trkpt lat="44.35553" lon="1.0952">
        <ele>257.5</ele>
        <time>2016-05-15T17:16:47Z</time>
      </trkpt>
      <trkpt lat="44.3554" lon="1.09546">
        <ele>256.8</ele>
        <time>2016-05-15T17:16:50Z</time>
      </trkpt>
      <trkpt lat="44.35533" lon="1.09553">
        <ele>256.4</ele>
        <time>2016-05-15T17:16:51Z</time>
      </trkpt>
      <trkpt lat="44.35526" lon="1.0956">
        <ele>256.1</ele>
        <time>2016-05-15T17:16:52Z</time>
      </trkpt>
      <trkpt lat="44.35507" lon="1.09583">
        <ele>255.2</ele>
        <time>2016-05-15T17:16:55Z</time>
      </trkpt>
      <trkpt lat="44.35494" lon="1.09597">
        <ele>254.8</ele>
        <time>2016-05-15T17:16:57Z</time>
      </trkpt>
      <trkpt lat="44.35487" lon="1.09605">
        <ele>254.6</ele>
        <time>2016-05-15T17:16:58Z</time>
      </trkpt>
      <trkpt lat="44.3547" lon="1.09631">
        <ele>254</ele>
        <time>2016-05-15T17:17:01Z</time>
      </trkpt>
      <trkpt lat="44.35465" lon="1.09642">
        <ele>253.8</ele>
        <time>2016-05-15T17:17:02Z</time>
      </trkpt>
      <trkpt lat="44.35457" lon="1.09689">
        <ele>252.1</ele>
        <time>2016-05-15T17:17:06Z</time>
      </trkpt>
      <trkpt lat="44.35457" lon="1.09716">
        <ele>250.7</ele>
        <time>2016-05-15T17:17:08Z</time>
      </trkpt>
      <trkpt lat="44.35459" lon="1.09742">
        <ele>249.4</ele>
        <time>2016-05-15T17:17:10Z</time>
      </trkpt>
      <trkpt lat="44.35461" lon="1.0977">
        <ele>248</ele>
        <time>2016-05-15T17:17:12Z</time>
      </trkpt>
      <trkpt lat="44.35465" lon="1.09823">
        <ele>246.9</ele>
        <time>2016-05-15T17:17:16Z</time>
      </trkpt>
      <trkpt lat="44.35466" lon="1.09835">
        <ele>246.9</ele>
        <time>2016-05-15T17:17:17Z</time>
      </trkpt>
      <trkpt lat="44.35468" lon="1.09857">
        <ele>246.8</ele>
        <time>2016-05-15T17:17:19Z</time>
      </trkpt>
      <trkpt lat="44.35472" lon="1.09875">
        <ele>246.7</ele>
        <time>2016-05-15T17:17:21Z</time>
      </trkpt>
      <trkpt lat="44.35475" lon="1.09884">
        <ele>246.5</ele>
        <time>2016-05-15T17:17:22Z</time>
      </trkpt>
      <trkpt lat="44.35486" lon="1.09898">
        <ele>246</ele>
        <time>2016-05-15T17:17:24Z</time>
      </trkpt>
      <trkpt lat="44.355" lon="1.09909">
        <ele>245.4</ele>
        <time>2016-05-15T17:17:26Z</time>
      </trkpt>
      <trkpt lat="44.35507" lon="1.09915">
        <ele>245.1</ele>
        <time>2016-05-15T17:17:27Z</time>
      </trkpt>
      <trkpt lat="44.35515" lon="1.09921">
        <ele>244.7</ele>
        <time>2016-05-15T17:17:28Z</time>
      </trkpt>
      <trkpt lat="44.35529" lon="1.09935">
        <ele>244</ele>
        <time>2016-05-15T17:17:30Z</time>
      </trkpt>
      <trkpt lat="44.35538" lon="1.09952">
        <ele>243.3</ele>
        <time>2016-05-15T17:17:32Z</time>
      </trkpt>
      <trkpt lat="44.35544" lon="1.09984">
        <ele>241.9</ele>
        <time>2016-05-15T17:17:35Z</time>
      </trkpt>
      <trkpt lat="44.35541" lon="1.10034">
        <ele>240.3</ele>
        <time>2016-05-15T17:17:39Z</time>
      </trkpt>
      <trkpt lat="44.35538" lon="1.1006">
        <ele>240</ele>
        <time>2016-05-15T17:17:41Z</time>
      </trkpt>
      <trkpt lat="44.35533" lon="1.10112">
        <ele>239.7</ele>
        <time>2016-05-15T17:17:45Z</time>
      </trkpt>
      <trkpt lat="44.35532" lon="1.10125">
        <ele>239.7</ele>
        <time>2016-05-15T17:17:46Z</time>
      </trkpt>
      <trkpt lat="44.35525" lon="1.10162">
        <ele>238.4</ele>
        <time>2016-05-15T17:17:49Z</time>
      </trkpt>
      <trkpt lat="44.35518" lon="1.10186">
        <ele>237.8</ele>
        <time>2016-05-15T17:17:51Z</time>
      </trkpt>
      <trkpt lat="44.35511" lon="1.10211">
        <ele>237.2</ele>
        <time>2016-05-15T17:17:53Z</time>
      </trkpt>
      <trkpt lat="44.35498" lon="1.10256">
        <ele>237.6</ele>
        <time>2016-05-15T17:17:57Z</time>
      </trkpt>
      <trkpt lat="44.35496" lon="1.10268">
        <ele>237.6</ele>
        <time>2016-05-15T17:17:58Z</time>
      </trkpt>
      <trkpt lat="44.35499" lon="1.10292">
        <ele>237.1</ele>
        <time>2016-05-15T17:18:00Z</time>
      </trkpt>
      <trkpt lat="44.35503" lon="1.10346">
        <ele>237.2</ele>
        <time>2016-05-15T17:18:04Z</time>
      </trkpt>
      <trkpt lat="44.35503" lon="1.1036">
        <ele>237.3</ele>
        <time>2016-05-15T17:18:05Z</time>
      </trkpt>
      <trkpt lat="44.35506" lon="1.10387">
        <ele>237</ele>
        <time>2016-05-15T17:18:07Z</time>
      </trkpt>
      <trkpt lat="44.35509" lon="1.10431">
        <ele>235.9</ele>
        <time>2016-05-15T17:18:10Z</time>
      </trkpt>
      <trkpt lat="44.35507" lon="1.1046">
        <ele>235.1</ele>
        <time>2016-05-15T17:18:12Z</time>
      </trkpt>
      <trkpt lat="44.35505" lon="1.10474">
        <ele>234</ele>
        <time>2016-05-15T17:18:13Z</time>
      </trkpt>
      <trkpt lat="44.35502" lon="1.10488">
        <ele>232.9</ele>
        <time>2016-05-15T17:18:14Z</time>
      </trkpt>
      <trkpt lat="44.35499" lon="1.10502">
        <ele>231.9</ele>
        <time>2016-05-15T17:18:15Z</time>
      </trkpt>
      <trkpt lat="44.35491" lon="1.10527">
        <ele>230.5</ele>
        <time>2016-05-15T17:18:17Z</time>
      </trkpt>
      <trkpt lat="44.35486" lon="1.10537">
        <ele>230.1</ele>
        <time>2016-05-15T17:18:18Z</time>
      </trkpt>
      <trkpt lat="44.35463" lon="1.10553">
        <ele>230.5</ele>
        <time>2016-05-15T17:18:21Z</time>
      </trkpt>
      <trkpt lat="44.35437" lon="1.10553">
        <ele>232.5</ele>
        <time>2016-05-15T17:18:24Z</time>
      </trkpt>
      <trkpt lat="44.35412" lon="1.10543">
        <ele>234.8</ele>
        <time>2016-05-15T17:18:27Z</time>
      </trkpt>
      <trkpt lat="44.35404" lon="1.10541">
        <ele>235.3</ele>
        <time>2016-05-15T17:18:28Z</time>
      </trkpt>
      <trkpt lat="44.35398" lon="1.10541">
        <ele>235.7</ele>
        <time>2016-05-15T17:18:29Z</time>
      </trkpt>
      <trkpt lat="44.35387" lon="1.10548">
        <ele>236.2</ele>
        <time>2016-05-15T17:18:31Z</time>
      </trkpt>
      <trkpt lat="44.35375" lon="1.10566">
        <ele>237</ele>
        <time>2016-05-15T17:18:34Z</time>
      </trkpt>
      <trkpt lat="44.35374" lon="1.10571">
        <ele>237</ele>
        <time>2016-05-15T17:18:35Z</time>
      </trkpt>
      <trkpt lat="44.35373" lon="1.10577">
        <ele>237.1</ele>
        <time>2016-05-15T17:18:36Z</time>
      </trkpt>
      <trkpt lat="44.35376" lon="1.10591">
        <ele>236.9</ele>
        <time>2016-05-15T17:18:38Z</time>
      </trkpt>
      <trkpt lat="44.35378" lon="1.106">
        <ele>236.6</ele>
        <time>2016-05-15T17:18:39Z</time>
      </trkpt>
      <trkpt lat="44.35384" lon="1.1062">
        <ele>235.7</ele>
        <time>2016-05-15T17:18:41Z</time>
      </trkpt>
      <trkpt lat="44.35386" lon="1.10635">
        <ele>235.2</ele>
        <time>2016-05-15T17:18:42Z</time>
      </trkpt>
      <trkpt lat="44.35387" lon="1.10677">
        <ele>235</ele>
        <time>2016-05-15T17:18:45Z</time>
      </trkpt>
      <trkpt lat="44.35381" lon="1.10701">
        <ele>236.3</ele>
        <time>2016-05-15T17:18:47Z</time>
      </trkpt>
      <trkpt lat="44.35378" lon="1.10712">
        <ele>236.8</ele>
        <time>2016-05-15T17:18:48Z</time>
      </trkpt>
      <trkpt lat="44.35373" lon="1.10723">
        <ele>236.2</ele>
        <time>2016-05-15T17:18:49Z</time>
      </trkpt>
      <trkpt lat="44.35363" lon="1.10743">
        <ele>234.7</ele>
        <time>2016-05-15T17:18:51Z</time>
      </trkpt>
      <trkpt lat="44.35357" lon="1.10752">
        <ele>234.3</ele>
        <time>2016-05-15T17:18:52Z</time>
      </trkpt>
      <trkpt lat="44.35345" lon="1.10772">
        <ele>234.1</ele>
        <time>2016-05-15T17:18:54Z</time>
      </trkpt>
      <trkpt lat="44.35339" lon="1.10782">
        <ele>234.2</ele>
        <time>2016-05-15T17:18:55Z</time>
      </trkpt>
      <trkpt lat="44.35321" lon="1.10823">
        <ele>233.9</ele>
        <time>2016-05-15T17:18:59Z</time>
      </trkpt>
      <trkpt lat="44.35313" lon="1.10842">
        <ele>234.1</ele>
        <time>2016-05-15T17:19:01Z</time>
      </trkpt>
      <trkpt lat="44.35301" lon="1.10878">
        <ele>234.7</ele>
        <time>2016-05-15T17:19:05Z</time>
      </trkpt>
      <trkpt lat="44.35299" lon="1.10885">
        <ele>234.9</ele>
        <time>2016-05-15T17:19:06Z</time>
      </trkpt>
      <trkpt lat="44.35294" lon="1.10898">
        <ele>235.3</ele>
        <time>2016-05-15T17:19:09Z</time>
      </trkpt>
      <trkpt lat="44.35292" lon="1.10902">
        <ele>235.6</ele>
        <time>2016-05-15T17:19:11Z</time>
      </trkpt>
      <trkpt lat="44.35292" lon="1.10905">
        <ele>235.5</ele>
        <time>2016-05-15T17:19:13Z</time>
      </trkpt>
      <trkpt lat="44.35294" lon="1.10912">
        <ele>234.2</ele>
        <time>2016-05-15T17:19:48Z</time>
      </trkpt>
      <trkpt lat="44.35288" lon="1.10936">
        <ele>233.4</ele>
        <time>2016-05-15T17:19:55Z</time>
      </trkpt>
      <trkpt lat="44.35276" lon="1.10969">
        <ele>231.9</ele>
        <time>2016-05-15T17:20:01Z</time>
      </trkpt>
      <trkpt lat="44.35273" lon="1.10976">
        <ele>231.4</ele>
        <time>2016-05-15T17:20:02Z</time>
      </trkpt>
      <trkpt lat="44.3526" lon="1.11011">
        <ele>229.3</ele>
        <time>2016-05-15T17:20:07Z</time>
      </trkpt>
      <trkpt lat="44.35244" lon="1.11062">
        <ele>226.8</ele>
        <time>2016-05-15T17:20:13Z</time>
      </trkpt>
      <trkpt lat="44.3524" lon="1.11071">
        <ele>226.4</ele>
        <time>2016-05-15T17:20:14Z</time>
      </trkpt>
      <trkpt lat="44.35227" lon="1.11108">
        <ele>225.1</ele>
        <time>2016-05-15T17:20:18Z</time>
      </trkpt>
      <trkpt lat="44.35216" lon="1.11136">
        <ele>224.5</ele>
        <time>2016-05-15T17:20:21Z</time>
      </trkpt>
      <trkpt lat="44.35212" lon="1.11145">
        <ele>224.1</ele>
        <time>2016-05-15T17:20:22Z</time>
      </trkpt>
      <trkpt lat="44.35199" lon="1.11174">
        <ele>221.7</ele>
        <time>2016-05-15T17:20:25Z</time>
      </trkpt>
      <trkpt lat="44.35188" lon="1.11204">
        <ele>219.5</ele>
        <time>2016-05-15T17:20:28Z</time>
      </trkpt>
      <trkpt lat="44.35184" lon="1.11215">
        <ele>219</ele>
        <time>2016-05-15T17:20:29Z</time>
      </trkpt>
      <trkpt lat="44.35176" lon="1.11248">
        <ele>217</ele>
        <time>2016-05-15T17:20:32Z</time>
      </trkpt>
      <trkpt lat="44.3517" lon="1.1127">
        <ele>215.7</ele>
        <time>2016-05-15T17:20:34Z</time>
      </trkpt>
      <trkpt lat="44.35164" lon="1.11293">
        <ele>214.9</ele>
        <time>2016-05-15T17:20:36Z</time>
      </trkpt>
      <trkpt lat="44.35157" lon="1.11316">
        <ele>214.6</ele>
        <time>2016-05-15T17:20:38Z</time>
      </trkpt>
      <trkpt lat="44.35141" lon="1.11364">
        <ele>212.9</ele>
        <time>2016-05-15T17:20:42Z</time>
      </trkpt>
      <trkpt lat="44.35136" lon="1.11376">
        <ele>212.5</ele>
        <time>2016-05-15T17:20:43Z</time>
      </trkpt>
      <trkpt lat="44.35123" lon="1.11398">
        <ele>211.5</ele>
        <time>2016-05-15T17:20:45Z</time>
      </trkpt>
      <trkpt lat="44.35108" lon="1.11418">
        <ele>210.3</ele>
        <time>2016-05-15T17:20:47Z</time>
      </trkpt>
      <trkpt lat="44.351" lon="1.11427">
        <ele>209.8</ele>
        <time>2016-05-15T17:20:48Z</time>
      </trkpt>
      <trkpt lat="44.35075" lon="1.11454">
        <ele>207.9</ele>
        <time>2016-05-15T17:20:51Z</time>
      </trkpt>
      <trkpt lat="44.35058" lon="1.1147">
        <ele>206.6</ele>
        <time>2016-05-15T17:20:53Z</time>
      </trkpt>
      <trkpt lat="44.3504" lon="1.11486">
        <ele>204.9</ele>
        <time>2016-05-15T17:20:55Z</time>
      </trkpt>
      <trkpt lat="44.35014" lon="1.1151">
        <ele>200</ele>
        <time>2016-05-15T17:20:58Z</time>
      </trkpt>
      <trkpt lat="44.3499" lon="1.11535">
        <ele>195.5</ele>
        <time>2016-05-15T17:21:01Z</time>
      </trkpt>
      <trkpt lat="44.34976" lon="1.11554">
        <ele>193</ele>
        <time>2016-05-15T17:21:03Z</time>
      </trkpt>
      <trkpt lat="44.3497" lon="1.11566">
        <ele>191.4</ele>
        <time>2016-05-15T17:21:04Z</time>
      </trkpt>
      <trkpt lat="44.34966" lon="1.11578">
        <ele>189.8</ele>
        <time>2016-05-15T17:21:05Z</time>
      </trkpt>
      <trkpt lat="44.34959" lon="1.11604">
        <ele>186</ele>
        <time>2016-05-15T17:21:07Z</time>
      </trkpt>
      <trkpt lat="44.34956" lon="1.11618">
        <ele>183.8</ele>
        <time>2016-05-15T17:21:08Z</time>
      </trkpt>
      <trkpt lat="44.34952" lon="1.11631">
        <ele>182.1</ele>
        <time>2016-05-15T17:21:09Z</time>
      </trkpt>
      <trkpt lat="44.34942" lon="1.1167">
        <ele>179.1</ele>
        <time>2016-05-15T17:21:12Z</time>
      </trkpt>
      <trkpt lat="44.34932" lon="1.11709">
        <ele>176.4</ele>
        <time>2016-05-15T17:21:15Z</time>
      </trkpt>
      <trkpt lat="44.34928" lon="1.11721">
        <ele>176.1</ele>
        <time>2016-05-15T17:21:16Z</time>
      </trkpt>
      <trkpt lat="44.3491" lon="1.11793">
        <ele>174.7</ele>
        <time>2016-05-15T17:21:22Z</time>
      </trkpt>
      <trkpt lat="44.34907" lon="1.11803">
        <ele>174.8</ele>
        <time>2016-05-15T17:21:23Z</time>
      </trkpt>
      <trkpt lat="44.34898" lon="1.11838">
        <ele>175.5</ele>
        <time>2016-05-15T17:21:27Z</time>
      </trkpt>
      <trkpt lat="44.34894" lon="1.11848">
        <ele>175.6</ele>
        <time>2016-05-15T17:21:30Z</time>
      </trkpt>
      <trkpt lat="44.34889" lon="1.11854">
        <ele>175.7</ele>
        <time>2016-05-15T17:21:35Z</time>
      </trkpt>
      <trkpt lat="44.34887" lon="1.11861">
        <ele>175.8</ele>
        <time>2016-05-15T17:21:47Z</time>
      </trkpt>
      <trkpt lat="44.34887" lon="1.11863">
        <ele>175.9</ele>
        <time>2016-05-15T17:21:48Z</time>
      </trkpt>
      <trkpt lat="44.34887" lon="1.1188">
        <ele>176.3</ele>
        <time>2016-05-15T17:21:54Z</time>
      </trkpt>
      <trkpt lat="44.34887" lon="1.11883">
        <ele>176.4</ele>
        <time>2016-05-15T17:21:55Z</time>
      </trkpt>
      <trkpt lat="44.34881" lon="1.11896">
        <ele>176.3</ele>
        <time>2016-05-15T17:22:00Z</time>
      </trkpt>
      <trkpt lat="44.34877" lon="1.11896">
        <ele>176.3</ele>
        <time>2016-05-15T17:22:01Z</time>
      </trkpt>
      <trkpt lat="44.34871" lon="1.11893">
        <ele>176.2</ele>
        <time>2016-05-15T17:22:03Z</time>
      </trkpt>
      <trkpt lat="44.34867" lon="1.11892">
        <ele>176.2</ele>
        <time>2016-05-15T17:22:04Z</time>
      </trkpt>
      <trkpt lat="44.34857" lon="1.11888">
        <ele>176.2</ele>
        <time>2016-05-15T17:22:06Z</time>
      </trkpt>
      <trkpt lat="44.34845" lon="1.11887">
        <ele>176.1</ele>
        <time>2016-05-15T17:22:08Z</time>
      </trkpt>
      <trkpt lat="44.34827" lon="1.11888">
        <ele>176.2</ele>
        <time>2016-05-15T17:22:11Z</time>
      </trkpt>
      <trkpt lat="44.34791" lon="1.11896">
        <ele>176.2</ele>
        <time>2016-05-15T17:22:18Z</time>
      </trkpt>
      <trkpt lat="44.34774" lon="1.11901">
        <ele>176.2</ele>
        <time>2016-05-15T17:22:22Z</time>
      </trkpt>
      <trkpt lat="44.34766" lon="1.11906">
        <ele>176.2</ele>
        <time>2016-05-15T17:22:24Z</time>
      </trkpt>
      <trkpt lat="44.34742" lon="1.11925">
        <ele>176.8</ele>
        <time>2016-05-15T17:22:31Z</time>
      </trkpt>
      <trkpt lat="44.34728" lon="1.11939">
        <ele>177.6</ele>
        <time>2016-05-15T17:22:37Z</time>
      </trkpt>
      <trkpt lat="44.34717" lon="1.11944">
        <ele>178</ele>
        <time>2016-05-15T17:22:42Z</time>
      </trkpt>
      <trkpt lat="44.34709" lon="1.11948">
        <ele>178.4</ele>
        <time>2016-05-15T17:22:46Z</time>
      </trkpt>
      <trkpt lat="44.34702" lon="1.11949">
        <ele>178.7</ele>
        <time>2016-05-15T17:22:49Z</time>
      </trkpt>
      <trkpt lat="44.34694" lon="1.11951">
        <ele>179.2</ele>
        <time>2016-05-15T17:22:53Z</time>
      </trkpt>
      <trkpt lat="44.34685" lon="1.11949">
        <ele>179.5</ele>
        <time>2016-05-15T17:22:57Z</time>
      </trkpt>
      <trkpt lat="44.34675" lon="1.11944">
        <ele>179.6</ele>
        <time>2016-05-15T17:23:01Z</time>
      </trkpt>
      <trkpt lat="44.34669" lon="1.11941">
        <ele>179.7</ele>
        <time>2016-05-15T17:23:04Z</time>
      </trkpt>
      <trkpt lat="44.34657" lon="1.11938">
        <ele>180</ele>
        <time>2016-05-15T17:23:09Z</time>
      </trkpt>
      <trkpt lat="44.34653" lon="1.11938">
        <ele>180.1</ele>
        <time>2016-05-15T17:23:11Z</time>
      </trkpt>
      <trkpt lat="44.34645" lon="1.11938">
        <ele>180.4</ele>
        <time>2016-05-15T17:23:14Z</time>
      </trkpt>
      <trkpt lat="44.34633" lon="1.11939">
        <ele>181</ele>
        <time>2016-05-15T17:23:18Z</time>
      </trkpt>
      <trkpt lat="44.34618" lon="1.11943">
        <ele>182.1</ele>
        <time>2016-05-15T17:23:24Z</time>
      </trkpt>
      <trkpt lat="44.34615" lon="1.11944">
        <ele>182.3</ele>
        <time>2016-05-15T17:23:25Z</time>
      </trkpt>
      <trkpt lat="44.34605" lon="1.11948">
        <ele>183.1</ele>
        <time>2016-05-15T17:23:29Z</time>
      </trkpt>
      <trkpt lat="44.34598" lon="1.1195">
        <ele>183.6</ele>
        <time>2016-05-15T17:23:32Z</time>
      </trkpt>
      <trkpt lat="44.34593" lon="1.11952">
        <ele>184</ele>
        <time>2016-05-15T17:23:34Z</time>
      </trkpt>
      <trkpt lat="44.34585" lon="1.11953">
        <ele>184.5</ele>
        <time>2016-05-15T17:23:37Z</time>
      </trkpt>
      <trkpt lat="44.3458" lon="1.11954">
        <ele>184.8</ele>
        <time>2016-05-15T17:23:39Z</time>
      </trkpt>
      <trkpt lat="44.34575" lon="1.11956">
        <ele>185.2</ele>
        <time>2016-05-15T17:23:41Z</time>
      </trkpt>
      <trkpt lat="44.34565" lon="1.11959">
        <ele>186</ele>
        <time>2016-05-15T17:23:46Z</time>
      </trkpt>
      <trkpt lat="44.34558" lon="1.11961">
        <ele>186.7</ele>
        <time>2016-05-15T17:23:50Z</time>
      </trkpt>
      <trkpt lat="44.34555" lon="1.11961">
        <ele>186.8</ele>
        <time>2016-05-15T17:23:52Z</time>
      </trkpt>
      <trkpt lat="44.34545" lon="1.11961">
        <ele>187.4</ele>
        <time>2016-05-15T17:23:57Z</time>
      </trkpt>
      <trkpt lat="44.34539" lon="1.11962">
        <ele>187.9</ele>
        <time>2016-05-15T17:24:00Z</time>
      </trkpt>
      <trkpt lat="44.3453" lon="1.11962">
        <ele>188.7</ele>
        <time>2016-05-15T17:24:04Z</time>
      </trkpt>
      <trkpt lat="44.3452" lon="1.11962">
        <ele>189.7</ele>
        <time>2016-05-15T17:24:09Z</time>
      </trkpt>
      <trkpt lat="44.34518" lon="1.11963">
        <ele>189.9</ele>
        <time>2016-05-15T17:24:10Z</time>
      </trkpt>
      <trkpt lat="44.34506" lon="1.11966">
        <ele>191.4</ele>
        <time>2016-05-15T17:24:16Z</time>
      </trkpt>
      <trkpt lat="44.34503" lon="1.11967">
        <ele>192</ele>
        <time>2016-05-15T17:24:18Z</time>
      </trkpt>
      <trkpt lat="44.34501" lon="1.11968">
        <ele>192.3</ele>
        <time>2016-05-15T17:24:19Z</time>
      </trkpt>
      <trkpt lat="44.34492" lon="1.1197">
        <ele>193.2</ele>
        <time>2016-05-15T17:24:24Z</time>
      </trkpt>
      <trkpt lat="44.34483" lon="1.11975">
        <ele>194.5</ele>
        <time>2016-05-15T17:24:30Z</time>
      </trkpt>
      <trkpt lat="44.34479" lon="1.11977">
        <ele>195</ele>
        <time>2016-05-15T17:24:33Z</time>
      </trkpt>
      <trkpt lat="44.34475" lon="1.11978">
        <ele>195.4</ele>
        <time>2016-05-15T17:24:35Z</time>
      </trkpt>
      <trkpt lat="44.34464" lon="1.11985">
        <ele>196.6</ele>
        <time>2016-05-15T17:24:41Z</time>
      </trkpt>
      <trkpt lat="44.34459" lon="1.11987">
        <ele>197.1</ele>
        <time>2016-05-15T17:24:43Z</time>
      </trkpt>
      <trkpt lat="44.34452" lon="1.11995">
        <ele>198.9</ele>
        <time>2016-05-15T17:24:48Z</time>
      </trkpt>
      <trkpt lat="44.34447" lon="1.12">
        <ele>200.3</ele>
        <time>2016-05-15T17:24:51Z</time>
      </trkpt>
      <trkpt lat="44.34441" lon="1.12004">
        <ele>201.6</ele>
        <time>2016-05-15T17:24:54Z</time>
      </trkpt>
      <trkpt lat="44.34437" lon="1.12009">
        <ele>202.8</ele>
        <time>2016-05-15T17:24:57Z</time>
      </trkpt>
      <trkpt lat="44.3443" lon="1.12017">
        <ele>204.3</ele>
        <time>2016-05-15T17:25:02Z</time>
      </trkpt>
      <trkpt lat="44.34429" lon="1.12018">
        <ele>204.6</ele>
        <time>2016-05-15T17:25:03Z</time>
      </trkpt>
      <trkpt lat="44.3442" lon="1.12028">
        <ele>206.5</ele>
        <time>2016-05-15T17:25:08Z</time>
      </trkpt>
      <trkpt lat="44.3441" lon="1.1204">
        <ele>208.5</ele>
        <time>2016-05-15T17:25:15Z</time>
      </trkpt>
      <trkpt lat="44.34409" lon="1.12042">
        <ele>208.8</ele>
        <time>2016-05-15T17:25:16Z</time>
      </trkpt>
      <trkpt lat="44.34401" lon="1.12051">
        <ele>210.8</ele>
        <time>2016-05-15T17:25:21Z</time>
      </trkpt>
      <trkpt lat="44.34393" lon="1.12059">
        <ele>212.6</ele>
        <time>2016-05-15T17:25:26Z</time>
      </trkpt>
      <trkpt lat="44.34382" lon="1.12069">
        <ele>214.3</ele>
        <time>2016-05-15T17:25:32Z</time>
      </trkpt>
      <trkpt lat="44.34377" lon="1.12073">
        <ele>214.9</ele>
        <time>2016-05-15T17:25:35Z</time>
      </trkpt>
      <trkpt lat="44.34375" lon="1.12077">
        <ele>215.3</ele>
        <time>2016-05-15T17:25:37Z</time>
      </trkpt>
      <trkpt lat="44.34367" lon="1.12085">
        <ele>217</ele>
        <time>2016-05-15T17:25:42Z</time>
      </trkpt>
      <trkpt lat="44.34365" lon="1.12089">
        <ele>217.6</ele>
        <time>2016-05-15T17:25:44Z</time>
      </trkpt>
      <trkpt lat="44.34358" lon="1.12098">
        <ele>219.2</ele>
        <time>2016-05-15T17:25:49Z</time>
      </trkpt>
      <trkpt lat="44.34356" lon="1.121">
        <ele>219.5</ele>
        <time>2016-05-15T17:25:50Z</time>
      </trkpt>
      <trkpt lat="44.34349" lon="1.12109">
        <ele>221</ele>
        <time>2016-05-15T17:25:55Z</time>
      </trkpt>
      <trkpt lat="44.34345" lon="1.12112">
        <ele>221.7</ele>
        <time>2016-05-15T17:25:57Z</time>
      </trkpt>
      <trkpt lat="44.34338" lon="1.12123">
        <ele>223.3</ele>
        <time>2016-05-15T17:26:03Z</time>
      </trkpt>
      <trkpt lat="44.34336" lon="1.12125">
        <ele>223.5</ele>
        <time>2016-05-15T17:26:04Z</time>
      </trkpt>
      <trkpt lat="44.3433" lon="1.12135">
        <ele>225.1</ele>
        <time>2016-05-15T17:26:09Z</time>
      </trkpt>
      <trkpt lat="44.34326" lon="1.12141">
        <ele>225.9</ele>
        <time>2016-05-15T17:26:12Z</time>
      </trkpt>
      <trkpt lat="44.34325" lon="1.12142">
        <ele>226.1</ele>
        <time>2016-05-15T17:26:13Z</time>
      </trkpt>
      <trkpt lat="44.34316" lon="1.12154">
        <ele>227.9</ele>
        <time>2016-05-15T17:26:20Z</time>
      </trkpt>
      <trkpt lat="44.34314" lon="1.12155">
        <ele>228.1</ele>
        <time>2016-05-15T17:26:21Z</time>
      </trkpt>
      <trkpt lat="44.34306" lon="1.12165">
        <ele>229.4</ele>
        <time>2016-05-15T17:26:27Z</time>
      </trkpt>
      <trkpt lat="44.34304" lon="1.12166">
        <ele>229.6</ele>
        <time>2016-05-15T17:26:28Z</time>
      </trkpt>
      <trkpt lat="44.34297" lon="1.12172">
        <ele>230.4</ele>
        <time>2016-05-15T17:26:33Z</time>
      </trkpt>
      <trkpt lat="44.34293" lon="1.12177">
        <ele>230.9</ele>
        <time>2016-05-15T17:26:36Z</time>
      </trkpt>
      <trkpt lat="44.34285" lon="1.12188">
        <ele>231</ele>
        <time>2016-05-15T17:26:43Z</time>
      </trkpt>
      <trkpt lat="44.34278" lon="1.12194">
        <ele>231</ele>
        <time>2016-05-15T17:26:50Z</time>
      </trkpt>
      <trkpt lat="44.34277" lon="1.12194">
        <ele>231</ele>
        <time>2016-05-15T17:26:51Z</time>
      </trkpt>
      <trkpt lat="44.34265" lon="1.12203">
        <ele>231</ele>
        <time>2016-05-15T17:26:57Z</time>
      </trkpt>
      <trkpt lat="44.3426" lon="1.12207">
        <ele>231</ele>
        <time>2016-05-15T17:27:00Z</time>
      </trkpt>
      <trkpt lat="44.34254" lon="1.12211">
        <ele>231</ele>
        <time>2016-05-15T17:27:04Z</time>
      </trkpt>
      <trkpt lat="44.34247" lon="1.12216">
        <ele>231</ele>
        <time>2016-05-15T17:27:08Z</time>
      </trkpt>
      <trkpt lat="44.34239" lon="1.12223">
        <ele>231.1</ele>
        <time>2016-05-15T17:27:13Z</time>
      </trkpt>
      <trkpt lat="44.34233" lon="1.12229">
        <ele>231.2</ele>
        <time>2016-05-15T17:27:17Z</time>
      </trkpt>
      <trkpt lat="44.34229" lon="1.12234">
        <ele>231.2</ele>
        <time>2016-05-15T17:27:21Z</time>
      </trkpt>
      <trkpt lat="44.34224" lon="1.12237">
        <ele>231.3</ele>
        <time>2016-05-15T17:27:24Z</time>
      </trkpt>
      <trkpt lat="44.34211" lon="1.12249">
        <ele>231.5</ele>
        <time>2016-05-15T17:27:32Z</time>
      </trkpt>
      <trkpt lat="44.34209" lon="1.1225">
        <ele>231.5</ele>
        <time>2016-05-15T17:27:33Z</time>
      </trkpt>
      <trkpt lat="44.34197" lon="1.1226">
        <ele>231.9</ele>
        <time>2016-05-15T17:27:40Z</time>
      </trkpt>
      <trkpt lat="44.34193" lon="1.12263">
        <ele>232</ele>
        <time>2016-05-15T17:27:42Z</time>
      </trkpt>
      <trkpt lat="44.34177" lon="1.12274">
        <ele>232.5</ele>
        <time>2016-05-15T17:27:51Z</time>
      </trkpt>
      <trkpt lat="44.34165" lon="1.12282">
        <ele>232.9</ele>
        <time>2016-05-15T17:27:58Z</time>
      </trkpt>
      <trkpt lat="44.34162" lon="1.12285">
        <ele>233</ele>
        <time>2016-05-15T17:28:00Z</time>
      </trkpt>
      <trkpt lat="44.34148" lon="1.12291">
        <ele>233.5</ele>
        <time>2016-05-15T17:28:08Z</time>
      </trkpt>
      <trkpt lat="44.34135" lon="1.12298">
        <ele>233.8</ele>
        <time>2016-05-15T17:28:15Z</time>
      </trkpt>
      <trkpt lat="44.34131" lon="1.12299">
        <ele>233.8</ele>
        <time>2016-05-15T17:28:17Z</time>
      </trkpt>
      <trkpt lat="44.3412" lon="1.12304">
        <ele>234.3</ele>
        <time>2016-05-15T17:28:23Z</time>
      </trkpt>
      <trkpt lat="44.34116" lon="1.12305">
        <ele>234.5</ele>
        <time>2016-05-15T17:28:25Z</time>
      </trkpt>
      <trkpt lat="44.34107" lon="1.12309">
        <ele>234.9</ele>
        <time>2016-05-15T17:28:30Z</time>
      </trkpt>
      <trkpt lat="44.34101" lon="1.1231">
        <ele>235.2</ele>
        <time>2016-05-15T17:28:33Z</time>
      </trkpt>
      <trkpt lat="44.34091" lon="1.12314">
        <ele>235.7</ele>
        <time>2016-05-15T17:28:38Z</time>
      </trkpt>
      <trkpt lat="44.34085" lon="1.12316">
        <ele>236.1</ele>
        <time>2016-05-15T17:28:41Z</time>
      </trkpt>
      <trkpt lat="44.34077" lon="1.12318">
        <ele>236.5</ele>
        <time>2016-05-15T17:28:45Z</time>
      </trkpt>
      <trkpt lat="44.3407" lon="1.12321">
        <ele>236.9</ele>
        <time>2016-05-15T17:28:49Z</time>
      </trkpt>
      <trkpt lat="44.34062" lon="1.12324">
        <ele>237.3</ele>
        <time>2016-05-15T17:28:53Z</time>
      </trkpt>
      <trkpt lat="44.34058" lon="1.12325">
        <ele>237.5</ele>
        <time>2016-05-15T17:28:55Z</time>
      </trkpt>
      <trkpt lat="44.3404" lon="1.12331">
        <ele>238.5</ele>
        <time>2016-05-15T17:29:04Z</time>
      </trkpt>
      <trkpt lat="44.34038" lon="1.12332">
        <ele>238.6</ele>
        <time>2016-05-15T17:29:05Z</time>
      </trkpt>
      <trkpt lat="44.3402" lon="1.12338">
        <ele>239.4</ele>
        <time>2016-05-15T17:29:14Z</time>
      </trkpt>
      <trkpt lat="44.34014" lon="1.12341">
        <ele>239.7</ele>
        <time>2016-05-15T17:29:18Z</time>
      </trkpt>
      <trkpt lat="44.34011" lon="1.12343">
        <ele>239.9</ele>
        <time>2016-05-15T17:29:20Z</time>
      </trkpt>
      <trkpt lat="44.33999" lon="1.12349">
        <ele>240.4</ele>
        <time>2016-05-15T17:29:26Z</time>
      </trkpt>
      <trkpt lat="44.33996" lon="1.1235">
        <ele>240.5</ele>
        <time>2016-05-15T17:29:27Z</time>
      </trkpt>
      <trkpt lat="44.33977" lon="1.12361">
        <ele>241.3</ele>
        <time>2016-05-15T17:29:34Z</time>
      </trkpt>
      <trkpt lat="44.33946" lon="1.12376">
        <ele>242.2</ele>
        <time>2016-05-15T17:29:45Z</time>
      </trkpt>
      <trkpt lat="44.33922" lon="1.12387">
        <ele>242.5</ele>
        <time>2016-05-15T17:29:54Z</time>
      </trkpt>
      <trkpt lat="44.33915" lon="1.12389">
        <ele>242.6</ele>
        <time>2016-05-15T17:29:57Z</time>
      </trkpt>
      <trkpt lat="44.33905" lon="1.12392">
        <ele>242.7</ele>
        <time>2016-05-15T17:30:02Z</time>
      </trkpt>
      <trkpt lat="44.33899" lon="1.12394">
        <ele>242.8</ele>
        <time>2016-05-15T17:30:08Z</time>
      </trkpt>
      <trkpt lat="44.33899" lon="1.12394">
        <ele>242.8</ele>
        <time>2016-05-15T17:30:09Z</time>
      </trkpt>
      <trkpt lat="44.33894" lon="1.12398">
        <ele>242.8</ele>
        <time>2016-05-15T17:32:02Z</time>
      </trkpt>
      <trkpt lat="44.33889" lon="1.124">
        <ele>242.9</ele>
        <time>2016-05-15T17:32:04Z</time>
      </trkpt>
      <trkpt lat="44.33869" lon="1.12405">
        <ele>242.7</ele>
        <time>2016-05-15T17:32:11Z</time>
      </trkpt>
      <trkpt lat="44.33848" lon="1.1241">
        <ele>241.7</ele>
        <time>2016-05-15T17:32:17Z</time>
      </trkpt>
      <trkpt lat="44.33844" lon="1.1241">
        <ele>241.6</ele>
        <time>2016-05-15T17:32:18Z</time>
      </trkpt>
      <trkpt lat="44.33813" lon="1.12414">
        <ele>240.1</ele>
        <time>2016-05-15T17:32:25Z</time>
      </trkpt>
      <trkpt lat="44.33803" lon="1.12416">
        <ele>239.6</ele>
        <time>2016-05-15T17:32:27Z</time>
      </trkpt>
      <trkpt lat="44.33782" lon="1.12423">
        <ele>238.1</ele>
        <time>2016-05-15T17:32:31Z</time>
      </trkpt>
      <trkpt lat="44.33777" lon="1.12426">
        <ele>237.6</ele>
        <time>2016-05-15T17:32:32Z</time>
      </trkpt>
      <trkpt lat="44.33754" lon="1.12442">
        <ele>235.3</ele>
        <time>2016-05-15T17:32:36Z</time>
      </trkpt>
      <trkpt lat="44.33747" lon="1.12446">
        <ele>234.6</ele>
        <time>2016-05-15T17:32:37Z</time>
      </trkpt>
      <trkpt lat="44.33732" lon="1.12457">
        <ele>233</ele>
        <time>2016-05-15T17:32:39Z</time>
      </trkpt>
      <trkpt lat="44.33715" lon="1.12469">
        <ele>231.4</ele>
        <time>2016-05-15T17:32:41Z</time>
      </trkpt>
      <trkpt lat="44.33707" lon="1.12475">
        <ele>230.5</ele>
        <time>2016-05-15T17:32:42Z</time>
      </trkpt>
      <trkpt lat="44.33697" lon="1.12482">
        <ele>229.5</ele>
        <time>2016-05-15T17:32:43Z</time>
      </trkpt>
      <trkpt lat="44.33679" lon="1.12498">
        <ele>227.9</ele>
        <time>2016-05-15T17:32:45Z</time>
      </trkpt>
      <trkpt lat="44.33671" lon="1.12507">
        <ele>227.3</ele>
        <time>2016-05-15T17:32:46Z</time>
      </trkpt>
      <trkpt lat="44.33663" lon="1.12516">
        <ele>226.7</ele>
        <time>2016-05-15T17:32:47Z</time>
      </trkpt>
      <trkpt lat="44.33656" lon="1.12526">
        <ele>226.4</ele>
        <time>2016-05-15T17:32:48Z</time>
      </trkpt>
      <trkpt lat="44.3365" lon="1.12535">
        <ele>226.2</ele>
        <time>2016-05-15T17:32:49Z</time>
      </trkpt>
      <trkpt lat="44.33643" lon="1.12557">
        <ele>226.2</ele>
        <time>2016-05-15T17:32:51Z</time>
      </trkpt>
      <trkpt lat="44.33641" lon="1.12568">
        <ele>226.4</ele>
        <time>2016-05-15T17:32:52Z</time>
      </trkpt>
      <trkpt lat="44.3364" lon="1.1258">
        <ele>226.5</ele>
        <time>2016-05-15T17:32:53Z</time>
      </trkpt>
      <trkpt lat="44.33636" lon="1.12599">
        <ele>226.8</ele>
        <time>2016-05-15T17:32:55Z</time>
      </trkpt>
      <trkpt lat="44.33633" lon="1.12607">
        <ele>226.9</ele>
        <time>2016-05-15T17:32:56Z</time>
      </trkpt>
      <trkpt lat="44.33631" lon="1.12613">
        <ele>226.9</ele>
        <time>2016-05-15T17:32:57Z</time>
      </trkpt>
      <trkpt lat="44.33626" lon="1.12621">
        <ele>227</ele>
        <time>2016-05-15T17:32:59Z</time>
      </trkpt>
      <trkpt lat="44.33616" lon="1.12621">
        <ele>227.2</ele>
        <time>2016-05-15T17:33:02Z</time>
      </trkpt>
      <trkpt lat="44.33602" lon="1.12595">
        <ele>227.4</ele>
        <time>2016-05-15T17:33:05Z</time>
      </trkpt>
      <trkpt lat="44.33599" lon="1.12588">
        <ele>227.5</ele>
        <time>2016-05-15T17:33:06Z</time>
      </trkpt>
      <trkpt lat="44.33596" lon="1.1258">
        <ele>227.6</ele>
        <time>2016-05-15T17:33:07Z</time>
      </trkpt>
      <trkpt lat="44.33592" lon="1.12574">
        <ele>227.7</ele>
        <time>2016-05-15T17:33:08Z</time>
      </trkpt>
      <trkpt lat="44.33573" lon="1.12564">
        <ele>228.8</ele>
        <time>2016-05-15T17:33:14Z</time>
      </trkpt>
      <trkpt lat="44.33551" lon="1.12565">
        <ele>230.1</ele>
        <time>2016-05-15T17:33:21Z</time>
      </trkpt>
      <trkpt lat="44.33531" lon="1.12573">
        <ele>231.1</ele>
        <time>2016-05-15T17:33:28Z</time>
      </trkpt>
      <trkpt lat="44.33529" lon="1.12574">
        <ele>231.2</ele>
        <time>2016-05-15T17:33:29Z</time>
      </trkpt>
      <trkpt lat="44.33515" lon="1.12579">
        <ele>231.9</ele>
        <time>2016-05-15T17:33:35Z</time>
      </trkpt>
      <trkpt lat="44.33511" lon="1.12581">
        <ele>232</ele>
        <time>2016-05-15T17:33:36Z</time>
      </trkpt>
      <trkpt lat="44.33506" lon="1.12582">
        <ele>232.2</ele>
        <time>2016-05-15T17:33:37Z</time>
      </trkpt>
      <trkpt lat="44.33496" lon="1.12585">
        <ele>232.7</ele>
        <time>2016-05-15T17:33:39Z</time>
      </trkpt>
      <trkpt lat="44.33488" lon="1.12588">
        <ele>233</ele>
        <time>2016-05-15T17:33:41Z</time>
      </trkpt>
      <trkpt lat="44.33476" lon="1.12592">
        <ele>233.5</ele>
        <time>2016-05-15T17:33:44Z</time>
      </trkpt>
      <trkpt lat="44.33473" lon="1.12593">
        <ele>233.7</ele>
        <time>2016-05-15T17:33:45Z</time>
      </trkpt>
      <trkpt lat="44.33457" lon="1.12598">
        <ele>234.4</ele>
        <time>2016-05-15T17:33:50Z</time>
      </trkpt>
      <trkpt lat="44.33455" lon="1.12599">
        <ele>234.4</ele>
        <time>2016-05-15T17:33:51Z</time>
      </trkpt>
      <trkpt lat="44.3344" lon="1.12608">
        <ele>234.7</ele>
        <time>2016-05-15T17:33:58Z</time>
      </trkpt>
      <trkpt lat="44.33427" lon="1.12614">
        <ele>235.1</ele>
        <time>2016-05-15T17:34:04Z</time>
      </trkpt>
      <trkpt lat="44.33424" lon="1.12615">
        <ele>235.2</ele>
        <time>2016-05-15T17:34:06Z</time>
      </trkpt>
      <trkpt lat="44.33422" lon="1.12615">
        <ele>235.3</ele>
        <time>2016-05-15T17:34:07Z</time>
      </trkpt>
      <trkpt lat="44.33417" lon="1.12612">
        <ele>235.4</ele>
        <time>2016-05-15T17:34:10Z</time>
      </trkpt>
      <trkpt lat="44.33412" lon="1.12613">
        <ele>235.6</ele>
        <time>2016-05-15T17:34:13Z</time>
      </trkpt>
      <trkpt lat="44.33403" lon="1.12612">
        <ele>235.8</ele>
        <time>2016-05-15T17:34:17Z</time>
      </trkpt>
      <trkpt lat="44.334" lon="1.1261">
        <ele>235.9</ele>
        <time>2016-05-15T17:34:18Z</time>
      </trkpt>
      <trkpt lat="44.3339" lon="1.12607">
        <ele>236.1</ele>
        <time>2016-05-15T17:34:22Z</time>
      </trkpt>
      <trkpt lat="44.33387" lon="1.12606">
        <ele>236.2</ele>
        <time>2016-05-15T17:34:24Z</time>
      </trkpt>
      <trkpt lat="44.33377" lon="1.12604">
        <ele>236.4</ele>
        <time>2016-05-15T17:34:29Z</time>
      </trkpt>
      <trkpt lat="44.33374" lon="1.12603">
        <ele>236.4</ele>
        <time>2016-05-15T17:34:31Z</time>
      </trkpt>
      <trkpt lat="44.33362" lon="1.12601">
        <ele>235.9</ele>
        <time>2016-05-15T17:34:37Z</time>
      </trkpt>
      <trkpt lat="44.33358" lon="1.126">
        <ele>235.7</ele>
        <time>2016-05-15T17:34:39Z</time>
      </trkpt>
      <trkpt lat="44.33348" lon="1.12598">
        <ele>235.2</ele>
        <time>2016-05-15T17:34:45Z</time>
      </trkpt>
      <trkpt lat="44.33347" lon="1.12598">
        <ele>235.1</ele>
        <time>2016-05-15T17:34:46Z</time>
      </trkpt>
      <trkpt lat="44.33336" lon="1.12596">
        <ele>234.5</ele>
        <time>2016-05-15T17:34:53Z</time>
      </trkpt>
      <trkpt lat="44.33333" lon="1.12595">
        <ele>234.4</ele>
        <time>2016-05-15T17:34:55Z</time>
      </trkpt>
      <trkpt lat="44.33326" lon="1.12592">
        <ele>234</ele>
        <time>2016-05-15T17:35:01Z</time>
      </trkpt>
      <trkpt lat="44.33323" lon="1.12591">
        <ele>233.8</ele>
        <time>2016-05-15T17:35:04Z</time>
      </trkpt>
      <trkpt lat="44.33322" lon="1.12591">
        <ele>233.7</ele>
        <time>2016-05-15T17:35:06Z</time>
      </trkpt>
      <trkpt lat="44.33326" lon="1.12588">
        <ele>233.8</ele>
        <time>2016-05-15T17:35:39Z</time>
      </trkpt>
      <trkpt lat="44.33326" lon="1.12588">
        <ele>233.9</ele>
        <time>2016-05-15T17:35:40Z</time>
      </trkpt>
      <trkpt lat="44.33322" lon="1.12585">
        <ele>233.5</ele>
        <time>2016-05-15T17:36:47Z</time>
      </trkpt>
      <trkpt lat="44.33317" lon="1.12577">
        <ele>233</ele>
        <time>2016-05-15T17:36:51Z</time>
      </trkpt>
      <trkpt lat="44.33312" lon="1.12569">
        <ele>232.4</ele>
        <time>2016-05-15T17:36:53Z</time>
      </trkpt>
      <trkpt lat="44.33304" lon="1.12558">
        <ele>231.5</ele>
        <time>2016-05-15T17:36:55Z</time>
      </trkpt>
      <trkpt lat="44.33288" lon="1.12534">
        <ele>229.9</ele>
        <time>2016-05-15T17:36:58Z</time>
      </trkpt>
      <trkpt lat="44.33281" lon="1.12525">
        <ele>229.9</ele>
        <time>2016-05-15T17:36:59Z</time>
      </trkpt>
      <trkpt lat="44.33274" lon="1.12516">
        <ele>230</ele>
        <time>2016-05-15T17:37:00Z</time>
      </trkpt>
      <trkpt lat="44.3326" lon="1.12495">
        <ele>230.3</ele>
        <time>2016-05-15T17:37:02Z</time>
      </trkpt>
      <trkpt lat="44.33254" lon="1.12483">
        <ele>230.6</ele>
        <time>2016-05-15T17:37:03Z</time>
      </trkpt>
      <trkpt lat="44.33249" lon="1.12471">
        <ele>230.9</ele>
        <time>2016-05-15T17:37:04Z</time>
      </trkpt>
      <trkpt lat="44.33235" lon="1.12437">
        <ele>232.1</ele>
        <time>2016-05-15T17:37:07Z</time>
      </trkpt>
      <trkpt lat="44.33225" lon="1.12411">
        <ele>233.5</ele>
        <time>2016-05-15T17:37:10Z</time>
      </trkpt>
      <trkpt lat="44.33222" lon="1.12404">
        <ele>233.9</ele>
        <time>2016-05-15T17:37:11Z</time>
      </trkpt>
      <trkpt lat="44.33217" lon="1.12398">
        <ele>234.4</ele>
        <time>2016-05-15T17:37:13Z</time>
      </trkpt>
      <trkpt lat="44.33218" lon="1.124">
        <ele>234.3</ele>
        <time>2016-05-15T17:37:16Z</time>
      </trkpt>
      <trkpt lat="44.33221" lon="1.12407">
        <ele>233.9</ele>
        <time>2016-05-15T17:37:24Z</time>
      </trkpt>
      <trkpt lat="44.33223" lon="1.1241">
        <ele>233.7</ele>
        <time>2016-05-15T17:37:25Z</time>
      </trkpt>
      <trkpt lat="44.3323" lon="1.12429">
        <ele>232.7</ele>
        <time>2016-05-15T17:37:29Z</time>
      </trkpt>
      <trkpt lat="44.33232" lon="1.12434">
        <ele>232.4</ele>
        <time>2016-05-15T17:37:30Z</time>
      </trkpt>
      <trkpt lat="44.3324" lon="1.12454">
        <ele>231.5</ele>
        <time>2016-05-15T17:37:33Z</time>
      </trkpt>
      <trkpt lat="44.33246" lon="1.12467">
        <ele>231.1</ele>
        <time>2016-05-15T17:37:35Z</time>
      </trkpt>
      <trkpt lat="44.33248" lon="1.1247">
        <ele>231</ele>
        <time>2016-05-15T17:37:37Z</time>
      </trkpt>
      <trkpt lat="44.33248" lon="1.1247">
        <ele>231</ele>
        <time>2016-05-15T17:37:38Z</time>
      </trkpt>
      <trkpt lat="44.33247" lon="1.12462">
        <ele>231.1</ele>
        <time>2016-05-15T17:38:15Z</time>
      </trkpt>
      <trkpt lat="44.33245" lon="1.12459">
        <ele>231.2</ele>
        <time>2016-05-15T17:38:17Z</time>
      </trkpt>
      <trkpt lat="44.33238" lon="1.12442">
        <ele>231.9</ele>
        <time>2016-05-15T17:38:22Z</time>
      </trkpt>
      <trkpt lat="44.33235" lon="1.12431">
        <ele>232.3</ele>
        <time>2016-05-15T17:38:25Z</time>
      </trkpt>
      <trkpt lat="44.33227" lon="1.12413">
        <ele>233.3</ele>
        <time>2016-05-15T17:38:30Z</time>
      </trkpt>
      <trkpt lat="44.33221" lon="1.12399">
        <ele>234.1</ele>
        <time>2016-05-15T17:38:34Z</time>
      </trkpt>
      <trkpt lat="44.33215" lon="1.12386">
        <ele>235</ele>
        <time>2016-05-15T17:38:37Z</time>
      </trkpt>
      <trkpt lat="44.33205" lon="1.12363">
        <ele>236.3</ele>
        <time>2016-05-15T17:38:42Z</time>
      </trkpt>
      <trkpt lat="44.33204" lon="1.12358">
        <ele>236.4</ele>
        <time>2016-05-15T17:38:43Z</time>
      </trkpt>
      <trkpt lat="44.33194" lon="1.12332">
        <ele>237.3</ele>
        <time>2016-05-15T17:38:49Z</time>
      </trkpt>
      <trkpt lat="44.33187" lon="1.12307">
        <ele>238</ele>
        <time>2016-05-15T17:38:55Z</time>
      </trkpt>
      <trkpt lat="44.33185" lon="1.12294">
        <ele>238.2</ele>
        <time>2016-05-15T17:38:58Z</time>
      </trkpt>
      <trkpt lat="44.3318" lon="1.12268">
        <ele>238.1</ele>
        <time>2016-05-15T17:39:04Z</time>
      </trkpt>
      <trkpt lat="44.33178" lon="1.1226">
        <ele>238.1</ele>
        <time>2016-05-15T17:39:06Z</time>
      </trkpt>
      <trkpt lat="44.33176" lon="1.1224">
        <ele>237.7</ele>
        <time>2016-05-15T17:39:10Z</time>
      </trkpt>
      <trkpt lat="44.33171" lon="1.12218">
        <ele>237.2</ele>
        <time>2016-05-15T17:39:15Z</time>
      </trkpt>
      <trkpt lat="44.33165" lon="1.12189">
        <ele>236.1</ele>
        <time>2016-05-15T17:39:22Z</time>
      </trkpt>
      <trkpt lat="44.33163" lon="1.12176">
        <ele>235.5</ele>
        <time>2016-05-15T17:39:25Z</time>
      </trkpt>
      <trkpt lat="44.33152" lon="1.1214">
        <ele>233.5</ele>
        <time>2016-05-15T17:39:34Z</time>
      </trkpt>
      <trkpt lat="44.33143" lon="1.12119">
        <ele>232.1</ele>
        <time>2016-05-15T17:39:41Z</time>
      </trkpt>
      <trkpt lat="44.33137" lon="1.12106">
        <ele>231.4</ele>
        <time>2016-05-15T17:39:46Z</time>
      </trkpt>
      <trkpt lat="44.33129" lon="1.12093">
        <ele>230.6</ele>
        <time>2016-05-15T17:39:52Z</time>
      </trkpt>
      <trkpt lat="44.33127" lon="1.1209">
        <ele>230.4</ele>
        <time>2016-05-15T17:39:53Z</time>
      </trkpt>
      <trkpt lat="44.33123" lon="1.1208">
        <ele>229.9</ele>
        <time>2016-05-15T17:39:58Z</time>
      </trkpt>
      <trkpt lat="44.33122" lon="1.12079">
        <ele>229.9</ele>
        <time>2016-05-15T17:39:59Z</time>
      </trkpt>
      <trkpt lat="44.3312" lon="1.12077">
        <ele>229.8</ele>
        <time>2016-05-15T17:40:01Z</time>
      </trkpt>
      <trkpt lat="44.33118" lon="1.12073">
        <ele>229.7</ele>
        <time>2016-05-15T17:40:04Z</time>
      </trkpt>
      <trkpt lat="44.33117" lon="1.12071">
        <ele>229.6</ele>
        <time>2016-05-15T17:40:05Z</time>
      </trkpt>
      <trkpt lat="44.33111" lon="1.12061">
        <ele>229.3</ele>
        <time>2016-05-15T17:40:09Z</time>
      </trkpt>
      <trkpt lat="44.33106" lon="1.12053">
        <ele>229.2</ele>
        <time>2016-05-15T17:40:12Z</time>
      </trkpt>
      <trkpt lat="44.331" lon="1.12047">
        <ele>229.1</ele>
        <time>2016-05-15T17:40:15Z</time>
      </trkpt>
      <trkpt lat="44.33098" lon="1.12045">
        <ele>229.1</ele>
        <time>2016-05-15T17:40:16Z</time>
      </trkpt>
      <trkpt lat="44.33095" lon="1.1204">
        <ele>229</ele>
        <time>2016-05-15T17:40:20Z</time>
      </trkpt>
      <trkpt lat="44.33089" lon="1.12034">
        <ele>228.9</ele>
        <time>2016-05-15T17:40:23Z</time>
      </trkpt>
      <trkpt lat="44.33087" lon="1.12031">
        <ele>228.8</ele>
        <time>2016-05-15T17:40:24Z</time>
      </trkpt>
      <trkpt lat="44.33079" lon="1.12023">
        <ele>228.7</ele>
        <time>2016-05-15T17:40:28Z</time>
      </trkpt>
      <trkpt lat="44.33075" lon="1.12019">
        <ele>228.6</ele>
        <time>2016-05-15T17:40:30Z</time>
      </trkpt>
      <trkpt lat="44.33068" lon="1.12007">
        <ele>228.3</ele>
        <time>2016-05-15T17:40:35Z</time>
      </trkpt>
      <trkpt lat="44.33068" lon="1.12002">
        <ele>228</ele>
        <time>2016-05-15T17:40:38Z</time>
      </trkpt>
      <trkpt lat="44.3307" lon="1.12002">
        <ele>227.9</ele>
        <time>2016-05-15T17:40:40Z</time>
      </trkpt>
      <trkpt lat="44.33074" lon="1.12002">
        <ele>227.8</ele>
        <time>2016-05-15T17:42:06Z</time>
      </trkpt>
      <trkpt lat="44.33076" lon="1.12003">
        <ele>227.7</ele>
        <time>2016-05-15T17:42:07Z</time>
      </trkpt>
      <trkpt lat="44.33077" lon="1.12004">
        <ele>227.7</ele>
        <time>2016-05-15T17:42:08Z</time>
      </trkpt>
      <trkpt lat="44.33083" lon="1.12008">
        <ele>227.7</ele>
        <time>2016-05-15T17:42:12Z</time>
      </trkpt>
      <trkpt lat="44.33083" lon="1.12009">
        <ele>227.8</ele>
        <time>2016-05-15T17:42:18Z</time>
      </trkpt>
    </trkseg>
  </trk>
</gpx>